# Wetter Temperatur Luftdruck Luftfeuchtigkeit Sichtweite Windgeschwindigkeit Windrichtung Zeit
1 Clear 17 1015 44 10000 5 220 12:29 22.04.2021
2 Clear 17 1015 44 10000 7 220 11:49 22.04.2021
3 Clear 17 1015 48 10000 6 230 11:25 22.04.2021
4 Clouds 17 1016 51 10000 6 240 10:46 22.04.2021
5 Clear 16 1016 55 10000 4 210 10:27 22.04.2021
6 Clear 14 1016 54 10000 3 210 09:58 22.04.2021
7 Clear 13 1016 62 10000 3 210 09:31 22.04.2021
8 Clear 12 1016 66 10000 3 210 08:45 22.04.2021
9 Clear 11 1016 71 10000 3 220 08:23 22.04.2021
10 Clear 10 1016 76 10000 2 230 07:46 22.04.2021
11 Clear 9 1016 76 10000 2 230 07:27 22.04.2021
12 Clear 7 1015 87 10000 2 220 06:40 22.04.2021
13 Clear 7 1015 93 10000 2 250 05:50 22.04.2021
14 Clear 6 1015 93 10000 2 240 05:20 22.04.2021
15 Clear 8 1014 81 10000 3 220 01:39 22.04.2021
16 Clear 8 1014 87 10000 2 240 23:54 21.04.2021
17 Clear 8 1014 87 10000 1 240 23:34 21.04.2021
18 Clear 9 1013 81 10000 2 220 22:44 21.04.2021
19 Clear 8 1013 81 10000 2 220 22:24 21.04.2021
20 Clear 9 1013 76 10000 3 250 21:50 21.04.2021
21 Clear 9 1013 81 10000 2 220 21:25 21.04.2021
22 Clear 9 1013 81 10000 2 220 20:59 21.04.2021
23 Clouds 9 1013 76 10000 2 210 20:21 21.04.2021
24 Clear 9 1012 76 10000 2 240 19:45 21.04.2021
25 Clear 10 1012 71 10000 2 240 19:25 21.04.2021
26 Clear 10 1012 71 10000 2 240 18:49 21.04.2021
27 Clear 11 1012 76 10000 1 230 18:30 21.04.2021
28 Clear 12 1012 71 10000 2 310 17:49 21.04.2021
29 Clouds 11 1012 76 10000 6 320 17:25 21.04.2021
30 Clouds 12 1012 62 10000 6 260 16:57 21.04.2021
31 Clear 14 1011 54 10000 4 260 16:30 21.04.2021
32 Clear 13 1011 54 10000 6 280 15:42 21.04.2021
33 Clear 13 1011 54 10000 6 280 15:42 21.04.2021
34 Clouds 13 1011 58 10000 5 270 15:18 21.04.2021
35 Clouds 13 1011 58 10000 5 270 14:44 21.04.2021
36 Clouds 13 1011 58 10000 5 280 14:23 21.04.2021
37 Clouds 13 1011 62 10000 4 270 13:45 21.04.2021
38 Clouds 12 1011 62 10000 4 270 13:21 21.04.2021
39 Clear 13 1011 71 10000 2 310 12:32 21.04.2021
40 Clear 11 1011 76 10000 1 0 11:58 21.04.2021
41 Clouds 9 1011 76 9000 4 290 11:39 21.04.2021
42 Clouds 10 1011 76 9000 4 290 11:21 21.04.2021
43 Clear 10 1011 71 10000 4 290 10:36 21.04.2021
44 Clouds 9 1011 71 10000 4 280 09:56 21.04.2021
45 Clouds 9 1011 81 10000 4 280 09:20 21.04.2021
46 Clouds 8 1010 87 10000 3 280 08:41 21.04.2021
47 Clouds 8 1010 87 10000 3 280 08:22 21.04.2021
48 Clear 7 1010 93 10000 3 280 07:32 21.04.2021
49 Clouds 6 1010 93 10000 4 290 06:59 21.04.2021
50 Clouds 6 1009 93 10000 3 260 05:26 21.04.2021
51 Clear 7 1008 87 10000 4 300 01:33 21.04.2021
52 Clouds 8 1008 81 10000 3 300 23:51 20.04.2021
53 Clouds 8 1008 81 10000 3 300 23:31 20.04.2021
54 Clear 8 1008 76 10000 2 360 22:41 20.04.2021
55 Clear 8 1008 76 10000 2 360 22:22 20.04.2021
56 Clear 8 1008 76 10000 2 360 21:47 20.04.2021
57 Clouds 8 1008 81 10000 3 30 21:26 20.04.2021
58 Clouds 9 1008 76 10000 3 10 20:57 20.04.2021
59 Clouds 9 1008 71 10000 3 10 20:38 20.04.2021
60 Clouds 9 1008 71 10000 4 10 20:18 20.04.2021
61 Clouds 9 1008 71 10000 4 10 19:42 20.04.2021
62 Clouds 9 1008 71 10000 4 10 19:24 20.04.2021
63 Clear 10 1008 66 10000 4 10 18:36 20.04.2021
64 Clear 11 1008 66 10000 5 10 17:55 20.04.2021
65 Clouds 11 1008 66 10000 4 20 17:37 20.04.2021
66 Clouds 11 1008 62 10000 4 10 16:50 20.04.2021
67 Clouds 12 1008 62 10000 4 10 15:53 20.04.2021
68 Clouds 12 1008 62 10000 4 10 15:29 20.04.2021
69 Clouds 12 1008 62 10000 5 20 14:58 20.04.2021
70 Clouds 12 1009 66 10000 5 10 14:35 20.04.2021
71 Clouds 12 1009 62 10000 6 40 13:52 20.04.2021
72 Clouds 11 1009 66 10000 4 20 13:22 20.04.2021
73 Clouds 11 1009 66 10000 6 20 12:44 20.04.2021
74 Clouds 12 1009 66 10000 7 20 12:20 20.04.2021
75 Clouds 11 1009 66 10000 6 20 11:44 20.04.2021
76 Clouds 11 1009 66 10000 6 20 11:44 20.04.2021
77 Clouds 11 1010 71 10000 6 20 11:21 20.04.2021
78 Clouds 11 1010 71 10000 5 10 10:43 20.04.2021
79 Clouds 11 1010 71 10000 5 10 10:43 20.04.2021
80 Clouds 10 1010 76 10000 5 20 10:23 20.04.2021
81 Clouds 8 1010 81 10000 4 10 09:36 20.04.2021
82 Clear 8 1010 81 10000 3 20 08:56 20.04.2021
83 Clear 7 1011 87 10000 3 350 08:22 20.04.2021
84 Clear 7 1011 93 10000 2 20 07:47 20.04.2021
85 Clear 8 1011 87 10000 2 40 06:45 20.04.2021
86 Clear 6 1011 93 10000 2 30 05:38 20.04.2021
87 Clear 6 1011 93 10000 1 0 04:41 20.04.2021
88 Clouds 7 1013 93 10000 2.38 17 01:48 20.04.2021
89 Clouds 8 1014 81 9000 1 120 00:37 20.04.2021
90 Clear 9 1014 76 10000 2 80 23:36 19.04.2021
91 Clear 8 1014 76 10000 3 60 22:57 19.04.2021
92 Clear 9 1015 76 10000 2 70 22:33 19.04.2021
93 Clear 9 1015 76 10000 2 60 21:50 19.04.2021
94 Clear 9 1015 76 10000 3 40 21:28 19.04.2021
95 Clear 10 1015 71 10000 3 70 20:46 19.04.2021
96 Clear 10 1015 71 10000 3 70 20:25 19.04.2021
97 Clouds 10 1015 71 10000 3 80 20:01 19.04.2021
98 Clouds 10 1015 62 10000 3 70 19:40 19.04.2021
99 Clouds 11 1015 62 10000 3 50 19:21 19.04.2021
100 Clouds 11 1015 62 10000 3 50 18:45 19.04.2021
101 Clear 11 1015 66 10000 3 30 18:21 19.04.2021
102 Clear 12 1015 66 10000 3 50 17:50 19.04.2021
103 Clear 12 1015 66 10000 3 50 17:27 19.04.2021
104 Clear 12 1015 66 10000 3 30 16:49 19.04.2021
105 Clouds 12 1015 66 9000 5 50 16:31 19.04.2021
106 Clear 13 1015 54 10000 4 60 15:44 19.04.2021
107 Clear 13 1016 54 10000 6 30 15:25 19.04.2021
108 Clear 13 1016 54 10000 6 30 14:52 19.04.2021
109 Clear 13 1016 54 10000 4 50 14:34 19.04.2021
110 Clear 13 1016 54 10000 4 30 13:53 19.04.2021
111 Clouds 13 1016 54 10000 5 40 13:30 19.04.2021
112 Clouds 13 1016 58 10000 5 60 12:55 19.04.2021
113 Clouds 13 1016 58 10000 5 40 12:36 19.04.2021
114 Clouds 13 1016 58 10000 4 50 12:18 19.04.2021
115 Clouds 13 1016 58 10000 4 50 11:43 19.04.2021
116 Clouds 12 1016 58 10000 5 50 11:20 19.04.2021
117 Clouds 12 1016 58 10000 4 10 10:44 19.04.2021
118 Clear 11 1016 62 10000 3 40 10:19 19.04.2021
119 Clear 10 1016 66 10000 2 10 09:42 19.04.2021
120 Clear 10 1016 66 10000 2 10 09:23 19.04.2021
121 Clouds 9 1017 71 10000 3 350 08:34 19.04.2021
122 Clear 7 1017 93 10000 1 0 07:50 19.04.2021
123 Clear 6 1017 93 10000 1 0 07:21 19.04.2021
124 Clouds 5 1017 100 7000 1.79 48 06:47 19.04.2021
125 Fog 2 1017 100 1100 1.85 41 04:40 19.04.2021
126 Clouds 3 1017 100 7000 1.3 58 01:49 19.04.2021
127 Clouds 4 1018 100 6000 0.98 81 00:41 19.04.2021
128 Clear 5 1017 93 10000 1.98 81 23:21 18.04.2021
129 Clear 5 1017 93 10000 1.98 81 22:58 18.04.2021
130 Clear 5 1018 93 10000 1 0 22:31 18.04.2021
131 Clear 6 1017 87 10000 2 80 21:53 18.04.2021
132 Clear 6 1018 81 10000 3 50 21:28 18.04.2021
133 Clouds 7 1018 81 10000 3 70 20:43 18.04.2021
134 Clear 8 1017 76 10000 4 50 20:25 18.04.2021
135 Clear 8 1017 76 10000 4 50 19:56 18.04.2021
136 Clear 9 1017 76 10000 4 50 19:37 18.04.2021
137 Clear 9 1017 71 10000 5 40 19:18 18.04.2021
138 Clouds 10 1016 71 10000 5 40 18:39 18.04.2021
139 Clouds 10 1016 71 10000 5 40 18:21 18.04.2021
140 Clouds 11 1016 71 10000 4 40 17:45 18.04.2021
141 Clouds 11 1016 71 10000 4 40 17:26 18.04.2021
142 Clouds 11 1016 71 10000 4 20 16:45 18.04.2021
143 Clouds 12 1016 71 10000 4 10 16:23 18.04.2021
144 Clouds 11 1016 76 10000 3 330 15:43 18.04.2021
145 Clouds 11 1016 76 10000 3 330 15:24 18.04.2021
146 Clouds 10 1016 81 10000 2 320 14:45 18.04.2021
147 Clouds 10 1016 87 10000 1 0 14:20 18.04.2021
148 Clouds 9 1016 87 10000 3 320 13:54 18.04.2021
149 Clouds 9 1016 87 10000 3 320 13:33 18.04.2021
150 Clouds 9 1016 87 10000 4 300 12:50 18.04.2021
151 Clouds 9 1015 87 10000 5 290 12:24 18.04.2021
152 Clouds 8 1015 87 10000 4 280 11:41 18.04.2021
153 Clouds 8 1015 87 10000 4 280 11:20 18.04.2021
154 Clouds 8 1015 87 10000 5 260 10:47 18.04.2021
155 Clouds 8 1015 87 10000 5 260 10:22 18.04.2021
156 Clouds 7 1016 93 10000 5 260 09:47 18.04.2021
157 Clouds 7 986 87 10000 3.53 262 09:28 18.04.2021
158 Clouds 7 1016 93 10000 5 260 08:56 18.04.2021
159 Clouds 6 1016 100 9000 5 260 08:34 18.04.2021
160 Clouds 6 1016 100 9000 4 250 07:55 18.04.2021
161 Clouds 6 1016 100 9000 4 250 07:55 18.04.2021
162 Clouds 5 1016 100 8000 4 260 07:36 18.04.2021
163 Mist 5 1016 100 2800 4 290 05:40 18.04.2021
164 Mist 5 1016 100 2800 4 290 05:22 18.04.2021
165 Fog 4 1017 100 500 2 240 02:25 18.04.2021
166 Fog 4 1018 100 350 2 240 01:41 18.04.2021
167 Fog 4 1018 100 550 1 0 00:29 18.04.2021
168 Fog 4 1018 100 250 2.45 248 23:30 17.04.2021
169 Fog 5 1018 100 350 1 260 22:50 17.04.2021
170 Mist 5 1018 100 2900 2 230 22:30 17.04.2021
171 Mist 5 1018 100 2900 2 230 22:30 17.04.2021
172 Mist 5 1018 100 4400 2 270 21:46 17.04.2021
173 Clouds 5 1018 100 6000 2 240 21:28 17.04.2021
174 Clouds 6 1018 100 6000 2 250 20:43 17.04.2021
175 Clouds 6 1018 100 6000 2 250 20:24 17.04.2021
176 Clouds 7 1018 93 7000 2 260 19:43 17.04.2021
177 Clouds 7 1018 93 9000 1 290 19:20 17.04.2021
178 Clouds 7 1018 93 9000 1 290 19:20 17.04.2021
179 Clouds 7 1018 93 9000 2 280 18:53 17.04.2021
180 Clouds 7 1018 93 7000 2 240 18:25 17.04.2021
181 Clouds 7 1018 93 7000 2 240 17:48 17.04.2021
182 Clouds 7 1018 93 5000 2 290 17:29 17.04.2021
183 Clouds 7 1018 93 10000 2.23 256 16:41 17.04.2021
184 Clouds 7 1018 93 10000 2.23 256 16:23 17.04.2021
185 Clouds 7 1018 93 10000 1 0 15:23 17.04.2021
186 Clouds 7 1018 93 10000 2 220 14:44 17.04.2021
187 Clouds 7 1018 93 10000 1 0 14:20 17.04.2021
188 Clouds 7 1017 93 6000 1 0 13:44 17.04.2021
189 Clouds 7 1017 93 9000 2 70 12:55 17.04.2021
190 Clouds 7 1017 93 10000 2 80 12:34 17.04.2021
191 Clouds 7 1017 87 10000 2 70 11:52 17.04.2021
192 Clouds 7 1017 87 10000 2 80 11:33 17.04.2021
193 Clouds 7 1017 87 10000 2 80 11:33 17.04.2021
194 Clouds 7 1017 87 10000 2 50 10:56 17.04.2021
195 Clouds 7 1017 87 10000 1 0 10:38 17.04.2021
196 Clouds 6 1016 93 10000 1 0 09:51 17.04.2021
197 Clouds 6 1016 93 6000 3 240 08:54 17.04.2021
198 Clouds 5 1016 93 9000 2 230 08:33 17.04.2021
199 Clouds 5 1016 100 8000 2 240 07:51 17.04.2021
200 Mist 5 1015 100 3200 1 0 06:26 17.04.2021
201 Drizzle 5 1014 100 6000 3 120 03:47 17.04.2021
202 Clouds 7 1013 93 8000 3 290 00:58 17.04.2021
203 Rain 7 1013 93 6000 2 290 00:37 17.04.2021
204 Rain 7 1013 93 7000 3 290 00:18 17.04.2021
205 Clouds 7 1013 93 8000 4 290 23:34 16.04.2021
206 Clouds 7 1012 93 9000 3 270 22:52 16.04.2021
207 Clouds 7 1012 100 8000 3 280 22:24 16.04.2021
208 Clouds 7 1012 100 4900 2 260 21:57 16.04.2021
209 Rain 7 1012 100 4700 4 270 21:39 16.04.2021
210 Rain 7 1012 100 4700 4 270 21:39 16.04.2021
211 Rain 8 1012 100 4500 2 210 20:56 16.04.2021
212 Rain 8 1012 100 5000 1 0 20:37 16.04.2021
213 Rain 8 1012 93 5000 1 0 19:58 16.04.2021
214 Rain 8 1012 93 5000 1 0 19:58 16.04.2021
215 Rain 8 1011 100 5000 2.75 270 19:40 16.04.2021
216 Rain 8 1011 100 5000 1.96 277 19:19 16.04.2021
217 Rain 8 1011 100 8000 1 0 18:27 16.04.2021
218 Rain 8 1011 100 6000 1 80 17:49 16.04.2021
219 Rain 9 1011 87 9000 1 0 17:20 16.04.2021
220 Rain 9 1011 87 10000 3 350 16:45 16.04.2021
221 Rain 9 1011 87 10000 3 320 16:26 16.04.2021
222 Clouds 9 1011 81 10000 3 310 15:55 16.04.2021
223 Clouds 9 1011 81 10000 2 310 15:29 16.04.2021
224 Clouds 9 1011 81 10000 2 270 14:44 16.04.2021
225 Clouds 9 1011 87 10000 3 290 14:23 16.04.2021
226 Clouds 9 1011 87 10000 3 270 13:55 16.04.2021
227 Rain 9 1011 87 10000 3 280 13:22 16.04.2021
228 Rain 9 1011 93 8000 3 280 12:53 16.04.2021
229 Rain 9 1011 87 10000 2 270 12:34 16.04.2021
230 Rain 9 1011 93 10000 2 260 11:59 16.04.2021
231 Rain 9 1011 87 10000 2 250 11:39 16.04.2021
232 Rain 9 1011 87 10000 2 250 11:20 16.04.2021
233 Clouds 9 1010 87 10000 2 260 10:40 16.04.2021
234 Rain 8 1010 87 10000 2 260 10:20 16.04.2021
235 Clouds 8 1010 87 10000 2 290 09:44 16.04.2021
236 Clouds 8 1010 87 10000 2 290 09:21 16.04.2021
237 Rain 8 1010 93 10000 3 260 08:42 16.04.2021
238 Clouds 8 1010 93 10000 3 260 08:18 16.04.2021
239 Rain 8 1010 87 10000 3 290 07:41 16.04.2021
240 Clouds 8 1010 93 10000 3 300 06:59 16.04.2021
241 Clouds 7 1010 93 10000 4 310 06:35 16.04.2021
242 Clouds 7 1010 93 10000 3 300 05:31 16.04.2021
243 Clouds 8 1010 93 10000 3 310 01:40 16.04.2021
244 Clouds 9 1010 87 10000 2 310 00:44 16.04.2021
245 Clouds 9 1010 87 10000 2 290 00:20 16.04.2021
246 Clouds 9 1010 87 10000 2 290 23:51 15.04.2021
247 Clear 9 1010 87 10000 2 290 23:27 15.04.2021
248 Clear 9 1011 87 10000 2 290 22:47 15.04.2021
249 Clouds 9 1011 87 10000 2 320 22:23 15.04.2021
250 Clouds 9 1011 87 10000 2 320 21:43 15.04.2021
251 Clouds 9 1011 87 10000 2 320 21:24 15.04.2021
252 Clear 10 1011 87 10000 4 300 20:47 15.04.2021
253 Clouds 10 1011 87 10000 2 300 20:25 15.04.2021
254 Clear 10 1011 81 10000 3 300 19:47 15.04.2021
255 Clear 11 1010 76 10000 3 290 19:28 15.04.2021
256 Clear 11 1010 76 10000 3 290 18:59 15.04.2021
257 Clear 11 1010 76 10000 3 290 18:37 15.04.2021
258 Clear 12 1010 71 10000 3 300 18:18 15.04.2021
259 Clouds 12 1010 66 10000 4 290 17:44 15.04.2021
260 Clouds 12 1010 66 10000 4 290 17:24 15.04.2021
261 Clouds 13 1010 58 10000 1 0 16:43 15.04.2021
262 Clouds 14 1010 58 10000 1 0 16:24 15.04.2021
263 Clouds 14 1010 58 10000 1 0 15:47 15.04.2021
264 Clouds 13 1010 67 10000 2 280 15:27 15.04.2021
265 Rain 13 1011 66 6000 2 150 14:43 15.04.2021
266 Rain 13 1011 66 6000 2 150 14:25 15.04.2021
267 Rain 14 1010 51 10000 2 290 13:48 15.04.2021
268 Clouds 14 1011 51 10000 1 0 13:23 15.04.2021
269 Clouds 14 1011 54 10000 2 350 12:49 15.04.2021
270 Clouds 14 1011 54 10000 2 280 12:26 15.04.2021
271 Clouds 14 1011 54 10000 2 270 11:48 15.04.2021
272 Clouds 14 1011 54 10000 2 270 11:27 15.04.2021
273 Clouds 14 1011 54 10000 2 270 11:27 15.04.2021
274 Clear 13 1011 58 10000 1 0 10:58 15.04.2021
275 Clear 13 1011 58 10000 1 0 10:39 15.04.2021
276 Clear 13 1011 62 10000 3 240 10:20 15.04.2021
277 Clear 12 1011 71 10000 2 250 09:30 15.04.2021
278 Clear 11 1011 76 10000 2 230 08:52 15.04.2021
279 Clouds 11 1011 76 9000 1 0 08:30 15.04.2021
280 Clear 10 1011 87 10000 1 0 07:36 15.04.2021
281 Clear 9 1011 81 10000 1 230 06:56 15.04.2021
282 Clear 9 1011 81 10000 1 260 06:35 15.04.2021
283 Clear 8 1011 87 10000 2 210 04:54 15.04.2021
284 Clear 8 1011 81 10000 2 220 03:58 15.04.2021
285 Clear 10 1012 66 10000 2 220 23:51 14.04.2021
286 Clear 10 1013 66 10000 2 240 23:30 14.04.2021
287 Clear 12 1013 58 10000 3 230 22:47 14.04.2021
288 Clear 12 1013 58 10000 3 230 22:29 14.04.2021
289 Clear 12 1013 58 10000 2 210 21:56 14.04.2021
290 Clear 12 1013 58 10000 2 210 21:37 14.04.2021
291 Clear 12 1013 58 10000 2 190 21:18 14.04.2021
292 Clear 13 1013 54 10000 2 200 20:37 14.04.2021
293 Clear 13 1013 54 10000 2 190 20:19 14.04.2021
294 Clear 13 1013 54 10000 3 200 19:39 14.04.2021
295 Clear 13 1013 51 10000 3 200 19:18 14.04.2021
296 Clear 14 1013 51 10000 3 200 18:50 14.04.2021
297 Clear 14 1013 41 10000 2 130 18:19 14.04.2021
298 Clear 15 1013 41 10000 2 130 17:55 14.04.2021
299 Clear 15 1013 41 10000 2 150 17:24 14.04.2021
300 Clear 16 1013 39 10000 2 140 16:43 14.04.2021
301 Clear 16 1013 39 10000 2 140 16:22 14.04.2021
302 Clear 16 1013 41 10000 3 140 15:40 14.04.2021
303 Clear 16 1013 39 10000 3 130 15:22 14.04.2021
304 Clear 16 1013 39 10000 3 140 14:42 14.04.2021
305 Clear 16 1013 39 10000 3 140 14:22 14.04.2021
306 Clear 16 1014 47 10000 3 90 13:48 14.04.2021
307 Clear 16 1014 47 10000 3 190 12:54 14.04.2021
308 Clear 15 1014 51 10000 3 200 12:32 14.04.2021
309 Clear 13 1015 54 10000 3 140 11:42 14.04.2021
310 Clear 13 1015 54 10000 3 140 11:23 14.04.2021
311 Clear 12 1015 62 10000 3 130 10:35 14.04.2021
312 Clear 11 1015 66 10000 2 130 09:57 14.04.2021
313 Clear 11 1015 66 10000 2 130 09:57 14.04.2021
314 Clear 10 1015 66 10000 2 130 09:38 14.04.2021
315 Clear 9 1015 66 10000 2 130 09:18 14.04.2021
316 Clear 9 1015 66 10000 2 140 08:33 14.04.2021
317 Clear 8 1015 71 10000 3 150 07:51 14.04.2021
318 Clouds 8 1015 81 10000 2 130 06:39 14.04.2021
319 Clear 8 1015 87 10000 2 140 05:52 14.04.2021
320 Clouds 9 1015 87 10000 3 170 03:44 14.04.2021
321 Clouds 9 1016 93 7000 3 120 01:28 14.04.2021
322 Clouds 9 1016 93 7000 3 130 00:34 14.04.2021
323 Mist 8 1016 100 5000 2 90 23:39 13.04.2021
324 Mist 9 1017 100 4800 2 100 22:55 13.04.2021
325 Mist 9 1017 93 4200 2 100 22:37 13.04.2021
326 Mist 9 1017 93 4200 2 100 22:18 13.04.2021
327 Mist 9 1017 93 4300 2 120 21:40 13.04.2021
328 Mist 9 1017 93 4300 2 120 21:20 13.04.2021
329 Mist 9 1017 93 5000 2 130 20:39 13.04.2021
330 Mist 9 1017 93 5000 2 130 20:20 13.04.2021
331 Clouds 9 1017 93 6000 2 120 19:27 13.04.2021
332 Clouds 9 1017 93 6000 2 120 19:27 13.04.2021
333 Drizzle 9 1017 93 5000 2 130 18:58 13.04.2021
334 Drizzle 9 1017 93 3700 2 140 18:35 13.04.2021
335 Drizzle 9 1018 93 3500 2 140 17:45 13.04.2021
336 Drizzle 9 1018 93 3300 2 130 17:23 13.04.2021
337 Drizzle 9 1018 93 3500 2 140 16:57 13.04.2021
338 Drizzle 10 1018 93 5000 2 150 16:38 13.04.2021
339 Drizzle 10 1018 87 6000 4 130 16:19 13.04.2021
340 Clouds 11 1018 81 7000 3 130 15:39 13.04.2021
341 Clouds 11 1018 76 10000 4 120 14:59 13.04.2021
342 Clouds 11 1018 76 10000 3 110 14:38 13.04.2021
343 Clouds 11 1018 76 10000 3 110 14:18 13.04.2021
344 Clouds 12 1019 76 10000 3 110 13:41 13.04.2021
345 Clouds 12 1019 76 10000 3 110 13:22 13.04.2021
346 Clouds 12 1019 76 10000 4 110 12:52 13.04.2021
347 Clouds 11 1019 76 9000 3 120 12:23 13.04.2021
348 Clouds 11 1019 81 8000 3 100 11:40 13.04.2021
349 Clouds 10 1019 81 7000 3 100 11:18 13.04.2021
350 Clouds 10 1019 81 8000 2 90 10:41 13.04.2021
351 Clouds 10 1019 87 7000 1 0 10:20 13.04.2021
352 Clouds 10 1019 87 6000 1 0 09:52 13.04.2021
353 Clouds 9 1019 81 7000 1 0 09:27 13.04.2021
354 Clouds 9 1019 81 9000 1 0 08:49 13.04.2021
355 Clouds 9 1019 76 9000 2 140 08:24 13.04.2021
356 Clouds 8 1019 81 9000 1 0 07:51 13.04.2021
357 Clouds 8 1019 81 10000 2 100 07:29 13.04.2021
358 Clouds 8 1019 81 10000 2 90 06:27 13.04.2021
359 Clouds 8 1019 81 10000 2 130 03:44 13.04.2021
360 Clouds 8 1020 81 10000 1 0 01:35 13.04.2021
361 Clouds 9 1020 76 10000 1 120 23:55 12.04.2021
362 Clouds 9 1020 71 10000 1 140 23:33 12.04.2021
363 Clouds 9 1020 71 10000 2 140 22:55 12.04.2021
364 Clear 9 1020 71 10000 2 130 22:36 12.04.2021
365 Clear 9 1020 71 10000 2 120 21:49 12.04.2021
366 Clear 9 1020 71 10000 2 120 21:25 12.04.2021
367 Clear 9 1020 71 10000 3 100 20:59 12.04.2021
368 Clear 9 1020 71 10000 2 100 20:36 12.04.2021
369 Clear 9 1020 71 10000 2 100 20:18 12.04.2021
370 Clouds 10 1020 66 10000 3 110 19:40 12.04.2021
371 Clouds 10 1020 66 10000 3 110 19:21 12.04.2021
372 Clouds 10 1020 66 10000 3 100 18:51 12.04.2021
373 Clouds 11 1020 62 10000 4 80 18:33 12.04.2021
374 Clouds 11 1020 62 10000 5 80 17:59 12.04.2021
375 Clouds 11 1020 66 10000 4 70 17:41 12.04.2021
376 Clouds 11 1020 71 10000 3 40 17:19 12.04.2021
377 Clouds 10 1020 71 10000 4 50 16:41 12.04.2021
378 Clouds 11 1020 71 10000 4 50 16:23 12.04.2021
379 Clouds 11 1021 76 10000 3 30 15:45 12.04.2021
380 Clouds 10 1021 76 10000 3 60 14:59 12.04.2021
381 Clouds 10 1021 76 10000 5 90 14:40 12.04.2021
382 Clouds 11 1021 76 10000 5 90 14:22 12.04.2021
383 Rain 12 1021 47 10000 4 50 13:41 12.04.2021
384 Rain 12 1021 47 10000 4 50 13:19 12.04.2021
385 Rain 14 1021 38 10000 4 50 12:44 12.04.2021
386 Clear 14 1021 38 10000 4 50 12:23 12.04.2021
387 Clear 14 1022 38 10000 3 40 11:43 12.04.2021
388 Clear 14 1022 38 10000 4 40 10:51 12.04.2021
389 Clear 13 1022 38 10000 4 30 10:28 12.04.2021
390 Clear 14 1023 38 10000 4 20 09:53 12.04.2021
391 Clear 12 1023 40 10000 3 30 09:31 12.04.2021
392 Clear 12 1023 43 10000 3 50 08:54 12.04.2021
393 Clear 10 1023 53 10000 2 50 07:58 12.04.2021
394 Clear 8 1024 65 10000 2 50 07:30 12.04.2021
395 Clear 6 1024 75 10000 2 80 06:40 12.04.2021
396 Clear 6 1024 64 10000 2 90 05:48 12.04.2021
397 Clear 6 1025 64 10000 1 0 03:19 12.04.2021
398 Clear 8 1026 52 10000 2 90 00:30 12.04.2021
399 Clear 9 1026 45 10000 3 80 23:56 11.04.2021
400 Clear 8 1026 60 10000 1 100 23:38 11.04.2021
401 Clear 8 1026 60 9000 1 0 23:19 11.04.2021
402 Clear 9 1026 52 9000 2 90 22:38 11.04.2021
403 Clear 9 1026 56 9000 1 0 22:19 11.04.2021
404 Clear 10 1026 46 10000 2 90 21:42 11.04.2021
405 Clear 10 1026 46 10000 2 90 21:24 11.04.2021
406 Clear 10 1026 30 10000 2 110 20:46 11.04.2021
407 Clear 11 1026 30 10000 2 110 20:25 11.04.2021
408 Clear 10 1026 34 10000 1 70 19:43 11.04.2021
409 Clear 13 1025 26 10000 2 120 19:21 11.04.2021
410 Clear 13 1025 26 10000 2 120 18:58 11.04.2021
411 Clear 14 1025 25 10000 2 120 18:40 11.04.2021
412 Clear 15 1025 23 10000 2 130 18:20 11.04.2021
413 Clear 16 1025 25 10000 2 120 17:41 11.04.2021
414 Clear 16 1026 23 10000 2 130 17:22 11.04.2021
415 Clear 16 1026 25 10000 4 90 16:42 11.04.2021
416 Clear 16 1026 25 10000 4 90 16:21 11.04.2021
417 Clear 16 1026 25 10000 4 110 15:46 11.04.2021
418 Clear 16 1026 21 10000 4 90 15:46 11.04.2021
419 Clear 16 1026 21 10000 4 90 15:46 11.04.2021
420 Clear 16 1026 21 10000 4 90 15:26 11.04.2021
421 Clear 16 1026 23 10000 3 60 14:51 11.04.2021
422 Clear 16 1026 20 10000 3 80 14:24 11.04.2021
423 Clear 15 1027 25 10000 3 80 13:45 11.04.2021
424 Clear 16 1027 25 10000 4 100 13:27 11.04.2021
425 Clear 15 1027 26 10000 2 260 12:41 11.04.2021
426 Clear 15 1027 26 10000 2 260 12:20 11.04.2021
427 Clear 15 1027 31 10000 3 90 11:48 11.04.2021
428 Clear 15 1028 28 10000 3 190 11:21 11.04.2021
429 Clear 14 1028 30 10000 2 190 10:47 11.04.2021
430 Clear 13 1028 33 10000 1 0 10:23 11.04.2021
431 Clear 13 1028 33 10000 1 0 09:51 11.04.2021
432 Clear 12 1028 37 10000 1 0 09:30 11.04.2021
433 Clear 11 1027 43 10000 2 230 08:40 11.04.2021
434 Clear 9 1027 42 10000 2 200 07:57 11.04.2021
435 Clear 7 1027 53 10000 1.81 181 07:21 11.04.2021
436 Clear 3 1026 69 10000 1 260 05:55 11.04.2021
437 Clear 3 1026 60 10000 1.96 201 05:23 11.04.2021
438 Clear 4 1026 60 10000 1.97 201 04:51 11.04.2021
439 Clear 4 1026 60 10000 1.97 201 04:33 11.04.2021
440 Clear 6 1025 45 10000 1 0 01:27 11.04.2021
441 Clear 7 1025 42 10000 2 190 00:32 11.04.2021
442 Clear 7 1025 39 10000 2 170 23:46 10.04.2021
443 Clear 8 1025 42 10000 2 180 22:57 10.04.2021
444 Clear 8 1024 40 10000 2 170 22:28 10.04.2021
445 Clear 8 1024 40 10000 2 160 21:54 10.04.2021
446 Clear 9 1024 40 10000 2 170 21:32 10.04.2021
447 Clear 9 1024 37 10000 2 160 20:57 10.04.2021
448 Clear 9 1024 34 10000 2 160 20:37 10.04.2021
449 Clear 10 1024 34 10000 2 160 20:19 10.04.2021
450 Clear 10 1023 32 10000 2 170 19:42 10.04.2021
451 Clear 10 1023 32 10000 2 170 19:24 10.04.2021
452 Clear 11 1023 30 10000 2 210 18:42 10.04.2021
453 Clear 12 1023 28 10000 4 200 18:24 10.04.2021
454 Clear 13 1023 28 10000 3 220 17:36 10.04.2021
455 Clear 13 1023 30 10000 4 200 16:50 10.04.2021
456 Clear 13 1023 28 10000 4 210 16:25 10.04.2021
457 Clear 13 1023 26 10000 4 210 15:52 10.04.2021
458 Clear 14 1024 30 10000 5 210 14:57 10.04.2021
459 Clear 13 1024 30 10000 4 180 14:37 10.04.2021
460 Clear 13 1024 35 10000 4 210 13:58 10.04.2021
461 Clear 14 1025 32 10000 3 240 13:36 10.04.2021
462 Clear 13 1025 35 10000 4 190 12:43 10.04.2021
463 Clear 12 1025 35 10000 4 190 12:20 10.04.2021
464 Clear 12 1025 35 10000 5 230 11:46 10.04.2021
465 Clear 11 1025 37 10000 4 210 11:23 10.04.2021
466 Clear 11 1025 37 10000 4 210 10:51 10.04.2021
467 Clear 10 1026 40 10000 4 190 10:31 10.04.2021
468 Clear 10 1026 43 10000 4 180 09:45 10.04.2021
469 Clear 10 1026 43 10000 5 190 09:19 10.04.2021
470 Clear 7 1026 52 10000 4 190 08:36 10.04.2021
471 Clear 7 1026 52 10000 4 190 08:18 10.04.2021
472 Clear 5 1025 52 10000 3 180 07:26 10.04.2021
473 Clear 3 1025 60 10000 3 190 06:46 10.04.2021
474 Clear 2 1025 69 10000 3 190 05:36 10.04.2021
475 Clear 2 1025 74 10000 1 0 03:46 10.04.2021
476 Clear 1 1025 74 10000 1 0 02:49 10.04.2021
477 Clear 3 1025 74 10000 2 220 01:43 10.04.2021
478 Clear 4 1025 69 10000 3 210 00:37 10.04.2021
479 Clear 4 1025 69 10000 2 220 23:58 09.04.2021
480 Clouds 4 1025 69 8000 2 220 23:34 09.04.2021
481 Clouds 4 1025 64 9000 2 220 22:56 09.04.2021
482 Clear 5 1025 64 10000 3 220 22:36 09.04.2021
483 Clear 5 1025 56 10000 2 220 21:41 09.04.2021
484 Clear 5 1025 56 10000 2 220 21:22 09.04.2021
485 Clouds 6 1025 56 9000 2 210 20:57 09.04.2021
486 Clear 6 1025 52 10000 2 220 20:39 09.04.2021
487 Clear 6 1025 52 10000 2 220 20:20 09.04.2021
488 Clear 7 1025 42 10000 2 210 19:43 09.04.2021
489 Clear 7 1025 42 10000 2 210 19:22 09.04.2021
490 Clear 8 1024 37 10000 2 220 18:44 09.04.2021
491 Clear 9 1024 37 10000 2 220 18:25 09.04.2021
492 Clear 9 1024 37 10000 3 230 17:49 09.04.2021
493 Clear 10 1024 37 10000 3 270 17:30 09.04.2021
494 Clear 10 1024 34 10000 3 270 16:48 09.04.2021
495 Clear 9 1024 37 10000 3 280 16:29 09.04.2021
496 Clear 10 1024 37 10000 2 280 15:47 09.04.2021
497 Clear 11 1024 37 10000 2 280 15:24 09.04.2021
498 Clear 11 1024 37 10000 3 220 14:46 09.04.2021
499 Clear 10 1024 37 10000 3 220 14:28 09.04.2021
500 Clear 10 1025 40 10000 1 0 13:45 09.04.2021
501 Clear 10 1025 37 10000 3 310 13:22 09.04.2021
502 Clear 9 1025 37 10000 2 340 12:47 09.04.2021
503 Clear 9 1025 37 10000 2 340 12:47 09.04.2021
504 Clear 8 1025 42 10000 2 290 12:24 09.04.2021
505 Clear 9 1025 42 10000 3 300 11:43 09.04.2021
506 Clouds 9 1025 46 10000 4 290 11:20 09.04.2021
507 Clouds 8 1025 49 10000 2 280 10:37 09.04.2021
508 Clear 6 1025 61 10000 2 260 09:58 09.04.2021
509 Clear 5 1025 70 10000 2 270 09:27 09.04.2021
510 Clear 6 1024 81 10000 3 280 08:56 09.04.2021
511 Clear 4 1024 87 10000 4 270 08:31 09.04.2021
512 Clear 3 1024 87 10000 4 270 07:22 09.04.2021
513 Clouds 1 1023 93 9000 3 250 06:28 09.04.2021
514 Clear 0 1021 86 10000 2 240 04:38 09.04.2021
515 Clear 1 1021 86 10000 2 240 03:42 09.04.2021
516 Clear 2 1020 75 10000 4 250 00:39 09.04.2021
517 Clear 2 1020 75 10000 4 250 00:21 09.04.2021
518 Clear 2 1019 75 10000 3 250 23:37 08.04.2021
519 Clear 2 1019 75 10000 2 250 22:52 08.04.2021
520 Clear 2 1019 75 10000 2 230 22:27 08.04.2021
521 Clear 3 1018 65 10000 4 260 21:58 08.04.2021
522 Clear 3 1018 70 10000 3 250 21:40 08.04.2021
523 Clear 3 1018 75 10000 2 230 21:22 08.04.2021
524 Clear 3 1018 75 10000 2 230 20:58 08.04.2021
525 Clear 3 1017 70 10000 3 230 20:39 08.04.2021
526 Clear 4 1017 60 10000 4 240 19:59 08.04.2021
527 Clear 5 1016 60 10000 3 250 19:29 08.04.2021
528 Clear 5 1016 52 10000 3 270 18:58 08.04.2021
529 Clear 6 1016 49 10000 6 290 18:39 08.04.2021
530 Clear 6 1015 49 10000 5 260 18:19 08.04.2021
531 Clear 7 1015 42 10000 6 280 17:41 08.04.2021
532 Clear 8 1015 42 10000 4 280 17:19 08.04.2021
533 Clear 8 1014 42 10000 4 290 16:44 08.04.2021
534 Clear 8 1014 42 10000 4 290 16:22 08.04.2021
535 Clear 8 1014 49 10000 5 270 15:45 08.04.2021
536 Clear 8 1014 49 10000 5 270 15:25 08.04.2021
537 Clear 7 1014 52 10000 7 300 14:42 08.04.2021
538 Clear 7 1014 52 10000 7 300 14:21 08.04.2021
539 Clouds 9 1013 49 10000 6 270 13:48 08.04.2021
540 Clouds 8 1013 52 10000 8 260 13:24 08.04.2021
541 Clouds 8 1013 52 10000 8 260 13:24 08.04.2021
542 Clouds 7 1013 52 10000 8 260 12:53 08.04.2021
543 Clouds 7 1013 56 10000 7 270 12:33 08.04.2021
544 Clouds 7 1013 60 10000 6 260 11:57 08.04.2021
545 Clouds 6 1013 65 10000 7 270 11:25 08.04.2021
546 Clouds 6 1013 75 10000 6 260 10:51 08.04.2021
547 Clouds 3 1013 80 10000 5 260 10:25 08.04.2021
548 Clouds 4 1013 80 10000 5 260 10:25 08.04.2021
549 Clouds 5 1012 80 10000 6 260 09:44 08.04.2021
550 Clouds 2 1012 86 10000 7 260 09:25 08.04.2021
551 Clouds 4 1012 80 10000 6 270 08:40 08.04.2021
552 Clouds 3 1011 86 10000 5 260 08:22 08.04.2021
553 Clear 2 1011 86 10000 4 250 07:43 08.04.2021
554 Clear -1 1010 86 10000 4 260 05:45 08.04.2021
555 Clear 0 1007 86 10000 5 270 01:25 08.04.2021
556 Clear 0 1006 86 10000 5 270 00:30 08.04.2021
557 Clear 0 1006 86 10000 5 270 00:30 08.04.2021
558 Clear 0 1006 86 10000 6 280 23:48 07.04.2021
559 Clear 0 1005 86 10000 6 280 23:25 07.04.2021
560 Clear 1 1005 86 10000 6 280 22:56 07.04.2021
561 Clear 1 1005 86 10000 5 280 22:38 07.04.2021
562 Clear 1 1005 86 10000 5 280 22:19 07.04.2021
563 Clear 1 1005 86 10000 5 270 21:34 07.04.2021
564 Clouds 1 1004 93 8000 3 250 20:52 07.04.2021
565 Clear 1 1004 93 10000 2 260 20:29 07.04.2021
566 Clouds 1 1004 93 9000 2 260 19:52 07.04.2021
567 Clear 2 1004 93 10000 2 300 19:33 07.04.2021
568 Clear 2 1003 87 10000 4 320 18:57 07.04.2021
569 Clouds 2 1003 100 9000 5 320 18:39 07.04.2021
570 Clouds 2 1003 93 8000 5 300 18:18 07.04.2021
571 Mist 2 1003 100 5000 5 310 17:43 07.04.2021
572 Mist 2 1003 100 5000 5 310 17:24 07.04.2021
573 Clouds 2 1002 93 7000 5 300 16:45 07.04.2021
574 Clouds 2 1002 93 9000 5 310 16:21 07.04.2021
575 Clouds 2 1002 93 9000 5 310 15:53 07.04.2021
576 Clouds 3 1002 87 7000 6 310 15:25 07.04.2021
577 Clouds 3 1001 87 9000 6 320 14:43 07.04.2021
578 Clouds 3 1001 93 10000 5 320 14:20 07.04.2021
579 Rain 3 1001 93 9000 5 320 13:39 07.04.2021
580 Clouds 3 1001 93 9000 5 320 13:20 07.04.2021
581 Rain 3 1001 87 10000 4 330 12:43 07.04.2021
582 Rain 3 1001 87 10000 4 330 12:18 07.04.2021
583 Rain 3 1001 93 10000 5 330 11:43 07.04.2021
584 Rain 3 1001 87 10000 5 330 11:22 07.04.2021
585 Rain 3 1001 87 10000 5 330 10:47 07.04.2021
586 Rain 3 1001 87 10000 5 320 09:47 07.04.2021
587 Clouds 3 1000 93 9000 4 320 09:28 07.04.2021
588 Rain 2 1000 93 8000 4 320 08:52 07.04.2021
589 Rain 2 1000 93 10000 4 320 08:31 07.04.2021
590 Rain 2 1000 93 10000 5 320 07:52 07.04.2021
591 Rain 2 1000 100 10000 5 310 07:28 07.04.2021
592 Clouds 3 999 93 10000 5 310 06:42 07.04.2021
593 Clouds 4 999 100 10000 4 300 05:22 07.04.2021
594 Clear 6 999 81 10000 2 180 01:52 07.04.2021
595 Clouds 6 1000 87 10000 2 140 23:48 06.04.2021
596 Clear 5 1000 93 10000 2 80 23:22 06.04.2021
597 Clouds 5 1000 87 10000 4 90 22:55 06.04.2021
598 Clouds 6 1001 81 10000 3 60 22:21 06.04.2021
599 Clouds 6 1001 81 9000 2 60 21:44 06.04.2021
600 Clouds 6 1001 81 9000 2 60 21:25 06.04.2021
601 Clouds 6 1001 81 10000 3 50 20:58 06.04.2021
602 Clear 7 1001 70 10000 4 30 20:39 06.04.2021
603 Clear 7 1001 70 10000 4 30 20:19 06.04.2021
604 Clear 7 1000 70 10000 4 20 19:42 06.04.2021
605 Clear 7 1000 70 10000 4 20 19:24 06.04.2021
606 Clear 8 1000 71 10000 6 10 18:43 06.04.2021
607 Clear 9 1000 66 10000 7 30 18:20 06.04.2021
608 Clear 9 1000 66 10000 7 30 17:45 06.04.2021
609 Clear 11 1000 37 10000 2 260 17:20 06.04.2021
610 Clear 11 1000 37 10000 2 260 16:49 06.04.2021
611 Clear 11 1001 40 10000 1 0 16:27 06.04.2021
612 Clear 12 1001 37 10000 3 310 15:27 06.04.2021
613 Clear 12 1001 35 10000 3 210 14:50 06.04.2021
614 Clear 12 1001 35 10000 3 210 14:31 06.04.2021
615 Clear 13 1001 35 10000 4 230 13:55 06.04.2021
616 Clear 13 1001 35 10000 4 230 13:37 06.04.2021
617 Clear 13 1001 35 10000 4 230 13:18 06.04.2021
618 Clear 13 1002 35 10000 4 240 12:38 06.04.2021
619 Clear 13 1002 35 10000 4 240 12:19 06.04.2021
620 Clear 13 1002 38 10000 4 210 11:45 06.04.2021
621 Clear 12 1002 37 10000 4 200 11:20 06.04.2021
622 Clear 11 1002 40 10000 4 210 10:46 06.04.2021
623 Clear 10 1002 46 10000 4 230 10:22 06.04.2021
624 Clear 9 1002 49 10000 3 210 09:47 06.04.2021
625 Clear 9 1002 53 10000 3 230 09:26 06.04.2021
626 Clear 6 1002 61 10000 4 210 08:34 06.04.2021
627 Clear 4 1002 65 10000 4 210 07:33 06.04.2021
628 Clear 3 1002 70 10000 3 200 06:55 06.04.2021
629 Clear 3 1001 75 10000 2 190 04:53 06.04.2021
630 Clear 4 1002 60 10000 3 190 01:34 06.04.2021
631 Clear 4 1003 60 10000 3 200 00:42 06.04.2021
632 Clear 4 1003 60 10000 3 200 00:20 06.04.2021
633 Clear 5 1003 52 10000 3 190 23:42 05.04.2021
634 Clear 5 1003 52 10000 3 190 23:18 05.04.2021
635 Clear 5 1003 52 10000 3 180 22:41 05.04.2021
636 Clear 5 1003 48 10000 3 180 22:22 05.04.2021
637 Clear 5 1004 45 10000 4 180 21:39 05.04.2021
638 Clear 6 1004 45 10000 4 180 21:19 05.04.2021
639 Clear 6 1004 45 10000 3 190 20:42 05.04.2021
640 Clear 6 1004 45 10000 3 190 20:22 05.04.2021
641 Clear 7 1004 42 10000 3 190 19:39 05.04.2021
642 Clear 7 1004 39 10000 3 200 19:19 05.04.2021
643 Clear 8 1004 39 10000 3 210 18:42 05.04.2021
644 Clear 8 1004 42 10000 5 220 18:20 05.04.2021
645 Clear 9 1005 37 10000 5 210 17:47 05.04.2021
646 Clear 9 1005 37 10000 5 210 17:24 05.04.2021
647 Clear 9 1005 37 10000 5 240 16:47 05.04.2021
648 Clear 9 1005 37 10000 5 240 16:23 05.04.2021
649 Clear 10 1005 37 10000 5 210 16:23 05.04.2021
650 Clear 10 1005 37 10000 5 210 15:58 05.04.2021
651 Clear 10 1006 34 10000 5 230 15:38 05.04.2021
652 Clear 10 1006 40 10000 4 240 15:20 05.04.2021
653 Clear 10 1006 39 10000 6 240 14:36 05.04.2021
654 Clear 10 1006 39 10000 6 240 14:36 05.04.2021
655 Clear 10 1007 37 10000 5 230 13:52 05.04.2021
656 Clear 10 1007 42 10000 4 230 13:27 05.04.2021
657 Clear 9 1008 42 10000 3 230 12:47 05.04.2021
658 Clear 8 1008 39 10000 3 220 12:25 05.04.2021
659 Clear 8 1008 42 10000 3 240 11:48 05.04.2021
660 Clear 8 1009 46 10000 4 270 11:30 05.04.2021
661 Clear 9 1009 42 10000 3 290 10:56 05.04.2021
662 Clear 9 1009 42 10000 3 290 10:56 05.04.2021
663 Clear 7 1010 45 10000 2 290 10:35 05.04.2021
664 Clear 7 1010 49 10000 2 290 09:49 05.04.2021
665 Clear 5 1010 65 10000 2 290 09:26 05.04.2021
666 Clear 6 1010 81 10000 2 250 08:50 05.04.2021
667 Clear 4 1010 87 10000 2 240 08:27 05.04.2021
668 Clear 3 1011 87 10000 2 270 07:58 05.04.2021
669 Clear 2 1011 100 9000 2 230 07:33 05.04.2021
670 Clear 1 1012 100 7000 2 240 03:42 05.04.2021
671 Clouds 2 1013 100 7000 2 220 00:56 05.04.2021
672 Clouds 2 1013 93 9000 2 250 00:19 05.04.2021
673 Clouds 3 1013 93 8000 2 240 23:32 04.04.2021
674 Clear 3 1013 87 10000 3 270 22:58 04.04.2021
675 Clear 3 1013 87 10000 3 270 22:34 04.04.2021
676 Clouds 3 1014 93 7000 2 260 21:57 04.04.2021
677 Clouds 3 1013 87 8000 2 270 21:21 04.04.2021
678 Clear 4 1013 81 10000 1 330 20:43 04.04.2021
679 Clear 4 1013 81 10000 1 330 20:21 04.04.2021
680 Clouds 5 1013 81 10000 2 340 19:40 04.04.2021
681 Clear 5 1013 75 10000 3 340 19:19 04.04.2021
682 Clear 5 1013 75 10000 3 340 18:51 04.04.2021
683 Clear 6 1013 65 10000 3 330 18:25 04.04.2021
684 Clear 6 1013 70 10000 3 320 17:58 04.04.2021
685 Clear 6 1013 75 10000 4 310 17:25 04.04.2021
686 Clear 7 1013 75 10000 6 340 16:57 04.04.2021
687 Clear 7 1013 75 10000 6 330 16:38 04.04.2021
688 Clear 9 1013 61 10000 3 320 15:54 04.04.2021
689 Clear 8 1013 61 10000 1 0 15:31 04.04.2021
690 Rain 7 1014 81 9000 7 320 14:40 04.04.2021
691 Rain 8 1013 57 10000 3 360 14:20 04.04.2021
692 Clouds 9 1013 57 10000 3 310 13:27 04.04.2021
693 Rain 8 1014 61 10000 3 350 12:52 04.04.2021
694 Rain 7 1014 81 10000 4 350 12:28 04.04.2021
695 Rain 6 1014 75 10000 6 10 11:50 04.04.2021
696 Rain 7 1014 65 10000 3 20 11:30 04.04.2021
697 Clear 8 1014 70 10000 3 10 10:49 04.04.2021
698 Clear 7 1014 70 10000 3 10 10:29 04.04.2021
699 Clouds 7 1014 75 10000 3 20 09:50 04.04.2021
700 Clear 6 1013 81 10000 4 10 09:23 04.04.2021
701 Clear 5 1013 81 10000 4 10 08:48 04.04.2021
702 Clear 5 1013 81 10000 2 350 08:30 04.04.2021
703 Clear 4 1012 81 10000 1 80 06:40 04.04.2021
704 Clear 4 1012 75 10000 3 100 05:44 04.04.2021
705 Clouds 3 1012 86 9000 2 310 03:25 04.04.2021
706 Clear 3 1012 86 10000 1.93 339 01:18 04.04.2021
707 Clear 4 1012 75 10000 1.91 313 00:19 04.04.2021
708 Clear 4 1011 75 10000 1 110 23:42 03.04.2021
709 Clear 5 1011 65 10000 2 80 22:59 03.04.2021
710 Clear 5 1011 65 10000 2 70 22:40 03.04.2021
711 Clear 5 1011 65 10000 2 70 22:19 03.04.2021
712 Clouds 6 1011 60 10000 1 60 21:46 03.04.2021
713 Clouds 6 1011 70 9000 1 90 21:23 03.04.2021
714 Clouds 6 1011 70 9000 1 90 20:48 03.04.2021
715 Clouds 6 1011 56 9000 1 0 20:26 03.04.2021
716 Clear 7 1011 45 10000 1 0 19:48 03.04.2021
717 Clear 8 1011 45 10000 1 0 19:24 03.04.2021
718 Clear 9 1010 39 10000 3 20 18:46 03.04.2021
719 Clear 9 1010 37 10000 4 320 18:23 03.04.2021
720 Clear 10 1010 37 10000 4 320 17:50 03.04.2021
721 Clear 11 1010 34 10000 3 340 17:21 03.04.2021
722 Clear 11 1010 34 10000 4 350 16:49 03.04.2021
723 Clear 11 1010 37 10000 5 320 16:21 03.04.2021
724 Clear 11 1009 35 10000 4 310 15:48 03.04.2021
725 Clear 12 1010 32 10000 4 330 15:22 03.04.2021
726 Clear 11 1009 32 10000 4 320 14:44 03.04.2021
727 Clear 10 1009 32 10000 4 320 14:22 03.04.2021
728 Clear 10 1010 34 10000 5 320 13:50 03.04.2021
729 Clear 11 1010 34 10000 3 300 13:24 03.04.2021
730 Clear 10 1010 37 10000 3 340 12:56 03.04.2021
731 Clear 10 1010 37 10000 4 290 12:31 03.04.2021
732 Clear 9 1010 46 10000 4 320 11:39 03.04.2021
733 Clear 9 1010 46 10000 3 330 10:58 03.04.2021
734 Clear 8 1010 53 10000 4 320 10:40 03.04.2021
735 Clear 8 1010 53 10000 4 320 10:18 03.04.2021
736 Clear 5 1009 65 10000 3 310 09:28 03.04.2021
737 Clear 5 1009 65 10000 2 330 08:58 03.04.2021
738 Clear 4 1009 75 10000 2 300 08:30 03.04.2021
739 Clear 3 1009 93 10000 2 260 07:29 03.04.2021
740 Clear 3 1009 93 10000 3 260 06:50 03.04.2021
741 Clear 2 1009 86 10000 2 240 03:53 03.04.2021
742 Clouds 2 1009 86 10000 2 240 02:52 03.04.2021
743 Clear 2 1009 93 10000 2 240 02:26 03.04.2021
744 Clear 3 1009 80 10000 2 290 00:29 03.04.2021
745 Clear 4 1009 86 10000 2 340 23:53 02.04.2021
746 Clear 4 1009 75 10000 2 350 23:26 02.04.2021
747 Clear 5 1009 75 10000 3 330 22:55 02.04.2021
748 Clear 5 1009 87 10000 3 330 22:36 02.04.2021
749 Clear 4 1009 100 9000 2 290 21:46 02.04.2021
750 Clear 4 1009 93 9000 2 280 21:26 02.04.2021
751 Clear 5 1008 93 10000 2 280 20:54 02.04.2021
752 Clear 5 1008 93 10000 3 270 20:35 02.04.2021
753 Clear 5 1008 87 10000 2 260 19:59 02.04.2021
754 Clear 5 1008 87 10000 3 260 19:39 02.04.2021
755 Clear 5 1008 87 10000 3 260 19:21 02.04.2021
756 Clouds 6 1008 81 10000 2 320 18:41 02.04.2021
757 Clouds 6 1008 81 10000 2 320 18:21 02.04.2021
758 Clouds 6 1008 81 10000 3 320 17:45 02.04.2021
759 Clouds 6 1007 87 10000 3 350 17:18 02.04.2021
760 Clouds 6 1007 87 10000 5 340 16:23 02.04.2021
761 Clouds 5 1007 87 10000 6 350 15:42 02.04.2021
762 Clouds 5 1007 93 10000 6 340 14:57 02.04.2021
763 Clouds 5 1007 93 10000 5 360 14:33 02.04.2021
764 Clouds 5 1006 93 10000 5 350 13:46 02.04.2021
765 Clouds 6 1006 93 10000 6 360 13:26 02.04.2021
766 Clouds 6 1006 93 9000 5 330 12:42 02.04.2021
767 Rain 6 1006 93 9000 5 330 12:20 02.04.2021
768 Mist 6 1006 100 3600 4 10 11:57 02.04.2021
769 Mist 7 1006 100 4700 4 360 11:21 02.04.2021
770 Mist 8 1005 100 2600 4 20 10:51 02.04.2021
771 Mist 8 1005 100 3800 4 20 10:32 02.04.2021
772 Clouds 10 1005 93 6000 5 330 09:53 02.04.2021
773 Clouds 10 1004 93 8000 5 250 09:27 02.04.2021
774 Clouds 10 1004 93 8000 4 10 08:59 02.04.2021
775 Rain 10 1004 93 8000 4 10 08:34 02.04.2021
776 Clouds 10 1004 76 10000 2 250 07:31 02.04.2021
777 Clear 9 1004 76 10000 1 230 06:58 02.04.2021
778 Clear 10 1004 76 10000 3 250 05:59 02.04.2021
779 Clear 10 1004 76 10000 3 250 05:59 02.04.2021
780 Clouds 12 1006 66 10000 4 220 02:47 02.04.2021
781 Clear 12 1008 62 10000 4 240 00:54 02.04.2021
782 Clear 12 1008 62 10000 5 240 00:24 02.04.2021
783 Clear 13 1008 62 10000 4 220 23:41 01.04.2021
784 Clear 13 1008 62 10000 4 220 23:18 01.04.2021
785 Clear 14 1009 62 10000 4 220 22:21 01.04.2021
786 Clear 14 1009 62 10000 4 220 21:51 01.04.2021
787 Clouds 14 1009 62 10000 4 220 21:29 01.04.2021
788 Clear 14 1009 62 10000 4 220 20:54 01.04.2021
789 Clear 14 1009 62 10000 4 220 20:28 01.04.2021
790 Clouds 15 1010 58 10000 3 220 19:57 01.04.2021
791 Clear 16 1010 51 10000 3 220 19:36 01.04.2021
792 Clear 16 1010 51 10000 3 230 18:47 01.04.2021
793 Clear 17 1010 42 10000 5 260 18:19 01.04.2021
794 Clear 18 1010 42 10000 5 260 17:54 01.04.2021
795 Clear 18 1010 42 10000 6 250 17:33 01.04.2021
796 Clear 19 1010 39 10000 6 250 16:54 01.04.2021
797 Clear 19 1011 39 10000 6 250 16:34 01.04.2021
798 Clear 20 1012 40 10000 5 240 15:49 01.04.2021
799 Clear 20 1012 40 10000 5 240 15:20 01.04.2021
800 Clear 20 1013 45 10000 6 260 14:47 01.04.2021
801 Clear 20 1013 45 10000 6 260 14:27 01.04.2021
802 Clear 19 1013 48 10000 5 260 13:58 01.04.2021
803 Clouds 19 1014 45 10000 5 250 13:31 01.04.2021
804 Clouds 18 1014 51 10000 5 270 12:54 01.04.2021
805 Clouds 18 1014 52 10000 4 250 12:33 01.04.2021
806 Clear 17 1015 59 10000 5 260 11:55 01.04.2021
807 Clear 16 1015 63 10000 4 250 11:37 01.04.2021
808 Clear 16 1015 63 10000 4 250 11:18 01.04.2021
809 Clear 16 1015 63 10000 4 250 11:18 01.04.2021
810 Clouds 15 1015 63 10000 4 260 10:42 01.04.2021
811 Clear 15 1016 67 10000 4 250 10:22 01.04.2021
812 Clear 13 1016 76 10000 5 230 09:31 01.04.2021
813 Clear 13 1017 82 10000 5 240 08:42 01.04.2021
814 Clear 12 1017 82 10000 5 240 08:24 01.04.2021
815 Clouds 10 1017 87 9000 3 230 07:21 01.04.2021
816 Clouds 10 1017 93 8000 3 220 06:55 01.04.2021
817 Clouds 9 1018 93 7000 3 230 05:32 01.04.2021
818 Clouds 10 1019 93 7000 3 220 02:58 01.04.2021
819 Clouds 11 1021 93 8000 3 270 23:52 31.03.2021
820 Clouds 11 1021 93 8000 3 270 23:34 31.03.2021
821 Clouds 11 1021 87 8000 2 230 22:43 31.03.2021
822 Clouds 11 1021 87 8000 2 230 22:22 31.03.2021
823 Clouds 11 1021 82 9000 2 240 21:48 31.03.2021
824 Clouds 11 1021 82 10000 3 230 21:24 31.03.2021
825 Clouds 12 1021 76 9000 3 240 20:58 31.03.2021
826 Clouds 12 1021 76 8000 4 220 20:40 31.03.2021
827 Clouds 12 1021 76 8000 4 220 20:19 31.03.2021
828 Clouds 12 1021 76 9000 4 220 19:42 31.03.2021
829 Clouds 12 1021 76 10000 3 220 19:19 31.03.2021
830 Clouds 12 1021 76 10000 3 220 18:53 31.03.2021
831 Clouds 13 1021 71 10000 3 230 18:26 31.03.2021
832 Clouds 13 1022 67 10000 3 230 17:38 31.03.2021
833 Clouds 13 1022 67 10000 3 230 17:19 31.03.2021
834 Clouds 13 1022 67 10000 3 230 16:50 31.03.2021
835 Clouds 13 1022 67 10000 3 230 16:30 31.03.2021
836 Clouds 13 1023 67 10000 4 220 15:52 31.03.2021
837 Clouds 13 1023 62 10000 4 240 15:20 31.03.2021
838 Clouds 13 1023 62 10000 4 240 14:49 31.03.2021
839 Clouds 13 1024 58 10000 4 230 14:24 31.03.2021
840 Clouds 13 1024 58 10000 4 230 14:24 31.03.2021
841 Clouds 12 1024 62 10000 4 210 13:54 31.03.2021
842 Clouds 11 1024 66 10000 3 230 13:22 31.03.2021
843 Clouds 11 1025 62 10000 4 240 12:40 31.03.2021
844 Clouds 10 1025 62 10000 4 240 12:18 31.03.2021
845 Clouds 10 1025 66 10000 4 230 11:22 31.03.2021
846 Clouds 10 1025 66 10000 4 230 11:22 31.03.2021
847 Clouds 9 1025 71 10000 4 220 10:50 31.03.2021
848 Clouds 8 1025 66 10000 4 210 10:27 31.03.2021
849 Clouds 8 1025 71 10000 3 200 09:54 31.03.2021
850 Clouds 7 1026 76 10000 3 200 09:29 31.03.2021
851 Clouds 6 1026 75 10000 3 220 08:46 31.03.2021
852 Clouds 6 1026 70 10000 3 210 08:26 31.03.2021
853 Clouds 5 1026 75 10000 2 200 07:36 31.03.2021
854 Clouds 6 1027 61 10000 2 190 04:46 31.03.2021
855 Clear 7 1028 45 10000 3 200 02:37 31.03.2021
856 Clear 7 1028 45 10000 2 200 00:54 31.03.2021
857 Clear 7 1028 42 10000 3 200 00:25 31.03.2021
858 Clear 7 1028 42 10000 3 190 23:55 30.03.2021
859 Clear 8 1028 39 10000 4 180 23:24 30.03.2021
860 Clear 8 1029 42 10000 3 180 22:49 30.03.2021
861 Clear 8 1029 46 10000 2 190 22:30 30.03.2021
862 Clear 8 1029 46 10000 2 180 21:56 30.03.2021
863 Clear 8 1029 53 10000 3 170 21:29 30.03.2021
864 Clouds 9 1029 53 10000 2 160 20:59 30.03.2021
865 Clear 9 1029 53 10000 2 200 20:31 30.03.2021
866 Clouds 9 1029 49 7000 2 200 19:56 30.03.2021
867 Clouds 10 1029 46 9000 2 200 19:37 30.03.2021
868 Clear 11 1029 43 10000 2 210 18:55 30.03.2021
869 Clear 12 1029 40 10000 3 220 18:26 30.03.2021
870 Clear 12 1029 40 10000 2 230 17:45 30.03.2021
871 Clear 12 1029 40 10000 2 230 17:26 30.03.2021
872 Clear 13 1030 35 10000 3 250 16:47 30.03.2021
873 Clear 13 1030 35 10000 3 250 16:27 30.03.2021
874 Clear 13 1030 35 10000 3 210 15:37 30.03.2021
875 Clear 13 1030 35 10000 3 240 15:18 30.03.2021
876 Clear 13 1031 35 10000 2 180 14:45 30.03.2021
877 Clear 13 1031 35 10000 2 150 14:20 30.03.2021
878 Clear 13 1031 37 10000 3 160 13:47 30.03.2021
879 Clear 12 1031 37 10000 3 160 13:24 30.03.2021
880 Clear 12 1032 32 10000 3 150 12:41 30.03.2021
881 Clear 12 1032 32 10000 3 150 12:20 30.03.2021
882 Clear 11 1032 37 10000 3 170 11:41 30.03.2021
883 Clear 11 1032 40 10000 3 170 11:18 30.03.2021
884 Clear 10 1032 43 10000 3 180 10:41 30.03.2021
885 Clear 10 1032 43 10000 3 180 10:19 30.03.2021
886 Clear 8 1032 46 10000 3 190 09:40 30.03.2021
887 Clear 8 1032 49 10000 3 140 09:20 30.03.2021
888 Clear 7 1032 57 10000 2 140 08:41 30.03.2021
889 Clear 6 1032 61 10000 2 110 07:55 30.03.2021
890 Clear 6 1031 65 10000 2 100 07:28 30.03.2021
891 Clear 6 1031 65 10000 2 120 06:29 30.03.2021
892 Clear 6 1031 65 10000 2 110 05:25 30.03.2021
893 Clear 7 1031 75 10000 2 80 01:44 30.03.2021
894 Clear 7 1031 81 10000 2 90 23:53 29.03.2021
895 Clear 7 1031 81 10000 2 90 23:21 29.03.2021
896 Clouds 7 1031 93 8000 1 360 22:37 29.03.2021
897 Clouds 6 1030 93 8000 2.45 27 21:55 29.03.2021
898 Clouds 7 1030 87 8000 3.19 6 21:33 29.03.2021
899 Clear 7 1030 76 10000 2 340 20:51 29.03.2021
900 Clear 7 1030 76 10000 2 340 20:29 29.03.2021
901 Clouds 7 1030 76 10000 2 330 19:53 29.03.2021
902 Clouds 8 1029 81 10000 4 320 19:27 29.03.2021
903 Clouds 8 1029 81 10000 4 320 19:27 29.03.2021
904 Clear 8 1029 76 10000 3 310 18:54 29.03.2021
905 Clear 9 1029 76 10000 4 330 18:30 29.03.2021
906 Clear 9 1029 71 10000 4 310 17:58 29.03.2021
907 Clear 10 1029 66 10000 4 320 17:35 29.03.2021
908 Clear 10 1029 66 10000 4 320 16:53 29.03.2021
909 Clouds 11 1029 66 10000 4 320 16:26 29.03.2021
910 Clouds 11 1028 66 10000 4 290 15:41 29.03.2021
911 Clouds 11 1028 66 10000 4 290 15:22 29.03.2021
912 Clouds 11 1028 71 10000 3 310 14:48 29.03.2021
913 Clear 11 1028 71 10000 4 290 13:58 29.03.2021
914 Clear 11 1028 76 10000 4 300 13:37 29.03.2021
915 Clouds 10 1028 76 10000 4 350 13:18 29.03.2021
916 Clouds 9 1028 76 10000 4 350 12:48 29.03.2021
917 Clouds 8 1028 81 10000 4 20 11:46 29.03.2021
918 Clouds 7 1028 81 10000 3 350 11:28 29.03.2021
919 Clouds 7 1027 87 10000 4 10 10:46 29.03.2021
920 Clouds 6 1027 87 10000 4 10 10:21 29.03.2021
921 Clouds 6 1027 93 10000 4 20 09:32 29.03.2021
922 Clouds 5 1026 87 10000 3 20 08:43 29.03.2021
923 Clouds 5 1026 87 10000 4 350 08:25 29.03.2021
924 Clouds 5 1025 93 10000 5 360 07:20 29.03.2021
925 Clouds 5 1025 93 10000 4 340 06:25 29.03.2021
926 Clouds 6 1024 87 10000 4 340 02:58 29.03.2021
927 Clouds 7 1023 87 10000 4 10 00:45 29.03.2021
928 Clouds 7 1023 87 9000 4 330 00:18 29.03.2021
929 Clouds 7 1023 87 9000 3 330 23:25 28.03.2021
930 Clouds 9 1022 76 9000 5 330 22:48 28.03.2021
931 Clouds 8 1022 76 9000 5 330 22:30 28.03.2021
932 Clear 9 1022 62 10000 3 360 21:48 28.03.2021
933 Clear 10 1022 58 10000 3 220 21:26 28.03.2021
934 Clouds 10 1021 54 9000 4 90 20:58 28.03.2021
935 Clouds 11 1021 58 8000 3 110 20:40 28.03.2021
936 Clouds 11 1021 58 8000 3 110 20:19 28.03.2021
937 Clear 11 1021 58 10000 2 90 19:42 28.03.2021
938 Clear 12 1021 58 10000 2 90 19:21 28.03.2021
939 Clear 12 1022 54 10000 3 340 18:51 28.03.2021
940 Clear 12 1022 50 10000 3 270 18:24 28.03.2021
941 Clear 14 1022 41 10000 3 190 17:42 28.03.2021
942 Clear 14 1022 41 10000 2 150 17:20 28.03.2021
943 Clear 14 1022 41 10000 3 190 16:41 28.03.2021
944 Clouds 14 1022 41 10000 3 220 16:21 28.03.2021
945 Clear 14 1022 41 10000 3 200 15:25 28.03.2021
946 Clear 15 1023 36 10000 3 190 14:50 28.03.2021
947 Clear 16 1023 36 10000 4 180 14:27 28.03.2021
948 Clear 14 1023 38 10000 4 210 13:38 28.03.2021
949 Clear 15 1023 36 10000 4 180 12:59 28.03.2021
950 Clear 15 1024 36 10000 3 200 12:37 28.03.2021
951 Clear 15 1024 36 10000 3 200 12:19 28.03.2021
952 Clear 14 1024 35 10000 4 190 11:39 28.03.2021
953 Clear 15 1024 35 10000 4 190 11:39 28.03.2021
954 Clear 13 1024 38 10000 4 200 10:56 28.03.2021
955 Clear 13 1024 41 10000 4 190 10:37 28.03.2021
956 Clear 12 1024 41 10000 4 190 10:18 28.03.2021
957 Clear 11 1025 46 10000 3 200 09:43 28.03.2021
958 Clear 11 1025 46 10000 3 200 09:23 28.03.2021
959 Clear 7 1025 61 10000 2 230 08:38 28.03.2021
960 Clouds 7 1025 81 7000 2 250 07:44 28.03.2021
961 Clouds 4 1024 93 6000 1 220 06:22 28.03.2021
962 Clouds 3 1024 93 6000 1 230 03:51 28.03.2021
963 Clouds 5 1024 86 6000 2 230 00:48 28.03.2021
964 Clouds 6 1024 80 7000 2 230 00:18 28.03.2021
965 Clouds 7 1024 75 6000 2 240 23:37 27.03.2021
966 Clouds 7 1024 70 7000 3 250 22:50 27.03.2021
967 Clouds 8 1024 61 9000 3 250 22:31 27.03.2021
968 Clouds 8 1024 65 9000 3 250 21:46 27.03.2021
969 Clouds 9 1024 61 9000 3 240 21:21 27.03.2021
970 Clouds 9 1024 57 7000 3 240 20:59 27.03.2021
971 Clouds 9 1023 53 9000 2 250 20:37 27.03.2021
972 Clouds 9 1023 53 6000 2 260 20:19 27.03.2021
973 Clouds 9 1023 49 9000 3 270 19:41 27.03.2021
974 Clouds 9 1023 49 9000 3 270 19:22 27.03.2021
975 Smoke 10 1023 43 5000 1 190 18:47 27.03.2021
976 Smoke 10 1023 43 5000 1 190 18:22 27.03.2021
977 Clouds 12 1022 40 10000 2 110 17:37 27.03.2021
978 Clear 12 1022 35 10000 2 60 17:18 27.03.2021
979 Clear 13 1022 35 10000 2 60 16:47 27.03.2021
980 Clear 14 1022 30 10000 2 10 16:26 27.03.2021
981 Clear 14 1022 38 10000 3 40 15:45 27.03.2021
982 Clear 14 1022 33 10000 3 310 15:19 27.03.2021
983 Clear 14 1022 33 10000 3 340 14:42 27.03.2021
984 Clear 14 1022 33 10000 3 330 13:40 27.03.2021
985 Clear 14 1022 33 10000 3 330 13:20 27.03.2021
986 Clear 14 1022 35 10000 3 310 12:47 27.03.2021
987 Clear 13 1023 35 10000 3 20 11:53 27.03.2021
988 Clear 12 1023 35 10000 3 10 11:33 27.03.2021
989 Clear 12 1023 40 10000 4 320 10:58 27.03.2021
990 Clear 12 1023 43 10000 3 330 10:39 27.03.2021
991 Clear 12 1023 50 10000 2 320 09:58 27.03.2021
992 Clear 11 1023 54 10000 1 0 09:21 27.03.2021
993 Clear 9 1023 57 10000 2 320 08:40 27.03.2021
994 Clear 8 1023 61 10000 3 320 07:56 27.03.2021
995 Clear 7 1023 65 10000 3 290 07:22 27.03.2021
996 Clouds 6 1022 75 10000 2 260 06:43 27.03.2021
997 Clear 6 1022 75 10000 2 250 04:42 27.03.2021
998 Clouds 6 1022 75 10000 3 320 02:58 27.03.2021
999 Clear 7 1022 65 10000 3 330 00:45 27.03.2021
1000 Clear 7 1022 65 10000 3 330 00:25 27.03.2021
1001 Clear 7 1022 65 10000 3 330 00:25 27.03.2021
1002 Clear 7 1022 65 10000 2 350 23:37 26.03.2021
1003 Clear 8 1022 61 10000 3 340 22:44 26.03.2021
1004 Clear 8 1022 61 10000 2 340 22:24 26.03.2021
1005 Clear 8 1022 61 10000 3 350 21:25 26.03.2021
1006 Clear 8 1021 61 10000 3 350 20:58 26.03.2021
1007 Clear 8 1021 61 10000 3 350 20:58 26.03.2021
1008 Clear 8 1021 61 10000 3 350 20:31 26.03.2021
1009 Clear 8 1021 57 10000 3 350 19:53 26.03.2021
1010 Clear 8 1021 49 10000 3 340 19:34 26.03.2021
1011 Clear 9 1021 49 10000 4 350 18:55 26.03.2021
1012 Clear 9 1021 49 10000 4 350 18:55 26.03.2021
1013 Clear 9 1021 49 10000 4 360 18:36 26.03.2021
1014 Clear 9 1020 49 10000 3 360 18:18 26.03.2021
1015 Clear 10 1020 43 10000 3 360 17:41 26.03.2021
1016 Clear 10 1020 43 10000 4 360 16:50 26.03.2021
1017 Clear 11 1020 43 10000 4 10 16:23 26.03.2021
1018 Clear 11 1020 40 10000 4 10 16:23 26.03.2021
1019 Clear 12 1020 40 10000 5 10 15:42 26.03.2021
1020 Clear 12 1020 37 10000 4 20 14:54 26.03.2021
1021 Clear 12 1020 35 10000 6 20 14:20 26.03.2021
1022 Clear 12 1020 35 10000 6 10 13:33 26.03.2021
1023 Clear 12 1020 35 10000 5 20 12:46 26.03.2021
1024 Clear 11 1020 30 10000 6 30 11:50 26.03.2021
1025 Clear 11 1020 35 10000 4 20 11:31 26.03.2021
1026 Clear 10 1020 40 10000 4 20 10:45 26.03.2021
1027 Clear 10 1020 43 10000 3 340 10:24 26.03.2021
1028 Clear 8 1020 43 10000 3 310 09:41 26.03.2021
1029 Clear 7 1020 45 10000 3 330 08:51 26.03.2021
1030 Clear 6 1020 49 10000 3 300 08:31 26.03.2021
1031 Clear 4 1020 56 10000 2 320 07:58 26.03.2021
1032 Clear 3 1020 65 10000 2 300 07:22 26.03.2021
1033 Clear 2 1020 69 10000 2 290 06:57 26.03.2021
1034 Clear 1 1019 64 8000 2 270 05:33 26.03.2021
1035 Clear 0 1019 64 8000 2 260 04:43 26.03.2021
1036 Smoke 0 1018 64 5000 1 240 01:36 26.03.2021
1037 Smoke 1 1018 59 5000 2 250 00:23 26.03.2021
1038 Smoke 1 1018 59 5000 1 250 23:42 25.03.2021
1039 Smoke 1 1018 59 4800 1 240 22:50 25.03.2021
1040 Smoke 2 1018 59 4600 2.04 355 22:27 25.03.2021
1041 Smoke 1 1018 64 4200 2.04 355 21:49 25.03.2021
1042 Smoke 1 1018 59 4900 2.12 360 21:29 25.03.2021
1043 Clouds 1 1018 59 9000 1 270 20:41 25.03.2021
1044 Clouds 1 1018 59 9000 1 270 20:23 25.03.2021
1045 Clear 3 1017 41 10000 2 10 19:43 25.03.2021
1046 Clear 3 1017 41 10000 2 10 19:24 25.03.2021
1047 Clear 5 1017 33 10000 2 10 18:46 25.03.2021
1048 Clear 5 1017 33 10000 2 10 18:26 25.03.2021
1049 Clear 6 1017 31 10000 3 360 17:42 25.03.2021
1050 Clear 6 1017 31 10000 3 360 17:23 25.03.2021
1051 Clouds 7 1017 29 9000 4 10 16:39 25.03.2021
1052 Clouds 8 1017 29 9000 4 10 16:20 25.03.2021
1053 Clear 8 1016 29 10000 4 350 15:42 25.03.2021
1054 Clear 8 1016 29 10000 4 350 15:19 25.03.2021
1055 Clear 8 1017 31 10000 5 20 14:42 25.03.2021
1056 Clear 8 1017 27 10000 5 20 13:48 25.03.2021
1057 Clear 8 1017 29 10000 6 20 13:23 25.03.2021
1058 Clear 7 1017 31 10000 5 350 12:41 25.03.2021
1059 Clear 7 1017 31 10000 5 350 12:20 25.03.2021
1060 Clear 6 1018 31 10000 5 30 11:48 25.03.2021
1061 Clear 6 1018 31 10000 7 20 11:26 25.03.2021
1062 Clear 6 1018 33 10000 6 40 10:52 25.03.2021
1063 Clear 6 1018 36 10000 7 30 10:24 25.03.2021
1064 Clear 5 1018 36 10000 6 10 09:56 25.03.2021
1065 Clear 5 1018 36 10000 6 10 09:38 25.03.2021
1066 Clear 3 1018 44 10000 5 10 08:46 25.03.2021
1067 Clear 3 1018 48 10000 4 20 08:21 25.03.2021
1068 Clear 1 1018 60 10000 3 20 07:19 25.03.2021
1069 Clear 0 1017 69 10000 4 20 06:25 25.03.2021
1070 Clear -1 1017 74 10000 3 10 05:49 25.03.2021
1071 Clear 0 1017 59 10000 4 10 02:48 25.03.2021
1072 Clear 0 1018 64 10000 4 10 00:21 25.03.2021
1073 Clear 0 1018 64 10000 4 10 23:51 24.03.2021
1074 Clear 0 1018 64 10000 4 10 23:28 24.03.2021
1075 Clear 0 1018 64 10000 4 20 22:48 24.03.2021
1076 Clear 1 1018 64 10000 4 10 22:27 24.03.2021
1077 Clear 1 1018 60 10000 3 10 21:42 24.03.2021
1078 Clear 1 1018 60 10000 3 10 21:23 24.03.2021
1079 Clear 2 1018 55 10000 3 10 20:43 24.03.2021
1080 Clear 2 1018 51 10000 4 10 20:20 24.03.2021
1081 Clear 2 1018 51 10000 4 10 19:46 24.03.2021
1082 Clear 2 1018 51 10000 4 10 19:28 24.03.2021
1083 Clear 3 1018 48 10000 4 10 18:46 24.03.2021
1084 Clear 3 1018 48 10000 4 10 18:23 24.03.2021
1085 Clear 4 1018 45 10000 5 10 17:49 24.03.2021
1086 Clear 4 1017 45 10000 5 360 17:29 24.03.2021
1087 Clear 5 1017 45 10000 6 360 16:51 24.03.2021
1088 Clear 5 1017 45 10000 6 360 16:29 24.03.2021
1089 Clear 6 1017 45 10000 6 10 15:49 24.03.2021
1090 Clear 6 1017 42 10000 7 360 15:30 24.03.2021
1091 Clear 6 1017 39 10000 8 40 14:47 24.03.2021
1092 Clear 6 1017 39 10000 8 40 14:25 24.03.2021
1093 Clear 6 1017 39 10000 8 40 14:25 24.03.2021
1094 Clouds 6 1017 42 10000 7 40 13:53 24.03.2021
1095 Clouds 7 1017 42 10000 7 40 13:27 24.03.2021
1096 Clouds 5 1017 45 10000 8 40 12:42 24.03.2021
1097 Clouds 5 1017 45 10000 8 40 12:22 24.03.2021
1098 Clouds 5 1017 48 10000 8 50 11:43 24.03.2021
1099 Clouds 4 1017 56 10000 7 30 10:58 24.03.2021
1100 Clear 4 1017 52 10000 8 20 10:38 24.03.2021
1101 Clear 4 1017 52 10000 8 20 10:20 24.03.2021
1102 Clouds 4 1017 56 10000 7 10 09:51 24.03.2021
1103 Clouds 2 1017 64 10000 6 30 09:20 24.03.2021
1104 Clouds 2 1017 64 10000 6 20 08:49 24.03.2021
1105 Clear 1 1017 64 10000 7 20 08:25 24.03.2021
1106 Clear 0 1016 64 10000 6 40 07:37 24.03.2021
1107 Clear -1 1016 69 10000 7 20 06:52 24.03.2021
1108 Clear -2 1015 69 10000 5 20 03:56 24.03.2021
1109 Clear -2 1014 69 10000 6 10 00:47 24.03.2021
1110 Clouds -1 1014 69 10000 6 20 23:56 23.03.2021
1111 Clouds 0 1014 69 10000 6 30 23:21 23.03.2021
1112 Clouds 0 1014 69 10000 6 30 22:52 23.03.2021
1113 Clouds 0 1013 69 10000 5 20 22:28 23.03.2021
1114 Snow -1 1013 80 10000 5 20 21:49 23.03.2021
1115 Snow -1 1013 86 4600 5 30 21:31 23.03.2021
1116 Clouds 0 1013 74 10000 5 10 20:47 23.03.2021
1117 Clouds 0 1013 74 10000 5 10 20:26 23.03.2021
1118 Clouds 0 1013 80 10000 5 10 19:55 23.03.2021
1119 Snow 0 1013 80 10000 6 10 19:26 23.03.2021
1120 Clouds -1 1012 80 10000 4 10 18:59 23.03.2021
1121 Clouds -1 1012 80 9000 6 40 18:37 23.03.2021
1122 Clouds 0 1011 69 10000 6 360 18:18 23.03.2021
1123 Clear 0 1011 93 10000 2 360 17:42 23.03.2021
1124 Clouds -1 1011 93 7000 3 360 17:20 23.03.2021
1125 Clouds 0 1011 80 9000 7 60 16:25 23.03.2021
1126 Clouds 1 1010 51 10000 8 10 15:48 23.03.2021
1127 Clouds 2 1010 48 10000 7 10 15:22 23.03.2021
1128 Clouds 3 1010 48 10000 7 10 14:45 23.03.2021
1129 Clouds 3 1010 48 10000 8 10 14:45 23.03.2021
1130 Clouds 3 1010 48 10000 8 10 14:19 23.03.2021
1131 Clear 3 1010 48 10000 6 360 13:45 23.03.2021
1132 Clouds 3 1010 48 10000 7 20 13:23 23.03.2021
1133 Clear 2 1010 41 10000 7 360 12:44 23.03.2021
1134 Clouds 3 1010 38 10000 7 340 12:23 23.03.2021
1135 Clear 3 1010 35 10000 6 350 11:47 23.03.2021
1136 Clear 3 1010 38 10000 7 360 10:59 23.03.2021
1137 Clear 3 1010 38 10000 7 360 10:41 23.03.2021
1138 Clear 3 1010 35 10000 7 20 10:20 23.03.2021
1139 Clear 3 1010 38 10000 6 20 09:47 23.03.2021
1140 Clear 2 1010 41 10000 6 350 09:22 23.03.2021
1141 Clear 1 1010 47 10000 4 350 08:40 23.03.2021
1142 Clear 1 1010 51 10000 4 350 08:22 23.03.2021
1143 Clear 0 1010 59 10000 3 320 07:59 23.03.2021
1144 Clear 0 1010 64 10000 3 330 07:22 23.03.2021
1145 Clear -2 1010 69 10000 4 330 06:41 23.03.2021
1146 Clear -2 1009 68 10000 4 300 03:23 23.03.2021
1147 Clear -2 1009 64 10000 3 310 02:21 23.03.2021
1148 Clear 0 1009 64 10000 4 320 23:44 22.03.2021
1149 Clear 0 1009 64 10000 4 320 22:56 22.03.2021
1150 Clear 0 1009 64 10000 4 330 22:38 22.03.2021
1151 Clear 0 1009 64 10000 4 330 22:20 22.03.2021
1152 Clear 1 1009 60 10000 5 340 21:42 22.03.2021
1153 Clear 1 1009 60 10000 5 340 21:23 22.03.2021
1154 Clear 1 1008 55 10000 5 320 20:41 22.03.2021
1155 Clear 1 1008 55 10000 5 320 20:22 22.03.2021
1156 Clear 1 1008 64 10000 4 300 19:54 22.03.2021
1157 Clear 2 1008 64 10000 4 300 19:34 22.03.2021
1158 Clear 2 1007 64 10000 3 300 18:58 22.03.2021
1159 Clear 2 1007 69 10000 3 320 18:39 22.03.2021
1160 Clear 2 1007 69 10000 4 320 18:20 22.03.2021
1161 Clouds 2 1007 69 10000 2 320 17:42 22.03.2021
1162 Clouds 2 1007 69 10000 2 320 17:20 22.03.2021
1163 Clouds 2 1006 75 10000 3 330 16:45 22.03.2021
1164 Clouds 2 1006 75 10000 4 320 16:19 22.03.2021
1165 Clouds 3 1006 75 10000 4 310 15:38 22.03.2021
1166 Clouds 3 1006 75 10000 4 310 15:18 22.03.2021
1167 Clouds 3 1006 75 10000 4 320 14:52 22.03.2021
1168 Clouds 3 1006 75 10000 4 320 14:34 22.03.2021
1169 Rain 3 1006 75 10000 4 310 13:48 22.03.2021
1170 Rain 3 1006 75 10000 4 310 13:27 22.03.2021
1171 Snow 3 1006 80 9000 4 290 12:54 22.03.2021
1172 Snow 3 1006 80 10000 4 270 12:25 22.03.2021
1173 Snow 3 1006 80 10000 4 270 11:49 22.03.2021
1174 Snow 3 1006 80 10000 4 270 11:27 22.03.2021
1175 Snow 3 1005 87 10000 4 270 10:45 22.03.2021
1176 Snow 2 1005 87 9000 4 270 10:24 22.03.2021
1177 Clouds 3 1005 93 9000 5 280 09:46 22.03.2021
1178 Snow 3 1005 86 8000 5 280 09:27 22.03.2021
1179 Snow 3 1005 80 9000 5 280 08:45 22.03.2021
1180 Snow 2 1005 75 10000 6 270 08:26 22.03.2021
1181 Rain 2 1005 69 10000 5 270 07:50 22.03.2021
1182 Snow 1 1005 69 10000 3 250 07:30 22.03.2021
1183 Snow 1 1005 74 10000 3 230 06:39 22.03.2021
1184 Clear 0 1006 69 10000 2 230 02:47 22.03.2021
1185 Snow 1 1006 64 10000 4 230 00:43 22.03.2021
1186 Snow 1 1007 69 10000 4 230 23:55 21.03.2021
1187 Clear 1 1007 74 10000 3 230 23:20 21.03.2021
1188 Clear 1 1007 74 10000 3 220 22:59 21.03.2021
1189 Clear 1 1007 69 10000 3 220 22:30 21.03.2021
1190 Clear 0 1007 69 10000 3 220 21:42 21.03.2021
1191 Clear 0 1007 69 10000 3 220 21:24 21.03.2021
1192 Clear 1 1007 64 10000 3 230 20:48 21.03.2021
1193 Clear 1 1008 60 10000 3 240 20:29 21.03.2021
1194 Clear 1 1008 60 10000 4 250 19:59 21.03.2021
1195 Clear 2 1008 55 10000 5 250 19:28 21.03.2021
1196 Clouds 2 1008 55 10000 5 250 18:56 21.03.2021
1197 Clear 3 1008 52 10000 5 250 18:32 21.03.2021
1198 Clear 3 1008 52 10000 6 260 17:59 21.03.2021
1199 Clear 3 1008 48 10000 6 260 17:40 21.03.2021
1200 Clouds 4 1008 45 10000 9 260 17:18 21.03.2021
1201 Clouds 4 1008 45 10000 9 260 16:48 21.03.2021
1202 Clouds 4 1008 45 10000 8 260 16:22 21.03.2021
1203 Clouds 4 1009 48 10000 9 260 15:42 21.03.2021
1204 Clouds 4 1009 48 10000 9 260 15:20 21.03.2021
1205 Clouds 4 1009 48 10000 8 250 14:46 21.03.2021
1206 Clouds 5 1009 45 10000 9 260 14:27 21.03.2021
1207 Clouds 5 1010 48 10000 10 250 13:57 21.03.2021
1208 Clouds 5 1010 48 10000 9 260 13:38 21.03.2021
1209 Clouds 5 1011 48 10000 8 250 12:43 21.03.2021
1210 Clouds 5 1011 48 10000 8 250 12:24 21.03.2021
1211 Clouds 4 1012 48 10000 8 260 11:41 21.03.2021
1212 Clouds 4 1012 48 10000 8 260 11:20 21.03.2021
1213 Clouds 3 1013 55 10000 7 260 10:44 21.03.2021
1214 Clouds 3 1013 55 10000 7 260 10:26 21.03.2021
1215 Clouds 2 1014 64 10000 7 270 09:47 21.03.2021
1216 Clouds 1 1014 64 10000 7 270 09:29 21.03.2021
1217 Clouds 1 1014 69 10000 7 260 08:54 21.03.2021
1218 Clouds 0 1015 80 10000 7 270 08:28 21.03.2021
1219 Clouds 0 1015 80 10000 6 270 07:41 21.03.2021
1220 Clouds 0 1015 80 10000 6 270 07:21 21.03.2021
1221 Clear -2 1015 86 10000 2 260 05:59 21.03.2021
1222 Clear -2 1016 86 10000 3 270 02:48 21.03.2021
1223 Clear -1 1017 80 10000 2 260 00:56 21.03.2021
1224 Clear -1 1017 80 10000 3 260 00:36 21.03.2021
1225 Clear -1 1017 80 10000 3 260 00:18 21.03.2021
1226 Clear -1 1017 74 10000 4 280 23:40 20.03.2021
1227 Clear 0 1017 80 10000 3 280 22:57 20.03.2021
1228 Clear 0 1017 74 10000 3 270 22:24 20.03.2021
1229 Clouds 0 1017 80 10000 3 300 21:48 20.03.2021
1230 Clouds 0 1017 80 10000 3 300 21:25 20.03.2021
1231 Clear 1 1017 69 10000 4 300 20:49 20.03.2021
1232 Clear 1 1017 69 10000 4 300 20:24 20.03.2021
1233 Clear 1 1017 69 10000 5 310 19:52 20.03.2021
1234 Clear 1 1017 69 10000 5 310 19:29 20.03.2021
1235 Clear 2 1017 69 10000 3 290 18:52 20.03.2021
1236 Clear 2 1017 75 10000 3 270 18:28 20.03.2021
1237 Clear 2 1017 75 10000 3 280 17:58 20.03.2021
1238 Clouds 2 1017 75 10000 4 310 17:40 20.03.2021
1239 Clouds 2 1017 75 10000 4 310 17:20 20.03.2021
1240 Snow 3 1017 65 10000 5 330 16:39 20.03.2021
1241 Clouds 4 1017 60 10000 4 360 16:18 20.03.2021
1242 Clouds 3 1017 60 10000 4 360 16:18 20.03.2021
1243 Clouds 3 1017 75 7000 7 320 15:40 20.03.2021
1244 Rain 5 1016 48 10000 3 280 15:22 20.03.2021
1245 Clouds 5 1017 52 10000 5 280 14:32 20.03.2021
1246 Rain 5 1017 48 10000 2 280 13:59 20.03.2021
1247 Clouds 4 1017 56 10000 3 310 13:30 20.03.2021
1248 Clouds 4 1017 56 10000 3 310 13:30 20.03.2021
1249 Clouds 5 1017 48 10000 4 340 12:37 20.03.2021
1250 Clouds 5 1017 48 10000 4 320 12:18 20.03.2021
1251 Clouds 5 1017 45 10000 2 10 11:41 20.03.2021
1252 Clouds 5 1017 45 10000 2 10 11:21 20.03.2021
1253 Clouds 4 1017 60 10000 4 330 10:39 20.03.2021
1254 Clouds 4 1017 60 10000 4 330 10:39 20.03.2021
1255 Clouds 3 1017 60 10000 4 330 10:21 20.03.2021
1256 Clear 3 1017 69 10000 2 340 09:44 20.03.2021
1257 Clear 2 1017 69 10000 2 340 09:22 20.03.2021
1258 Clear 1 1016 75 10000 4 330 08:51 20.03.2021
1259 Clear 1 1016 80 10000 3 340 08:18 20.03.2021
1260 Clear 1 1016 86 10000 4 320 07:41 20.03.2021
1261 Clear 1 1016 86 10000 4 320 07:20 20.03.2021
1262 Snow 1 1016 93 7000 3 310 06:38 20.03.2021
1263 Snow 0 1015 100 8000 3 300 05:27 20.03.2021
1264 Snow 1 1015 80 10000 3 10 03:43 20.03.2021
1265 Clear 1 1015 93 10000 1 350 00:48 20.03.2021
1266 Snow 1 1014 86 7000 3 20 23:46 19.03.2021
1267 Clouds 1 1014 86 10000 2 20 23:19 19.03.2021
1268 Snow 1 1014 80 10000 2 40 22:42 19.03.2021
1269 Clouds 1 1014 80 10000 2 40 22:22 19.03.2021
1270 Clouds 1 1014 86 10000 1 350 21:39 19.03.2021
1271 Clouds 1 1014 93 10000 2 350 21:20 19.03.2021
1272 Snow 1 1014 86 10000 1 0 20:45 19.03.2021
1273 Clear 1 1014 80 10000 2 360 20:26 19.03.2021
1274 Snow 2 1014 80 10000 2 360 19:48 19.03.2021
1275 Snow 2 1014 80 10000 1 0 19:22 19.03.2021
1276 Rain 2 1014 80 10000 2 30 18:49 19.03.2021
1277 Rain 2 1014 80 10000 2 30 18:21 19.03.2021
1278 Clear 2 1013 80 10000 3 20 17:56 19.03.2021
1279 Clear 2 1013 75 10000 3 10 17:37 19.03.2021
1280 Clouds 3 1013 70 10000 4 350 16:59 19.03.2021
1281 Clouds 4 1013 65 10000 2 30 16:40 19.03.2021
1282 Rain 4 1012 60 10000 2 70 16:21 19.03.2021
1283 Clear 5 1012 60 10000 2 70 15:33 19.03.2021
1284 Clouds 5 1012 60 10000 2 340 14:51 19.03.2021
1285 Clouds 5 1012 60 10000 2 30 14:32 19.03.2021
1286 Clouds 5 1012 65 10000 3 40 13:48 19.03.2021
1287 Clouds 4 1012 65 10000 2 10 13:18 19.03.2021
1288 Clouds 3 1012 81 10000 2 340 12:40 19.03.2021
1289 Clouds 3 1013 81 10000 4 330 11:55 19.03.2021
1290 Clouds 2 1012 87 10000 4 320 11:22 19.03.2021
1291 Rain 2 1012 87 10000 3 10 10:42 19.03.2021
1292 Clouds 2 1012 87 10000 3 20 10:21 19.03.2021
1293 Snow 1 1012 100 10000 3 310 09:43 19.03.2021
1294 Snow 1 1012 93 10000 4 310 09:22 19.03.2021
1295 Snow 1 1012 100 10000 2 350 08:51 19.03.2021
1296 Snow 1 1012 100 10000 2 350 08:26 19.03.2021
1297 Snow 1 1011 100 8000 3 340 07:43 19.03.2021
1298 Snow 1 1011 100 5000 2 330 06:59 19.03.2021
1299 Snow 0 1011 100 9000 3 340 05:26 19.03.2021
1300 Clouds 1 1011 100 7000 2 340 00:59 19.03.2021
1301 Clouds 1 1010 100 8000 2 340 23:51 18.03.2021
1302 Clouds 1 1010 100 9000 2 330 23:27 18.03.2021
1303 Clouds 1 1011 100 7000 3 320 22:44 18.03.2021
1304 Clouds 1 1011 100 7000 3 320 22:44 18.03.2021
1305 Clouds 1 1011 100 7000 3 320 22:25 18.03.2021
1306 Clouds 2 1011 93 10000 4 330 21:40 18.03.2021
1307 Clouds 2 1011 93 10000 4 330 21:21 18.03.2021
1308 Clouds 2 1010 93 10000 4 320 20:39 18.03.2021
1309 Clouds 2 1010 93 10000 4 330 20:20 18.03.2021
1310 Clouds 2 1010 93 10000 4 330 19:42 18.03.2021
1311 Clouds 2 1010 93 10000 4 330 19:22 18.03.2021
1312 Clouds 2 1010 93 10000 4 330 18:41 18.03.2021
1313 Clouds 2 1010 93 10000 4 320 17:54 18.03.2021
1314 Rain 3 1010 87 10000 4 330 17:26 18.03.2021
1315 Rain 3 1010 81 10000 5 320 16:52 18.03.2021
1316 Rain 4 1010 81 10000 4 330 16:32 18.03.2021
1317 Clouds 4 1010 75 10000 4 330 15:58 18.03.2021
1318 Clouds 4 1010 75 10000 4 330 15:58 18.03.2021
1319 Clouds 4 1010 75 10000 4 330 15:40 18.03.2021
1320 Clouds 4 1009 75 10000 4 340 15:18 18.03.2021
1321 Clouds 4 1009 75 10000 4 330 14:41 18.03.2021
1322 Clouds 4 1009 70 10000 4 330 14:18 18.03.2021
1323 Clouds 4 1009 70 10000 4 330 13:37 18.03.2021
1324 Clouds 4 1009 70 10000 4 330 13:19 18.03.2021
1325 Clouds 4 1009 70 10000 4 330 12:37 18.03.2021
1326 Clouds 4 1009 65 10000 4 320 12:18 18.03.2021
1327 Clouds 4 1009 70 10000 5 310 11:43 18.03.2021
1328 Clouds 5 1009 65 10000 4 350 10:58 18.03.2021
1329 Clouds 5 1009 65 10000 4 350 10:39 18.03.2021
1330 Clouds 5 1009 65 10000 3 360 10:20 18.03.2021
1331 Clouds 4 1009 70 10000 4 360 09:38 18.03.2021
1332 Clouds 4 1009 70 10000 4 350 09:20 18.03.2021
1333 Clouds 3 1009 75 10000 4 360 08:43 18.03.2021
1334 Clouds 3 1009 81 10000 3 360 08:23 18.03.2021
1335 Clouds 2 1009 87 10000 4 10 07:45 18.03.2021
1336 Clouds 2 1008 87 10000 4 350 06:43 18.03.2021
1337 Clouds 2 1008 87 10000 4 350 06:23 18.03.2021
1338 Clouds 2 1008 86 10000 3 360 05:25 18.03.2021
1339 Clouds 3 1007 70 10000 3 10 00:44 18.03.2021
1340 Clouds 3 1007 75 10000 3 360 23:25 17.03.2021
1341 Clouds 4 1007 70 10000 4 50 22:39 17.03.2021
1342 Clouds 4 1007 70 10000 4 50 22:21 17.03.2021
1343 Clouds 4 1007 70 10000 4 50 21:51 17.03.2021
1344 Clouds 4 1007 70 10000 4 50 21:31 17.03.2021
1345 Clouds 4 1007 70 10000 4 50 21:31 17.03.2021
1346 Clouds 4 1007 75 10000 3 40 20:48 17.03.2021
1347 Clouds 4 1007 75 10000 3 40 20:27 17.03.2021
1348 Clouds 4 1007 75 10000 3 30 19:58 17.03.2021
1349 Clouds 4 1007 75 10000 3 30 19:39 17.03.2021
1350 Clouds 4 1007 75 10000 3 30 19:19 17.03.2021
1351 Clouds 4 1006 75 10000 3 50 18:47 17.03.2021
1352 Clouds 4 1006 75 10000 3 50 18:29 17.03.2021
1353 Clouds 4 1006 75 10000 4 60 17:32 17.03.2021
1354 Clouds 4 1006 75 10000 4 50 16:58 17.03.2021
1355 Clouds 4 1005 75 10000 5 60 16:39 17.03.2021
1356 Clouds 4 1005 70 10000 5 70 16:20 17.03.2021
1357 Clouds 4 1005 65 10000 4 40 15:44 17.03.2021
1358 Clouds 5 1005 65 10000 4 40 15:25 17.03.2021
1359 Clouds 5 1005 65 10000 5 50 14:37 17.03.2021
1360 Clouds 5 1005 65 10000 5 40 14:18 17.03.2021
1361 Clouds 5 1005 65 10000 5 40 13:52 17.03.2021
1362 Clouds 5 1005 65 10000 6 40 13:24 17.03.2021
1363 Clouds 5 1005 70 10000 5 30 12:37 17.03.2021
1364 Clouds 5 1005 70 10000 5 30 12:19 17.03.2021
1365 Clouds 4 1005 70 10000 5 40 11:39 17.03.2021
1366 Clouds 5 1005 70 10000 5 40 11:20 17.03.2021
1367 Clouds 4 1005 70 10000 5 30 10:40 17.03.2021
1368 Clouds 4 1005 70 10000 5 50 10:22 17.03.2021
1369 Clouds 4 1005 75 10000 5 50 09:43 17.03.2021
1370 Clouds 3 1005 75 10000 5 40 09:20 17.03.2021
1371 Clouds 3 1005 75 10000 5 50 08:46 17.03.2021
1372 Clouds 3 1005 75 10000 5 50 08:26 17.03.2021
1373 Clouds 2 1005 80 10000 6 60 07:39 17.03.2021
1374 Clouds 2 1005 80 10000 4 50 06:52 17.03.2021
1375 Clouds 2 1005 80 10000 5 50 06:27 17.03.2021
1376 Clouds 2 1005 80 10000 5 70 03:32 17.03.2021
1377 Clouds 2 1005 80 10000 5 70 03:32 17.03.2021
1378 Clouds 2 1005 80 10000 4 80 01:58 17.03.2021
1379 Clouds 2 1005 87 10000 5 100 00:33 17.03.2021
1380 Clouds 3 1005 81 10000 3 100 23:27 16.03.2021
1381 Clouds 3 1005 87 10000 7 90 22:45 16.03.2021
1382 Rain 3 1005 87 10000 7 90 22:26 16.03.2021
1383 Clouds 4 1005 87 10000 5 100 21:44 16.03.2021
1384 Rain 4 1005 87 10000 5 100 21:26 16.03.2021
1385 Rain 4 1005 87 9000 5 90 20:57 16.03.2021
1386 Rain 5 1005 87 10000 6 90 20:20 16.03.2021
1387 Rain 5 1005 87 10000 6 90 20:20 16.03.2021
1388 Rain 5 1005 87 10000 6 90 19:48 16.03.2021
1389 Clouds 5 1005 87 9000 5 90 19:29 16.03.2021
1390 Clouds 5 1005 87 9000 5 80 18:57 16.03.2021
1391 Clear 5 1005 87 10000 5 100 18:38 16.03.2021
1392 Clear 6 1005 81 10000 5 100 17:59 16.03.2021
1393 Clear 6 1005 81 10000 5 100 17:40 16.03.2021
1394 Clear 6 1005 81 10000 4 100 17:20 16.03.2021
1395 Clouds 7 1005 76 10000 4 100 16:46 16.03.2021
1396 Clouds 7 1005 76 10000 4 100 16:25 16.03.2021
1397 Clear 8 1004 71 10000 5 80 15:45 16.03.2021
1398 Clear 8 1004 71 10000 6 80 15:20 16.03.2021
1399 Clear 8 1004 71 10000 6 80 14:56 16.03.2021
1400 Clear 8 1004 71 10000 4 100 14:38 16.03.2021
1401 Clear 8 1004 71 10000 5 90 14:18 16.03.2021
1402 Clear 8 1004 66 10000 6 80 13:42 16.03.2021
1403 Clear 8 1004 76 10000 5 90 13:21 16.03.2021
1404 Clear 7 1005 81 10000 4 100 12:40 16.03.2021
1405 Clear 7 1005 81 10000 4 100 12:19 16.03.2021
1406 Rain 7 1005 81 10000 5 100 11:35 16.03.2021
1407 Clear 7 1005 76 10000 6 80 10:53 16.03.2021
1408 Clear 7 1005 76 10000 6 80 10:53 16.03.2021
1409 Clear 6 1005 70 10000 4 110 10:22 16.03.2021
1410 Clear 6 1005 75 10000 5 120 09:47 16.03.2021
1411 Clear 5 1005 81 10000 4 100 09:24 16.03.2021
1412 Clear 5 1005 81 10000 4 100 08:57 16.03.2021
1413 Clear 4 1005 81 10000 4 100 08:39 16.03.2021
1414 Clouds 3 1005 87 9000 4 100 07:57 16.03.2021
1415 Clear 3 1005 93 10000 3 100 07:29 16.03.2021
1416 Clear 2 1004 93 10000 4 90 06:38 16.03.2021
1417 Clear 2 1004 93 10000 4 90 05:37 16.03.2021
1418 Clouds 3 1004 93 8000 3 90 04:28 16.03.2021
1419 Clouds 4 1005 93 8000 1 0 02:29 16.03.2021
1420 Clouds 4 1005 93 6000 4 90 01:23 16.03.2021
1421 Clouds 4 1005 93 7000 3 110 23:54 15.03.2021
1422 Mist 4 1005 93 5000 3 100 23:27 15.03.2021
1423 Mist 4 1005 100 4100 3 90 22:49 15.03.2021
1424 Mist 4 1005 100 4100 3 90 22:29 15.03.2021
1425 Mist 4 1005 100 4100 3 90 22:29 15.03.2021
1426 Mist 4 1006 100 3700 4 90 21:52 15.03.2021
1427 Mist 4 1006 100 3400 3 90 21:32 15.03.2021
1428 Mist 4 1006 100 2800 4 90 20:57 15.03.2021
1429 Mist 4 1006 100 2700 4 100 20:38 15.03.2021
1430 Mist 4 1006 100 2700 4 100 20:38 15.03.2021
1431 Mist 4 1006 100 2700 4 100 20:20 15.03.2021
1432 Mist 4 1006 100 2500 4 100 19:48 15.03.2021
1433 Mist 4 1006 100 2600 4 90 19:30 15.03.2021
1434 Mist 4 1007 100 1800 4 100 18:48 15.03.2021
1435 Rain 4 1007 100 1400 4 90 18:23 15.03.2021
1436 Rain 4 1007 100 1400 4 90 17:55 15.03.2021
1437 Rain 4 1007 100 1100 4 90 17:29 15.03.2021
1438 Rain 4 1007 100 2100 4 100 16:50 15.03.2021
1439 Rain 4 1006 100 2000 4 90 16:31 15.03.2021
1440 Rain 4 1007 100 1600 4 70 15:45 15.03.2021
1441 Mist 4 1007 100 1600 4 70 15:25 15.03.2021
1442 Mist 4 1007 100 1400 4 90 14:43 15.03.2021
1443 Mist 4 1007 100 1400 4 90 14:22 15.03.2021
1444 Clouds 4 1007 100 10000 2 110 13:46 15.03.2021
1445 Clouds 4 1007 100 10000 2 110 13:46 15.03.2021
1446 Rain 4 1007 100 10000 2 110 13:24 15.03.2021
1447 Rain 5 1007 100 3200 3 100 12:47 15.03.2021
1448 Rain 5 1007 93 2400 3 80 12:19 15.03.2021
1449 Mist 5 1008 93 2900 2 110 11:49 15.03.2021
1450 Mist 5 1007 93 2300 2 80 11:30 15.03.2021
1451 Mist 5 1007 93 4000 2 90 10:49 15.03.2021
1452 Rain 5 1008 100 3500 3 110 10:30 15.03.2021
1453 Mist 5 1007 93 2800 3 120 09:52 15.03.2021
1454 Mist 5 1007 93 3900 2 110 09:33 15.03.2021
1455 Mist 4 1007 100 2500 2 100 08:52 15.03.2021
1456 Mist 4 1008 100 2000 1 130 08:30 15.03.2021
1457 Mist 4 1008 100 2000 1 130 08:30 15.03.2021
1458 Rain 4 1008 100 1600 1 280 07:51 15.03.2021
1459 Fog 4 1007 100 800 2 250 07:31 15.03.2021
1460 Rain 3 1007 100 500 2 240 06:39 15.03.2021
1461 Mist 3 1007 100 3300 3 210 05:32 15.03.2021
1462 Clouds 3 1007 93 8000 2 200 01:31 15.03.2021
1463 Clouds 4 1007 87 8000 1 0 23:54 14.03.2021
1464 Clouds 4 1007 87 9000 2 180 23:19 14.03.2021
1465 Clouds 4 1007 93 9000 2 170 22:46 14.03.2021
1466 Clouds 4 1007 93 9000 2 170 22:19 14.03.2021
1467 Clouds 4 1007 93 9000 2 170 21:45 14.03.2021
1468 Clouds 4 1007 93 9000 2 180 21:18 14.03.2021
1469 Rain 4 1007 87 9000 2 180 20:43 14.03.2021
1470 Rain 5 1007 87 9000 2 180 20:24 14.03.2021
1471 Rain 5 1007 87 10000 2 170 19:43 14.03.2021
1472 Rain 5 1007 87 10000 3 180 19:23 14.03.2021
1473 Rain 5 1007 87 10000 3 180 18:47 14.03.2021
1474 Rain 5 1007 81 10000 4 190 18:22 14.03.2021
1475 Clouds 5 1007 87 10000 3 170 17:39 14.03.2021
1476 Clouds 5 1007 87 10000 3 170 17:20 14.03.2021
1477 Rain 5 1007 87 10000 3 190 16:46 14.03.2021
1478 Clouds 5 1008 81 10000 4 200 16:24 14.03.2021
1479 Clouds 5 1008 81 10000 5 190 15:52 14.03.2021
1480 Clouds 5 1008 81 10000 5 190 15:30 14.03.2021
1481 Clouds 5 1008 81 10000 4 180 14:41 14.03.2021
1482 Clouds 5 1008 81 10000 4 180 14:20 14.03.2021
1483 Clouds 5 1008 81 10000 5 190 13:49 14.03.2021
1484 Clouds 5 1008 81 10000 5 190 13:28 14.03.2021
1485 Clouds 4 1009 87 10000 5 180 12:45 14.03.2021
1486 Clouds 4 1009 87 10000 5 180 12:27 14.03.2021
1487 Clouds 4 1009 87 10000 5 200 11:44 14.03.2021
1488 Clouds 4 1009 87 10000 5 190 11:26 14.03.2021
1489 Clouds 4 1010 87 10000 5 200 10:39 14.03.2021
1490 Clouds 3 1010 87 10000 5 200 10:20 14.03.2021
1491 Clouds 3 1009 87 10000 5 200 09:59 14.03.2021
1492 Clouds 3 1010 87 10000 6 200 09:41 14.03.2021
1493 Clouds 3 1010 87 10000 6 200 09:21 14.03.2021
1494 Clouds 2 1009 93 10000 5 190 08:40 14.03.2021
1495 Clouds 2 1009 93 9000 5 190 07:59 14.03.2021
1496 Clouds 2 1009 93 7000 5 200 07:34 14.03.2021
1497 Mist 2 1009 93 4900 5 190 05:42 14.03.2021
1498 Clear 3 1010 87 10000 4 220 01:35 14.03.2021
1499 Clear 3 1010 81 10000 4 220 00:49 14.03.2021
1500 Clear 4 1011 81 10000 4 220 00:18 14.03.2021
1501 Clear 4 1011 81 10000 4 220 23:42 13.03.2021
1502 Rain 4 1011 81 10000 4 220 23:20 13.03.2021
1503 Clear 4 1011 81 10000 5 220 22:49 13.03.2021
1504 Clear 4 1011 81 10000 5 220 22:24 13.03.2021
1505 Clear 3 1011 87 10000 5 210 21:36 13.03.2021
1506 Clear 3 1011 87 10000 5 210 21:18 13.03.2021
1507 Clear 3 1011 87 10000 5 210 20:47 13.03.2021
1508 Clear 3 1011 87 10000 5 210 20:26 13.03.2021
1509 Clear 4 1011 81 10000 4 190 19:45 13.03.2021
1510 Clear 4 1011 81 10000 4 190 19:24 13.03.2021
1511 Clear 4 1012 81 10000 4 190 18:43 13.03.2021
1512 Clear 4 1012 81 10000 4 190 18:21 13.03.2021
1513 Clear 4 1011 75 10000 4 190 17:52 13.03.2021
1514 Clear 5 1012 75 10000 5 190 17:32 13.03.2021
1515 Clear 6 1012 70 10000 4 190 16:57 13.03.2021
1516 Clear 7 1012 65 10000 4 200 16:38 13.03.2021
1517 Clear 7 1011 65 10000 3 190 15:57 13.03.2021
1518 Clear 8 1012 61 10000 4 200 15:21 13.03.2021
1519 Clear 8 1012 66 10000 3 190 14:42 13.03.2021
1520 Clear 8 1012 66 10000 3 180 14:23 13.03.2021
1521 Clear 8 1012 66 10000 3 190 14:23 13.03.2021
1522 Clear 8 1012 71 10000 4 200 13:30 13.03.2021
1523 Clear 7 1012 70 10000 4 220 12:54 13.03.2021
1524 Clear 5 1013 81 10000 4 200 12:36 13.03.2021
1525 Clouds 5 1013 81 10000 4 200 11:58 13.03.2021
1526 Clouds 6 1013 87 9000 3 220 11:39 13.03.2021
1527 Clouds 4 1013 87 9000 3 220 11:20 13.03.2021
1528 Clouds 4 1013 87 10000 3 250 10:36 13.03.2021
1529 Clouds 4 1013 87 10000 3 230 10:18 13.03.2021
1530 Clouds 3 1013 87 10000 3 230 09:33 13.03.2021
1531 Clouds 3 1013 93 8000 3 270 08:54 13.03.2021
1532 Clouds 3 1013 93 8000 3 270 08:54 13.03.2021
1533 Clouds 3 1013 93 8000 4 250 08:26 13.03.2021
1534 Mist 2 1013 100 5000 5 250 07:58 13.03.2021
1535 Mist 2 1012 100 4000 5 250 07:38 13.03.2021
1536 Mist 1 1011 93 4400 4 250 05:31 13.03.2021
1537 Mist 1 1010 100 4700 2 230 02:42 13.03.2021
1538 Mist 0 1009 100 4100 1 0 00:36 13.03.2021
1539 Mist -1 1009 100 4400 1 190 23:46 12.03.2021
1540 Mist -1 1009 93 5000 2 210 23:28 12.03.2021
1541 Snow -1 1009 100 8000 2 200 22:41 12.03.2021
1542 Snow -1 1009 100 8000 2 200 22:20 12.03.2021
1543 Snow -1 1009 93 4500 2 190 21:38 12.03.2021
1544 Snow -1 1009 93 4500 2 190 21:38 12.03.2021
1545 Snow -1 1009 93 4500 2 190 21:19 12.03.2021
1546 Snow -2 1009 93 6000 3 190 20:48 12.03.2021
1547 Snow -2 1009 93 2400 3 180 20:24 12.03.2021
1548 Snow -2 1010 93 2300 3 170 19:45 12.03.2021
1549 Snow -2 1010 93 2300 3 170 19:27 12.03.2021
1550 Snow -1 1010 93 2000 4 170 18:53 12.03.2021
1551 Snow -2 1010 93 2600 5 170 18:29 12.03.2021
1552 Snow -2 1010 100 2000 4 170 17:45 12.03.2021
1553 Snow -2 1009 93 1500 4 160 17:27 12.03.2021
1554 Snow -2 1009 100 750 3 150 16:44 12.03.2021
1555 Snow -2 1009 93 900 4 150 16:25 12.03.2021
1556 Snow -2 1010 86 900 5 150 15:38 12.03.2021
1557 Snow -2 1010 86 1400 5 160 14:58 12.03.2021
1558 Snow -2 1011 86 1400 5 160 14:38 12.03.2021
1559 Snow -2 1011 86 1400 4 160 14:18 12.03.2021
1560 Snow -2 1011 93 1800 5 160 13:38 12.03.2021
1561 Snow -3 1011 93 1200 5 160 13:19 12.03.2021
1562 Snow -3 1012 86 1000 5 170 12:48 12.03.2021
1563 Snow -3 1012 86 1000 5 170 12:27 12.03.2021
1564 Snow -3 1012 80 1300 5 170 11:54 12.03.2021
1565 Snow -3 1012 74 2000 6 170 11:24 12.03.2021
1566 Clouds -2 1013 64 10000 6 170 10:57 12.03.2021
1567 Snow -3 1013 63 10000 7 160 10:28 12.03.2021
1568 Snow -3 1013 63 10000 7 160 10:28 12.03.2021
1569 Snow -3 1013 63 10000 7 170 09:57 12.03.2021
1570 Snow -3 1013 63 10000 7 170 09:27 12.03.2021
1571 Clear -3 1014 59 10000 7 170 08:47 12.03.2021
1572 Clear -3 1014 59 10000 7 170 08:26 12.03.2021
1573 Snow -4 1015 68 10000 6 160 07:40 12.03.2021
1574 Snow -4 1015 68 10000 5 160 06:59 12.03.2021
1575 Snow -4 1015 68 10000 6 170 06:29 12.03.2021
1576 Snow -3 1017 63 10000 5 170 02:58 12.03.2021
1577 Snow -3 1018 59 10000 5 170 00:51 12.03.2021
1578 Clear -3 1019 68 10000 4 150 23:34 11.03.2021
1579 Clear -3 1020 63 10000 3 140 22:51 11.03.2021
1580 Clear -3 1020 63 10000 3 140 22:31 11.03.2021
1581 Clear -3 1021 63 10000 3 140 21:56 11.03.2021
1582 Clear -3 1021 63 10000 4 130 21:37 11.03.2021
1583 Clear -3 1021 63 10000 3 140 21:19 11.03.2021
1584 Clear -3 1021 54 10000 3 150 20:41 11.03.2021
1585 Clear -3 1021 54 10000 3 150 20:19 11.03.2021
1586 Clear -2 1021 54 10000 2 150 19:46 11.03.2021
1587 Clear -2 1021 54 10000 2 160 19:27 11.03.2021
1588 Clear -1 1022 47 10000 3 160 18:49 11.03.2021
1589 Clear -1 1022 47 10000 3 160 18:49 11.03.2021
1590 Clear -1 1022 47 10000 3 160 18:31 11.03.2021
1591 Clear -1 1022 51 10000 3 160 17:45 11.03.2021
1592 Clear -1 1022 51 10000 3 170 17:24 11.03.2021
1593 Clear 0 1022 43 10000 4 180 16:29 11.03.2021
1594 Clear 1 1022 40 10000 4 180 15:49 11.03.2021
1595 Clear 1 1023 44 10000 4 180 15:22 11.03.2021
1596 Clear 1 1024 40 10000 3 190 14:49 11.03.2021
1597 Clouds 2 1024 44 10000 3 190 14:20 11.03.2021
1598 Clouds 2 1024 44 10000 3 190 13:59 11.03.2021
1599 Clouds 2 1024 40 10000 3 170 13:38 11.03.2021
1600 Clear 1 1024 40 10000 3 170 13:18 11.03.2021
1601 Clouds 1 1025 40 10000 4 180 12:43 11.03.2021
1602 Clouds 1 1025 40 10000 4 180 12:25 11.03.2021
1603 Clouds 1 1025 43 10000 4 190 11:43 11.03.2021
1604 Clouds 1 1025 43 10000 4 190 11:25 11.03.2021
1605 Clouds 0 1025 47 10000 2 140 10:42 11.03.2021
1606 Clouds -1 1025 47 10000 4 150 10:20 11.03.2021
1607 Clouds -1 1025 51 10000 3 140 09:44 11.03.2021
1608 Clear -2 1026 54 10000 3 140 09:23 11.03.2021
1609 Clear -2 1026 54 10000 3 140 08:47 11.03.2021
1610 Clear -2 1025 59 10000 3 120 08:19 11.03.2021
1611 Clear -3 1025 68 10000 2 140 07:30 11.03.2021
1612 Clear -5 1025 80 10000 2 100 06:50 11.03.2021
1613 Clear -6 1025 79 10000 1 80 06:30 11.03.2021
1614 Clouds -6 1025 86 9000 1 100 03:52 11.03.2021
1615 Clouds -6 1025 79 9000 2 80 01:18 11.03.2021
1616 Clear -5 1024 73 10000 2 70 23:32 10.03.2021
1617 Clear -5 1024 73 10000 1 0 22:59 10.03.2021
1618 Clear -5 1024 63 10000 1 0 22:33 10.03.2021
1619 Clear -4 1024 63 10000 2 140 21:47 10.03.2021
1620 Clear -4 1024 63 10000 2 140 21:26 10.03.2021
1621 Clear -4 1024 63 10000 2 140 20:51 10.03.2021
1622 Clear -4 1024 58 10000 2 130 20:33 10.03.2021
1623 Clear -3 1024 63 9000 1 120 19:54 10.03.2021
1624 Clear -3 1024 58 9000 1 130 19:30 10.03.2021
1625 Clear -3 1024 54 10000 1 0 18:55 10.03.2021
1626 Clear -3 1024 54 10000 2 180 18:36 10.03.2021
1627 Clear -3 1024 54 10000 2 180 18:18 10.03.2021
1628 Clear -2 1023 50 10000 2 210 17:41 10.03.2021
1629 Clear -1 1023 43 10000 2 180 17:19 10.03.2021
1630 Clear -1 1023 40 10000 2 140 16:47 10.03.2021
1631 Clear 0 1023 40 10000 2 140 16:25 10.03.2021
1632 Clear 0 1023 37 10000 2 150 15:49 10.03.2021
1633 Clear 0 1023 37 10000 3 110 15:25 10.03.2021
1634 Clear 0 1023 37 10000 3 100 14:57 10.03.2021
1635 Clear 1 1023 40 10000 3 130 14:22 10.03.2021
1636 Clear 1 1024 40 10000 2 110 13:53 10.03.2021
1637 Clouds 0 1024 40 10000 2 60 13:31 10.03.2021
1638 Clouds 0 1024 40 10000 3 210 12:47 10.03.2021
1639 Clouds 0 1024 40 10000 3 210 12:24 10.03.2021
1640 Clouds 0 1024 43 10000 2 240 11:50 10.03.2021
1641 Clouds -1 1025 43 10000 3 180 11:22 10.03.2021
1642 Clear 0 1025 40 10000 2 190 10:50 10.03.2021
1643 Clear -2 1025 43 10000 2 190 10:31 10.03.2021
1644 Clear -2 1025 46 10000 3 180 09:55 10.03.2021
1645 Clear -2 1025 46 10000 3 180 09:37 10.03.2021
1646 Clear -2 1025 46 10000 3 160 09:18 10.03.2021
1647 Clear -1 1025 46 10000 2 150 08:42 10.03.2021
1648 Clear -3 1025 50 10000 3 130 08:23 10.03.2021
1649 Clear -3 1025 58 10000 2 140 07:42 10.03.2021
1650 Clear -4 1025 58 10000 2 140 07:21 10.03.2021
1651 Clear -5 1024 68 10000 2 130 06:49 10.03.2021
1652 Clouds -7 1024 79 9000 1 160 02:42 10.03.2021
1653 Clouds -6 1024 68 10000 1 90 23:59 09.03.2021
1654 Clouds -5 1024 68 10000 1 100 23:27 09.03.2021
1655 Clouds -5 1024 63 10000 1 90 22:49 09.03.2021
1656 Clouds -5 1024 58 10000 2 50 22:28 09.03.2021
1657 Clouds -4 1023 50 10000 4 40 21:57 09.03.2021
1658 Clouds -4 1023 54 10000 2 30 21:37 09.03.2021
1659 Clouds -3 1023 46 10000 3 10 21:18 09.03.2021
1660 Snow -3 1023 50 10000 3 10 20:43 09.03.2021
1661 Clouds -3 1022 50 10000 3 20 20:21 09.03.2021
1662 Clouds -3 1022 50 10000 3 20 19:53 09.03.2021
1663 Clouds -3 1022 50 10000 2 10 19:28 09.03.2021
1664 Clouds -3 1022 50 10000 3 300 18:51 09.03.2021
1665 Snow -3 1022 46 10000 3 300 18:29 09.03.2021
1666 Clear -3 1021 46 10000 2 330 17:54 09.03.2021
1667 Clouds -3 1021 46 10000 3 340 17:34 09.03.2021
1668 Clear -3 1021 46 10000 4 330 16:55 09.03.2021
1669 Clouds -2 1021 50 10000 3 20 16:37 09.03.2021
1670 Clear -2 1021 43 10000 2 10 16:19 09.03.2021
1671 Clear -2 1020 43 10000 4 340 15:44 09.03.2021
1672 Clear -2 1020 43 10000 4 340 15:22 09.03.2021
1673 Clouds -1 1020 59 10000 3 340 14:36 09.03.2021
1674 Snow -2 1020 59 10000 3 330 14:18 09.03.2021
1675 Snow -2 1020 59 10000 1 0 13:38 09.03.2021
1676 Snow -2 1020 59 10000 1 0 13:20 09.03.2021
1677 Snow -3 1020 80 1400 5 350 12:40 09.03.2021
1678 Snow -3 1020 68 10000 3 350 12:21 09.03.2021
1679 Snow -3 1020 74 8000 3 360 11:42 09.03.2021
1680 Snow -3 1020 68 8000 4 340 11:21 09.03.2021
1681 Snow -3 1020 74 10000 5 40 10:55 09.03.2021
1682 Snow -3 1019 54 10000 4 330 10:36 09.03.2021
1683 Snow -3 1019 54 10000 4 330 10:18 09.03.2021
1684 Snow -3 1019 63 10000 4 340 09:42 09.03.2021
1685 Snow -3 1019 68 10000 4 330 09:23 09.03.2021
1686 Snow -3 1019 74 9000 2 350 08:46 09.03.2021
1687 Snow -4 1019 80 2700 4 10 08:21 09.03.2021
1688 Snow -4 1018 68 10000 4 330 07:38 09.03.2021
1689 Snow -4 1018 68 10000 4 330 07:20 09.03.2021
1690 Snow -4 1017 68 10000 3 320 05:55 09.03.2021
1691 Snow -4 1017 68 10000 4 320 05:37 09.03.2021
1692 Clear -5 1015 68 10000 4 300 00:29 09.03.2021
1693 Clear -5 1015 73 10000 4 290 23:43 08.03.2021
1694 Clear -5 1015 73 10000 4 290 23:23 08.03.2021
1695 Clear -5 1015 74 10000 4 310 22:45 08.03.2021
1696 Clear -4 1015 74 10000 4 310 22:27 08.03.2021
1697 Clear -4 1014 68 10000 4 320 21:55 08.03.2021
1698 Clear -4 1014 68 10000 5 320 21:35 08.03.2021
1699 Clear -4 1014 74 10000 5 320 20:47 08.03.2021
1700 Clear -4 1014 74 10000 5 320 20:26 08.03.2021
1701 Clear -3 1013 68 10000 6 320 19:59 08.03.2021
1702 Clear -3 1013 74 10000 6 310 19:36 08.03.2021
1703 Clear -3 1013 80 10000 6 300 18:42 08.03.2021
1704 Clear -3 1013 80 10000 6 300 18:21 08.03.2021
1705 Snow -3 1013 93 900 8 320 17:51 08.03.2021
1706 Snow -1 1011 69 10000 6 330 17:32 08.03.2021
1707 Snow -2 1011 74 10000 7 320 16:49 08.03.2021
1708 Snow 0 1010 47 10000 7 280 16:29 08.03.2021
1709 Snow 1 1010 47 10000 7 280 15:51 08.03.2021
1710 Snow 1 1010 47 10000 7 280 15:29 08.03.2021
1711 Snow 2 1010 47 10000 8 290 14:46 08.03.2021
1712 Rain 2 1010 44 10000 7 290 14:20 08.03.2021
1713 Snow 2 1009 44 10000 8 320 13:40 08.03.2021
1714 Snow 2 1009 44 10000 8 320 13:19 08.03.2021
1715 Rain 2 1009 41 10000 5 300 12:45 08.03.2021
1716 Clear 3 1009 41 10000 5 300 12:26 08.03.2021
1717 Clear 3 1009 41 10000 7 290 11:40 08.03.2021
1718 Clouds 3 1009 41 10000 8 290 11:19 08.03.2021
1719 Clouds 1 1009 48 10000 8 290 10:43 08.03.2021
1720 Clouds 1 1009 48 10000 8 290 10:24 08.03.2021
1721 Clouds 2 1009 55 10000 7 280 09:41 08.03.2021
1722 Clouds 1 1009 64 10000 6 290 09:22 08.03.2021
1723 Snow 0 1009 69 10000 6 300 08:28 08.03.2021
1724 Snow 0 1008 74 10000 7 310 07:24 08.03.2021
1725 Snow 0 1008 74 10000 7 310 07:24 08.03.2021
1726 Snow 1 1007 80 10000 7 280 06:44 08.03.2021
1727 Snow 1 1007 75 10000 6 260 03:39 08.03.2021
1728 Snow 2 1009 69 10000 6 270 00:45 08.03.2021
1729 Rain 2 1009 64 10000 6 260 23:59 07.03.2021
1730 Snow 2 1009 64 10000 7 260 23:39 07.03.2021
1731 Snow 2 1009 64 10000 7 260 23:19 07.03.2021
1732 Snow 2 1009 64 10000 6 260 22:43 07.03.2021
1733 Clouds 2 1009 64 10000 6 260 22:25 07.03.2021
1734 Snow 2 1009 64 10000 6 260 21:45 07.03.2021
1735 Clouds 2 1010 64 10000 7 260 21:25 07.03.2021
1736 Clouds 2 1010 64 10000 8 260 20:48 07.03.2021
1737 Clouds 2 1010 64 10000 8 260 20:30 07.03.2021
1738 Clouds 2 1010 64 10000 8 260 19:57 07.03.2021
1739 Clouds 2 1010 64 10000 9 260 19:38 07.03.2021
1740 Clouds 2 1010 64 10000 9 260 19:20 07.03.2021
1741 Clouds 2 1011 64 10000 10 270 18:44 07.03.2021
1742 Clouds 2 1011 64 10000 9 270 18:20 07.03.2021
1743 Clouds 2 1011 64 10000 10 270 17:42 07.03.2021
1744 Clouds 2 1011 64 10000 10 270 17:21 07.03.2021
1745 Clouds 2 1011 64 10000 10 270 16:59 07.03.2021
1746 Clouds 2 1011 64 10000 10 260 16:38 07.03.2021
1747 Clouds 2 1011 64 10000 10 260 16:19 07.03.2021
1748 Clouds 2 1011 64 10000 9 260 15:45 07.03.2021
1749 Clouds 2 1012 64 10000 10 260 15:23 07.03.2021
1750 Clouds 2 1012 64 10000 10 260 14:37 07.03.2021
1751 Clouds 2 1012 60 10000 10 260 14:19 07.03.2021
1752 Clouds 2 1012 60 10000 10 260 13:41 07.03.2021
1753 Clouds 2 1012 60 10000 10 260 13:21 07.03.2021
1754 Clouds 1 1013 64 10000 8 260 12:46 07.03.2021
1755 Clouds 1 1013 64 10000 8 260 12:28 07.03.2021
1756 Clouds 1 1014 64 10000 9 260 11:45 07.03.2021
1757 Clouds 1 1014 64 10000 9 260 11:22 07.03.2021
1758 Clouds 1 1015 64 10000 9 250 10:43 07.03.2021
1759 Clouds 1 1015 64 10000 9 250 10:25 07.03.2021
1760 Clouds 1 1015 60 10000 8 250 09:43 07.03.2021
1761 Clouds 1 1015 64 10000 8 250 09:23 07.03.2021
1762 Clouds 0 1016 69 10000 9 250 08:45 07.03.2021
1763 Clear 0 1016 69 10000 8 250 08:24 07.03.2021
1764 Clear -2 1017 74 10000 6 240 07:34 07.03.2021
1765 Clear -4 1022 80 10000 3 240 02:42 07.03.2021
1766 Clear -3 1023 74 10000 5 260 00:51 07.03.2021
1767 Clear -3 1023 74 10000 4 250 23:46 06.03.2021
1768 Clear -3 1024 68 10000 4 260 23:24 06.03.2021
1769 Clear -3 1024 68 10000 4 260 22:48 06.03.2021
1770 Clear -3 1024 63 10000 4 280 22:28 06.03.2021
1771 Clear -2 1024 63 10000 4 280 21:58 06.03.2021
1772 Clear -2 1024 63 10000 4 280 21:22 06.03.2021
1773 Clear -2 1024 59 10000 4 280 20:53 06.03.2021
1774 Clear -2 1024 59 10000 3 260 20:33 06.03.2021
1775 Clear -2 1024 54 10000 4 300 19:50 06.03.2021
1776 Clear -2 1024 54 10000 5 300 19:22 06.03.2021
1777 Clear -2 1023 59 10000 4 280 18:56 06.03.2021
1778 Clear -1 1023 59 10000 4 300 18:37 06.03.2021
1779 Clear -1 1023 55 10000 5 300 18:18 06.03.2021
1780 Clear -1 1023 55 10000 5 300 17:44 06.03.2021
1781 Clouds 0 1022 47 10000 7 320 17:22 06.03.2021
1782 Clouds 0 1022 51 10000 5 300 16:43 06.03.2021
1783 Clouds 1 1022 51 10000 5 300 16:24 06.03.2021
1784 Snow 1 1022 59 7000 7 310 15:51 06.03.2021
1785 Snow 1 1022 47 10000 8 280 15:31 06.03.2021
1786 Snow 2 1022 55 8000 8 290 14:53 06.03.2021
1787 Snow 2 1022 44 10000 8 300 14:29 06.03.2021
1788 Snow 2 1022 44 10000 8 300 14:29 06.03.2021
1789 Snow 2 1022 40 10000 7 300 13:42 06.03.2021
1790 Rain 2 1022 40 10000 7 300 13:20 06.03.2021
1791 Rain 2 1022 34 10000 6 310 12:44 06.03.2021
1792 Clear 2 1022 34 10000 6 310 12:20 06.03.2021
1793 Clear 2 1022 35 10000 7 290 11:55 06.03.2021
1794 Clear 2 1023 34 10000 5 310 11:22 06.03.2021
1795 Clear 2 1022 37 10000 3 330 10:49 06.03.2021
1796 Clear 1 1022 37 10000 3 330 10:24 06.03.2021
1797 Clear 0 1023 37 10000 5 330 09:47 06.03.2021
1798 Clear 0 1022 43 10000 4 340 09:20 06.03.2021
1799 Clear 0 1022 43 10000 4 340 08:46 06.03.2021
1800 Clear -2 1022 50 10000 3 330 07:58 06.03.2021
1801 Clear -3 1022 54 10000 5 330 07:39 06.03.2021
1802 Clear -3 1022 54 10000 5 330 07:19 06.03.2021
1803 Clear -4 1021 54 10000 4 350 05:37 06.03.2021
1804 Clear -2 1019 59 10000 6 10 02:38 06.03.2021
1805 Clear -1 1019 59 10000 6 360 00:56 06.03.2021
1806 Snow 0 1018 59 10000 6 360 23:54 05.03.2021
1807 Snow 0 1018 59 10000 6 360 23:29 05.03.2021
1808 Clear 0 1018 59 10000 5 360 22:49 05.03.2021
1809 Snow 1 1017 60 10000 3 20 22:23 05.03.2021
1810 Snow 1 1017 60 10000 3 20 21:54 05.03.2021
1811 Snow 1 1017 60 10000 3 30 21:35 05.03.2021
1812 Snow 1 1016 64 10000 3 10 20:58 05.03.2021
1813 Snow 1 1016 64 10000 3 360 20:40 05.03.2021
1814 Snow 1 1015 64 10000 1 90 20:21 05.03.2021
1815 Snow 2 1015 60 10000 2 110 19:36 05.03.2021
1816 Rain 2 1015 55 10000 4 40 19:18 05.03.2021
1817 Rain 2 1015 55 10000 3 20 18:42 05.03.2021
1818 Rain 2 1015 55 10000 3 20 18:42 05.03.2021
1819 Rain 2 1015 55 10000 3 20 18:23 05.03.2021
1820 Rain 2 1014 64 10000 4 360 17:37 05.03.2021
1821 Snow 2 1014 69 10000 5 20 16:58 05.03.2021
1822 Rain 2 1013 64 10000 4 360 16:38 05.03.2021
1823 Rain 2 1013 64 10000 4 360 16:20 05.03.2021
1824 Rain 2 1013 69 10000 2 360 15:46 05.03.2021
1825 Rain 2 1013 75 10000 3 20 15:23 05.03.2021
1826 Snow 3 1013 87 7000 2 320 14:39 05.03.2021
1827 Snow 2 1013 93 9000 2 310 13:59 05.03.2021
1828 Snow 1 1013 86 4100 2 310 13:22 05.03.2021
1829 Snow 2 1013 75 9000 1 0 13:00 05.03.2021
1830 Snow 2 1013 80 9000 3 310 12:27 05.03.2021
1831 Rain 3 1012 70 10000 1 0 11:37 05.03.2021
1832 Rain 3 1012 80 10000 2.13 26 11:37 05.03.2021
1833 Rain 3 1012 70 10000 1 0 11:18 05.03.2021
1834 Clouds 3 1012 70 10000 2 80 10:42 05.03.2021
1835 Clouds 3 1012 70 10000 2 80 10:23 05.03.2021
1836 Clouds 3 1012 75 10000 2 40 09:50 05.03.2021
1837 Clouds 3 1012 75 10000 2 10 09:27 05.03.2021
1838 Clouds 3 1012 87 10000 2 360 08:46 05.03.2021
1839 Clouds 2 1012 87 10000 1 0 08:27 05.03.2021
1840 Clouds 2 1011 87 9000 1 310 07:55 05.03.2021
1841 Rain 2 1011 93 6000 2 350 07:28 05.03.2021
1842 Mist 1 1011 93 4700 3 320 06:33 05.03.2021
1843 Clouds 2 1010 75 10000 4 330 03:34 05.03.2021
1844 Clouds 4 1009 70 9000 6 320 00:49 05.03.2021
1845 Clouds 5 1008 70 7000 4 320 23:43 04.03.2021
1846 Clouds 5 1008 75 8000 6 320 22:55 04.03.2021
1847 Clouds 5 1008 70 8000 6 330 22:26 04.03.2021
1848 Clouds 5 1008 75 9000 5 320 21:51 04.03.2021
1849 Clouds 6 1007 75 9000 4 280 21:29 04.03.2021
1850 Clear 6 1007 75 10000 4 250 20:42 04.03.2021
1851 Clear 6 1007 75 10000 4 250 20:23 04.03.2021
1852 Clear 6 1007 75 10000 4 250 19:58 04.03.2021
1853 Clouds 7 1007 70 10000 4 260 19:39 04.03.2021
1854 Clouds 7 1007 70 10000 5 260 19:21 04.03.2021
1855 Clouds 8 1007 66 10000 6 260 18:45 04.03.2021
1856 Clouds 8 1007 66 10000 6 260 18:24 04.03.2021
1857 Clouds 7 1007 70 10000 4 240 17:46 04.03.2021
1858 Clear 8 1007 66 10000 5 260 17:27 04.03.2021
1859 Clear 8 1007 66 10000 5 260 16:47 04.03.2021
1860 Clear 8 1007 66 10000 5 250 16:28 04.03.2021
1861 Clear 9 1007 61 10000 6 260 15:50 04.03.2021
1862 Rain 9 1007 61 10000 6 260 15:31 04.03.2021
1863 Clear 9 1007 61 10000 6 250 14:49 04.03.2021
1864 Clear 9 1007 61 10000 6 250 14:26 04.03.2021
1865 Rain 10 1007 61 10000 6 250 13:48 04.03.2021
1866 Rain 9 1008 61 10000 7 250 13:30 04.03.2021
1867 Rain 9 1008 57 10000 7 250 12:53 04.03.2021
1868 Rain 9 1008 57 10000 7 250 12:35 04.03.2021
1869 Clear 9 1009 61 10000 7 250 11:47 04.03.2021
1870 Clear 8 1010 61 10000 6 250 11:25 04.03.2021
1871 Clear 8 1010 61 10000 6 250 10:47 04.03.2021
1872 Clear 7 1011 65 10000 7 260 10:26 04.03.2021
1873 Clear 5 1011 70 10000 7 260 09:39 04.03.2021
1874 Clear 4 1012 75 9000 5 240 08:59 04.03.2021
1875 Clear 3 1012 93 8000 4 240 08:35 04.03.2021
1876 Mist 2 1013 100 4900 3 240 07:53 04.03.2021
1877 Mist 2 1013 100 4900 3 240 07:28 04.03.2021
1878 Mist 0 1014 100 3700 4 250 06:24 04.03.2021
1879 Mist -1 1017 100 1100 5 250 03:25 04.03.2021
1880 Clear -1 1019 93 9000 3 240 01:40 04.03.2021
1881 Clear 0 1022 86 10000 2 230 22:44 03.03.2021
1882 Clear 1 1022 86 10000 2 230 22:26 03.03.2021
1883 Clear 1 1022 80 10000 2 230 21:43 03.03.2021
1884 Clear 1 1022 80 10000 2 230 21:24 03.03.2021
1885 Clear 1 1023 80 10000 2 230 20:58 03.03.2021
1886 Clear 2 1023 80 10000 3 240 20:40 03.03.2021
1887 Clear 2 1023 75 10000 3 240 19:59 03.03.2021
1888 Clear 2 1024 75 10000 3 260 19:40 03.03.2021
1889 Clear 2 1024 75 10000 3 260 19:21 03.03.2021
1890 Clear 3 1024 75 10000 3 240 18:46 03.03.2021
1891 Clear 3 1024 70 10000 3 240 18:21 03.03.2021
1892 Clear 4 1024 65 10000 3 260 17:43 03.03.2021
1893 Clear 4 1024 65 10000 3 260 17:18 03.03.2021
1894 Clear 5 1024 60 10000 6 260 16:44 03.03.2021
1895 Clear 6 1024 60 10000 6 260 16:23 03.03.2021
1896 Clear 7 1025 61 10000 6 270 15:34 03.03.2021
1897 Clouds 7 1025 61 10000 6 270 14:58 03.03.2021
1898 Clouds 7 1025 61 10000 6 270 14:30 03.03.2021
1899 Clouds 7 1025 61 10000 7 260 13:53 03.03.2021
1900 Clouds 6 1026 65 10000 5 290 13:31 03.03.2021
1901 Clouds 6 1026 65 10000 5 280 12:45 03.03.2021
1902 Clouds 6 1026 65 10000 5 280 12:26 03.03.2021
1903 Clouds 5 1026 65 10000 5 280 11:48 03.03.2021
1904 Clouds 5 1027 65 10000 5 280 11:28 03.03.2021
1905 Clear 4 1027 65 10000 5 280 10:50 03.03.2021
1906 Clear 4 1027 75 10000 3 300 10:31 03.03.2021
1907 Clouds 3 1027 75 10000 4 280 09:50 03.03.2021
1908 Clouds 3 1027 81 10000 4 300 09:31 03.03.2021
1909 Clouds 2 1027 87 10000 5 310 08:44 03.03.2021
1910 Clouds 2 1027 80 10000 5 300 08:22 03.03.2021
1911 Clouds 0 1027 93 10000 5 320 07:41 03.03.2021
1912 Clouds 0 1026 93 10000 4 310 06:51 03.03.2021
1913 Clouds 0 1026 93 10000 5 310 05:49 03.03.2021
1914 Clouds 0 1026 93 10000 5 310 05:49 03.03.2021
1915 Clear 0 1025 93 10000 6 320 04:59 03.03.2021
1916 Clear 0 1025 93 10000 6 310 04:35 03.03.2021
1917 Clouds 1 1024 86 10000 7 310 02:19 03.03.2021
1918 Clouds 2 1024 87 10000 5 320 23:58 02.03.2021
1919 Clouds 2 1023 87 10000 7 310 23:28 02.03.2021
1920 Clear 2 1023 87 10000 6 310 22:42 02.03.2021
1921 Clear 2 1023 80 10000 6 310 22:19 02.03.2021
1922 Clear 2 1023 80 10000 7 300 21:40 02.03.2021
1923 Clear 2 1023 80 10000 7 300 21:22 02.03.2021
1924 Clear 2 1022 80 10000 7 310 20:47 02.03.2021
1925 Clear 2 1022 80 10000 7 310 20:47 02.03.2021
1926 Clear 2 1022 80 10000 7 310 20:22 02.03.2021
1927 Clouds 3 1022 75 10000 6 320 19:53 02.03.2021
1928 Clouds 3 1022 75 10000 7 320 19:33 02.03.2021
1929 Clouds 3 1022 75 10000 7 320 18:58 02.03.2021
1930 Clouds 2 1021 80 10000 8 310 18:40 02.03.2021
1931 Clouds 2 1021 80 10000 8 310 18:21 02.03.2021
1932 Clouds 3 1021 75 10000 7 300 17:49 02.03.2021
1933 Clouds 3 1021 75 10000 7 300 17:29 02.03.2021
1934 Clouds 3 1021 75 10000 8 300 16:49 02.03.2021
1935 Clouds 3 1021 75 10000 8 310 16:20 02.03.2021
1936 Clouds 3 1021 75 10000 8 310 16:20 02.03.2021
1937 Clouds 3 1021 75 10000 8 310 15:48 02.03.2021
1938 Clouds 3 1021 75 10000 8 310 15:22 02.03.2021
1939 Clouds 3 1021 75 10000 6 300 14:22 02.03.2021
1940 Clouds 3 1022 81 10000 6 300 13:49 02.03.2021
1941 Clouds 3 1022 81 10000 7 290 13:29 02.03.2021
1942 Clouds 2 1022 87 10000 7 290 12:51 02.03.2021
1943 Clouds 2 1022 87 10000 7 290 12:51 02.03.2021
1944 Clouds 2 1022 87 10000 7 290 12:29 02.03.2021
1945 Clouds 2 1023 87 9000 7 290 11:53 02.03.2021
1946 Clouds 2 1024 87 9000 7 290 11:30 02.03.2021
1947 Clouds 2 1023 87 9000 7 290 10:57 02.03.2021
1948 Clouds 2 1024 87 9000 7 290 10:31 02.03.2021
1949 Clouds 1 1024 93 9000 6 290 09:44 02.03.2021
1950 Clouds 1 1024 93 9000 6 290 09:25 02.03.2021
1951 Clouds 1 1024 93 10000 7 290 08:56 02.03.2021
1952 Clouds 1 1024 93 10000 7 290 08:35 02.03.2021
1953 Clouds 1 1024 93 10000 7 280 07:52 02.03.2021
1954 Clouds 1 1025 93 10000 8 280 06:50 02.03.2021
1955 Clouds 1 1025 93 10000 8 280 05:54 02.03.2021
1956 Clouds 1 1025 93 10000 9 280 05:33 02.03.2021
1957 Clouds 1 1025 93 10000 8 270 04:39 02.03.2021
1958 Clouds 2 1027 87 10000 5 250 01:43 02.03.2021
1959 Clouds 2 1028 87 10000 5 260 01:43 02.03.2021
1960 Clouds 2 1028 87 10000 5 260 01:43 02.03.2021
1961 Clouds 2 1028 87 10000 5 260 01:43 02.03.2021
1962 Clouds 2 1028 87 10000 5 260 01:22 02.03.2021
1963 Clouds 2 1029 87 10000 4 270 23:40 01.03.2021
1964 Clouds 2 1029 87 10000 3 260 23:19 01.03.2021
1965 Clouds 2 1029 93 10000 3 270 22:38 01.03.2021
1966 Clouds 2 1029 93 10000 3 270 22:19 01.03.2021
1967 Clouds 1 1030 93 10000 3 270 21:42 01.03.2021
1968 Clouds 2 1030 93 10000 3 270 21:23 01.03.2021
1969 Clouds 1 1030 93 10000 3 280 20:45 01.03.2021
1970 Clouds 1 1030 93 10000 4 270 20:26 01.03.2021
1971 Clouds 1 1030 93 10000 3 290 19:45 01.03.2021
1972 Clouds 2 1030 93 10000 3 290 19:26 01.03.2021
1973 Clouds 1 1030 93 10000 3 280 18:44 01.03.2021
1974 Clouds 2 1030 93 10000 3 280 18:23 01.03.2021
1975 Clouds 2 1030 93 10000 3 290 17:48 01.03.2021
1976 Clouds 2 1030 87 10000 3 310 17:23 01.03.2021
1977 Clouds 2 1029 87 10000 3 300 16:47 01.03.2021
1978 Clouds 2 1029 87 10000 3 300 16:29 01.03.2021
1979 Clouds 2 1029 87 10000 3 340 15:49 01.03.2021
1980 Clouds 2 1029 93 10000 1 0 15:23 01.03.2021
1981 Clouds 3 1029 87 10000 3 340 14:58 01.03.2021
1982 Clouds 3 1029 93 10000 2 340 14:39 01.03.2021
1983 Clouds 2 1029 93 4400 3 320 13:56 01.03.2021
1984 Clouds 3 1029 81 10000 3 350 13:37 01.03.2021
1985 Clouds 3 1029 81 10000 3 350 13:18 01.03.2021
1986 Clouds 3 1029 81 10000 2 360 12:42 01.03.2021
1987 Clouds 3 1029 81 10000 2 360 12:22 01.03.2021
1988 Clouds 3 1029 81 10000 3 340 11:47 01.03.2021
1989 Clouds 3 1029 81 10000 3 340 11:47 01.03.2021
1990 Clouds 3 1029 87 10000 3 360 11:18 01.03.2021
1991 Clouds 2 1029 87 10000 3 350 10:37 01.03.2021
1992 Clouds 2 1029 93 10000 3 10 10:18 01.03.2021
1993 Clouds 1 1028 93 10000 4 360 09:48 01.03.2021
1994 Clouds 1 1028 93 10000 3 360 09:28 01.03.2021
1995 Snow 1 1028 93 9000 3 360 08:55 01.03.2021
1996 Snow 1 1028 93 8000 4 360 08:22 01.03.2021
1997 Snow 1 1026 93 9000 3 350 07:19 01.03.2021
1998 Clouds 1 1025 100 10000 3 10 06:24 01.03.2021
1999 Clouds 1 1023 100 10000 4 30 02:38 01.03.2021
2000 Clouds 1 1021 100 10000 2 340 23:44 28.02.2021
2001 Snow 1 1020 100 5000 4 300 22:57 28.02.2021
2002 Snow 0 1020 100 5000 3 290 22:28 28.02.2021
2003 Snow 0 1020 100 5000 3 290 22:28 28.02.2021
2004 Snow 0 1020 100 5000 3 290 21:58 28.02.2021
2005 Snow 0 1020 100 3500 3 290 21:33 28.02.2021
2006 Snow 0 1020 100 4000 3 290 20:59 28.02.2021
2007 Snow 0 1020 100 3600 4 280 20:39 28.02.2021
2008 Snow 0 1020 100 3600 4 280 20:18 28.02.2021
2009 Snow 1 1020 100 2900 4 280 19:45 28.02.2021
2010 Snow 1 1020 100 4900 4 270 19:24 28.02.2021
2011 Snow 1 1020 86 7000 5 290 18:44 28.02.2021
2012 Snow 1 1020 86 7000 5 290 18:25 28.02.2021
2013 Clouds 2 1020 75 10000 6 300 17:51 28.02.2021
2014 Clouds 2 1020 75 10000 5 290 17:28 28.02.2021
2015 Clouds 2 1020 75 10000 7 300 16:56 28.02.2021
2016 Clouds 3 1020 75 10000 6 280 16:38 28.02.2021
2017 Rain 3 1020 70 10000 6 290 16:18 28.02.2021
2018 Rain 3 1021 70 10000 6 290 15:47 28.02.2021
2019 Rain 3 1021 70 10000 6 290 15:24 28.02.2021
2020 Rain 4 1021 70 10000 7 290 14:52 28.02.2021
2021 Rain 4 1021 65 10000 5 290 14:29 28.02.2021
2022 Rain 4 1021 65 10000 5 290 13:52 28.02.2021
2023 Rain 3 1022 70 10000 4 290 13:21 28.02.2021
2024 Rain 3 1022 75 10000 4 290 12:57 28.02.2021
2025 Rain 3 1022 75 10000 6 300 12:39 28.02.2021
2026 Clouds 2 1022 75 10000 4 300 12:20 28.02.2021
2027 Clouds 3 1022 75 10000 5 310 11:46 28.02.2021
2028 Clouds 3 1022 75 10000 5 310 11:26 28.02.2021
2029 Clouds 2 1023 75 10000 6 310 10:57 28.02.2021
2030 Clouds 2 1023 75 10000 7 300 10:29 28.02.2021
2031 Clouds 2 1023 80 10000 5 300 09:56 28.02.2021
2032 Clouds 2 1022 80 10000 6 320 09:34 28.02.2021
2033 Clouds 2 1022 80 10000 5 320 08:52 28.02.2021
2034 Clouds 2 1022 80 10000 5 320 08:33 28.02.2021
2035 Clouds 2 1023 86 10000 5 320 07:57 28.02.2021
2036 Clouds 1 1022 93 10000 4 320 07:39 28.02.2021
2037 Snow 1 1022 93 10000 5 320 07:18 28.02.2021
2038 Snow 1 1022 93 8000 5 320 06:21 28.02.2021
2039 Clouds 2 1021 93 10000 5 330 03:45 28.02.2021
2040 Rain 2 1021 93 5000 5 330 02:19 28.02.2021
2041 Snow 2 1021 93 9000 5 320 00:58 28.02.2021
2042 Snow 2 1020 93 10000 5 330 00:35 28.02.2021
2043 Clouds 2 1020 93 7000 5 320 23:48 27.02.2021
2044 Clouds 2 1020 93 6000 5 320 23:20 27.02.2021
2045 Clouds 2 1020 93 10000 6 320 22:49 27.02.2021
2046 Clouds 2 1020 93 8000 5 320 22:22 27.02.2021
2047 Clouds 2 1020 100 10000 6 320 21:50 27.02.2021
2048 Clouds 2 1020 100 10000 6 320 21:32 27.02.2021
2049 Clouds 2 1019 93 10000 5 320 20:53 27.02.2021
2050 Clouds 3 1019 93 10000 5 330 20:33 27.02.2021
2051 Clouds 2 1019 93 10000 6 320 19:48 27.02.2021
2052 Clouds 3 1019 93 10000 6 320 19:29 27.02.2021
2053 Rain 3 1019 93 10000 6 310 18:56 27.02.2021
2054 Rain 3 1019 93 10000 5 300 18:36 27.02.2021
2055 Rain 3 1018 93 9000 4 320 18:18 27.02.2021
2056 Clouds 3 1018 93 10000 4 310 17:42 27.02.2021
2057 Clouds 3 1018 93 7000 5 320 17:19 27.02.2021
2058 Rain 3 1018 93 7000 5 320 16:50 27.02.2021
2059 Rain 3 1017 93 9000 5 300 16:28 27.02.2021
2060 Clouds 4 1017 87 10000 5 300 15:46 27.02.2021
2061 Clouds 4 1017 87 10000 5 290 15:20 27.02.2021
2062 Clouds 4 1017 81 10000 6 300 14:41 27.02.2021
2063 Clouds 4 1017 81 10000 6 300 14:22 27.02.2021
2064 Clouds 5 1017 81 10000 6 290 13:47 27.02.2021
2065 Clouds 5 1017 81 10000 6 290 13:22 27.02.2021
2066 Clouds 5 1017 81 10000 5 290 12:49 27.02.2021
2067 Clouds 5 1017 81 10000 5 290 12:25 27.02.2021
2068 Clouds 5 1017 81 10000 7 300 11:52 27.02.2021
2069 Clouds 4 1017 87 10000 6 300 11:31 27.02.2021
2070 Clouds 4 1017 87 10000 8 300 10:53 27.02.2021
2071 Clouds 4 1017 81 10000 6 300 10:35 27.02.2021
2072 Clouds 4 1017 87 10000 6 300 09:54 27.02.2021
2073 Clouds 4 1017 87 10000 7 300 09:33 27.02.2021
2074 Clouds 3 1017 87 10000 5 290 08:44 27.02.2021
2075 Clouds 4 1017 87 10000 5 290 08:24 27.02.2021
2076 Clouds 4 1016 87 10000 5 290 07:58 27.02.2021
2077 Clouds 3 1016 87 10000 6 300 07:25 27.02.2021
2078 Rain 4 1015 87 10000 3 260 02:31 27.02.2021
2079 Rain 5 1016 93 9000 4 270 00:32 27.02.2021
2080 Rain 5 1016 87 8000 4 290 23:41 26.02.2021
2081 Rain 5 1016 87 8000 4 290 23:23 26.02.2021
2082 Rain 6 1016 87 8000 3 260 22:38 26.02.2021
2083 Rain 6 1017 87 7000 3 270 22:19 26.02.2021
2084 Clouds 6 1017 87 7000 3 260 21:36 26.02.2021
2085 Clouds 6 1017 81 8000 3 260 20:56 26.02.2021
2086 Clouds 6 1017 81 8000 3 260 20:56 26.02.2021
2087 Clouds 6 1017 81 8000 3 260 20:37 26.02.2021
2088 Clouds 6 1017 81 8000 3 260 20:37 26.02.2021
2089 Clouds 6 1017 81 9000 4 260 20:18 26.02.2021
2090 Clouds 6 1017 81 8000 4 250 19:27 26.02.2021
2091 Clouds 6 1017 81 8000 3 250 18:57 26.02.2021
2092 Clouds 6 1018 76 8000 3 250 18:36 26.02.2021
2093 Clouds 7 1018 76 8000 4 260 18:18 26.02.2021
2094 Clouds 8 1018 76 9000 3 250 17:38 26.02.2021
2095 Clouds 8 1018 71 9000 4 260 17:19 26.02.2021
2096 Clouds 8 1018 71 9000 4 260 16:46 26.02.2021
2097 Clear 9 1018 66 9000 4 260 16:28 26.02.2021
2098 Clear 10 1018 62 9000 4 250 15:45 26.02.2021
2099 Clear 10 1018 62 9000 4 250 15:27 26.02.2021
2100 Clear 10 1018 66 10000 5 270 14:58 26.02.2021
2101 Clear 10 1018 62 10000 5 270 14:36 26.02.2021
2102 Clear 10 1019 62 10000 6 270 13:59 26.02.2021
2103 Clear 10 1019 62 10000 5 260 13:39 26.02.2021
2104 Clear 9 1019 66 10000 6 260 12:58 26.02.2021
2105 Clear 9 1019 66 10000 5 260 12:31 26.02.2021
2106 Clear 8 1020 66 10000 7 270 11:47 26.02.2021
2107 Clear 9 1020 66 10000 6 270 11:20 26.02.2021
2108 Clear 9 1020 66 10000 6 270 11:20 26.02.2021
2109 Clear 8 1020 66 10000 6 270 10:43 26.02.2021
2110 Clear 7 1020 70 10000 6 260 09:48 26.02.2021
2111 Clear 6 1021 75 10000 6 260 09:28 26.02.2021
2112 Clear 5 1021 75 10000 5 270 08:41 26.02.2021
2113 Clear 3 1021 81 10000 4 260 07:59 26.02.2021
2114 Clear 3 1021 81 10000 4 260 07:59 26.02.2021
2115 Clouds 2 1021 100 9000 3 250 07:24 26.02.2021
2116 Fog 1 1022 100 3500 3 230 06:35 26.02.2021
2117 Clouds 3 1023 100 7000 3 240 05:20 26.02.2021
2118 Mist 3 1024 100 5000 3 230 02:41 26.02.2021
2119 Clouds 4 1025 93 6000 3 240 00:36 26.02.2021
2120 Clouds 5 1026 87 6000 3 240 23:41 25.02.2021
2121 Clouds 4 1026 93 6000 2 240 23:21 25.02.2021
2122 Clouds 5 1026 93 6000 2 240 22:42 25.02.2021
2123 Clouds 5 1026 87 7000 3 240 21:56 25.02.2021
2124 Clouds 5 1026 87 7000 3 250 21:34 25.02.2021
2125 Clouds 6 1026 87 7000 3 250 20:57 25.02.2021
2126 Clouds 6 1026 87 6000 3 250 20:37 25.02.2021
2127 Clouds 6 1026 87 6000 2 240 20:19 25.02.2021
2128 Clouds 6 1026 87 6000 2 240 19:49 25.02.2021
2129 Clouds 7 1026 87 6000 3 240 19:21 25.02.2021
2130 Clouds 6 1026 87 6000 3 230 18:44 25.02.2021
2131 Clouds 7 1026 81 8000 3 260 18:18 25.02.2021
2132 Clouds 8 1026 76 8000 3 250 17:42 25.02.2021
2133 Clouds 8 1026 76 8000 3 250 17:23 25.02.2021
2134 Clouds 10 1026 71 9000 4 260 16:35 25.02.2021
2135 Clouds 10 1026 66 9000 5 250 15:55 25.02.2021
2136 Clear 10 1026 71 10000 4 260 15:29 25.02.2021
2137 Clear 11 1027 66 10000 4 260 14:41 25.02.2021
2138 Clear 11 1027 66 10000 4 260 14:21 25.02.2021
2139 Clouds 10 1027 66 9000 4 270 13:48 25.02.2021
2140 Clouds 9 1027 66 9000 4 270 13:24 25.02.2021
2141 Clouds 9 1027 71 8000 6 260 12:46 25.02.2021
2142 Clouds 9 1027 71 8000 6 260 12:21 25.02.2021
2143 Clouds 9 1027 76 8000 6 260 11:43 25.02.2021
2144 Clouds 8 1028 81 7000 5 260 10:58 25.02.2021
2145 Clouds 8 1028 81 7000 5 260 10:37 25.02.2021
2146 Clouds 7 1027 76 6000 6 260 09:53 25.02.2021
2147 Mist 6 1028 81 5000 5 260 09:34 25.02.2021
2148 Mist 5 1028 87 5000 5 260 08:46 25.02.2021
2149 Mist 4 1028 87 4700 5 260 08:21 25.02.2021
2150 Mist 3 1028 93 3500 3 250 07:42 25.02.2021
2151 Mist 4 1028 93 3500 3 250 07:18 25.02.2021
2152 Mist 3 1028 93 4200 3 230 05:55 25.02.2021
2153 Mist 3 1030 100 3600 2 240 01:52 25.02.2021
2154 Mist 3 1030 93 3500 2 260 01:27 25.02.2021
2155 Mist 3 1030 93 3500 2 250 00:33 25.02.2021
2156 Mist 3 1030 93 3600 2 250 23:40 24.02.2021
2157 Mist 3 1030 93 3600 2 270 22:56 24.02.2021
2158 Mist 3 1030 87 3700 3 250 22:30 24.02.2021
2159 Mist 3 1030 93 3500 2 240 21:52 24.02.2021
2160 Mist 3 1030 93 3500 2 250 21:33 24.02.2021
2161 Rain 3 1030 93 95 2.23 255 20:50 24.02.2021
2162 Rain 3 1030 93 3200 2 260 20:28 24.02.2021
2163 Mist 3 1030 93 3800 2 260 19:47 24.02.2021
2164 Mist 3 1030 93 3800 2 260 19:21 24.02.2021
2165 Mist 3 1030 87 3500 2.16 286 18:54 24.02.2021
2166 Mist 3 1030 87 4400 2.25 263 18:32 24.02.2021
2167 Mist 3 1030 87 4600 2 260 17:45 24.02.2021
2168 Mist 3 1030 87 4600 2 260 17:25 24.02.2021
2169 Mist 3 1030 87 3800 2 250 16:48 24.02.2021
2170 Mist 4 1030 81 3800 3 250 16:21 24.02.2021
2171 Mist 4 1030 81 3700 2 230 15:55 24.02.2021
2172 Mist 4 1030 81 4000 2 240 15:34 24.02.2021
2173 Mist 3 1031 87 3800 3 280 14:52 24.02.2021
2174 Mist 4 1031 87 3800 4 270 14:30 24.02.2021
2175 Mist 4 1030 87 3900 4 260 13:55 24.02.2021
2176 Mist 3 1030 87 3900 4 260 13:37 24.02.2021
2177 Mist 3 1030 87 3800 2 260 13:18 24.02.2021
2178 Mist 3 1030 87 3900 3 260 12:38 24.02.2021
2179 Mist 3 1030 87 3900 3 260 12:20 24.02.2021
2180 Mist 2 1031 93 3700 5 250 11:36 24.02.2021
2181 Mist 2 1031 100 3400 5 250 10:47 24.02.2021
2182 Mist 1 1031 100 3000 4 230 10:26 24.02.2021
2183 Mist 0 1031 100 2100 4 220 09:30 24.02.2021
2184 Mist 0 1031 100 1900 3 230 08:51 24.02.2021
2185 Mist 0 1031 100 1600 3 220 08:32 24.02.2021
2186 Fog -1 1031 100 550 2 220 07:38 24.02.2021
2187 Fog -1 1031 100 550 2 220 07:18 24.02.2021
2188 Snow -2 1032 100 1300 2 170 05:27 24.02.2021
2189 Clouds -3 1034 86 10000 2 150 02:22 24.02.2021
2190 Clouds -3 1035 86 10000 2 160 23:39 23.02.2021
2191 Clouds -3 1035 86 10000 2 160 22:50 23.02.2021
2192 Snow -3 1035 86 10000 3 140 22:23 23.02.2021
2193 Snow -3 1035 86 10000 3 130 21:49 23.02.2021
2194 Snow -3 1035 86 9000 3 130 21:26 23.02.2021
2195 Snow -3 1036 86 10000 3 120 20:59 23.02.2021
2196 Snow -3 1036 86 9000 3 120 20:38 23.02.2021
2197 Clouds -3 1036 86 9000 3 110 20:19 23.02.2021
2198 Clouds -3 1036 86 9000 3 110 19:44 23.02.2021
2199 Clouds -3 1036 86 9000 4 110 19:26 23.02.2021
2200 Clouds -3 1036 86 10000 4 110 18:44 23.02.2021
2201 Clouds -3 1036 86 10000 4 110 18:25 23.02.2021
2202 Clouds -3 1035 86 10000 4 110 17:52 23.02.2021
2203 Clouds -3 1035 86 10000 5 110 17:27 23.02.2021
2204 Clouds -3 1035 86 10000 5 110 16:46 23.02.2021
2205 Snow -3 1035 86 10000 5 110 16:23 23.02.2021
2206 Clouds -2 1035 80 10000 4 110 15:46 23.02.2021
2207 Clouds -2 1035 80 10000 4 110 15:28 23.02.2021
2208 Clouds -2 1035 86 10000 5 110 14:50 23.02.2021
2209 Clouds -2 1035 86 9000 5 100 14:28 23.02.2021
2210 Clouds -1 1034 80 8000 5 110 13:59 23.02.2021
2211 Clouds -1 1034 80 7000 5 110 13:35 23.02.2021
2212 Clouds -1 1034 80 6000 5 110 12:57 23.02.2021
2213 Mist -1 1034 80 5000 5 100 12:24 23.02.2021
2214 Mist -1 1034 86 4800 5 90 11:55 23.02.2021
2215 Mist -1 1034 86 4600 4 100 11:26 23.02.2021
2216 Mist -1 1034 86 4300 4 100 10:55 23.02.2021
2217 Mist -1 1034 86 4300 4 100 10:37 23.02.2021
2218 Mist -1 1033 93 4100 4 100 09:57 23.02.2021
2219 Mist -1 1033 93 3800 6 90 09:36 23.02.2021
2220 Mist -1 1033 93 3800 6 90 09:36 23.02.2021
2221 Mist 0 1033 93 3800 6 90 09:18 23.02.2021
2222 Mist 0 1032 93 3200 6 80 08:43 23.02.2021
2223 Mist 0 1032 93 2300 5 90 08:20 23.02.2021
2224 Mist -1 1031 93 4900 5 80 06:52 23.02.2021
2225 Clouds 0 1029 100 6000 3 80 05:25 23.02.2021
2226 Clouds 1 1027 93 6000 2 230 02:37 23.02.2021
2227 Clouds 1 1027 86 8000 3 250 01:55 23.02.2021
2228 Clouds 2 1026 80 9000 3 260 00:19 23.02.2021
2229 Clear 2 1026 75 10000 3 270 23:25 22.02.2021
2230 Clear 1 1025 75 10000 3 280 22:42 22.02.2021
2231 Clear 1 1025 75 10000 3 280 22:42 22.02.2021
2232 Clear 2 1025 75 10000 3 280 22:21 22.02.2021
2233 Clear 2 1025 75 10000 4 270 21:54 22.02.2021
2234 Clear 3 1025 70 10000 4 260 21:36 22.02.2021
2235 Clear 3 1025 70 10000 4 260 21:18 22.02.2021
2236 Clear 4 1024 70 10000 4 270 20:42 22.02.2021
2237 Clear 4 1024 75 10000 4 270 20:22 22.02.2021
2238 Clear 4 1024 75 10000 4 260 19:38 22.02.2021
2239 Clear 4 1024 75 10000 4 260 19:19 22.02.2021
2240 Clouds 5 1024 75 7000 3 250 18:46 22.02.2021
2241 Clouds 5 1024 75 7000 3 250 18:22 22.02.2021
2242 Clouds 5 1024 70 9000 2 240 17:43 22.02.2021
2243 Clear 6 1024 65 10000 3 250 17:18 22.02.2021
2244 Clear 6 1024 65 10000 3 250 16:46 22.02.2021
2245 Clear 7 1024 61 10000 4 260 15:57 22.02.2021
2246 Clear 7 1024 61 10000 5 280 15:31 22.02.2021
2247 Clear 7 1024 57 10000 6 270 14:49 22.02.2021
2248 Clear 8 1024 53 10000 5 250 14:30 22.02.2021
2249 Clear 7 1024 56 10000 5 260 13:50 22.02.2021
2250 Clear 7 1024 56 10000 5 260 13:23 22.02.2021
2251 Clear 7 1024 56 10000 6 260 12:42 22.02.2021
2252 Clear 7 1024 56 10000 6 260 12:20 22.02.2021
2253 Clear 6 1024 60 10000 5 270 11:45 22.02.2021
2254 Clear 5 1025 65 10000 6 260 11:25 22.02.2021
2255 Clear 5 1025 65 10000 5 270 10:50 22.02.2021
2256 Clear 4 1025 70 10000 5 270 10:27 22.02.2021
2257 Clear 3 1025 75 10000 5 270 09:49 22.02.2021
2258 Clear 3 1025 75 10000 5 270 09:49 22.02.2021
2259 Clear 2 1025 75 10000 4 270 09:29 22.02.2021
2260 Clear 1 1025 80 10000 5 270 08:54 22.02.2021
2261 Clouds 0 1025 86 9000 3 260 08:31 22.02.2021
2262 Clouds 1 1026 80 9000 3 260 07:58 22.02.2021
2263 Clear 0 1025 86 10000 4 260 07:26 22.02.2021
2264 Clouds -1 1025 86 9000 3 250 06:45 22.02.2021
2265 Clouds 0 1025 86 9000 4 250 05:45 22.02.2021
2266 Clear 0 1025 86 10000 3 250 03:29 22.02.2021
2267 Clear 0 1025 86 10000 3 250 03:29 22.02.2021
2268 Clear 0 1025 86 10000 3 250 02:51 22.02.2021
2269 Clear 2 1026 80 10000 3 260 00:46 22.02.2021
2270 Clear 2 1026 80 10000 3 260 00:23 22.02.2021
2271 Clear 2 1026 80 10000 5 270 23:33 21.02.2021
2272 Clear 2 1025 80 10000 4 260 22:53 21.02.2021
2273 Clear 2 1026 80 10000 5 260 22:23 21.02.2021
2274 Clear 3 1026 75 10000 4 250 21:43 21.02.2021
2275 Clear 3 1026 75 10000 4 250 21:24 21.02.2021
2276 Rain 3 1026 75 10000 4 260 20:43 21.02.2021
2277 Rain 3 1026 75 10000 4 260 20:20 21.02.2021
2278 Rain 3 1026 75 10000 3 250 19:51 21.02.2021
2279 Rain 3 1026 75 9000 3 260 19:33 21.02.2021
2280 Rain 2 1026 75 10000 3 250 18:49 21.02.2021
2281 Clouds 2 1026 75 9000 3 250 18:25 21.02.2021
2282 Clouds 3 1026 75 9000 3 250 17:30 21.02.2021
2283 Rain 3 1026 75 9000 3 250 16:58 21.02.2021
2284 Rain 4 1025 75 10000 4 260 16:35 21.02.2021
2285 Clear 4 1026 81 10000 4 260 15:57 21.02.2021
2286 Rain 4 1026 75 10000 4 250 15:23 21.02.2021
2287 Clear 4 1026 75 10000 4 260 14:54 21.02.2021
2288 Clear 4 1026 75 10000 5 260 14:35 21.02.2021
2289 Clear 4 1026 81 10000 4 260 13:48 21.02.2021
2290 Clear 3 1026 81 10000 4 260 13:25 21.02.2021
2291 Rain 3 1027 75 10000 4 270 12:32 21.02.2021
2292 Clouds 2 1027 80 10000 4 270 11:59 21.02.2021
2293 Clouds 2 1027 80 9000 3 260 11:40 21.02.2021
2294 Clouds 2 1027 86 9000 4 270 10:40 21.02.2021
2295 Clouds 1 1027 86 9000 4 270 10:21 21.02.2021
2296 Rain 2 1027 86 8000 4 270 09:43 21.02.2021
2297 Rain 2 1027 86 8000 4 270 09:24 21.02.2021
2298 Snow 1 1027 86 8000 4 260 08:34 21.02.2021
2299 Snow 0 1027 86 8000 5 270 07:45 21.02.2021
2300 Snow 0 1027 86 7000 4 270 07:22 21.02.2021
2301 Clouds 0 1027 86 8000 3 260 05:59 21.02.2021
2302 Snow 0 1027 86 8000 3 250 02:40 21.02.2021
2303 Clouds 0 1027 86 7000 3 250 00:59 21.02.2021
2304 Clouds 0 1027 86 7000 3 250 00:21 21.02.2021
2305 Clouds 0 1028 86 7000 3 260 23:38 20.02.2021
2306 Snow 0 1027 86 7000 3 260 22:55 20.02.2021
2307 Clouds -1 1027 93 7000 3 250 22:31 20.02.2021
2308 Clouds -1 1027 93 6000 2 240 21:47 20.02.2021
2309 Mist -1 1027 86 5000 3 240 21:29 20.02.2021
2310 Mist -1 1027 86 5000 2 250 20:56 20.02.2021
2311 Snow -2 1027 93 5000 3 240 20:36 20.02.2021
2312 Mist -2 1027 93 5000 3 240 19:59 20.02.2021
2313 Snow -2 1027 86 5000 3 230 19:40 20.02.2021
2314 Snow -2 1027 86 6000 4 240 18:48 20.02.2021
2315 Snow -2 1027 86 6000 4 240 18:29 20.02.2021
2316 Snow -3 1027 86 4600 3 240 17:45 20.02.2021
2317 Clouds -3 1027 86 7000 4 230 17:26 20.02.2021
2318 Snow -3 1027 80 8000 3 230 16:48 20.02.2021
2319 Clouds -3 1027 74 9000 3 220 16:22 20.02.2021
2320 Clouds -3 1027 74 10000 3 230 15:40 20.02.2021
2321 Snow -3 1027 68 10000 3 230 14:51 20.02.2021
2322 Clouds -4 1027 74 10000 3 230 14:25 20.02.2021
2323 Clouds -4 1027 68 10000 3 230 13:53 20.02.2021
2324 Clouds -4 1027 68 10000 3 220 13:28 20.02.2021
2325 Clouds -4 1027 74 10000 3 220 12:56 20.02.2021
2326 Clouds -4 1027 68 10000 3 230 12:33 20.02.2021
2327 Clouds -5 1027 68 10000 3 220 11:49 20.02.2021
2328 Clouds -5 1027 68 10000 3 230 11:30 20.02.2021
2329 Clear -5 1026 68 10000 3 240 10:50 20.02.2021
2330 Clear -6 1026 73 10000 3 230 10:21 20.02.2021
2331 Snow -6 1026 68 10000 3 230 09:45 20.02.2021
2332 Clear -8 1026 73 10000 4 230 08:51 20.02.2021
2333 Clear -8 1026 73 10000 3 220 08:23 20.02.2021
2334 Clouds -11 1025 79 10000 4 230 04:56 20.02.2021
2335 Clear -12 1025 79 10000 4 200 02:32 20.02.2021
2336 Clear -12 1026 79 10000 3 200 01:55 20.02.2021
2337 Clear -12 1026 79 10000 4 190 00:55 20.02.2021
2338 Clear -12 1026 79 10000 3 180 00:36 20.02.2021
2339 Clear -12 1027 79 10000 2 160 23:26 19.02.2021
2340 Clear -13 1027 79 10000 2 160 22:43 19.02.2021
2341 Clear -13 1027 79 10000 2 150 22:19 19.02.2021
2342 Clear -12 1027 73 10000 3 180 21:43 19.02.2021
2343 Clear -12 1027 73 10000 3 180 21:21 19.02.2021
2344 Clear -13 1026 73 10000 3 190 20:40 19.02.2021
2345 Clear -13 1026 73 10000 4 200 20:22 19.02.2021
2346 Clear -13 1026 73 10000 4 200 19:44 19.02.2021
2347 Clear -12 1027 73 10000 4 200 19:20 19.02.2021
2348 Clear -12 1027 67 10000 2 190 18:46 19.02.2021
2349 Clear -12 1027 67 10000 2 190 18:26 19.02.2021
2350 Clear -11 1028 67 10000 1 0 17:35 19.02.2021
2351 Clear -9 1027 57 10000 3 210 16:41 19.02.2021
2352 Clear -9 1027 57 10000 3 210 16:21 19.02.2021
2353 Clear -9 1028 62 10000 3 210 15:53 19.02.2021
2354 Clear -8 1028 58 10000 3 220 15:27 19.02.2021
2355 Clear -7 1028 53 10000 3 210 14:48 19.02.2021
2356 Clear -7 1028 53 10000 3 210 14:27 19.02.2021
2357 Clear -8 1029 58 10000 3 210 13:54 19.02.2021
2358 Clear -7 1029 53 10000 3 210 13:35 19.02.2021
2359 Clear -8 1029 53 10000 3 200 12:52 19.02.2021
2360 Clear -8 1029 53 10000 4 230 12:25 19.02.2021
2361 Clear -9 1029 57 10000 4 250 11:54 19.02.2021
2362 Clear -11 1030 62 10000 2 280 11:26 19.02.2021
2363 Clear -11 1030 57 10000 2 310 10:55 19.02.2021
2364 Clear -11 1030 57 10000 2 250 10:32 19.02.2021
2365 Clouds -13 1030 73 7000 2 270 09:52 19.02.2021
2366 Clouds -13 1030 85 6000 2 290 09:27 19.02.2021
2367 Mist -16 1030 85 3700 2 280 08:54 19.02.2021
2368 Mist -17 1030 85 2100 1.13 219 08:26 19.02.2021
2369 Mist -16 1030 85 2400 1.13 219 07:54 19.02.2021
2370 Mist -18 1029 84 2900 1 230 07:35 19.02.2021
2371 Mist -19 1029 77 4100 1 210 06:55 19.02.2021
2372 Mist -21 1029 84 3500 1 230 06:27 19.02.2021
2373 Mist -19 1029 85 5000 1 260 04:41 19.02.2021
2374 Mist -19 1029 85 5000 1 280 01:48 19.02.2021
2375 Clear -17 1028 78 10000 1 0 00:37 19.02.2021
2376 Clear -16 1028 78 10000 2 360 23:56 18.02.2021
2377 Clear -16 1028 72 10000 3 10 23:35 18.02.2021
2378 Clear -16 1028 72 10000 4 10 22:51 18.02.2021
2379 Clear -15 1027 72 10000 4 10 22:30 18.02.2021
2380 Clear -15 1027 72 10000 4 10 21:55 18.02.2021
2381 Clear -14 1027 72 10000 3 360 21:27 18.02.2021
2382 Clear -13 1026 67 10000 3 360 20:44 18.02.2021
2383 Clear -13 1026 72 10000 4 10 20:24 18.02.2021
2384 Clear -13 1026 73 10000 3 360 19:56 18.02.2021
2385 Clouds -12 1025 73 10000 3 350 19:37 18.02.2021
2386 Clouds -12 1025 73 10000 3 350 19:18 18.02.2021
2387 Snow -11 1025 73 10000 4 360 18:42 18.02.2021
2388 Snow -10 1025 73 10000 4 360 18:24 18.02.2021
2389 Snow -10 1024 73 9000 5 10 17:42 18.02.2021
2390 Snow -10 1024 73 9000 5 10 17:23 18.02.2021
2391 Snow -9 1023 67 9000 3 10 16:41 18.02.2021
2392 Snow -9 1023 67 9000 3 10 16:22 18.02.2021
2393 Snow -8 1022 73 9000 3 10 15:39 18.02.2021
2394 Snow -8 1022 73 9000 3 10 15:21 18.02.2021
2395 Snow -8 1021 73 9000 4 360 14:49 18.02.2021
2396 Clouds -7 1021 73 10000 5 10 14:29 18.02.2021
2397 Snow -8 1020 73 10000 5 360 13:46 18.02.2021
2398 Snow -8 1019 73 6000 5 10 13:20 18.02.2021
2399 Snow -8 1019 73 6000 5 10 12:53 18.02.2021
2400 Snow -8 1019 73 5000 4 350 12:23 18.02.2021
2401 Clouds -8 1019 73 10000 5 360 11:46 18.02.2021
2402 Clouds -8 1019 73 10000 5 360 11:46 18.02.2021
2403 Clouds -8 1019 73 10000 5 360 11:46 18.02.2021
2404 Snow -8 1018 73 7000 4 20 11:27 18.02.2021
2405 Snow -8 1018 79 4400 3 10 10:52 18.02.2021
2406 Snow -9 1018 79 2200 5 350 10:31 18.02.2021
2407 Snow -9 1018 79 2000 3 350 09:50 18.02.2021
2408 Snow -10 1017 86 1400 4 20 09:26 18.02.2021
2409 Snow -10 1017 79 6000 3 360 08:48 18.02.2021
2410 Snow -10 1017 79 10000 4 350 08:29 18.02.2021
2411 Snow -12 1016 92 4800 2 310 07:37 18.02.2021
2412 Clouds -12 1016 85 8000 1 330 06:59 18.02.2021
2413 Snow -9 1015 79 8000 1 0 04:48 18.02.2021
2414 Snow -9 1015 79 7000 1 210 23:57 17.02.2021
2415 Snow -9 1015 79 9000 1 240 23:37 17.02.2021
2416 Snow -9 1015 79 9000 2 240 22:56 17.02.2021
2417 Snow -9 1016 79 9000 1 240 22:27 17.02.2021
2418 Clouds -9 1016 79 10000 2 250 21:58 17.02.2021
2419 Clouds -9 1016 79 10000 1 240 21:23 17.02.2021
2420 Clouds -9 1015 79 10000 2 230 20:56 17.02.2021
2421 Clouds -9 1015 79 10000 3 240 20:37 17.02.2021
2422 Clouds -9 1015 79 10000 3 230 19:55 17.02.2021
2423 Clouds -9 1015 79 10000 3 230 19:35 17.02.2021
2424 Clouds -9 1016 79 10000 3 230 18:52 17.02.2021
2425 Snow -9 1016 79 10000 3 220 18:33 17.02.2021
2426 Clouds -9 1016 73 10000 2 210 17:46 17.02.2021
2427 Clouds -9 1016 73 10000 2 210 17:21 17.02.2021
2428 Clouds -8 1016 67 10000 3 200 16:50 17.02.2021
2429 Clouds -8 1016 67 10000 3 200 16:29 17.02.2021
2430 Clear -8 1016 62 10000 3 200 15:46 17.02.2021
2431 Clear -8 1016 62 10000 3 200 15:27 17.02.2021
2432 Clear -6 1016 58 10000 3 180 14:51 17.02.2021
2433 Clear -7 1016 58 10000 3 210 14:29 17.02.2021
2434 Clear -7 1016 58 10000 3 210 13:52 17.02.2021
2435 Clouds -7 1016 58 10000 3 220 13:33 17.02.2021
2436 Snow -8 1016 62 10000 3 220 12:58 17.02.2021
2437 Snow -8 1016 62 10000 3 200 12:26 17.02.2021
2438 Snow -9 1017 62 10000 4 210 11:48 17.02.2021
2439 Snow -8 1017 62 10000 4 210 11:29 17.02.2021
2440 Snow -9 1017 62 10000 5 210 10:56 17.02.2021
2441 Snow -9 1017 62 10000 5 210 10:38 17.02.2021
2442 Snow -10 1018 67 10000 4 210 10:19 17.02.2021
2443 Snow -11 1018 67 10000 4 200 09:38 17.02.2021
2444 Snow -12 1018 72 10000 3 200 08:56 17.02.2021
2445 Snow -12 1018 72 10000 3 200 08:36 17.02.2021
2446 Snow -12 1018 72 10000 3 190 08:18 17.02.2021
2447 Clouds -15 1019 85 9000 2 100 06:37 17.02.2021
2448 Clear -14 1021 85 10000 2 260 03:53 17.02.2021
2449 Clear -15 1022 78 10000 3 240 02:32 17.02.2021
2450 Snow -16 1022 92 10000 3 220 01:37 17.02.2021
2451 Clear -15 1023 85 8000 2 230 00:28 17.02.2021
2452 Clear -14 1023 85 7000 2 250 23:43 16.02.2021
2453 Clear -14 1023 85 7000 2 250 23:23 16.02.2021
2454 Clear -15 1024 85 6000 1 0 22:41 16.02.2021
2455 Clear -15 1024 85 6000 1 0 22:21 16.02.2021
2456 Clear -15 1024 85 6000 1 0 22:21 16.02.2021
2457 Clear -15 1024 92 7000 1 0 21:40 16.02.2021
2458 Clear -15 1024 92 7000 1 0 21:21 16.02.2021
2459 Clear -16 1024 92 7000 1 0 20:56 16.02.2021
2460 Clear -16 1025 92 7000 1 0 20:37 16.02.2021
2461 Clear -16 1025 92 7000 1 0 20:18 16.02.2021
2462 Clear -15 1025 85 10000 1 0 19:39 16.02.2021
2463 Clear -15 1025 85 10000 1 0 19:19 16.02.2021
2464 Clear -14 1025 78 10000 1 0 18:37 16.02.2021
2465 Clear -13 1025 73 10000 1 0 18:18 16.02.2021
2466 Clear -12 1026 67 10000 2 170 17:47 16.02.2021
2467 Clear -11 1026 67 10000 2 170 17:23 16.02.2021
2468 Clear -11 1026 62 10000 3 130 16:45 16.02.2021
2469 Clouds -10 1026 62 10000 3 110 16:22 16.02.2021
2470 Clouds -9 1026 53 10000 1 280 15:43 16.02.2021
2471 Clouds -8 1026 53 10000 1 280 15:24 16.02.2021
2472 Clouds -9 1027 53 10000 1.79 248 14:44 16.02.2021
2473 Clouds -8 1027 53 10000 2 260 14:25 16.02.2021
2474 Clouds -8 1027 53 10000 2 140 13:48 16.02.2021
2475 Clouds -8 1027 53 10000 2 140 13:24 16.02.2021
2476 Clouds -9 1027 58 10000 1.9 277 12:43 16.02.2021
2477 Clouds -9 1027 62 10000 1.76 286 12:20 16.02.2021
2478 Clouds -9 1027 67 10000 1.76 286 11:44 16.02.2021
2479 Clouds -9 1027 73 10000 1.45 296 11:22 16.02.2021
2480 Clouds -9 1028 62 10000 1 0 10:50 16.02.2021
2481 Clouds -10 1028 67 10000 1.52 313 10:31 16.02.2021
2482 Clouds -11 1028 67 10000 1.52 313 09:56 16.02.2021
2483 Clouds -12 1028 67 10000 1.52 318 09:29 16.02.2021
2484 Clouds -13 1028 73 10000 1.52 318 08:58 16.02.2021
2485 Clouds -13 1028 73 10000 1.52 318 08:38 16.02.2021
2486 Clouds -14 1028 79 10000 1 260 08:18 16.02.2021
2487 Snow -16 1028 85 8000 2 310 07:18 16.02.2021
2488 Snow -14 1028 92 9000 1 250 04:33 16.02.2021
2489 Clouds -16 1028 79 10000 2 330 00:44 16.02.2021
2490 Clouds -13 1028 67 10000 4 360 23:31 15.02.2021
2491 Clouds -12 1028 67 10000 4 360 22:59 15.02.2021
2492 Clouds -13 1028 73 10000 4 10 22:40 15.02.2021
2493 Clouds -12 1028 73 10000 4 10 21:56 15.02.2021
2494 Clouds -11 1028 67 10000 3 10 21:37 15.02.2021
2495 Clouds -11 1028 67 10000 3 10 21:19 15.02.2021
2496 Clouds -10 1028 67 10000 5 10 20:44 15.02.2021
2497 Clouds -10 1028 67 10000 5 10 20:24 15.02.2021
2498 Snow -9 1027 67 9000 7 10 19:43 15.02.2021
2499 Snow -9 1027 67 9000 7 10 19:22 15.02.2021
2500 Snow -9 1027 67 10000 4 360 18:44 15.02.2021
2501 Clouds -8 1027 67 10000 4 360 18:25 15.02.2021
2502 Snow -8 1026 79 7000 4 10 17:41 15.02.2021
2503 Snow -8 1026 79 7000 4 10 17:22 15.02.2021
2504 Snow -8 1026 86 7000 4 10 16:53 15.02.2021
2505 Snow -7 1026 93 750 4 330 16:26 15.02.2021
2506 Snow -8 1026 86 9000 4 320 15:49 15.02.2021
2507 Snow -6 1025 79 10000 3 340 15:22 15.02.2021
2508 Snow -6 1025 73 10000 3 10 14:49 15.02.2021
2509 Clouds -5 1025 73 10000 3 10 14:22 15.02.2021
2510 Clouds -4 1025 68 10000 5 20 13:58 15.02.2021
2511 Snow -5 1025 68 10000 5 360 13:37 15.02.2021
2512 Clouds -5 1025 68 10000 5 360 13:18 15.02.2021
2513 Snow -6 1024 68 10000 7 340 12:38 15.02.2021
2514 Clouds -5 1024 68 10000 7 340 12:18 15.02.2021
2515 Clouds -6 1024 68 10000 5 340 11:40 15.02.2021
2516 Clouds -5 1024 68 10000 5 340 11:18 15.02.2021
2517 Snow -6 1024 79 6000 5 330 10:45 15.02.2021
2518 Snow -6 1024 79 7000 5 330 10:21 15.02.2021
2519 Snow -7 1024 79 7000 5 330 09:52 15.02.2021
2520 Snow -6 1024 86 6000 5 330 09:32 15.02.2021
2521 Snow -7 1024 86 10000 5 300 08:37 15.02.2021
2522 Snow -7 1024 79 9000 3 250 07:34 15.02.2021
2523 Snow -8 1023 86 9000 3 220 06:44 15.02.2021
2524 Snow -10 1023 79 10000 1 0 05:37 15.02.2021
2525 Mist -11 1024 85 5000 1 240 02:22 15.02.2021
2526 Mist -12 1024 85 3900 1.14 257 00:32 15.02.2021
2527 Mist -13 1025 92 4200 1 240 23:32 14.02.2021
2528 Mist -10 1024 92 4400 1 170 22:52 14.02.2021
2529 Mist -10 1025 92 3900 1 200 22:34 14.02.2021
2530 Mist -10 1024 92 4800 1 200 21:57 14.02.2021
2531 Mist -10 1024 92 5000 1 210 21:37 14.02.2021
2532 Clouds -11 1024 85 8000 1 0 20:56 14.02.2021
2533 Clear -11 1024 85 10000 1.65 277 20:38 14.02.2021
2534 Clear -10 1024 73 10000 2 20 20:20 14.02.2021
2535 Clear -9 1024 67 10000 3 20 19:38 14.02.2021
2536 Clouds -8 1024 68 10000 4 10 18:48 14.02.2021
2537 Clouds -8 1024 73 10000 3 10 18:29 14.02.2021
2538 Clouds -7 1023 73 10000 3 20 17:48 14.02.2021
2539 Clouds -6 1023 73 10000 3 30 17:28 14.02.2021
2540 Clouds -5 1022 68 10000 3 340 16:42 14.02.2021
2541 Clouds -5 1022 68 10000 3 340 16:23 14.02.2021
2542 Snow -4 1022 68 9000 4 320 15:45 14.02.2021
2543 Snow -3 1022 68 9000 4 320 15:25 14.02.2021
2544 Snow -3 1022 74 9000 5 310 14:33 14.02.2021
2545 Snow -3 1022 68 10000 4 310 13:59 14.02.2021
2546 Snow -3 1022 68 10000 6 310 13:33 14.02.2021
2547 Snow -3 1022 74 10000 5 290 12:58 14.02.2021
2548 Snow -3 1022 74 10000 6 300 12:23 14.02.2021
2549 Snow -4 1022 68 10000 6 310 11:52 14.02.2021
2550 Snow -4 1022 68 10000 5 310 11:26 14.02.2021
2551 Snow -4 1022 68 10000 6 320 10:57 14.02.2021
2552 Snow -5 1022 74 9000 5 290 09:59 14.02.2021
2553 Snow -5 1022 79 9000 4 300 09:40 14.02.2021
2554 Snow -6 1022 86 10000 4 290 09:21 14.02.2021
2555 Snow -6 1022 86 10000 4 290 08:43 14.02.2021
2556 Snow -8 1021 79 10000 4 300 07:58 14.02.2021
2557 Snow -9 1021 79 9000 4 300 06:54 14.02.2021
2558 Clear -10 1020 79 10000 6 300 05:43 14.02.2021
2559 Clear -11 1019 73 10000 7 290 03:33 14.02.2021
2560 Clear -11 1019 73 10000 7 300 02:29 14.02.2021
2561 Clear -11 1018 62 10000 8 300 00:49 14.02.2021
2562 Clear -11 1017 62 10000 8 310 00:31 14.02.2021
2563 Clear -11 1017 62 10000 8 310 00:31 14.02.2021
2564 Clear -11 1017 62 10000 8 310 23:42 13.02.2021
2565 Clear -11 1017 62 10000 8 310 23:21 13.02.2021
2566 Clear -11 1016 57 10000 8 310 22:46 13.02.2021
2567 Clouds -10 1016 57 10000 9 310 22:20 13.02.2021
2568 Snow -10 1015 57 10000 9 310 21:44 13.02.2021
2569 Snow -10 1015 57 10000 9 310 21:22 13.02.2021
2570 Snow -11 1014 67 10000 8 300 20:30 13.02.2021
2571 Snow -11 1014 73 10000 7 300 19:58 13.02.2021
2572 Snow -11 1014 79 9000 7 300 19:39 13.02.2021
2573 Snow -11 1014 79 9000 7 300 19:21 13.02.2021
2574 Snow -11 1013 85 3400 8 300 18:44 13.02.2021
2575 Snow -11 1013 85 3400 8 300 18:22 13.02.2021
2576 Snow -11 1012 79 6000 9 310 17:42 13.02.2021
2577 Snow -11 1012 79 3200 9 300 17:22 13.02.2021
2578 Snow -11 1011 79 7000 9 300 16:42 13.02.2021
2579 Snow -11 1011 79 2100 9 310 16:21 13.02.2021
2580 Snow -11 1010 79 2100 8 300 15:39 13.02.2021
2581 Snow -11 1010 73 8000 8 300 14:57 13.02.2021
2582 Snow -10 1010 73 5000 8 310 14:32 13.02.2021
2583 Snow -10 1009 73 3100 9 310 13:48 13.02.2021
2584 Snow -11 1009 73 3100 9 310 13:24 13.02.2021
2585 Snow -10 1009 73 4900 9 310 12:46 13.02.2021
2586 Snow -10 1009 73 7000 9 310 12:19 13.02.2021
2587 Snow -11 1008 79 2300 8 310 11:45 13.02.2021
2588 Snow -11 1008 79 2400 8 310 11:20 13.02.2021
2589 Snow -11 1008 79 1400 9 310 10:46 13.02.2021
2590 Snow -11 1008 79 2400 8 300 10:25 13.02.2021
2591 Snow -11 1008 79 3300 9 300 09:55 13.02.2021
2592 Snow -11 1007 79 2500 7 290 09:30 13.02.2021
2593 Snow -12 1007 79 3100 7 290 08:55 13.02.2021
2594 Snow -12 1007 78 2700 7 300 08:34 13.02.2021
2595 Snow -12 1007 78 4400 7 300 07:50 13.02.2021
2596 Snow -13 1007 85 2300 7 290 06:39 13.02.2021
2597 Snow -13 1007 78 4500 7 300 05:26 13.02.2021
2598 Snow -13 1007 78 3000 8 300 03:58 13.02.2021
2599 Snow -13 1007 85 2700 7 290 01:43 13.02.2021
2600 Snow -13 1008 85 2900 7 290 00:36 13.02.2021
2601 Snow -13 1008 78 4800 6 300 23:53 12.02.2021
2602 Snow -12 1008 72 5000 7 300 23:20 12.02.2021
2603 Snow -12 1008 79 3900 7 300 22:40 12.02.2021
2604 Snow -12 1008 79 4000 7 310 22:19 12.02.2021
2605 Snow -12 1008 79 4000 7 310 21:45 12.02.2021
2606 Snow -12 1008 79 4500 8 320 21:25 12.02.2021
2607 Snow -12 1008 79 4500 8 320 20:46 12.02.2021
2608 Snow -12 1008 85 3500 8 310 20:27 12.02.2021
2609 Snow -12 1008 85 3500 8 310 19:55 12.02.2021
2610 Snow -12 1008 85 3500 8 310 19:55 12.02.2021
2611 Snow -12 1008 85 5000 7 300 19:30 12.02.2021
2612 Snow -12 1008 85 4400 7 300 18:54 12.02.2021
2613 Snow -12 1008 85 4500 7 300 18:28 12.02.2021
2614 Snow -12 1009 79 4300 7 300 17:44 12.02.2021
2615 Snow -12 1009 79 4300 7 300 17:20 12.02.2021
2616 Snow -11 1008 73 3600 9 310 16:25 12.02.2021
2617 Snow -11 1008 73 4200 7 300 15:46 12.02.2021
2618 Snow -11 1008 67 6000 7 320 15:20 12.02.2021
2619 Snow -10 1007 73 4500 8 310 14:40 12.02.2021
2620 Snow -10 1007 79 1900 8 310 13:58 12.02.2021
2621 Snow -10 1007 73 5000 9 310 13:40 12.02.2021
2622 Snow -10 1007 67 8000 9 320 12:55 12.02.2021
2623 Snow -10 1007 67 7000 10 320 12:36 12.02.2021
2624 Snow -10 1007 67 9000 9 320 11:49 12.02.2021
2625 Snow -10 1007 73 6000 10 310 11:26 12.02.2021
2626 Snow -10 1007 73 4600 8 320 10:52 12.02.2021
2627 Snow -10 1007 73 3700 8 320 10:34 12.02.2021
2628 Snow -11 1007 73 3700 8 320 09:44 12.02.2021
2629 Snow -10 1007 73 4100 8 310 09:24 12.02.2021
2630 Snow -11 1007 73 6000 8 320 08:48 12.02.2021
2631 Snow -11 1007 73 4100 8 320 08:27 12.02.2021
2632 Snow -11 1006 79 2400 8 320 07:53 12.02.2021
2633 Snow -11 1006 79 2400 8 320 07:53 12.02.2021
2634 Snow -11 1006 79 2700 8 320 07:28 12.02.2021
2635 Snow -11 1006 79 2800 8 320 06:55 12.02.2021
2636 Snow -11 1006 85 4900 8 320 05:39 12.02.2021
2637 Snow -11 1006 85 5000 7 310 03:48 12.02.2021
2638 Snow -9 1005 86 3900 6 320 01:23 12.02.2021
2639 Snow -9 1005 86 5000 5 330 23:40 11.02.2021
2640 Snow -9 1005 86 4700 5 340 23:22 11.02.2021
2641 Snow -9 1005 92 2400 5 350 22:45 11.02.2021
2642 Snow -8 1005 92 2400 5 350 22:24 11.02.2021
2643 Snow -8 1005 86 2900 5 350 21:46 11.02.2021
2644 Snow -8 1005 86 3200 5 350 21:26 11.02.2021
2645 Snow -8 1005 86 4400 6 360 20:58 11.02.2021
2646 Snow -8 1005 86 6000 6 10 20:39 11.02.2021
2647 Snow -8 1005 86 6000 6 10 20:21 11.02.2021
2648 Snow -7 1006 93 9000 6 10 19:47 11.02.2021
2649 Snow -7 1006 93 7000 5 20 19:26 11.02.2021
2650 Snow -7 1006 93 1400 5 20 18:43 11.02.2021
2651 Snow -7 1006 86 3400 4 30 18:21 11.02.2021
2652 Snow -7 1006 86 3400 4 30 17:48 11.02.2021
2653 Snow -7 1006 86 2600 5 40 17:21 11.02.2021
2654 Snow -7 1006 86 2500 5 40 16:46 11.02.2021
2655 Snow -7 1006 86 2500 5 40 16:27 11.02.2021
2656 Snow -7 1007 93 2400 5 40 15:47 11.02.2021
2657 Snow -7 1007 93 2400 5 40 15:26 11.02.2021
2658 Snow -7 1007 93 3000 4 30 14:56 11.02.2021
2659 Snow -7 1007 93 1400 4 30 14:31 11.02.2021
2660 Snow -6 1007 86 1600 4 40 13:44 11.02.2021
2661 Rain -6 1008 86 2500 4 50 13:21 11.02.2021
2662 Snow -6 1008 86 2800 5 60 12:56 11.02.2021
2663 Snow -6 1008 86 2800 5 60 12:35 11.02.2021
2664 Snow -6 1008 86 4500 5 70 11:48 11.02.2021
2665 Snow -6 1008 86 4800 6 80 11:28 11.02.2021
2666 Snow -7 1009 93 1300 6 80 10:55 11.02.2021
2667 Snow -7 1009 93 1400 5 80 10:37 11.02.2021
2668 Snow -7 1009 93 2000 5 90 10:19 11.02.2021
2669 Snow -7 1010 86 7000 4 80 09:38 11.02.2021
2670 Snow -7 1010 86 9000 5 80 09:18 11.02.2021
2671 Snow -7 1010 86 9000 5 80 08:44 11.02.2021
2672 Clouds -8 1010 86 10000 5 80 07:52 11.02.2021
2673 Clouds -8 1011 86 10000 5 80 06:44 11.02.2021
2674 Clouds -8 1011 93 10000 4 90 06:20 11.02.2021
2675 Clouds -8 1011 86 9000 3 100 03:45 11.02.2021
2676 Clouds -8 1011 86 9000 1 0 02:23 11.02.2021
2677 Snow -7 1011 86 9000 2 130 00:23 11.02.2021
2678 Snow -7 1011 86 10000 2 100 23:52 10.02.2021
2679 Snow -7 1011 86 10000 1 100 23:20 10.02.2021
2680 Snow -7 1010 86 10000 2 70 22:43 10.02.2021
2681 Clouds -7 1010 86 10000 2 70 22:23 10.02.2021
2682 Snow -7 1010 79 10000 3 80 21:40 10.02.2021
2683 Snow -7 1010 79 10000 3 80 21:21 10.02.2021
2684 Clouds -7 1010 79 10000 1 0 20:51 10.02.2021
2685 Clouds -7 1010 79 10000 2 340 20:28 10.02.2021
2686 Clouds -7 1010 79 10000 2 30 19:50 10.02.2021
2687 Clouds -7 1010 86 10000 2 20 19:28 10.02.2021
2688 Clouds -7 1010 86 10000 1 320 18:49 10.02.2021
2689 Clouds -7 1010 86 10000 1 320 18:27 10.02.2021
2690 Clouds -7 1010 86 10000 2 330 17:59 10.02.2021
2691 Clouds -6 1009 86 10000 3 10 17:39 10.02.2021
2692 Clouds -6 1008 86 10000 3 30 17:19 10.02.2021
2693 Clouds -6 1008 86 10000 3 20 16:45 10.02.2021
2694 Clouds -6 1008 86 10000 3 20 16:24 10.02.2021
2695 Clouds -5 1008 86 10000 4 20 15:25 10.02.2021
2696 Clouds -4 1008 86 10000 4 330 14:54 10.02.2021
2697 Clouds -4 1007 86 10000 3 350 14:35 10.02.2021
2698 Clouds -4 1007 80 10000 3 330 13:55 10.02.2021
2699 Clouds -4 1006 86 10000 4 350 13:30 10.02.2021
2700 Clouds -4 1006 86 10000 4 360 12:55 10.02.2021
2701 Clouds -4 1006 80 10000 5 360 12:31 10.02.2021
2702 Clouds -5 1005 86 10000 4 350 11:59 10.02.2021
2703 Clouds -5 1005 86 10000 4 350 11:39 10.02.2021
2704 Clouds -5 1005 80 9000 4 360 11:21 10.02.2021
2705 Snow -5 1005 86 10000 4 40 10:25 10.02.2021
2706 Snow -6 1004 86 10000 4 60 09:57 10.02.2021
2707 Snow -6 1004 86 8000 5 60 09:33 10.02.2021
2708 Snow -6 1004 86 9000 5 60 08:57 10.02.2021
2709 Snow -6 1004 86 9000 5 60 08:39 10.02.2021
2710 Snow -6 1004 93 1300 5 60 07:41 10.02.2021
2711 Snow -6 1004 93 1100 5 70 06:33 10.02.2021
2712 Snow -6 1007 86 6000 4 80 01:56 10.02.2021
2713 Snow -7 1008 93 6000 3 90 00:24 10.02.2021
2714 Snow -7 1009 86 9000 3 120 00:24 10.02.2021
2715 Snow -8 1009 93 6000 2 120 23:34 09.02.2021
2716 Mist -9 1008 92 4200 2 70 22:53 09.02.2021
2717 Mist -10 1008 92 3600 1.57 223 22:24 09.02.2021
2718 Mist -10 1008 92 2900 2 210 21:52 09.02.2021
2719 Mist -10 1008 92 2900 2 210 21:27 09.02.2021
2720 Mist -10 1007 92 5000 1 320 20:46 09.02.2021
2721 Mist -10 1007 92 5000 1 320 20:26 09.02.2021
2722 Mist -8 1008 93 5000 1 0 19:55 09.02.2021
2723 Clouds -7 1007 86 7000 3 220 19:31 09.02.2021
2724 Clouds -6 1007 79 9000 2 250 18:58 09.02.2021
2725 Clouds -5 1006 74 10000 3 290 18:36 09.02.2021
2726 Clouds -5 1007 80 10000 3 260 17:57 09.02.2021
2727 Clouds -5 1006 80 10000 4 300 17:36 09.02.2021
2728 Clouds -5 1006 80 10000 4 280 17:18 09.02.2021
2729 Clouds -4 1005 74 10000 4 270 16:39 09.02.2021
2730 Clouds -4 1005 74 10000 4 290 16:18 09.02.2021
2731 Clouds -4 1005 74 10000 4 290 15:47 09.02.2021
2732 Clouds -4 1005 74 10000 4 310 15:24 09.02.2021
2733 Clouds -4 1005 74 10000 5 300 14:49 09.02.2021
2734 Clouds -4 1004 74 10000 5 300 14:26 09.02.2021
2735 Clouds -3 1003 74 10000 5 270 13:45 09.02.2021
2736 Clouds -3 1003 74 10000 5 270 13:21 09.02.2021
2737 Clouds -3 1003 74 10000 4 280 12:48 09.02.2021
2738 Clouds -3 1002 80 10000 4 280 12:30 09.02.2021
2739 Clouds -3 1002 80 10000 4 270 11:45 09.02.2021
2740 Clouds -3 1002 74 10000 1.12 335 11:24 09.02.2021
2741 Clouds -3 1002 80 10000 1 0 10:58 09.02.2021
2742 Clouds -4 1002 80 10000 1 0 10:38 09.02.2021
2743 Snow -4 1002 86 10000 1 0 10:18 09.02.2021
2744 Snow -5 1001 86 10000 2 100 09:41 09.02.2021
2745 Snow -6 1001 86 10000 2 100 09:21 09.02.2021
2746 Snow -6 1001 86 7000 3 90 08:34 09.02.2021
2747 Snow -7 1000 86 4800 3 100 07:57 09.02.2021
2748 Snow -8 1000 93 3700 4 90 05:40 09.02.2021
2749 Snow -8 1001 93 2000 4 90 03:49 09.02.2021
2750 Snow -8 1003 93 2700 4 100 02:26 09.02.2021
2751 Snow -8 1004 86 2000 5 100 00:31 09.02.2021
2752 Snow -8 1004 86 2700 5 100 23:44 08.02.2021
2753 Snow -8 1005 86 900 5 100 23:19 08.02.2021
2754 Snow -8 1006 86 1400 6 100 22:43 08.02.2021
2755 Snow -8 1006 86 1400 6 100 22:22 08.02.2021
2756 Snow -8 1007 86 1700 6 100 21:49 08.02.2021
2757 Snow -8 1008 86 1600 7 100 21:30 08.02.2021
2758 Snow -9 1008 92 1300 8 100 20:55 08.02.2021
2759 Snow -9 1008 86 1400 7 100 20:36 08.02.2021
2760 Snow -9 1008 86 1400 7 100 20:36 08.02.2021
2761 Snow -9 1008 86 1400 8 100 20:18 08.02.2021
2762 Snow -9 1009 86 2100 8 100 19:41 08.02.2021
2763 Snow -9 1009 86 2100 8 100 19:21 08.02.2021
2764 Snow -9 1010 86 1300 8 100 18:44 08.02.2021
2765 Snow -9 1010 86 1300 8 100 18:19 08.02.2021
2766 Snow -9 1010 79 2500 9 100 17:43 08.02.2021
2767 Snow -9 1010 79 2500 9 100 17:23 08.02.2021
2768 Snow -9 1011 86 7000 9 90 16:42 08.02.2021
2769 Snow -9 1012 79 4400 8 100 16:21 08.02.2021
2770 Snow -9 1013 86 5000 7 100 15:42 08.02.2021
2771 Snow -9 1013 79 3500 7 100 15:20 08.02.2021
2772 Snow -9 1013 79 3500 7 100 14:51 08.02.2021
2773 Snow -9 1014 85 3500 7 90 14:31 08.02.2021
2774 Snow -10 1014 85 1300 6 100 13:56 08.02.2021
2775 Snow -10 1015 79 3100 7 90 13:32 08.02.2021
2776 Snow -10 1015 85 1500 7 90 12:53 08.02.2021
2777 Snow -10 1015 85 1300 6 100 12:34 08.02.2021
2778 Snow -11 1016 79 2800 6 100 11:44 08.02.2021
2779 Snow -11 1016 79 1500 5 100 11:19 08.02.2021
2780 Snow -11 1016 79 2600 5 100 10:44 08.02.2021
2781 Snow -12 1016 79 4500 7 90 10:23 08.02.2021
2782 Snow -12 1016 79 3700 6 100 09:50 08.02.2021
2783 Snow -12 1017 79 4700 6 90 09:29 08.02.2021
2784 Snow -12 1017 85 1300 5 90 08:32 08.02.2021
2785 Snow -13 1017 85 1900 7 100 07:51 08.02.2021
2786 Snow -13 1017 85 1200 6 90 07:22 08.02.2021
2787 Snow -13 1017 85 1200 6 90 07:22 08.02.2021
2788 Snow -13 1018 85 4800 5 100 05:53 08.02.2021
2789 Snow -12 1019 79 3200 4 90 02:28 08.02.2021
2790 Snow -12 1019 79 4600 5 90 00:56 08.02.2021
2791 Snow -12 1020 79 9000 4 90 00:21 08.02.2021
2792 Snow -12 1020 79 9000 4 90 23:46 07.02.2021
2793 Snow -12 1020 72 10000 3 100 23:20 07.02.2021
2794 Snow -12 1020 72 10000 3 100 22:44 07.02.2021
2795 Snow -12 1020 72 10000 4 100 22:25 07.02.2021
2796 Snow -12 1020 79 10000 3 110 21:52 07.02.2021
2797 Snow -12 1020 72 10000 4 120 21:27 07.02.2021
2798 Snow -12 1020 79 10000 3 110 20:54 07.02.2021
2799 Snow -12 1020 79 10000 3 100 20:33 07.02.2021
2800 Snow -12 1020 79 10000 3 100 19:55 07.02.2021
2801 Snow -12 1020 79 10000 4 100 19:31 07.02.2021
2802 Snow -12 1020 79 10000 3 110 18:56 07.02.2021
2803 Snow -12 1021 79 10000 3 120 18:36 07.02.2021
2804 Snow -12 1021 79 10000 3 130 18:18 07.02.2021
2805 Snow -12 1021 79 10000 3 120 17:41 07.02.2021
2806 Snow -11 1020 73 10000 3 110 17:19 07.02.2021
2807 Clear -11 1020 73 10000 3 110 16:47 07.02.2021
2808 Snow -11 1020 73 10000 3 100 16:26 07.02.2021
2809 Snow -11 1021 73 10000 2 100 15:49 07.02.2021
2810 Snow -11 1021 67 10000 2 90 15:28 07.02.2021
2811 Snow -11 1021 73 10000 2 80 14:57 07.02.2021
2812 Snow -11 1021 73 10000 3 70 14:39 07.02.2021
2813 Snow -11 1021 73 10000 2 70 14:18 07.02.2021
2814 Snow -11 1021 73 10000 2 70 13:35 07.02.2021
2815 Snow -10 1021 73 9000 1 0 12:54 07.02.2021
2816 Snow -11 1022 73 9000 1 0 12:36 07.02.2021
2817 Snow -11 1021 73 9000 1 0 12:18 07.02.2021
2818 Snow -11 1021 73 9000 1 0 11:27 07.02.2021
2819 Snow -12 1022 79 10000 1.54 69 10:51 07.02.2021
2820 Snow -12 1022 79 9000 1 0 10:27 07.02.2021
2821 Clouds -12 1022 79 9000 1 0 09:49 07.02.2021
2822 Clouds -12 1022 79 10000 1 0 09:21 07.02.2021
2823 Clouds -12 1021 79 10000 1 100 08:31 07.02.2021
2824 Clouds -13 1021 85 10000 1 0 07:44 07.02.2021
2825 Clouds -13 1021 85 10000 3 310 05:58 07.02.2021
2826 Clouds -12 1020 72 10000 2 320 03:54 07.02.2021
2827 Snow -12 1020 79 9000 2 40 01:37 07.02.2021
2828 Snow -11 1020 73 10000 4 20 00:36 07.02.2021
2829 Snow -11 1020 79 10000 3 20 23:46 06.02.2021
2830 Clouds -10 1019 73 10000 5 10 22:42 06.02.2021
2831 Clouds -10 1019 73 10000 4 10 21:43 06.02.2021
2832 Clouds -9 1019 73 10000 4 10 21:23 06.02.2021
2833 Clouds -9 1019 67 10000 5 360 20:52 06.02.2021
2834 Snow -9 1018 79 10000 5 10 20:26 06.02.2021
2835 Clouds -8 1018 79 9000 5 20 19:57 06.02.2021
2836 Clouds -7 1017 73 10000 5 20 19:34 06.02.2021
2837 Snow -6 1017 73 10000 4 350 18:54 06.02.2021
2838 Snow -6 1017 73 10000 5 340 18:34 06.02.2021
2839 Snow -5 1016 74 10000 5 330 17:56 06.02.2021
2840 Snow -5 1016 74 10000 5 320 17:38 06.02.2021
2841 Snow -4 1016 80 7000 5 330 17:19 06.02.2021
2842 Snow -4 1016 74 4700 6 310 16:41 06.02.2021
2843 Snow -4 1016 68 9000 6 300 16:23 06.02.2021
2844 Snow -4 1016 68 9000 6 300 15:48 06.02.2021
2845 Snow -3 1015 59 10000 7 300 15:25 06.02.2021
2846 Snow -3 1015 59 10000 7 300 14:45 06.02.2021
2847 Snow -3 1015 59 10000 5 300 14:27 06.02.2021
2848 Snow -3 1015 59 10000 6 290 13:51 06.02.2021
2849 Snow -3 1015 63 10000 5 300 13:32 06.02.2021
2850 Clouds -2 1016 63 10000 5 280 12:23 06.02.2021
2851 Clouds -3 1016 68 10000 5 270 11:57 06.02.2021
2852 Clouds -3 1017 68 10000 5 280 11:38 06.02.2021
2853 Clouds -4 1017 74 10000 5 280 11:19 06.02.2021
2854 Clear -3 1017 74 10000 5 280 10:42 06.02.2021
2855 Clear -4 1017 79 10000 4 270 10:23 06.02.2021
2856 Clear -5 1018 86 10000 4 270 09:37 06.02.2021
2857 Clear -5 1018 86 10000 4 270 09:18 06.02.2021
2858 Snow -5 1018 79 10000 4 280 08:49 06.02.2021
2859 Clear -6 1018 86 10000 3 250 08:23 06.02.2021
2860 Clear -9 1018 92 10000 2 250 06:29 06.02.2021
2861 Clear -9 1018 85 10000 3 260 04:45 06.02.2021
2862 Clear -9 1019 79 10000 3 280 02:39 06.02.2021
2863 Clear -9 1019 79 10000 3 260 00:49 06.02.2021
2864 Clear -9 1019 79 10000 3 270 00:21 06.02.2021
2865 Clear -8 1019 79 10000 3 270 23:50 05.02.2021
2866 Clear -8 1020 79 10000 3 270 23:27 05.02.2021
2867 Clear -8 1020 73 10000 3 270 22:48 05.02.2021
2868 Clear -8 1020 73 10000 3 270 22:24 05.02.2021
2869 Clear -8 1019 73 10000 4 300 21:52 05.02.2021
2870 Clear -7 1020 68 10000 4 310 21:30 05.02.2021
2871 Clouds -7 1019 68 10000 5 310 20:48 05.02.2021
2872 Clouds -7 1019 68 10000 5 310 19:57 05.02.2021
2873 Clouds -6 1019 68 10000 5 310 19:22 05.02.2021
2874 Clouds -6 1019 68 10000 5 310 19:22 05.02.2021
2875 Snow -6 1019 68 10000 4 310 18:54 05.02.2021
2876 Snow -6 1019 68 10000 6 300 18:28 05.02.2021
2877 Snow -6 1019 68 9000 5 300 17:56 05.02.2021
2878 Snow -6 1019 68 10000 6 300 17:33 05.02.2021
2879 Snow -6 1019 73 9000 5 320 16:57 05.02.2021
2880 Snow -6 1018 73 10000 5 330 16:37 05.02.2021
2881 Snow -6 1018 73 10000 5 330 16:19 05.02.2021
2882 Snow -6 1018 68 10000 7 310 15:29 05.02.2021
2883 Snow -5 1018 73 10000 7 290 14:59 05.02.2021
2884 Snow -5 1018 73 10000 7 290 14:38 05.02.2021
2885 Clouds -5 1018 74 10000 5 300 14:18 05.02.2021
2886 Clouds -5 1018 74 10000 5 310 13:39 05.02.2021
2887 Clouds -5 1018 74 10000 5 310 13:20 05.02.2021
2888 Clouds -5 1017 79 10000 8 310 12:41 05.02.2021
2889 Clouds -5 1017 73 10000 7 320 11:59 05.02.2021
2890 Clouds -5 1017 74 10000 6 290 11:38 05.02.2021
2891 Clouds -5 1017 74 10000 6 290 11:19 05.02.2021
2892 Clouds -5 1017 74 10000 5 320 10:46 05.02.2021
2893 Snow -5 1017 74 10000 5 330 10:24 05.02.2021
2894 Snow -5 1017 74 10000 7 310 09:42 05.02.2021
2895 Snow -5 1017 74 10000 6 300 09:23 05.02.2021
2896 Clouds -5 1016 74 10000 7 310 08:40 05.02.2021
2897 Clouds -6 1015 73 10000 8 320 07:41 05.02.2021
2898 Clouds -6 1015 73 10000 8 320 07:21 05.02.2021
2899 Clouds -5 1015 80 10000 6 320 06:28 05.02.2021
2900 Clouds -5 1014 74 10000 7 320 05:32 05.02.2021
2901 Clouds -2 1010 80 10000 8 320 02:25 05.02.2021
2902 Clouds -2 1009 86 10000 10 310 00:58 05.02.2021
2903 Clouds -1 1008 80 10000 9 330 00:36 05.02.2021
2904 Clouds -1 1007 80 10000 10 320 00:18 05.02.2021
2905 Clouds -1 1007 80 10000 9 320 23:40 04.02.2021
2906 Clouds -1 1007 80 10000 11 320 23:22 04.02.2021
2907 Clouds -1 1005 86 10000 10 320 22:54 04.02.2021
2908 Clouds 0 1005 86 10000 10 320 22:30 04.02.2021
2909 Clouds 0 1004 100 10000 9 320 21:55 04.02.2021
2910 Clouds 0 1003 93 10000 9 310 21:37 04.02.2021
2911 Clouds 1 1002 93 10000 11 310 20:58 04.02.2021
2912 Clouds 4 1000 100 9000 8 300 20:34 04.02.2021
2913 Rain 4 1000 100 5000 7 270 19:52 04.02.2021
2914 Clouds 4 999 100 7000 6 260 19:26 04.02.2021
2915 Drizzle 4 999 100 5000 6 260 18:41 04.02.2021
2916 Drizzle 4 999 100 5000 6 260 18:22 04.02.2021
2917 Drizzle 5 999 93 8000 4 240 17:45 04.02.2021
2918 Clouds 4 999 93 10000 3 230 17:22 04.02.2021
2919 Clouds 4 998 93 9000 3 230 16:49 04.02.2021
2920 Clouds 4 998 93 10000 2 240 16:20 04.02.2021
2921 Clouds 4 998 93 10000 3 230 15:41 04.02.2021
2922 Clouds 4 998 93 10000 4 230 15:21 04.02.2021
2923 Clouds 4 998 93 10000 4 230 14:57 04.02.2021
2924 Clouds 4 998 87 10000 4 240 14:39 04.02.2021
2925 Clouds 4 999 93 10000 4 230 14:19 04.02.2021
2926 Clouds 4 999 93 10000 4 230 13:43 04.02.2021
2927 Clouds 3 999 93 10000 3 230 12:57 04.02.2021
2928 Clouds 3 999 93 10000 3 230 12:57 04.02.2021
2929 Clouds 3 999 93 10000 4 230 12:27 04.02.2021
2930 Snow 2 1000 100 9000 4 230 11:53 04.02.2021
2931 Snow 2 1000 100 9000 4 220 11:33 04.02.2021
2932 Snow 1 1000 93 9000 4 210 10:48 04.02.2021
2933 Rain 1 1001 100 10000 5 210 10:18 04.02.2021
2934 Rain 1 1001 100 9000 5 200 09:43 04.02.2021
2935 Rain 0 1001 100 4400 4 190 09:19 04.02.2021
2936 Rain 0 1001 100 6000 3 190 08:46 04.02.2021
2937 Rain 0 1002 100 6000 3 180 08:23 04.02.2021
2938 Rain 0 1003 100 4700 3 180 07:42 04.02.2021
2939 Mist 0 1003 100 4700 3 180 07:20 04.02.2021
2940 Rain 0 1003 100 6000 3 200 06:41 04.02.2021
2941 Clouds 0 1005 100 7000 2 190 03:54 04.02.2021
2942 Clouds 0 1005 100 7000 2 190 03:54 04.02.2021
2943 Clouds 1 1006 93 7000 3 200 02:27 04.02.2021
2944 Clouds 1 1007 100 8000 1 0 00:56 04.02.2021
2945 Clouds 1 1008 93 7000 3 210 23:40 03.02.2021
2946 Clouds 1 1008 93 7000 3 230 22:50 03.02.2021
2947 Clouds 1 1008 93 7000 3 230 22:24 03.02.2021
2948 Clouds 1 1008 93 7000 3 240 21:59 03.02.2021
2949 Clouds 1 1009 93 7000 3 230 21:41 03.02.2021
2950 Clouds 1 1008 93 7000 3 240 21:20 03.02.2021
2951 Clouds 1 1009 93 7000 3 240 20:46 03.02.2021
2952 Clouds 1 1009 93 7000 3 240 20:26 03.02.2021
2953 Clouds 1 1008 93 7000 3 230 19:46 03.02.2021
2954 Clouds 1 1009 93 8000 3 230 19:23 03.02.2021
2955 Clouds 1 1009 93 8000 3 230 18:49 03.02.2021
2956 Clouds 1 1009 93 7000 4 220 18:21 03.02.2021
2957 Clouds 1 1009 93 7000 3 230 17:54 03.02.2021
2958 Snow 1 1009 93 7000 3 230 17:33 03.02.2021
2959 Clouds 1 1009 93 8000 3 220 16:59 03.02.2021
2960 Clouds 0 1009 86 8000 3 210 16:35 03.02.2021
2961 Snow 1 1009 86 9000 3 220 15:50 03.02.2021
2962 Snow 1 1009 86 8000 3 210 15:30 03.02.2021
2963 Clouds 1 1008 86 7000 3 190 14:59 03.02.2021
2964 Clouds 1 1009 86 6000 2 170 14:40 03.02.2021
2965 Snow 1 1009 86 5000 2 160 13:59 03.02.2021
2966 Snow 0 1009 93 6000 2 190 13:30 03.02.2021
2967 Snow 0 1010 93 4900 3 210 12:56 03.02.2021
2968 Mist 0 1010 100 4900 4 220 12:37 03.02.2021
2969 Rain -1 1010 100 4900 4 220 12:18 03.02.2021
2970 Snow -1 1010 100 3600 4 200 11:38 03.02.2021
2971 Mist -1 1010 100 3600 4 200 11:19 03.02.2021
2972 Mist -2 1010 100 3600 4 210 10:27 03.02.2021
2973 Mist -2 1010 100 3300 4 210 09:53 03.02.2021
2974 Mist -2 1010 100 3300 4 210 09:34 03.02.2021
2975 Mist -3 1011 100 3400 3 200 08:55 03.02.2021
2976 Mist -3 1011 100 3400 3 200 08:36 03.02.2021
2977 Fog -3 1011 100 750 3 210 07:43 03.02.2021
2978 Mist -3 1011 93 1600 3 210 06:42 03.02.2021
2979 Mist -4 1011 100 2300 3 200 04:55 03.02.2021
2980 Mist -4 1011 93 3000 2 220 04:34 03.02.2021
2981 Mist -5 1011 100 2700 2 200 03:48 03.02.2021
2982 Clouds -7 1012 93 6000 1 0 02:37 03.02.2021
2983 Clouds -5 1012 93 7000 2 200 01:20 03.02.2021
2984 Clouds -6 1012 93 7000 1 0 00:20 03.02.2021
2985 Clouds -6 1012 93 7000 2 190 23:40 02.02.2021
2986 Clouds -6 1012 93 6000 2 200 23:22 02.02.2021
2987 Mist -7 1012 92 5000 1 0 22:37 02.02.2021
2988 Mist -7 1013 92 5000 1 0 22:18 02.02.2021
2989 Clouds -7 1013 100 6000 2.44 189 21:40 02.02.2021
2990 Clouds -7 1013 100 6000 2.55 177 21:21 02.02.2021
2991 Clouds -6 1013 93 7000 1 0 20:47 02.02.2021
2992 Clouds -6 1013 93 7000 1 0 20:21 02.02.2021
2993 Clouds -7 1013 93 7000 1 0 19:48 02.02.2021
2994 Clouds -6 1013 93 8000 1 0 19:30 02.02.2021
2995 Clouds -6 1013 93 8000 2 130 18:48 02.02.2021
2996 Clouds -6 1013 93 8000 2 130 18:26 02.02.2021
2997 Clouds -6 1013 93 8000 2 130 18:26 02.02.2021
2998 Clear -5 1013 86 10000 2 130 17:59 02.02.2021
2999 Clouds -5 1013 86 10000 2 130 17:36 02.02.2021
3000 Clear -5 1013 86 10000 2 130 17:18 02.02.2021
3001 Clear -4 1013 80 10000 2 130 16:42 02.02.2021
3002 Clear -4 1013 80 10000 2 150 16:23 02.02.2021
3003 Clear -3 1012 80 10000 3 120 15:42 02.02.2021
3004 Clouds -3 1012 74 10000 3 80 15:21 02.02.2021
3005 Clouds -2 1012 74 9000 1 0 14:41 02.02.2021
3006 Clouds -2 1012 74 9000 1 0 14:20 02.02.2021
3007 Clouds -2 1013 74 9000 1 0 13:54 02.02.2021
3008 Clouds -2 1013 74 10000 1 0 13:36 02.02.2021
3009 Clouds -3 1013 74 10000 1 0 13:18 02.02.2021
3010 Clouds -3 1013 80 10000 1 0 12:31 02.02.2021
3011 Clouds -4 1013 80 9000 2 80 11:44 02.02.2021
3012 Clouds -3 1013 80 10000 2 60 11:22 02.02.2021
3013 Clouds -4 1013 86 10000 3 80 10:55 02.02.2021
3014 Clouds -5 1013 86 10000 4 80 10:27 02.02.2021
3015 Clouds -6 1013 86 10000 3 60 09:47 02.02.2021
3016 Clouds -6 1013 86 10000 2 70 09:25 02.02.2021
3017 Clouds -6 1013 86 10000 3 60 08:54 02.02.2021
3018 Clouds -6 1013 86 10000 3 30 08:25 02.02.2021
3019 Clouds -7 1012 93 10000 2 60 07:29 02.02.2021
3020 Clear -7 1012 93 10000 3 50 06:43 02.02.2021
3021 Clear -7 1012 86 10000 3 60 05:53 02.02.2021
3022 Clear -7 1011 93 10000 4 30 04:37 02.02.2021
3023 Clear -8 1011 86 10000 2 20 02:26 02.02.2021
3024 Clear -7 1011 93 10000 3 30 01:55 02.02.2021
3025 Clear -7 1010 86 10000 3 20 00:34 02.02.2021
3026 Clear -6 1009 86 10000 4 10 23:19 01.02.2021
3027 Clear -6 1009 86 10000 4 10 22:50 01.02.2021
3028 Clouds -6 1009 86 10000 3 20 22:32 01.02.2021
3029 Clouds -5 1009 93 10000 4 20 21:49 01.02.2021
3030 Clouds -5 1009 86 10000 5 20 21:30 01.02.2021
3031 Clouds -5 1009 86 10000 5 20 21:30 01.02.2021
3032 Clouds -5 1008 86 10000 5 20 20:56 01.02.2021
3033 Clouds -5 1008 93 10000 5 20 20:36 01.02.2021
3034 Clouds -5 1008 93 10000 5 30 20:18 01.02.2021
3035 Clouds -5 1007 93 10000 6 30 19:38 01.02.2021
3036 Clouds -5 1007 93 10000 6 30 19:18 01.02.2021
3037 Snow -5 1007 93 10000 6 30 18:46 01.02.2021
3038 Snow -5 1007 93 10000 6 30 18:26 01.02.2021
3039 Snow -5 1007 93 10000 5 30 17:47 01.02.2021
3040 Snow -4 1007 86 10000 5 30 17:23 01.02.2021
3041 Snow -4 1006 93 10000 5 30 16:46 01.02.2021
3042 Snow -4 1006 93 10000 5 30 16:28 01.02.2021
3043 Snow -4 1006 86 10000 4 30 15:42 01.02.2021
3044 Snow -3 1006 86 10000 4 30 15:19 01.02.2021
3045 Snow -3 1006 86 10000 4 30 14:51 01.02.2021
3046 Snow -3 1006 93 9000 5 50 14:24 01.02.2021
3047 Snow -3 1007 93 3800 5 40 13:46 01.02.2021
3048 Snow -3 1007 93 3800 5 40 13:26 01.02.2021
3049 Mist -3 1007 86 3300 4 60 12:45 01.02.2021
3050 Mist -3 1007 86 3300 4 60 12:45 01.02.2021
3051 Snow -3 1007 86 3300 4 60 12:25 01.02.2021
3052 Snow -3 1007 93 3000 5 70 11:47 01.02.2021
3053 Snow -4 1008 93 5000 5 80 11:21 01.02.2021
3054 Mist -4 1008 93 5000 5 80 11:21 01.02.2021
3055 Snow -4 1008 93 4700 5 80 10:52 01.02.2021
3056 Snow -4 1008 93 5000 5 80 10:22 01.02.2021
3057 Snow -4 1009 100 6000 4 90 09:54 01.02.2021
3058 Snow -4 1009 100 6000 4 90 09:54 01.02.2021
3059 Snow -4 1009 100 6000 4 90 09:35 01.02.2021
3060 Clouds -5 1009 100 9000 4 90 08:56 01.02.2021
3061 Clouds -6 1009 100 7000 3 80 08:26 01.02.2021
3062 Mist -7 1010 93 4100 2 70 07:30 01.02.2021
3063 Mist -8 1009 92 3300 2 80 04:34 01.02.2021
3064 Fog -8 1010 92 3200 1.25 147 02:40 01.02.2021
3065 Fog -8 1010 92 250 1.47 198 00:18 01.02.2021
3066 Fog -7 1010 85 300 1.55 220 22:57 31.01.2021
3067 Fog -7 1010 92 300 1.56 220 22:38 31.01.2021
3068 Fog -7 1010 92 700 1.91 219 22:19 31.01.2021
3069 Fog -6 1010 100 750 1.91 219 21:46 31.01.2021
3070 Fog -6 1010 86 4200 2.07 224 21:19 31.01.2021
3071 Mist -6 1009 93 5000 2.07 224 20:43 31.01.2021
3072 Clouds -6 1009 100 6000 1 0 20:20 31.01.2021
3073 Clouds -6 1009 92 7000 2 220 19:39 31.01.2021
3074 Clouds -6 1009 92 7000 2 220 19:21 31.01.2021
3075 Clouds -6 1009 92 7000 2 220 19:21 31.01.2021
3076 Clouds -5 1009 86 7000 2 210 18:55 31.01.2021
3077 Clouds -4 1009 86 8000 2 230 18:37 31.01.2021
3078 Clouds -4 1009 86 8000 2 230 18:18 31.01.2021
3079 Clouds -4 1009 86 8000 2 220 18:18 31.01.2021
3080 Clouds -4 1008 80 8000 2 250 17:39 31.01.2021
3081 Clear -4 1008 74 10000 1 0 17:20 31.01.2021
3082 Clouds -3 1008 74 10000 3 250 16:41 31.01.2021
3083 Clouds -2 1007 69 10000 4 260 16:20 31.01.2021
3084 Clouds -2 1007 64 10000 4 270 15:49 31.01.2021
3085 Clouds -1 1007 64 10000 4 270 15:21 31.01.2021
3086 Clouds -1 1006 59 10000 6 270 14:36 31.01.2021
3087 Clouds -1 1006 64 10000 4 290 14:18 31.01.2021
3088 Clouds -1 1005 64 10000 4 280 13:41 31.01.2021
3089 Clouds -1 1005 64 10000 7 300 13:18 31.01.2021
3090 Clouds -1 1005 69 10000 8 300 12:45 31.01.2021
3091 Clouds -1 1005 69 10000 8 300 12:20 31.01.2021
3092 Clouds -2 1004 69 10000 6 290 11:39 31.01.2021
3093 Clouds -1 1004 69 10000 6 290 11:20 31.01.2021
3094 Clouds -1 1004 74 10000 7 290 10:45 31.01.2021
3095 Clouds -1 1004 74 10000 7 290 10:26 31.01.2021
3096 Clouds -2 1003 86 10000 7 280 09:41 31.01.2021
3097 Clouds -3 1002 86 10000 6 280 08:52 31.01.2021
3098 Snow -3 1001 86 10000 6 290 08:30 31.01.2021
3099 Clouds -4 1000 93 10000 7 280 06:45 31.01.2021
3100 Snow -4 995 93 10000 7 310 03:46 31.01.2021
3101 Snow -3 992 93 1300 1.37 259 00:28 31.01.2021
3102 Snow -3 992 93 1300 1.33 261 23:52 30.01.2021
3103 Mist -3 993 93 1900 2 250 23:24 30.01.2021
3104 Snow -3 993 93 5000 2 260 22:42 30.01.2021
3105 Snow -3 993 93 5000 2 260 22:22 30.01.2021
3106 Snow -3 993 93 4600 2 260 21:39 30.01.2021
3107 Snow -3 993 93 2700 2 230 21:18 30.01.2021
3108 Snow -3 993 93 5000 3 260 20:39 30.01.2021
3109 Mist -4 993 100 4800 2 240 19:59 30.01.2021
3110 Mist -4 993 100 5000 1 0 19:40 30.01.2021
3111 Mist -4 993 100 5000 1 0 19:40 30.01.2021
3112 Mist -4 993 100 5000 1.88 204 19:19 30.01.2021
3113 Snow -4 993 100 6000 1.89 205 18:40 30.01.2021
3114 Snow -4 993 100 6000 1.21 164 18:20 30.01.2021
3115 Snow -3 994 93 2600 1 0 17:47 30.01.2021
3116 Snow -4 994 93 3600 2 110 17:19 30.01.2021
3117 Snow -4 994 93 7000 3 110 16:41 30.01.2021
3118 Snow -4 994 93 7000 3 110 16:22 30.01.2021
3119 Snow -4 994 93 6000 3 100 15:49 30.01.2021
3120 Snow -4 994 93 3800 3 100 15:24 30.01.2021
3121 Snow -3 995 93 3500 3 100 14:53 30.01.2021
3122 Snow -3 995 93 2000 3 100 14:32 30.01.2021
3123 Snow -3 995 93 3900 3 100 13:57 30.01.2021
3124 Snow -3 996 93 5000 4 100 13:21 30.01.2021
3125 Snow -3 996 93 1700 4 90 12:44 30.01.2021
3126 Snow -4 997 93 1000 3 100 12:26 30.01.2021
3127 Snow -4 997 93 1800 3 110 11:46 30.01.2021
3128 Snow -4 998 86 1400 3 130 10:56 30.01.2021
3129 Snow -3 998 86 2000 2 140 10:27 30.01.2021
3130 Snow -5 998 93 10000 2 100 09:41 30.01.2021
3131 Snow -5 998 93 10000 2 70 09:22 30.01.2021
3132 Snow -5 998 93 8000 3.24 178 08:44 30.01.2021
3133 Snow -7 999 92 8000 2.79 177 07:42 30.01.2021
3134 Clouds -7 998 92 8000 1 220 06:32 30.01.2021
3135 Clear -6 998 93 10000 2 250 03:51 30.01.2021
3136 Clear -6 999 93 10000 2 240 03:31 30.01.2021
3137 Clouds -5 998 86 10000 3 230 02:22 30.01.2021
3138 Clouds -4 997 86 10000 3 230 00:56 30.01.2021
3139 Clouds -4 997 80 10000 3 230 00:26 30.01.2021
3140 Clouds -3 997 80 10000 4 230 23:54 29.01.2021
3141 Clouds -3 997 80 10000 4 230 23:27 29.01.2021
3142 Clouds -3 997 80 10000 4 230 22:46 29.01.2021
3143 Clouds -3 997 80 10000 5 250 22:28 29.01.2021
3144 Clouds -3 996 80 10000 5 240 21:58 29.01.2021
3145 Clouds -3 996 80 10000 4 240 21:27 29.01.2021
3146 Clouds -3 996 80 10000 5 250 20:43 29.01.2021
3147 Clouds -3 996 80 10000 5 250 20:23 29.01.2021
3148 Snow -3 996 74 8000 5 260 19:40 29.01.2021
3149 Snow -3 996 74 8000 5 260 19:21 29.01.2021
3150 Snow -3 996 74 10000 6 260 18:53 29.01.2021
3151 Clouds -3 995 68 10000 7 260 17:50 29.01.2021
3152 Clouds -2 995 64 10000 7 260 17:23 29.01.2021
3153 Clouds -2 995 64 10000 5 260 16:52 29.01.2021
3154 Clouds -2 994 59 10000 7 260 16:24 29.01.2021
3155 Clouds -1 994 55 10000 8 280 15:55 29.01.2021
3156 Clouds 0 994 59 10000 7 260 15:37 29.01.2021
3157 Clouds 0 994 59 10000 6 260 15:18 29.01.2021
3158 Clear 0 994 64 10000 9 270 14:23 29.01.2021
3159 Snow 0 994 64 10000 9 270 13:46 29.01.2021
3160 Snow 0 994 64 10000 9 270 13:28 29.01.2021
3161 Snow 0 994 64 9000 10 270 12:42 29.01.2021
3162 Clouds 0 993 69 10000 9 270 12:18 29.01.2021
3163 Clouds -1 994 86 10000 7 250 11:41 29.01.2021
3164 Clouds -1 994 93 10000 6 250 11:18 29.01.2021
3165 Snow -3 994 100 900 5 240 10:46 29.01.2021
3166 Snow -3 994 100 900 5 240 10:22 29.01.2021
3167 Snow -4 994 93 750 5 230 09:39 29.01.2021
3168 Snow -4 994 86 9000 5 230 08:50 29.01.2021
3169 Snow -5 995 93 7000 5 230 08:27 29.01.2021
3170 Snow -5 995 86 1300 4 230 07:48 29.01.2021
3171 Snow -5 995 86 1500 4 230 07:29 29.01.2021
3172 Snow -5 995 93 10000 3 230 06:49 29.01.2021
3173 Clear -5 996 86 10000 3 250 04:53 29.01.2021
3174 Snow -3 997 93 2700 6 280 01:50 29.01.2021
3175 Snow -2 997 93 8000 6 290 00:37 29.01.2021
3176 Snow -2 997 93 9000 7 300 00:19 29.01.2021
3177 Snow -1 997 86 10000 7 300 23:39 28.01.2021
3178 Snow -1 997 86 10000 7 300 23:20 28.01.2021
3179 Snow -1 996 93 9000 6 300 22:42 28.01.2021
3180 Snow -1 996 93 9000 6 310 22:22 28.01.2021
3181 Snow -1 997 93 8000 5 320 21:45 28.01.2021
3182 Snow -1 997 93 8000 5 320 21:27 28.01.2021
3183 Snow -1 997 93 9000 4 320 20:46 28.01.2021
3184 Snow -1 997 93 10000 5 320 20:19 28.01.2021
3185 Snow -1 997 93 10000 5 320 20:19 28.01.2021
3186 Snow -1 997 100 9000 4 320 19:57 28.01.2021
3187 Snow -1 997 100 6000 4 320 19:32 28.01.2021
3188 Snow -1 998 100 6000 4 330 18:54 28.01.2021
3189 Snow -1 998 93 10000 5 320 18:36 28.01.2021
3190 Snow -1 998 93 7000 4 330 18:18 28.01.2021
3191 Snow -1 998 93 5000 5 330 17:43 28.01.2021
3192 Snow -1 998 93 5000 5 330 17:24 28.01.2021
3193 Snow 0 999 93 3700 3 330 16:43 28.01.2021
3194 Snow 0 998 93 3900 5 330 16:21 28.01.2021
3195 Snow 0 998 93 6000 6 330 15:38 28.01.2021
3196 Snow 0 998 93 10000 5 340 14:58 28.01.2021
3197 Snow 0 998 93 10000 6 330 14:39 28.01.2021
3198 Snow 0 998 93 10000 6 330 14:39 28.01.2021
3199 Snow 0 998 93 10000 6 330 14:20 28.01.2021
3200 Snow 0 998 93 9000 6 330 13:40 28.01.2021
3201 Snow 0 998 93 9000 5 340 12:52 28.01.2021
3202 Snow 0 999 93 7000 5 340 12:33 28.01.2021
3203 Snow 0 999 93 5000 4 350 11:58 28.01.2021
3204 Snow 0 999 93 2600 4 360 11:39 28.01.2021
3205 Snow 0 999 93 2600 4 360 11:19 28.01.2021
3206 Snow 0 999 93 5000 4 340 10:49 28.01.2021
3207 Snow 0 999 93 3300 4 360 10:27 28.01.2021
3208 Snow -1 1000 100 1800 5 350 09:44 28.01.2021
3209 Snow 0 1000 93 1300 5 350 09:21 28.01.2021
3210 Snow -1 999 93 2100 5 350 08:48 28.01.2021
3211 Snow -1 1000 93 5000 5 360 07:55 28.01.2021
3212 Snow -1 1000 93 5000 5 360 07:36 28.01.2021
3213 Snow -1 1000 93 9000 5 360 06:48 28.01.2021
3214 Snow -1 1001 93 10000 6 360 04:33 28.01.2021
3215 Snow -1 1001 86 10000 5 360 03:42 28.01.2021
3216 Snow -1 1002 86 4300 5 350 00:50 28.01.2021
3217 Snow -1 1003 86 4300 5 360 23:41 27.01.2021
3218 Snow 0 1003 86 4300 5 360 23:22 27.01.2021
3219 Snow 0 1003 74 10000 6 10 22:40 27.01.2021
3220 Snow 0 1003 74 10000 6 10 22:19 27.01.2021
3221 Snow 0 1004 74 10000 5 360 22:19 27.01.2021
3222 Snow 0 1004 74 10000 5 360 21:42 27.01.2021
3223 Snow 0 1004 74 10000 5 360 21:22 27.01.2021
3224 Snow 0 1004 74 10000 5 360 20:47 27.01.2021
3225 Snow 0 1004 74 10000 5 360 20:20 27.01.2021
3226 Snow 0 1005 74 10000 5 360 19:41 27.01.2021
3227 Snow 0 1005 74 10000 4 360 19:21 27.01.2021
3228 Snow 0 1005 80 10000 4 350 18:44 27.01.2021
3229 Snow 0 1005 80 10000 4 350 18:23 27.01.2021
3230 Snow 0 1005 74 10000 4 350 17:51 27.01.2021
3231 Snow 0 1006 74 10000 4 340 17:31 27.01.2021
3232 Snow 0 1006 74 10000 3 340 16:51 27.01.2021
3233 Snow 0 1006 74 10000 4 350 16:32 27.01.2021
3234 Snow 0 1006 74 10000 3 340 15:52 27.01.2021
3235 Snow 1 1006 74 10000 3 330 15:33 27.01.2021
3236 Snow 1 1006 69 10000 3 330 14:47 27.01.2021
3237 Snow 1 1006 69 10000 3 330 14:23 27.01.2021
3238 Snow 1 1006 69 10000 3 350 13:48 27.01.2021
3239 Snow 1 1006 69 10000 3 350 13:27 27.01.2021
3240 Snow 1 1006 69 10000 4 330 12:41 27.01.2021
3241 Snow 1 1006 69 10000 4 330 12:22 27.01.2021
3242 Snow 1 1007 69 10000 4 330 11:46 27.01.2021
3243 Snow 1 1007 75 10000 4 330 11:23 27.01.2021
3244 Snow 1 1007 80 10000 4 320 10:41 27.01.2021
3245 Snow 1 1007 80 10000 4 320 10:21 27.01.2021
3246 Snow 0 1007 80 10000 4 300 09:49 27.01.2021
3247 Snow 0 1007 80 10000 3 290 09:25 27.01.2021
3248 Snow 0 1007 93 10000 2 250 08:32 27.01.2021
3249 Snow 0 1007 86 9000 2 230 07:45 27.01.2021
3250 Snow -1 1007 86 10000 1 0 07:21 27.01.2021
3251 Clear -1 1007 86 10000 2 270 06:21 27.01.2021
3252 Snow -1 1006 86 10000 3 270 05:46 27.01.2021
3253 Clear 0 1007 74 10000 4 260 03:37 27.01.2021
3254 Clouds 0 1007 74 10000 4 260 02:23 27.01.2021
3255 Clouds 0 1007 74 10000 6 270 01:51 27.01.2021
3256 Clouds 1 1007 69 10000 6 270 00:43 27.01.2021
3257 Clouds 1 1007 75 10000 6 260 23:50 26.01.2021
3258 Clouds 1 1007 69 10000 6 260 23:32 26.01.2021
3259 Clouds 1 1006 75 10000 6 260 22:51 26.01.2021
3260 Clouds 1 1006 75 10000 6 260 22:33 26.01.2021
3261 Clouds 1 1006 75 10000 7 260 21:55 26.01.2021
3262 Clouds 1 1006 75 10000 6 260 21:35 26.01.2021
3263 Clouds 1 1006 75 10000 6 250 20:59 26.01.2021
3264 Clouds 1 1006 75 10000 6 250 20:40 26.01.2021
3265 Clouds 1 1006 75 10000 6 250 20:21 26.01.2021
3266 Clouds 1 1005 75 10000 6 250 19:46 26.01.2021
3267 Clouds 1 1005 75 10000 6 250 19:24 26.01.2021
3268 Clouds 1 1005 75 10000 7 240 18:49 26.01.2021
3269 Clouds 1 1005 75 10000 7 240 18:28 26.01.2021
3270 Clouds 1 1004 75 10000 6 240 17:55 26.01.2021
3271 Clouds 1 1004 75 10000 6 240 17:37 26.01.2021
3272 Clouds 1 1003 69 10000 7 250 16:56 26.01.2021
3273 Clouds 2 1003 69 10000 7 240 16:37 26.01.2021
3274 Clouds 2 1003 69 10000 7 240 16:19 26.01.2021
3275 Clouds 2 1002 69 10000 8 240 15:46 26.01.2021
3276 Clouds 2 1002 75 10000 8 240 15:24 26.01.2021
3277 Clouds 2 1002 75 10000 8 240 14:46 26.01.2021
3278 Clouds 2 1001 75 10000 8 240 14:28 26.01.2021
3279 Clouds 2 1001 75 10000 9 240 13:37 26.01.2021
3280 Clouds 2 1000 75 10000 8 240 13:18 26.01.2021
3281 Clouds 2 1000 75 10000 9 240 12:42 26.01.2021
3282 Clouds 2 1000 75 10000 9 240 12:22 26.01.2021
3283 Clouds 2 999 75 10000 8 240 11:51 26.01.2021
3284 Clouds 2 999 75 10000 9 240 11:30 26.01.2021
3285 Clouds 2 999 75 10000 9 230 10:44 26.01.2021
3286 Clouds 2 998 75 10000 9 230 10:25 26.01.2021
3287 Clouds 2 997 75 10000 9 230 09:40 26.01.2021
3288 Clouds 2 997 75 10000 8 230 09:22 26.01.2021
3289 Clouds 2 997 80 10000 8 230 08:50 26.01.2021
3290 Clouds 2 996 80 10000 8 230 08:20 26.01.2021
3291 Clouds 1 995 75 10000 8 240 07:25 26.01.2021
3292 Snow 1 993 93 8000 9 250 05:58 26.01.2021
3293 Snow 1 993 93 10000 7 240 05:38 26.01.2021
3294 Clouds 2 991 100 9000 7 250 03:42 26.01.2021
3295 Clouds 5 989 100 6000 5 110 01:35 26.01.2021
3296 Rain 6 990 100 8000 5 110 00:36 26.01.2021
3297 Rain 7 991 100 7000 5 130 23:34 25.01.2021
3298 Rain 7 991 100 9000 6 130 22:52 25.01.2021
3299 Rain 7 992 100 6000 5 130 22:33 25.01.2021
3300 Rain 7 992 100 4900 6 130 21:48 25.01.2021
3301 Rain 7 992 100 4000 6 130 21:22 25.01.2021
3302 Mist 7 993 100 3900 6 140 20:46 25.01.2021
3303 Rain 7 993 100 3900 6 140 20:28 25.01.2021
3304 Mist 7 993 93 5000 6 130 19:50 25.01.2021
3305 Rain 7 994 93 6000 6 130 19:27 25.01.2021
3306 Rain 7 994 100 3600 5 130 18:48 25.01.2021
3307 Rain 7 994 100 3600 5 130 18:48 25.01.2021
3308 Rain 7 994 100 6000 5 130 18:26 25.01.2021
3309 Rain 6 995 100 7000 5 120 17:49 25.01.2021
3310 Rain 6 995 100 3700 5 120 17:26 25.01.2021
3311 Rain 6 995 100 4600 5 120 16:57 25.01.2021
3312 Rain 6 996 100 3700 5 120 16:39 25.01.2021
3313 Rain 5 996 100 2400 6 110 16:20 25.01.2021
3314 Rain 5 996 100 2500 6 110 15:41 25.01.2021
3315 Rain 5 996 100 2500 6 110 15:22 25.01.2021
3316 Rain 5 997 100 3200 6 110 14:39 25.01.2021
3317 Rain 5 997 100 3200 6 110 14:39 25.01.2021
3318 Rain 5 998 93 5000 6 110 14:18 25.01.2021
3319 Clouds 6 998 93 9000 5 110 13:45 25.01.2021
3320 Clouds 6 998 93 9000 5 110 13:25 25.01.2021
3321 Clouds 6 999 93 10000 6 120 12:45 25.01.2021
3322 Clouds 6 999 93 10000 6 120 12:19 25.01.2021
3323 Clouds 6 1000 93 9000 5 130 11:31 25.01.2021
3324 Clouds 5 1001 100 9000 4 120 10:53 25.01.2021
3325 Clouds 5 1001 100 10000 5 130 10:23 25.01.2021
3326 Clouds 5 1001 100 10000 5 130 09:54 25.01.2021
3327 Clouds 5 1001 100 10000 4 140 09:34 25.01.2021
3328 Clouds 5 1002 100 10000 4 140 08:53 25.01.2021
3329 Clouds 5 1002 100 10000 4 140 08:23 25.01.2021
3330 Clouds 5 1002 100 10000 3 140 07:30 25.01.2021
3331 Clouds 5 1002 100 8000 2 140 06:47 25.01.2021
3332 Mist 6 1002 100 1400 2 150 02:59 25.01.2021
3333 Mist 6 1002 100 1200 2 160 00:52 25.01.2021
3334 Clouds 6 1002 100 6000 3 170 23:40 24.01.2021
3335 Clouds 6 1002 100 8000 3 160 23:19 24.01.2021
3336 Rain 6 1003 100 7000 3 170 22:41 24.01.2021
3337 Rain 6 1003 100 7000 3 170 22:20 24.01.2021
3338 Rain 6 1002 100 5000 3 160 21:44 24.01.2021
3339 Rain 6 1002 100 5000 3 160 21:21 24.01.2021
3340 Clouds 6 1002 100 9000 4 160 20:43 24.01.2021
3341 Rain 6 1002 100 8000 4 160 20:20 24.01.2021
3342 Rain 7 1002 100 10000 4 160 19:50 24.01.2021
3343 Rain 7 1002 100 10000 4 160 19:26 24.01.2021
3344 Rain 7 1002 100 6000 4 170 18:57 24.01.2021
3345 Clouds 7 1002 100 7000 4 160 18:38 24.01.2021
3346 Clouds 7 1002 100 7000 4 160 18:19 24.01.2021
3347 Clouds 7 1002 100 7000 4 160 17:48 24.01.2021
3348 Rain 7 1002 100 6000 4 160 17:21 24.01.2021
3349 Rain 7 1002 93 9000 5 160 16:43 24.01.2021
3350 Rain 7 1002 93 9000 5 160 16:25 24.01.2021
3351 Rain 7 1002 93 10000 4 160 15:58 24.01.2021
3352 Rain 7 1002 93 9000 4 160 15:40 24.01.2021
3353 Rain 8 1002 87 10000 4 160 15:18 24.01.2021
3354 Rain 7 1002 87 10000 5 160 14:37 24.01.2021
3355 Rain 8 1001 87 10000 5 150 13:42 24.01.2021
3356 Clouds 7 1001 87 10000 5 150 13:23 24.01.2021
3357 Clouds 7 1002 93 10000 4 140 12:43 24.01.2021
3358 Clouds 7 1002 93 10000 4 140 12:43 24.01.2021
3359 Rain 6 1002 93 10000 4 140 12:19 24.01.2021
3360 Rain 6 1002 93 10000 4 140 11:49 24.01.2021
3361 Rain 6 1002 100 9000 5 150 11:24 24.01.2021
3362 Mist 6 1003 100 4000 5 140 10:43 24.01.2021
3363 Mist 5 1003 100 2300 5 140 10:18 24.01.2021
3364 Mist 5 1003 100 1700 4 140 09:22 24.01.2021
3365 Mist 5 1003 100 1700 4 140 08:56 24.01.2021
3366 Fog 4 1004 100 1000 4 150 07:50 24.01.2021
3367 Fog 2 1006 100 1000 3 130 02:39 24.01.2021
3368 Fog 2 1006 100 900 3 140 01:46 24.01.2021
3369 Fog 2 1007 100 650 2 130 00:25 24.01.2021
3370 Fog 2 1007 100 600 3 130 23:49 23.01.2021
3371 Fog 1 1007 100 750 3 140 23:26 23.01.2021
3372 Fog 1 1007 100 750 3 140 22:51 23.01.2021
3373 Fog 1 1008 100 750 3 130 22:33 23.01.2021
3374 Fog 1 1008 100 800 3 140 21:52 23.01.2021
3375 Fog 1 1008 100 750 3 130 21:22 23.01.2021
3376 Fog 0 1008 100 750 2 140 20:47 23.01.2021
3377 Fog 0 1009 100 550 4 130 20:25 23.01.2021
3378 Fog 0 1009 100 550 4 130 19:47 23.01.2021
3379 Fog 0 1009 100 550 4 130 19:47 23.01.2021
3380 Fog 0 1009 100 550 3 130 19:23 23.01.2021
3381 Fog 0 1009 100 500 4 140 18:49 23.01.2021
3382 Fog 0 1009 100 500 4 130 18:26 23.01.2021
3383 Fog 0 1009 100 450 3 130 17:54 23.01.2021
3384 Fog 0 1009 100 450 3 130 17:27 23.01.2021
3385 Fog 0 1009 100 600 3 130 16:50 23.01.2021
3386 Fog 0 1009 100 700 3 130 16:30 23.01.2021
3387 Mist 1 1009 100 3100 3 130 15:42 23.01.2021
3388 Mist 1 1009 93 3300 3 140 15:24 23.01.2021
3389 Clouds 2 1009 87 7000 3 130 14:34 23.01.2021
3390 Clear 3 1009 81 9000 3 120 13:55 23.01.2021
3391 Clear 2 1009 87 10000 4 90 13:36 23.01.2021
3392 Clear 3 1009 70 10000 3 130 12:57 23.01.2021
3393 Clear 4 1009 70 10000 2 130 12:29 23.01.2021
3394 Clear 4 1009 70 10000 2 150 11:48 23.01.2021
3395 Clear 4 1009 70 10000 2 110 11:28 23.01.2021
3396 Clear 4 1009 75 10000 3 150 10:52 23.01.2021
3397 Clear 3 1009 81 10000 2 160 10:22 23.01.2021
3398 Clear 2 1010 87 10000 2 200 09:49 23.01.2021
3399 Clear 1 1009 86 10000 2 180 08:57 23.01.2021
3400 Clouds 0 1009 93 9000 2 170 08:31 23.01.2021
3401 Clear 0 1009 93 10000 2 190 07:31 23.01.2021
3402 Clear 0 1009 93 10000 1 0 05:32 23.01.2021
3403 Clear 1 1009 93 10000 3 200 00:54 23.01.2021
3404 Clear 1 1009 93 10000 3 230 23:51 22.01.2021
3405 Clear 1 1009 87 10000 4 190 23:30 22.01.2021
3406 Clear 1 1009 87 10000 3 200 22:39 22.01.2021
3407 Clear 1 1009 87 10000 3 200 21:47 22.01.2021
3408 Clear 1 1009 87 10000 4 200 21:29 22.01.2021
3409 Clear 1 1009 87 10000 4 200 20:59 22.01.2021
3410 Clear 1 1009 87 10000 3 200 20:38 22.01.2021
3411 Clear 1 1009 87 10000 4 200 19:56 22.01.2021
3412 Clear 1 1009 87 10000 4 190 19:25 22.01.2021
3413 Clear 1 1009 87 10000 4 200 18:59 22.01.2021
3414 Clear 1 1010 93 10000 4 190 18:39 22.01.2021
3415 Clear 1 1010 93 10000 4 190 18:20 22.01.2021
3416 Clear 1 1010 86 10000 3 180 17:43 22.01.2021
3417 Clear 1 1010 80 10000 2 180 17:20 22.01.2021
3418 Clear 1 1010 80 10000 3 170 16:39 22.01.2021
3419 Clear 2 1010 80 10000 3 170 16:19 22.01.2021
3420 Clear 3 1010 81 10000 2 170 15:28 22.01.2021
3421 Clear 3 1010 81 10000 3 190 14:54 22.01.2021
3422 Clear 3 1010 81 10000 3 170 14:29 22.01.2021
3423 Clear 3 1010 70 10000 3 180 13:47 22.01.2021
3424 Clear 4 1010 70 10000 3 180 13:27 22.01.2021
3425 Clear 3 1010 81 10000 3 180 12:44 22.01.2021
3426 Clear 3 1011 75 10000 3 180 12:21 22.01.2021
3427 Clear 2 1011 80 10000 3 190 11:45 22.01.2021
3428 Clouds 1 1012 86 7000 3 180 10:54 22.01.2021
3429 Clouds 0 1012 93 6000 2 170 10:34 22.01.2021
3430 Mist 0 1012 93 5000 3 190 09:55 22.01.2021
3431 Mist -1 1012 93 3600 3 180 09:21 22.01.2021
3432 Mist -1 1012 100 2700 2 180 08:50 22.01.2021
3433 Mist -1 1012 100 2400 3 180 08:25 22.01.2021
3434 Mist -2 1012 100 2000 3 180 07:23 22.01.2021
3435 Mist -2 1013 100 3500 2 180 02:42 22.01.2021
3436 Clouds -2 1014 93 6000 2 180 00:37 22.01.2021
3437 Clouds -2 1014 100 6000 2 180 23:50 21.01.2021
3438 Mist -2 1015 100 5000 2 180 23:29 21.01.2021
3439 Mist -1 1015 93 5000 3 190 22:48 21.01.2021
3440 Mist -1 1015 93 5000 3 180 22:21 21.01.2021
3441 Mist -1 1015 93 5000 4 200 21:43 21.01.2021
3442 Mist -1 1015 93 5000 4 200 21:19 21.01.2021
3443 Mist -2 1015 93 5000 4 200 20:47 21.01.2021
3444 Mist -2 1016 93 5000 4 210 20:26 21.01.2021
3445 Mist -2 1016 100 5000 4 210 19:51 21.01.2021
3446 Mist -2 1016 100 5000 4 220 19:28 21.01.2021
3447 Mist -2 1016 100 5000 4 220 18:55 21.01.2021
3448 Mist -2 1016 100 5000 4 220 18:36 21.01.2021
3449 Mist -2 1016 93 4900 4 210 18:18 21.01.2021
3450 Mist -2 1016 93 5000 4 200 17:42 21.01.2021
3451 Mist -2 1016 93 5000 4 200 17:18 21.01.2021
3452 Clouds -2 1016 93 6000 4 200 16:41 21.01.2021
3453 Clouds -2 1016 93 6000 4 200 16:23 21.01.2021
3454 Clear -2 1016 86 7000 3 190 15:55 21.01.2021
3455 Clear -1 1016 80 9000 2 180 15:28 21.01.2021
3456 Clear 0 1016 80 9000 4 190 14:50 21.01.2021
3457 Clear 0 1016 80 9000 3 210 14:31 21.01.2021
3458 Clear 0 1016 80 9000 4 220 13:47 21.01.2021
3459 Clouds 0 1016 80 9000 4 210 13:26 21.01.2021
3460 Clouds 0 1016 74 9000 3 210 12:46 21.01.2021
3461 Clouds 0 1016 74 9000 3 210 12:26 21.01.2021
3462 Clouds 0 1017 74 9000 5 210 11:56 21.01.2021
3463 Clouds 0 1017 74 9000 5 210 11:35 21.01.2021
3464 Clouds -1 1017 80 9000 5 210 10:57 21.01.2021
3465 Clouds -2 1017 80 9000 5 210 10:38 21.01.2021
3466 Clouds -2 1017 80 9000 5 210 10:38 21.01.2021
3467 Clouds -2 1017 80 8000 4 210 09:56 21.01.2021
3468 Clouds -3 1017 80 8000 4 210 09:37 21.01.2021
3469 Clouds -3 1017 86 7000 4 210 09:18 21.01.2021
3470 Snow -4 1017 93 7000 4 200 08:34 21.01.2021
3471 Clouds -5 1017 86 7000 4 190 07:46 21.01.2021
3472 Clouds -5 1018 93 7000 4 200 07:26 21.01.2021
3473 Clouds -5 1017 93 7000 3 190 06:26 21.01.2021
3474 Snow -6 1017 93 8000 4 180 04:54 21.01.2021
3475 Snow -7 1019 86 7000 3 180 02:19 21.01.2021
3476 Snow -8 1019 93 7000 4 180 00:42 21.01.2021
3477 Snow -9 1019 86 5000 3 170 23:44 20.01.2021
3478 Snow -9 1019 86 5000 3 170 23:24 20.01.2021
3479 Snow -9 1020 86 6000 3 170 22:52 20.01.2021
3480 Snow -10 1020 86 8000 3 160 22:29 20.01.2021
3481 Snow -10 1020 85 9000 3 160 21:49 20.01.2021
3482 Snow -10 1020 85 9000 3 160 21:23 20.01.2021
3483 Snow -10 1020 79 10000 2 160 20:52 20.01.2021
3484 Snow -11 1020 73 10000 3 150 20:23 20.01.2021
3485 Clear -11 1020 73 10000 3 150 19:48 20.01.2021
3486 Clear -11 1020 73 10000 3 150 19:48 20.01.2021
3487 Clear -11 1020 73 10000 3 150 19:28 20.01.2021
3488 Clouds -11 1020 73 10000 4 130 18:43 20.01.2021
3489 Clouds -11 1020 73 10000 4 130 18:21 20.01.2021
3490 Clouds -11 1020 73 10000 3 130 17:48 20.01.2021
3491 Clouds -11 1020 73 10000 4 130 17:27 20.01.2021
3492 Clouds -11 1020 73 10000 3 130 16:49 20.01.2021
3493 Clouds -11 1020 73 10000 3 140 16:22 20.01.2021
3494 Clear -11 1020 67 10000 3 130 15:41 20.01.2021
3495 Clear -10 1020 67 10000 3 130 15:19 20.01.2021
3496 Clear -9 1020 62 10000 3 160 14:40 20.01.2021
3497 Clear -9 1020 62 10000 3 160 14:20 20.01.2021
3498 Clear -9 1020 62 10000 3 150 13:37 20.01.2021
3499 Clear -9 1020 62 10000 3 160 12:56 20.01.2021
3500 Clear -10 1020 62 10000 3 170 12:22 20.01.2021
3501 Clear -10 1020 62 10000 3 170 12:22 20.01.2021
3502 Clear -10 1020 67 9000 2 150 11:41 20.01.2021
3503 Clear -10 1020 67 9000 2 150 11:20 20.01.2021
3504 Clear -12 1021 72 9000 3 170 10:49 20.01.2021
3505 Clear -12 1021 72 9000 3 170 10:25 20.01.2021
3506 Clear -14 1021 85 8000 2 180 09:38 20.01.2021
3507 Clear -15 1021 85 8000 2 180 09:19 20.01.2021
3508 Clear -13 1021 78 7000 2 170 08:43 20.01.2021
3509 Clear -16 1020 78 7000 2 160 08:22 20.01.2021
3510 Clear -18 1020 85 7000 2 150 07:53 20.01.2021
3511 Mist -21 1020 77 5000 2 150 07:20 20.01.2021
3512 Mist -22 1020 77 5000 1 0 04:33 20.01.2021
3513 Mist -21 1020 84 3500 1.39 179 02:34 20.01.2021
3514 Mist -21 1019 84 3800 1.24 201 00:58 20.01.2021
3515 Mist -21 1020 84 3600 1 220 23:54 19.01.2021
3516 Mist -21 1020 84 3600 2 230 23:35 19.01.2021
3517 Mist -20 1020 84 4400 2 210 22:58 19.01.2021
3518 Mist -20 1020 84 4100 1 230 22:40 19.01.2021
3519 Mist -18 1020 84 3900 1 230 22:21 19.01.2021
3520 Mist -18 1020 84 3900 1 230 21:55 19.01.2021
3521 Mist -17 1019 85 4400 1 240 21:34 19.01.2021
3522 Mist -17 1019 85 4000 2 230 20:50 19.01.2021
3523 Mist -17 1019 92 5000 2 250 20:29 19.01.2021
3524 Mist -16 1019 85 4700 2 230 19:56 19.01.2021
3525 Mist -17 1019 85 4800 2 230 19:36 19.01.2021
3526 Mist -17 1019 85 4800 2 230 19:18 19.01.2021
3527 Mist -15 1019 85 5000 2 250 18:38 19.01.2021
3528 Mist -15 1019 85 5000 2 250 18:20 19.01.2021
3529 Mist -15 1019 85 5000 2 250 18:20 19.01.2021
3530 Clouds -15 1019 72 6000 2 250 17:42 19.01.2021
3531 Clouds -14 1019 72 6000 2 250 17:20 19.01.2021
3532 Clear -13 1019 66 10000 3 310 16:40 19.01.2021
3533 Clear -13 1018 61 10000 2 300 16:20 19.01.2021
3534 Clear -13 1018 61 10000 2 300 15:50 19.01.2021
3535 Clear -13 1018 61 10000 3 290 15:30 19.01.2021
3536 Clear -12 1018 66 10000 3 280 14:44 19.01.2021
3537 Clear -12 1018 61 10000 3 290 14:26 19.01.2021
3538 Clear -12 1018 66 10000 2 300 13:49 19.01.2021
3539 Clear -12 1018 66 10000 2 290 13:23 19.01.2021
3540 Clear -12 1018 72 10000 3 280 12:51 19.01.2021
3541 Clear -13 1018 78 10000 3 270 12:30 19.01.2021
3542 Clouds -14 1019 72 10000 3 300 11:52 19.01.2021
3543 Clouds -15 1019 72 10000 3 300 11:29 19.01.2021
3544 Clouds -15 1019 78 10000 3 290 10:53 19.01.2021
3545 Clouds -16 1019 78 10000 3 290 10:33 19.01.2021
3546 Snow -15 1019 78 7000 3 290 09:59 19.01.2021
3547 Snow -16 1019 78 7000 3 290 09:41 19.01.2021
3548 Snow -15 1019 85 7000 4 280 09:19 19.01.2021
3549 Clouds -16 1019 78 9000 3 300 08:31 19.01.2021
3550 Snow -17 1019 78 9000 3 290 07:51 19.01.2021
3551 Snow -17 1019 78 9000 3 290 06:55 19.01.2021
3552 Snow -16 1018 78 7000 4 290 03:20 19.01.2021
3553 Snow -16 1018 78 6000 3 300 02:21 19.01.2021
3554 Snow -16 1019 85 6000 2 260 00:18 19.01.2021
3555 Snow -17 1019 85 6000 3 290 23:37 18.01.2021
3556 Snow -16 1019 78 7000 4 300 23:18 18.01.2021
3557 Snow -16 1019 85 8000 3 280 22:40 18.01.2021
3558 Snow -16 1019 85 8000 3 280 22:19 18.01.2021
3559 Clouds -16 1018 78 10000 5 320 21:40 18.01.2021
3560 Clouds -16 1018 78 10000 4 320 21:22 18.01.2021
3561 Clouds -15 1018 78 10000 5 330 20:45 18.01.2021
3562 Clouds -15 1018 72 10000 5 320 20:26 18.01.2021
3563 Clouds -15 1018 78 10000 5 320 19:51 18.01.2021
3564 Clouds -15 1018 78 10000 5 320 19:33 18.01.2021
3565 Clouds -14 1018 72 10000 4 330 18:47 18.01.2021
3566 Clouds -14 1018 72 10000 4 330 18:24 18.01.2021
3567 Clouds -14 1017 72 10000 4 320 17:46 18.01.2021
3568 Clouds -14 1018 72 10000 4 330 17:25 18.01.2021
3569 Clouds -14 1018 72 10000 4 330 16:48 18.01.2021
3570 Clouds -13 1018 72 10000 4 320 16:23 18.01.2021
3571 Clouds -13 1017 72 10000 4 320 15:49 18.01.2021
3572 Snow -13 1017 78 9000 3 330 15:27 18.01.2021
3573 Snow -12 1017 72 9000 4 310 14:46 18.01.2021
3574 Snow -12 1017 72 9000 4 310 14:28 18.01.2021
3575 Snow -12 1017 72 9000 3 320 13:56 18.01.2021
3576 Snow -12 1017 72 9000 3 320 13:36 18.01.2021
3577 Clouds -12 1016 66 9000 4 310 13:18 18.01.2021
3578 Clouds -12 1017 72 10000 3 310 12:41 18.01.2021
3579 Clouds -12 1017 72 10000 3 310 12:18 18.01.2021
3580 Clouds -12 1017 72 10000 2 330 11:40 18.01.2021
3581 Clouds -12 1017 72 10000 2 330 11:21 18.01.2021
3582 Clouds -12 1017 72 10000 2 330 11:21 18.01.2021
3583 Clouds -13 1017 72 9000 3 330 10:46 18.01.2021
3584 Snow -14 1017 78 4400 3 310 09:51 18.01.2021
3585 Snow -15 1017 78 3500 3 310 09:32 18.01.2021
3586 Snow -18 1017 85 3300 3 300 08:56 18.01.2021
3587 Mist -17 1017 78 5000 2 300 08:25 18.01.2021
3588 Clouds -17 1016 85 8000 2 310 07:47 18.01.2021
3589 Clouds -21 1016 77 9000 3 300 06:32 18.01.2021
3590 Snow -19 1015 85 9000 2 320 04:41 18.01.2021
3591 Snow -19 1015 85 9000 2 320 04:20 18.01.2021
3592 Snow -17 1015 78 7000 3 320 03:45 18.01.2021
3593 Snow -17 1015 78 7000 3 320 03:23 18.01.2021
3594 Snow -17 1016 85 7000 3 310 02:51 18.01.2021
3595 Snow -16 1015 78 8000 3 310 01:56 18.01.2021
3596 Snow -16 1015 78 10000 2 310 00:39 18.01.2021
3597 Snow -16 1015 78 9000 2 360 23:49 17.01.2021
3598 Snow -15 1016 78 6000 3 10 23:24 17.01.2021
3599 Snow -15 1016 78 6000 3 10 22:47 17.01.2021
3600 Snow -15 1015 78 5000 3 10 22:22 17.01.2021
3601 Snow -15 1015 85 6000 2 40 21:42 17.01.2021
3602 Snow -16 1015 85 6000 2 40 21:24 17.01.2021
3603 Snow -16 1015 85 10000 2 20 20:50 17.01.2021
3604 Clear -15 1015 85 10000 2 20 20:31 17.01.2021
3605 Clear -15 1014 78 10000 3 340 19:44 17.01.2021
3606 Clear -15 1014 78 10000 3 340 19:26 17.01.2021
3607 Clear -15 1014 85 10000 2 350 18:51 17.01.2021
3608 Clear -15 1014 85 10000 3 330 18:28 17.01.2021
3609 Clear -15 1014 78 10000 3 330 17:49 17.01.2021
3610 Clouds -15 1014 78 9000 3 320 17:28 17.01.2021
3611 Clouds -13 1014 72 10000 3 330 16:45 17.01.2021
3612 Clouds -13 1014 72 10000 3 330 16:24 17.01.2021
3613 Clouds -13 1013 66 10000 2 340 15:44 17.01.2021
3614 Clouds -13 1013 66 10000 2 340 15:26 17.01.2021
3615 Clouds -12 1014 66 10000 1 0 14:55 17.01.2021
3616 Clouds -11 1014 66 10000 1 0 14:27 17.01.2021
3617 Clouds -11 1013 67 10000 1 250 13:58 17.01.2021
3618 Clouds -11 1013 66 10000 2 260 13:40 17.01.2021
3619 Clouds -12 1013 66 10000 2 260 13:21 17.01.2021
3620 Clouds -13 1014 72 10000 2 290 12:41 17.01.2021
3621 Clouds -12 1014 72 10000 2 290 12:22 17.01.2021
3622 Clouds -12 1014 78 10000 2 270 11:25 17.01.2021
3623 Clear -14 1014 78 10000 2 260 10:51 17.01.2021
3624 Clouds -15 1014 78 8000 2 270 10:24 17.01.2021
3625 Clouds -13 1014 85 6000 2 270 09:48 17.01.2021
3626 Mist -16 1014 84 3900 2 230 08:49 17.01.2021
3627 Mist -17 1014 84 3900 2 230 08:26 17.01.2021
3628 Clouds -20 1014 84 6000 2 240 04:29 17.01.2021
3629 Clouds -20 1014 84 6000 2 250 02:50 17.01.2021
3630 Mist -18 1014 84 5000 2 230 00:54 17.01.2021
3631 Mist -17 1014 84 5000 2 220 00:21 17.01.2021
3632 Mist -17 1014 84 5000 2 220 23:52 16.01.2021
3633 Mist -17 1015 84 5000 2 250 23:21 16.01.2021
3634 Mist -17 1014 92 5000 2 260 22:52 16.01.2021
3635 Mist -18 1015 84 4500 2 250 22:18 16.01.2021
3636 Mist -17 1014 84 5000 1 250 21:43 16.01.2021
3637 Mist -17 1014 84 5000 1 250 21:22 16.01.2021
3638 Mist -17 1014 85 5000 2 240 20:47 16.01.2021
3639 Clouds -17 1014 85 6000 2 260 20:23 16.01.2021
3640 Clouds -16 1014 85 8000 3 260 19:48 16.01.2021
3641 Clouds -16 1014 85 8000 3 260 19:29 16.01.2021
3642 Clouds -16 1014 85 7000 2 250 18:45 16.01.2021
3643 Clouds -16 1014 85 7000 2 250 18:26 16.01.2021
3644 Clouds -16 1014 78 8000 2 280 17:50 16.01.2021
3645 Clouds -16 1014 78 8000 2 280 17:30 16.01.2021
3646 Clouds -15 1014 72 9000 3 280 16:50 16.01.2021
3647 Clouds -15 1013 72 10000 2 270 16:31 16.01.2021
3648 Clouds -15 1013 72 10000 3 280 15:55 16.01.2021
3649 Clouds -14 1013 66 10000 4 270 15:36 16.01.2021
3650 Clouds -13 1013 66 10000 3 290 14:31 16.01.2021
3651 Clouds -13 1013 66 10000 5 290 13:50 16.01.2021
3652 Clouds -13 1013 66 10000 6 270 13:30 16.01.2021
3653 Clouds -13 1013 66 10000 4 290 12:47 16.01.2021
3654 Clouds -14 1013 72 10000 5 280 12:21 16.01.2021
3655 Clouds -15 1013 66 10000 5 290 11:54 16.01.2021
3656 Clouds -15 1013 72 10000 5 290 11:25 16.01.2021
3657 Clouds -15 1013 66 10000 5 290 10:50 16.01.2021
3658 Clouds -16 1013 71 10000 6 300 10:30 16.01.2021
3659 Clouds -14 1013 71 10000 4 300 09:42 16.01.2021
3660 Clouds -15 1013 71 10000 4 300 09:19 16.01.2021
3661 Snow -16 1012 85 5000 5 300 07:53 16.01.2021
3662 Clouds -16 1011 78 10000 5 300 06:44 16.01.2021
3663 Clouds -13 1011 78 10000 5 310 04:51 16.01.2021
3664 Snow -12 1010 85 4200 3 330 02:56 16.01.2021
3665 Snow -12 1010 85 4000 3 10 02:21 16.01.2021
3666 Snow -10 1010 85 6000 4 300 00:43 16.01.2021
3667 Snow -10 1010 79 10000 3 290 00:19 16.01.2021
3668 Snow -11 1010 85 10000 3 280 23:25 15.01.2021
3669 Clouds -11 1010 85 10000 3 280 22:27 15.01.2021
3670 Snow -11 1010 85 9000 4 280 21:48 15.01.2021
3671 Snow -11 1010 85 9000 4 280 21:25 15.01.2021
3672 Snow -11 1010 79 9000 4 280 20:42 15.01.2021
3673 Clouds -11 1010 85 10000 4 280 20:23 15.01.2021
3674 Clouds -11 1010 85 10000 4 290 19:42 15.01.2021
3675 Snow -11 1010 85 10000 4 290 19:24 15.01.2021
3676 Snow -11 1010 79 10000 4 290 18:45 15.01.2021
3677 Clouds -11 1010 73 10000 5 300 18:20 15.01.2021
3678 Clouds -11 1010 79 10000 5 290 17:53 15.01.2021
3679 Clouds -11 1010 79 10000 5 290 17:28 15.01.2021
3680 Clouds -10 1009 79 10000 6 300 16:59 15.01.2021
3681 Clouds -10 1009 73 9000 4 290 16:40 15.01.2021
3682 Clouds -10 1009 79 10000 5 300 16:20 15.01.2021
3683 Clouds -10 1009 79 9000 6 320 15:37 15.01.2021
3684 Snow -9 1009 67 8000 7 310 15:18 15.01.2021
3685 Snow -9 1009 73 9000 6 300 14:38 15.01.2021
3686 Snow -9 1008 73 9000 4 310 14:18 15.01.2021
3687 Snow -9 1008 73 1700 5 300 13:40 15.01.2021
3688 Clouds -9 1008 79 9000 3 330 13:19 15.01.2021
3689 Snow -9 1008 73 9000 5 310 12:45 15.01.2021
3690 Snow -9 1008 73 9000 5 310 12:22 15.01.2021
3691 Snow -9 1008 73 9000 5 300 11:42 15.01.2021
3692 Clouds -9 1008 73 10000 5 310 11:18 15.01.2021
3693 Snow -9 1008 79 9000 5 320 10:48 15.01.2021
3694 Clouds -9 1008 79 9000 6 320 10:21 15.01.2021
3695 Clear -9 1008 79 10000 5 320 09:48 15.01.2021
3696 Clouds -9 1008 79 10000 6 330 09:28 15.01.2021
3697 Snow -9 1007 79 9000 5 320 08:28 15.01.2021
3698 Snow -9 1007 79 9000 5 320 08:28 15.01.2021
3699 Snow -9 1006 79 9000 6 310 07:44 15.01.2021
3700 Snow -9 1006 86 4200 4 310 07:23 15.01.2021
3701 Snow -9 1006 86 4000 5 320 06:35 15.01.2021
3702 Snow -7 1004 93 9000 4 320 02:43 15.01.2021
3703 Snow -6 1003 86 10000 4 350 00:41 15.01.2021
3704 Snow -6 1003 93 9000 3 20 23:30 14.01.2021
3705 Snow -6 1003 93 4900 3 360 22:56 14.01.2021
3706 Snow -6 1003 93 3400 3 10 22:37 14.01.2021
3707 Snow -6 1003 93 3400 3 10 22:37 14.01.2021
3708 Snow -6 1003 93 3400 3 10 22:18 14.01.2021
3709 Snow -5 1003 86 6000 3 10 21:39 14.01.2021
3710 Snow -5 1003 86 6000 3 10 21:20 14.01.2021
3711 Snow -5 1002 86 5000 4 20 20:44 14.01.2021
3712 Snow -5 1002 93 3400 3 20 19:59 14.01.2021
3713 Snow -5 1002 93 2200 4 20 19:38 14.01.2021
3714 Snow -4 1002 93 2200 4 20 19:18 14.01.2021
3715 Snow -4 1002 93 2500 4 30 18:42 14.01.2021
3716 Snow -3 1002 93 1400 3 20 17:59 14.01.2021
3717 Snow -3 1002 93 1400 3 20 17:59 14.01.2021
3718 Snow -3 1002 93 1400 3 20 17:33 14.01.2021
3719 Snow -2 1001 93 1700 3 50 16:56 14.01.2021
3720 Snow -2 1001 100 1400 2 50 16:35 14.01.2021
3721 Mist -2 1001 100 1400 2 70 15:55 14.01.2021
3722 Snow -2 1001 100 2200 1 80 15:32 14.01.2021
3723 Snow -2 1001 100 2800 2 70 14:48 14.01.2021
3724 Snow -2 1001 100 2800 2 70 14:30 14.01.2021
3725 Snow -1 1001 93 4100 1 0 13:56 14.01.2021
3726 Snow -2 1001 93 4400 1 90 13:25 14.01.2021
3727 Snow -2 1001 93 4500 2 100 12:58 14.01.2021
3728 Snow -2 1001 93 5000 2 100 12:23 14.01.2021
3729 Snow -2 1001 93 5000 2 100 11:59 14.01.2021
3730 Snow -2 1001 93 5000 2 100 11:41 14.01.2021
3731 Snow -2 1001 93 2900 3 80 11:19 14.01.2021
3732 Snow -2 1001 93 2200 2 80 10:42 14.01.2021
3733 Snow -3 1002 93 1600 2 80 10:19 14.01.2021
3734 Mist -2 1002 93 3100 2 110 09:42 14.01.2021
3735 Snow -2 1001 86 3000 2 110 09:21 14.01.2021
3736 Snow -3 1001 93 4300 2 120 08:34 14.01.2021
3737 Snow -3 1001 93 8000 1 160 07:58 14.01.2021
3738 Snow -3 1001 93 7000 0.35 130 07:39 14.01.2021
3739 Clouds -3 1001 93 8000 0.4 210 06:37 14.01.2021
3740 Clouds -3 1001 93 9000 1 250 04:57 14.01.2021
3741 Clouds -3 1001 86 10000 3 270 00:27 14.01.2021
3742 Snow -3 1001 80 10000 3 300 23:33 13.01.2021
3743 Snow -3 1001 80 10000 3 310 22:51 13.01.2021
3744 Clouds -3 1001 80 10000 4 300 22:26 13.01.2021
3745 Snow -3 1001 80 10000 4 300 21:48 13.01.2021
3746 Snow -3 1001 80 10000 3 300 21:22 13.01.2021
3747 Snow -3 1001 80 10000 3 300 20:51 13.01.2021
3748 Snow -3 1001 80 10000 3 320 20:26 13.01.2021
3749 Snow -3 1001 80 10000 3 310 19:52 13.01.2021
3750 Snow -3 1001 80 10000 3 320 19:27 13.01.2021
3751 Snow -3 1001 80 10000 3 330 18:52 13.01.2021
3752 Snow -3 1001 80 10000 3 330 18:33 13.01.2021
3753 Snow -3 1002 80 10000 3 340 17:51 13.01.2021
3754 Snow -3 1002 80 10000 4 360 17:18 13.01.2021
3755 Snow -3 1002 80 10000 4 360 16:47 13.01.2021
3756 Snow -2 1002 74 10000 3 350 16:21 13.01.2021
3757 Snow -2 1002 74 10000 3 20 15:49 13.01.2021
3758 Snow -2 1002 74 10000 3 20 15:31 13.01.2021
3759 Snow -2 1002 74 10000 4 40 14:33 13.01.2021
3760 Snow -2 1002 69 10000 4 30 13:49 13.01.2021
3761 Snow -2 1003 74 10000 4 10 13:25 13.01.2021
3762 Snow -2 1003 74 10000 4 30 12:46 13.01.2021
3763 Clouds -2 1003 74 10000 3 40 12:27 13.01.2021
3764 Snow -2 1004 74 10000 3 40 11:53 13.01.2021
3765 Snow -2 1004 74 10000 3 60 11:34 13.01.2021
3766 Snow -2 1004 74 10000 3 20 10:50 13.01.2021
3767 Snow -2 1005 74 10000 2 60 10:29 13.01.2021
3768 Snow -2 1005 74 10000 3 60 09:49 13.01.2021
3769 Snow -3 1005 80 10000 4 80 09:28 13.01.2021
3770 Snow -3 1006 80 10000 3 90 08:48 13.01.2021
3771 Snow -3 1006 80 10000 3 90 08:25 13.01.2021
3772 Snow -3 1006 80 10000 3 100 07:30 13.01.2021
3773 Snow -3 1007 80 10000 4 100 06:26 13.01.2021
3774 Snow -3 1008 80 10000 4 110 04:19 13.01.2021
3775 Snow -3 1009 80 10000 4 110 03:44 13.01.2021
3776 Snow -3 1009 80 10000 4 110 03:23 13.01.2021
3777 Snow -2 1010 80 10000 3 130 00:54 13.01.2021
3778 Snow -2 1012 80 10000 3 130 23:44 12.01.2021
3779 Snow -2 1012 80 10000 3 140 23:19 12.01.2021
3780 Snow -2 1012 80 10000 2 130 22:39 12.01.2021
3781 Snow -2 1013 80 10000 3 150 22:20 12.01.2021
3782 Clouds -2 1012 80 10000 4 140 21:44 12.01.2021
3783 Clouds -2 1012 80 10000 4 140 21:26 12.01.2021
3784 Clouds -2 1013 80 10000 3 140 20:48 12.01.2021
3785 Clouds -2 1013 80 10000 3 140 20:48 12.01.2021
3786 Clouds -2 1013 80 10000 3 140 20:27 12.01.2021
3787 Clouds -2 1014 80 10000 3 140 19:47 12.01.2021
3788 Clouds -2 1014 80 10000 3 140 19:26 12.01.2021
3789 Snow -2 1014 80 10000 3 140 18:41 12.01.2021
3790 Clouds -2 1014 80 10000 3 140 18:22 12.01.2021
3791 Clouds -2 1015 80 10000 3 150 17:37 12.01.2021
3792 Clouds -2 1015 80 10000 4 160 17:19 12.01.2021
3793 Clouds -2 1015 80 10000 4 160 16:43 12.01.2021
3794 Clouds -2 1016 74 10000 4 140 16:22 12.01.2021
3795 Clouds -1 1016 74 10000 3 150 15:29 12.01.2021
3796 Clouds -1 1016 74 10000 4 160 14:58 12.01.2021
3797 Clouds -1 1016 74 10000 3 150 14:40 12.01.2021
3798 Clouds -1 1016 74 10000 3 150 14:19 12.01.2021
3799 Clouds -1 1017 74 10000 4 160 13:47 12.01.2021
3800 Clouds -1 1017 74 10000 4 150 12:40 12.01.2021
3801 Clouds -1 1018 74 10000 3 160 12:21 12.01.2021
3802 Clouds -1 1018 74 10000 3 170 11:40 12.01.2021
3803 Clouds -1 1019 80 10000 3 180 10:50 12.01.2021
3804 Clouds -1 1019 80 10000 4 180 10:20 12.01.2021
3805 Clouds -1 1020 80 10000 3 180 09:55 12.01.2021
3806 Clouds -1 1020 80 10000 4 190 09:26 12.01.2021
3807 Clouds -1 1020 80 10000 3 190 08:42 12.01.2021
3808 Clouds -1 1020 80 10000 3 190 08:23 12.01.2021
3809 Clouds -1 1020 86 10000 4 190 07:35 12.01.2021
3810 Clouds -1 1020 80 10000 3 190 06:22 12.01.2021
3811 Clouds -1 1020 69 10000 2 180 05:30 12.01.2021
3812 Clouds -1 1021 80 10000 2 240 03:26 12.01.2021
3813 Clouds -1 1022 80 9000 2.01 212 02:19 12.01.2021
3814 Clouds -1 1021 80 10000 1.86 218 01:28 12.01.2021
3815 Clouds -1 1022 80 10000 2 230 23:51 11.01.2021
3816 Clouds -1 1022 80 10000 1.9 239 23:23 11.01.2021
3817 Clouds -1 1022 86 9000 1 220 22:58 11.01.2021
3818 Clouds -1 1022 86 10000 2 270 22:39 11.01.2021
3819 Clouds -1 1022 86 10000 2 270 22:18 11.01.2021
3820 Clouds -1 1022 86 9000 2 260 21:37 11.01.2021
3821 Clouds -1 1022 86 8000 2 240 21:18 11.01.2021
3822 Clouds -1 1022 93 7000 2 220 20:41 11.01.2021
3823 Clouds -1 1022 93 7000 2 220 20:22 11.01.2021
3824 Clouds -1 1022 93 7000 2 240 19:54 11.01.2021
3825 Clouds -1 1022 93 6000 3 210 19:24 11.01.2021
3826 Clouds -1 1022 93 6000 1 260 18:45 11.01.2021
3827 Clouds -1 1022 93 6000 1 260 18:25 11.01.2021
3828 Clouds -1 1022 93 7000 2 250 17:44 11.01.2021
3829 Clouds -1 1022 93 7000 2 250 17:26 11.01.2021
3830 Clouds -1 1022 93 8000 2 240 16:57 11.01.2021
3831 Clouds -1 1022 93 9000 2 220 16:36 11.01.2021
3832 Clouds -1 1022 93 9000 2 220 16:18 11.01.2021
3833 Clouds -1 1022 86 10000 2 240 15:44 11.01.2021
3834 Clouds -1 1022 86 10000 2 240 15:25 11.01.2021
3835 Clouds -1 1022 86 10000 2 250 14:39 11.01.2021
3836 Clouds -1 1022 86 10000 2 230 13:50 11.01.2021
3837 Clouds -1 1022 86 10000 3 240 13:25 11.01.2021
3838 Clouds -1 1022 86 9000 2 230 12:49 11.01.2021
3839 Clouds -1 1022 86 10000 2 230 12:30 11.01.2021
3840 Clouds -1 1022 80 10000 2 250 11:56 11.01.2021
3841 Clouds -1 1023 80 10000 2 230 11:26 11.01.2021
3842 Clouds -1 1023 80 10000 2 250 10:47 11.01.2021
3843 Clouds -1 1023 80 10000 1 0 10:24 11.01.2021
3844 Clouds -2 1023 93 10000 1 290 09:39 11.01.2021
3845 Clouds -2 1023 93 10000 1 290 09:20 11.01.2021
3846 Clouds -2 1023 93 10000 1 0 08:44 11.01.2021
3847 Clouds -2 1023 93 7000 1 240 08:18 11.01.2021
3848 Clouds -2 1022 93 7000 1 240 07:26 11.01.2021
3849 Clouds -2 1022 93 7000 1 210 06:58 11.01.2021
3850 Clouds -3 1022 93 9000 1 0 03:27 11.01.2021
3851 Clear -2 1022 93 10000 1 320 01:29 11.01.2021
3852 Clouds -2 1022 86 10000 2 320 23:59 10.01.2021
3853 Clouds -2 1022 86 10000 2 350 23:30 10.01.2021
3854 Clouds -1 1022 86 10000 3 350 22:48 10.01.2021
3855 Clouds -1 1022 86 10000 3 320 22:23 10.01.2021
3856 Clouds -1 1022 86 10000 3 310 21:44 10.01.2021
3857 Clouds -1 1022 86 10000 3 310 21:20 10.01.2021
3858 Clouds -1 1022 86 10000 4 330 20:53 10.01.2021
3859 Clouds -1 1022 86 10000 4 330 20:32 10.01.2021
3860 Clouds -1 1021 80 10000 5 310 19:43 10.01.2021
3861 Clouds 0 1021 80 10000 5 310 19:25 10.01.2021
3862 Clouds 0 1021 86 10000 4 300 18:49 10.01.2021
3863 Clouds 0 1021 86 9000 4 300 18:21 10.01.2021
3864 Clouds 0 1021 86 10000 4 300 18:21 10.01.2021
3865 Clouds 0 1021 86 10000 3 300 17:28 10.01.2021
3866 Clouds 0 1021 86 10000 3 300 16:59 10.01.2021
3867 Clouds 0 1020 86 10000 3 300 16:32 10.01.2021
3868 Clouds 1 1020 80 10000 4 290 15:54 10.01.2021
3869 Snow 1 1020 80 10000 4 310 15:25 10.01.2021
3870 Snow 1 1020 86 10000 3 300 15:25 10.01.2021
3871 Snow 1 1020 86 10000 3 300 14:50 10.01.2021
3872 Clouds 1 1020 80 10000 3 280 14:31 10.01.2021
3873 Clouds 1 1019 86 10000 4 280 13:54 10.01.2021
3874 Clouds 1 1019 86 10000 4 280 13:36 10.01.2021
3875 Clouds 1 1019 86 10000 4 280 13:36 10.01.2021
3876 Clouds 1 1019 86 10000 4 270 13:18 10.01.2021
3877 Clouds 1 1019 86 10000 5 290 12:42 10.01.2021
3878 Clouds 1 1019 86 10000 4 280 11:58 10.01.2021
3879 Clouds 1 1019 86 10000 5 280 11:22 10.01.2021
3880 Clouds 1 1019 86 10000 5 280 10:58 10.01.2021
3881 Clouds 1 1019 86 10000 4 270 10:30 10.01.2021
3882 Rain 1 1019 86 9000 5 270 09:58 10.01.2021
3883 Snow 1 1019 93 10000 4 270 09:24 10.01.2021
3884 Clouds 0 1019 93 10000 4 270 08:20 10.01.2021
3885 Clouds 0 1018 93 9000 4 270 07:28 10.01.2021
3886 Clouds 0 1017 93 10000 5 270 06:19 10.01.2021
3887 Clouds 0 1017 86 9000 5 270 05:35 10.01.2021
3888 Clouds 0 1017 86 10000 5 270 02:56 10.01.2021
3889 Clouds 0 1017 86 10000 5 270 00:48 10.01.2021
3890 Snow 0 1016 86 10000 5 280 23:47 09.01.2021
3891 Snow 0 1016 86 10000 5 270 23:28 09.01.2021
3892 Snow 0 1016 86 10000 5 260 22:44 09.01.2021
3893 Snow 0 1016 86 10000 5 260 22:18 09.01.2021
3894 Snow 0 1016 86 9000 5 260 21:56 09.01.2021
3895 Snow 0 1016 86 9000 5 260 21:37 09.01.2021
3896 Snow 0 1016 86 9000 5 260 21:18 09.01.2021
3897 Snow 0 1016 93 7000 5 260 20:39 09.01.2021
3898 Snow 0 1016 86 8000 6 270 19:44 09.01.2021
3899 Snow 0 1015 86 10000 6 260 19:22 09.01.2021
3900 Snow 0 1015 86 10000 5 260 18:41 09.01.2021
3901 Clouds 0 1015 86 10000 5 260 18:20 09.01.2021
3902 Clouds 0 1015 80 10000 5 260 17:46 09.01.2021
3903 Clouds 0 1015 80 10000 6 260 17:27 09.01.2021
3904 Clouds 0 1015 86 10000 3 270 16:33 09.01.2021
3905 Clouds 0 1014 86 10000 4 270 15:52 09.01.2021
3906 Clouds 1 1014 86 10000 4 270 15:32 09.01.2021
3907 Clouds 1 1014 75 10000 5 290 14:40 09.01.2021
3908 Clouds 1 1014 75 10000 5 290 14:20 09.01.2021
3909 Snow 1 1014 80 10000 4 270 13:48 09.01.2021
3910 Clouds 2 1014 75 10000 4 270 13:29 09.01.2021
3911 Clouds 2 1014 80 10000 5 280 12:48 09.01.2021
3912 Snow 1 1014 80 10000 5 280 12:22 09.01.2021
3913 Snow 2 1014 86 10000 4 270 11:55 09.01.2021
3914 Snow 1 1014 86 10000 5 280 11:30 09.01.2021
3915 Snow 1 1014 86 9000 5 270 10:52 09.01.2021
3916 Snow 1 1014 86 9000 6 280 10:30 09.01.2021
3917 Snow 1 1014 93 6000 5 270 09:52 09.01.2021
3918 Snow 1 1014 93 6000 5 280 09:28 09.01.2021
3919 Snow 0 1014 93 7000 4 270 08:34 09.01.2021
3920 Snow 0 1013 93 6000 3 260 06:58 09.01.2021
3921 Snow 0 1013 93 7000 4 260 06:39 09.01.2021
3922 Snow 0 1013 93 7000 4 270 04:47 09.01.2021
3923 Snow 0 1013 93 8000 3 260 03:21 09.01.2021
3924 Snow 0 1013 93 9000 3 260 02:30 09.01.2021
3925 Clouds 0 1013 86 10000 3 260 01:45 09.01.2021
3926 Clouds 0 1013 86 10000 4 260 00:35 09.01.2021
3927 Clouds 0 1013 86 10000 3 250 23:57 08.01.2021
3928 Snow 0 1013 86 10000 3 250 22:57 08.01.2021
3929 Clouds 0 1013 86 10000 3 270 22:18 08.01.2021
3930 Clouds 0 1013 80 10000 3 260 21:37 08.01.2021
3931 Clouds 0 1013 80 10000 3 260 20:46 08.01.2021
3932 Clouds 0 1013 80 10000 2 270 20:25 08.01.2021
3933 Clouds 0 1013 80 10000 3 290 19:45 08.01.2021
3934 Clouds 0 1013 80 10000 3 290 19:22 08.01.2021
3935 Clouds 0 1013 74 10000 4 300 18:35 08.01.2021
3936 Clouds 1 1013 75 10000 4 290 17:57 08.01.2021
3937 Clouds 1 1012 69 10000 5 290 17:35 08.01.2021
3938 Clouds 1 1013 75 10000 6 270 16:56 08.01.2021
3939 Clouds 1 1012 80 10000 4 260 16:26 08.01.2021
3940 Clouds 1 1012 80 10000 4 260 15:43 08.01.2021
3941 Clouds 1 1012 80 10000 4 290 14:51 08.01.2021
3942 Clouds 2 1012 80 10000 5 270 14:32 08.01.2021
3943 Clouds 2 1012 75 10000 5 280 13:39 08.01.2021
3944 Clouds 2 1011 75 10000 6 290 13:18 08.01.2021
3945 Clouds 2 1011 75 10000 6 290 13:18 08.01.2021
3946 Clouds 2 1011 80 10000 6 280 12:42 08.01.2021
3947 Clouds 2 1011 80 10000 6 280 12:19 08.01.2021
3948 Clouds 2 1011 87 10000 6 260 11:42 08.01.2021
3949 Clouds 2 1011 87 10000 7 270 11:22 08.01.2021
3950 Clouds 2 1011 87 10000 7 270 10:48 08.01.2021
3951 Clouds 2 1011 87 10000 7 270 10:24 08.01.2021
3952 Clouds 2 1011 87 10000 7 260 09:44 08.01.2021
3953 Clouds 2 1011 87 10000 7 260 09:21 08.01.2021
3954 Clouds 2 1010 87 10000 7 270 08:23 08.01.2021
3955 Clouds 2 1009 87 10000 9 270 07:25 08.01.2021
3956 Clouds 2 1008 87 10000 10 270 04:47 08.01.2021
3957 Rain 1 1005 100 10000 8 270 23:46 07.01.2021
3958 Rain 1 1005 100 10000 8 270 23:46 07.01.2021
3959 Rain 1 1005 100 10000 8 270 23:28 07.01.2021
3960 Rain 1 1004 100 10000 7 290 22:44 07.01.2021
3961 Rain 2 1004 100 10000 7 290 22:21 07.01.2021
3962 Rain 2 1003 100 10000 7 270 21:41 07.01.2021
3963 Rain 2 1003 100 10000 7 270 21:22 07.01.2021
3964 Rain 4 1003 100 6000 3 300 20:45 07.01.2021
3965 Rain 4 1003 100 6000 3 300 20:26 07.01.2021
3966 Rain 4 1003 100 5000 1 0 19:42 07.01.2021
3967 Rain 4 1003 100 3400 1 60 18:55 07.01.2021
3968 Rain 4 1003 100 3300 2 60 18:30 07.01.2021
3969 Rain 4 1004 100 5000 3 90 17:42 07.01.2021
3970 Rain 4 1004 100 4800 3 90 17:22 07.01.2021
3971 Rain 4 1004 100 4800 3 90 16:52 07.01.2021
3972 Rain 4 1005 100 5000 4 100 16:24 07.01.2021
3973 Rain 4 1006 100 4600 4 110 15:37 07.01.2021
3974 Rain 4 1006 100 2700 5 100 14:45 07.01.2021
3975 Rain 4 1006 100 2700 5 100 14:26 07.01.2021
3976 Rain 3 1007 100 3800 4 100 13:41 07.01.2021
3977 Rain 3 1007 100 3800 4 100 13:18 07.01.2021
3978 Mist 3 1009 100 5000 4 100 12:35 07.01.2021
3979 Rain 3 1010 100 1000 3 110 11:52 07.01.2021
3980 Rain 3 1011 100 350 3 110 11:34 07.01.2021
3981 Fog 2 1011 100 350 4 110 10:48 07.01.2021
3982 Rain 2 1012 100 450 4 120 10:20 07.01.2021
3983 Rain 2 1012 100 550 4 110 09:46 07.01.2021
3984 Fog 2 1012 100 800 4 100 09:18 07.01.2021
3985 Fog 2 1013 100 500 4 110 08:27 07.01.2021
3986 Fog 2 1013 100 650 4 110 07:46 07.01.2021
3987 Mist 2 1013 100 1400 4 110 07:18 07.01.2021
3988 Mist 1 1015 100 3700 3 120 04:22 07.01.2021
3989 Clouds 1 1017 100 6000 2 140 00:28 07.01.2021
3990 Clouds 1 1017 100 6000 2 160 23:38 06.01.2021
3991 Mist 1 1017 100 2700 1 180 22:39 06.01.2021
3992 Mist 1 1018 100 3100 1 0 21:44 06.01.2021
3993 Mist 1 1018 100 1100 2 200 21:23 06.01.2021
3994 Mist 1 1018 100 1400 1 0 20:53 06.01.2021
3995 Mist 1 1018 100 2700 2 220 20:24 06.01.2021
3996 Mist 1 1018 100 2700 2 220 20:24 06.01.2021
3997 Mist 1 1018 100 3800 1 0 19:54 06.01.2021
3998 Mist 1 1018 100 3800 1 0 19:36 06.01.2021
3999 Mist 1 1018 100 3600 2 210 19:18 06.01.2021
4000 Mist 1 1018 100 4300 1 0 18:40 06.01.2021
4001 Mist 1 1018 100 4300 1 0 18:21 06.01.2021
4002 Mist 1 1017 100 4000 1 0 17:42 06.01.2021
4003 Mist 1 1017 100 3300 1 150 17:22 06.01.2021
4004 Mist 1 1017 100 3200 1.07 138 16:41 06.01.2021
4005 Mist 1 1017 100 3600 1 0 16:19 06.01.2021
4006 Mist 1 1017 100 2600 1 0 15:50 06.01.2021
4007 Mist 1 1017 100 2600 1 0 15:50 06.01.2021
4008 Mist 1 1017 100 2800 1 0 15:26 06.01.2021
4009 Snow 1 1017 100 4500 1 0 14:44 06.01.2021
4010 Mist 1 1017 100 5000 1 0 14:19 06.01.2021
4011 Snow 1 1017 100 3500 1 100 13:42 06.01.2021
4012 Snow 1 1017 100 3300 1 0 13:20 06.01.2021
4013 Snow 1 1017 100 3900 1 0 12:46 06.01.2021
4014 Rain 0 1017 89 1800 1 110 11:51 06.01.2021
4015 Drizzle 1 1017 90 1300 1 0 11:24 06.01.2021
4016 Drizzle 0 1017 90 800 2 120 10:46 06.01.2021
4017 Fog 0 1017 93 700 2 120 09:58 06.01.2021
4018 Fog 0 1016 93 1100 3 120 09:40 06.01.2021
4019 Mist 0 1016 96 1400 3 110 08:56 06.01.2021
4020 Mist 0 1016 98 1600 4 110 08:21 06.01.2021
4021 Mist 0 1016 98 2300 3 100 07:54 06.01.2021
4022 Mist 0 1016 97 5000 3 110 06:45 06.01.2021
4023 Mist 0 1016 97 3800 3 110 05:32 06.01.2021
4024 Mist 0 1016 96 4000 4 90 04:32 06.01.2021
4025 Mist 0 1016 96 4900 5 100 02:46 06.01.2021
4026 Snow 0 1016 96 3700 4 100 02:23 06.01.2021
4027 Snow 0 1016 96 4100 5 110 00:29 06.01.2021
4028 Rain 0 1016 96 4800 5 90 23:23 05.01.2021
4029 Mist -1 1016 96 1900 5 90 22:41 05.01.2021
4030 Snow -1 1016 100 1800 5 100 22:20 05.01.2021
4031 Snow -1 1017 100 2500 4 100 21:52 05.01.2021
4032 Snow -1 1017 100 4200 5 110 20:41 05.01.2021
4033 Snow -1 1017 100 4000 5 110 20:23 05.01.2021
4034 Snow -1 1017 100 4000 5 110 19:41 05.01.2021
4035 Snow -1 1017 100 3100 5 110 19:21 05.01.2021
4036 Mist -1 1017 100 3400 6 100 18:42 05.01.2021
4037 Mist -1 1017 100 2900 5 110 18:23 05.01.2021
4038 Mist -1 1017 100 4500 6 110 17:49 05.01.2021
4039 Mist -1 1017 100 4100 6 110 17:26 05.01.2021
4040 Mist -1 1017 100 4200 6 100 16:52 05.01.2021
4041 Mist -1 1017 100 5000 5 100 16:21 05.01.2021
4042 Mist -1 1017 100 5000 6 100 15:50 05.01.2021
4043 Mist 0 1017 94 3500 5 110 14:56 05.01.2021
4044 Mist 0 1017 93 2700 5 110 14:26 05.01.2021
4045 Mist 0 1017 93 2500 6 100 13:46 05.01.2021
4046 Mist 0 1017 92 2300 5 100 13:23 05.01.2021
4047 Mist 0 1018 92 2600 4 100 12:48 05.01.2021
4048 Mist 0 1018 90 3700 5 110 12:24 05.01.2021
4049 Mist 0 1018 90 4100 6 100 11:39 05.01.2021
4050 Mist 0 1018 90 4100 6 100 11:39 05.01.2021
4051 -273 0 0 0 0 0 11:38 05.01.2021
4052 Mist 0 1018 90 4100 6 100 11:37 05.01.2021
4053 Mist 0 1018 90 4100 6 100 11:37 05.01.2021
4054 Mist -1 1019 100 2500 6 90 10:46 05.01.2021
4055 Mist -1 1019 100 1400 6 100 10:26 05.01.2021
4056 Mist -1 1020 100 1200 5 100 09:48 05.01.2021
4057 Fog -1 1019 100 1100 5 100 09:28 05.01.2021
4058 Fog -1 1019 100 1000 6 90 08:25 05.01.2021
4059 Mist -1 1020 100 1300 4 110 06:46 05.01.2021
4060 Fog -1 1020 100 1200 5 90 04:50 05.01.2021
4061 Fog -1 1021 100 700 4 120 00:50 05.01.2021
4062 Fog 0 1021 97 550 3 130 23:46 04.01.2021
4063 Fog 0 1021 95 750 3 130 23:25 04.01.2021
4064 Fog 0 1022 100 1100 4 130 22:51 04.01.2021
4065 Fog 1 1022 100 1100 4 130 22:32 04.01.2021
4066 Fog 1 1021 100 650 3 100 21:47 04.01.2021
4067 Fog 2 1022 100 1300 4 120 21:29 04.01.2021
4068 Mist 2 1022 100 1700 3 120 20:43 04.01.2021
4069 Mist 2 1022 100 2000 3 110 20:23 04.01.2021
4070 Mist 2 1022 100 2700 3 120 19:51 04.01.2021
4071 Mist 2 1022 100 2400 3 110 19:24 04.01.2021
4072 Mist 2 1022 100 2400 3 120 18:48 04.01.2021
4073 Mist 3 1022 100 2500 3 120 18:23 04.01.2021
4074 Mist 3 1022 100 2500 4 130 17:42 04.01.2021
4075 Mist 3 1022 100 2200 4 130 17:22 04.01.2021
4076 Drizzle 3 1022 100 2200 4 120 16:46 04.01.2021
4077 Drizzle 3 1022 100 2600 3 120 16:26 04.01.2021
4078 Mist 3 1022 100 2700 4 120 15:49 04.01.2021
4079 Mist 3 1022 100 4100 3 120 15:25 04.01.2021
4080 Mist 3 1022 100 4500 3 120 14:34 04.01.2021
4081 Mist 3 1022 100 3600 3 130 13:44 04.01.2021
4082 Mist 3 1022 100 2800 3 140 13:23 04.01.2021
4083 Mist 3 1022 100 3400 3 130 12:36 04.01.2021
4084 Mist 3 1022 100 5000 3 120 11:55 04.01.2021
4085 Rain 3 1023 100 6000 2 140 11:21 04.01.2021
4086 Clouds 3 1023 100 7000 2 150 10:47 04.01.2021
4087 Clouds 3 1023 93 7000 3 160 10:25 04.01.2021
4088 Clouds 3 1023 93 7000 3 150 09:51 04.01.2021
4089 Mist 3 1023 100 5000 3 140 09:19 04.01.2021
4090 Rain 2 1023 100 5000 3 140 08:42 04.01.2021
4091 Rain 2 1022 100 5000 3 150 07:54 04.01.2021
4092 Mist 2 1022 100 5000 3 150 07:27 04.01.2021
4093 Mist 2 1022 100 3900 3 140 05:31 04.01.2021
4094 Mist 2 1023 93 5000 3 140 02:35 04.01.2021
4095 Rain 1 1023 100 5000 4 130 00:34 04.01.2021
4096 Rain 1 1023 90 7000 4 140 23:48 03.01.2021
4097 Rain 1 1023 88 8000 4 130 23:20 03.01.2021
4098 Snow 1 1023 88 9000 5 130 22:51 03.01.2021
4099 Snow 1 1023 88 9000 5 130 22:30 03.01.2021
4100 Snow 1 1024 100 9000 3 140 21:48 03.01.2021
4101 Snow 1 1024 93 8000 5 140 21:25 03.01.2021
4102 Snow 1 1024 93 8000 4 140 20:44 03.01.2021
4103 Snow 1 1024 93 8000 4 130 20:24 03.01.2021
4104 Snow 2 1024 93 6000 4 140 19:55 03.01.2021
4105 Rain 2 1024 93 6000 4 140 19:34 03.01.2021
4106 Clouds 2 1024 93 6000 4 130 18:54 03.01.2021
4107 Clouds 2 1024 93 7000 5 130 18:36 03.01.2021
4108 Clouds 2 1024 93 10000 5 130 17:57 03.01.2021
4109 Clouds 2 1024 93 10000 5 130 17:38 03.01.2021
4110 Clouds 1 1024 79 10000 5 130 17:18 03.01.2021
4111 Clouds 2 1024 79 10000 5 130 16:41 03.01.2021
4112 Clouds 2 1024 93 10000 4 130 16:19 03.01.2021
4113 Clouds 2 1025 93 10000 3 140 15:45 03.01.2021
4114 Clouds 2 1025 93 10000 4 130 15:19 03.01.2021
4115 Clouds 2 1025 100 10000 5 130 14:43 03.01.2021
4116 Clouds 2 1025 93 10000 4 140 13:57 03.01.2021
4117 Clouds 2 1025 93 10000 4 140 13:37 03.01.2021
4118 Clouds 2 1025 100 9000 4 140 13:19 03.01.2021
4119 Clouds 2 1026 100 7000 3 140 11:46 03.01.2021
4120 Clouds 2 1026 100 7000 3 140 11:27 03.01.2021
4121 Mist 2 1026 100 2000 3 140 10:57 03.01.2021
4122 Mist 2 1026 100 2000 3 140 10:32 03.01.2021
4123 Fog 1 1026 100 1000 3 140 09:49 03.01.2021
4124 Fog 1 1026 100 1000 3 140 09:25 03.01.2021
4125 Mist 1 1026 100 1300 4 160 08:29 03.01.2021
4126 Mist 0 1026 91 1200 3 170 06:54 03.01.2021
4127 Fog 0 1025 100 500 3 90 03:20 03.01.2021
4128 Clouds 0 1025 100 9000 2 150 02:23 03.01.2021
4129 Clouds 1 1025 100 9000 2 180 00:25 03.01.2021
4130 Clouds 1 1025 100 9000 2 190 23:43 02.01.2021
4131 Clear 1 1025 93 9000 2 180 23:18 02.01.2021
4132 Clear 1 1025 93 10000 2 180 22:45 02.01.2021
4133 Clear 1 1025 93 9000 2 180 22:27 02.01.2021
4134 Clear 1 1025 86 9000 2 190 21:38 02.01.2021
4135 Clear 1 1025 85 9000 2 180 21:20 02.01.2021
4136 Clear 1 1025 85 10000 2 190 20:41 02.01.2021
4137 Clear 1 1025 84 10000 2 190 20:21 02.01.2021
4138 Clear 1 1025 93 10000 2 170 19:43 02.01.2021
4139 Clear 1 1025 93 10000 2 170 19:43 02.01.2021
4140 Clear 1 1025 83 10000 1 0 19:19 02.01.2021
4141 Clear 2 1025 93 10000 2 170 18:43 02.01.2021
4142 Clear 2 1024 93 10000 2 180 18:25 02.01.2021
4143 Clear 2 1024 93 10000 2 170 17:46 02.01.2021
4144 Clear 2 1024 93 10000 2 180 17:25 02.01.2021
4145 Clear 2 1024 93 10000 3 190 16:38 02.01.2021
4146 Clear 3 1024 86 10000 3 190 16:19 02.01.2021
4147 Clear 3 1024 86 10000 2 180 15:42 02.01.2021
4148 Clear 3 1023 80 10000 3 200 15:24 02.01.2021
4149 Clear 5 1023 75 10000 3 210 14:37 02.01.2021
4150 Clear 6 1023 75 10000 3 220 13:59 02.01.2021
4151 Clear 5 1023 75 10000 4 230 13:39 02.01.2021
4152 Clouds 5 1022 75 10000 3 230 12:54 02.01.2021
4153 Clouds 5 1022 80 10000 4 220 12:32 02.01.2021
4154 Clouds 5 1022 80 10000 4 240 11:49 02.01.2021
4155 Clouds 4 1022 86 10000 4 260 11:22 02.01.2021
4156 Clouds 4 1022 75 10000 4 250 10:52 02.01.2021
4157 Clouds 3 1022 79 10000 4 250 10:30 02.01.2021
4158 Clouds 2 1022 79 10000 5 260 09:54 02.01.2021
4159 Clouds 2 1021 84 10000 4 240 09:28 02.01.2021
4160 Clouds 1 1021 86 10000 4 250 08:50 02.01.2021
4161 Clouds 1 1021 86 10000 6 260 08:28 02.01.2021
4162 Clouds 1 1020 86 10000 6 260 07:47 02.01.2021
4163 Clouds 1 1020 86 10000 5 260 07:22 02.01.2021
4164 Clouds 1 1019 86 10000 6 260 06:46 02.01.2021
4165 Clouds 1 1018 86 10000 4 260 05:45 02.01.2021
4166 Clouds 3 1015 86 10000 5 280 00:59 02.01.2021
4167 Clouds 3 1015 86 10000 6 280 00:37 02.01.2021
4168 Clouds 3 1014 80 10000 7 280 23:57 01.01.2021
4169 Clouds 4 1013 86 10000 5 280 23:22 01.01.2021
4170 Clouds 4 1013 86 10000 4 260 22:48 01.01.2021
4171 Clouds 4 1013 86 10000 5 270 22:26 01.01.2021
4172 Clouds 4 1012 86 10000 4 270 21:44 01.01.2021
4173 Clouds 4 1012 86 10000 5 270 21:22 01.01.2021
4174 Clouds 4 1011 86 10000 4 260 20:54 01.01.2021
4175 Clouds 4 1011 86 10000 5 260 20:23 01.01.2021
4176 Clouds 4 1011 86 10000 5 260 19:59 01.01.2021
4177 Clouds 4 1011 86 10000 6 270 19:41 01.01.2021
4178 Clouds 4 1011 86 10000 6 270 19:20 01.01.2021
4179 Clouds 5 1010 80 10000 5 260 18:42 01.01.2021
4180 Clouds 5 1010 86 10000 4 250 18:22 01.01.2021
4181 Clouds 5 1010 86 10000 5 250 17:43 01.01.2021
4182 Clouds 5 1009 81 10000 5 260 17:23 01.01.2021
4183 Clouds 6 1009 87 10000 5 260 16:45 01.01.2021
4184 Clouds 6 1008 87 10000 5 260 15:57 01.01.2021
4185 Clouds 7 1008 87 10000 5 260 15:39 01.01.2021
4186 Clouds 7 1008 87 10000 4 260 14:42 01.01.2021
4187 Clouds 8 1007 93 10000 3 250 14:21 01.01.2021
4188 Clouds 8 1007 93 9000 3 250 13:37 01.01.2021
4189 Clouds 8 1007 93 10000 3 210 12:51 01.01.2021
4190 Clouds 8 1007 93 10000 3 210 12:26 01.01.2021
4191 Clouds 8 1006 93 10000 3 210 11:40 01.01.2021
4192 Clouds 8 1006 100 9000 3 210 11:18 01.01.2021
4193 Clouds 8 1006 100 10000 3 200 10:52 01.01.2021
4194 Rain 7 1005 100 9000 3 180 10:22 01.01.2021
4195 Mist 6 1005 100 2400 3 160 09:24 01.01.2021
4196 Mist 6 1005 100 3200 5 130 08:30 01.01.2021
4197 Rain 5 1005 100 5000 5 110 06:42 01.01.2021
4198 Fog 5 1006 100 550 5 110 04:49 01.01.2021
4199 Drizzle 6 1008 100 700 4 110 01:42 01.01.2021
4200 Fog 6 1008 100 800 4 120 00:32 01.01.2021
4201 Fog 6 1008 100 750 4 120 23:40 31.12.2020
4202 Fog 6 1009 100 1500 4 120 23:20 31.12.2020
4203 Fog 6 1009 100 900 4 120 22:42 31.12.2020
4204 Fog 6 1009 100 500 3 120 22:22 31.12.2020
4205 Fog 6 1009 100 450 4 110 21:56 31.12.2020
4206 Fog 6 1009 100 400 3 100 21:36 31.12.2020
4207 Fog 6 1009 100 400 3 100 20:58 31.12.2020
4208 Drizzle 6 1009 100 750 4 120 20:27 31.12.2020
4209 Drizzle 7 1009 100 1300 4 120 19:50 31.12.2020
4210 Drizzle 7 1009 100 3300 3 130 19:32 31.12.2020
4211 Drizzle 7 1009 93 4900 3 140 18:53 31.12.2020
4212 Drizzle 7 1010 93 5000 3 150 18:25 31.12.2020
4213 Drizzle 7 1010 93 5000 4 160 17:48 31.12.2020
4214 Drizzle 7 1010 100 4000 3 130 17:28 31.12.2020
4215 Mist 7 1010 100 3200 2 130 16:55 31.12.2020
4216 Drizzle 7 1010 100 3200 2 130 16:37 31.12.2020
4217 Drizzle 7 1010 100 2600 3 140 16:18 31.12.2020
4218 Mist 7 1010 100 2500 3 130 15:42 31.12.2020
4219 Mist 7 1010 100 2400 3 130 15:19 31.12.2020
4220 Mist 8 1010 100 2100 4 120 14:40 31.12.2020
4221 Clouds 8 1010 100 6000 3 140 14:22 31.12.2020
4222 Drizzle 8 1010 100 3100 3 160 13:57 31.12.2020
4223 Drizzle 8 1010 100 3100 3 160 13:36 31.12.2020
4224 Drizzle 8 1010 100 2500 2 150 13:18 31.12.2020
4225 Drizzle 8 1010 100 2100 2 170 12:45 31.12.2020
4226 Drizzle 8 1010 100 3700 3 160 12:27 31.12.2020
4227 Drizzle 8 1011 100 4500 2 170 11:46 31.12.2020
4228 Drizzle 8 1011 93 3200 3 170 11:28 31.12.2020
4229 Drizzle 8 1011 93 3200 3 170 11:28 31.12.2020
4230 Drizzle 8 1011 93 3200 3 170 11:28 31.12.2020
4231 Drizzle 8 1011 93 3200 3 170 11:28 31.12.2020
4232 Drizzle 8 1011 93 3200 3 170 11:28 31.12.2020
4233 Drizzle 8 1011 93 3200 3 170 11:28 31.12.2020
4234 Drizzle 8 1011 93 3200 3 170 11:28 31.12.2020
4235 Drizzle 8 1011 93 3200 3 170 11:28 31.12.2020
4236 Drizzle 8 1011 93 3200 3 170 11:28 31.12.2020
4237 Drizzle 8 1011 93 3200 3 170 11:28 31.12.2020
4238 Drizzle 8 1011 93 3500 2 170 10:41 31.12.2020
4239 Drizzle 8 1011 93 4700 2 200 10:23 31.12.2020
4240 Drizzle 7 1011 100 3200 2 190 09:47 31.12.2020
4241 Drizzle 7 1011 100 4500 3 190 09:23 31.12.2020
4242 Mist 7 1011 93 5000 3 200 08:46 31.12.2020
4243 Mist 7 1011 93 5000 3 200 08:28 31.12.2020
4244 Clouds 7 1010 93 8000 3 180 07:54 31.12.2020
4245 Clouds 8 1010 93 9000 3 180 06:57 31.12.2020
4246 Drizzle 8 1009 100 4100 3 170 05:30 31.12.2020
4247 Clouds 8 1010 93 10000 4 160 03:25 31.12.2020
4248 Clouds 8 1010 93 10000 3 160 02:27 31.12.2020
4249 Clouds 8 1010 93 10000 3 160 01:53 31.12.2020
4250 Clouds 8 1010 93 10000 2 150 01:33 31.12.2020
4251 Clouds 8 1010 93 10000 2 150 00:55 31.12.2020
4252 Clouds 8 1011 87 10000 3 180 00:24 31.12.2020
4253 Clouds 8 1011 87 10000 3 160 23:21 30.12.2020
4254 Clouds 8 1011 93 10000 3 170 22:56 30.12.2020
4255 Clouds 8 1011 93 10000 3 170 22:34 30.12.2020
4256 Clouds 8 1010 100 7000 3 140 21:50 30.12.2020
4257 Clouds 8 1010 100 10000 0.45 94 21:25 30.12.2020
4258 Clouds 8 1010 100 6000 3 130 20:53 30.12.2020
4259 Clouds 8 1010 100 7000 3 130 20:27 30.12.2020
4260 Clouds 8 1010 100 7000 3 130 19:58 30.12.2020
4261 Clouds 8 1010 100 7000 3 130 19:58 30.12.2020
4262 Clouds 8 1010 100 7000 3 130 19:58 30.12.2020
4263 Clouds 8 1010 100 7000 3 130 19:36 30.12.2020
4264 Clouds 8 1010 100 6000 3 130 19:18 30.12.2020
4265 Clouds 8 1010 100 7000 3 130 18:38 30.12.2020
4266 Clouds 7 1011 100 6000 3 140 18:20 30.12.2020
4267 Clouds 7 1011 100 6000 3 140 17:42 30.12.2020
4268 Clouds 7 1011 100 6000 3 140 17:22 30.12.2020
4269 Clouds 7 1011 100 6000 3 140 16:43 30.12.2020
4270 Mist 7 1011 100 2400 3 140 15:51 30.12.2020
4271 Mist 7 1011 100 2400 3 140 15:51 30.12.2020
4272 Mist 6 1011 100 1700 4 140 15:30 30.12.2020
4273 Fog 6 1011 100 1100 3 130 14:52 30.12.2020
4274 Mist 6 1012 100 1400 4 130 14:29 30.12.2020
4275 Mist 6 1012 100 1400 4 130 13:59 30.12.2020
4276 Mist 6 1012 100 3200 3 140 12:56 30.12.2020
4277 Fog 6 1013 100 650 3 140 12:26 30.12.2020
4278 Drizzle 6 1013 100 450 3 130 11:39 30.12.2020
4279 Drizzle 5 1013 100 350 3 130 11:21 30.12.2020
4280 Fog 5 1013 100 400 2 110 10:55 30.12.2020
4281 Drizzle 5 1013 100 400 2 110 10:36 30.12.2020
4282 Drizzle 5 1013 100 350 3 100 09:55 30.12.2020
4283 Fog 5 1013 100 350 3 100 09:36 30.12.2020
4284 Fog 5 1014 100 1100 3 110 08:35 30.12.2020
4285 Drizzle 5 1014 100 1000 2 110 07:32 30.12.2020
4286 Fog 5 1013 100 800 3 110 06:54 30.12.2020
4287 Fog 4 1013 100 800 3 110 06:35 30.12.2020
4288 Fog 5 1013 100 350 2 110 05:46 30.12.2020
4289 Fog 5 1013 100 550 2 100 05:27 30.12.2020
4290 Mist 5 1014 100 1400 2 140 03:29 30.12.2020
4291 Fog 5 1014 100 650 2 140 02:47 30.12.2020
4292 Fog 5 1014 100 650 2 140 02:28 30.12.2020
4293 Fog 5 1013 100 450 2 150 01:34 30.12.2020
4294 Fog 5 1013 100 350 2 140 01:34 30.12.2020
4295 Fog 5 1013 100 450 2 140 00:51 30.12.2020
4296 Fog 5 1013 100 450 2 140 00:32 30.12.2020
4297 Fog 5 1013 100 500 2 150 23:58 29.12.2020
4298 Fog 5 1013 100 500 2 150 23:40 29.12.2020
4299 Fog 5 1013 100 400 2 160 23:21 29.12.2020
4300 Fog 5 1012 100 400 2 160 22:43 29.12.2020
4301 Fog 5 1012 100 450 2 140 22:23 29.12.2020
4302 Fog 5 1012 100 500 2 150 21:50 29.12.2020
4303 Fog 5 1012 100 500 2 150 21:32 29.12.2020
4304 Fog 5 1011 100 400 2 130 20:54 29.12.2020
4305 Fog 4 1011 100 400 2 130 20:36 29.12.2020
4306 Fog 5 1011 100 500 2 140 20:18 29.12.2020
4307 Fog 4 1010 100 400 1 0 19:37 29.12.2020
4308 Fog 4 1010 100 450 2 120 19:19 29.12.2020
4309 Fog 4 1010 100 1000 2 140 18:44 29.12.2020
4310 Fog 4 1009 100 1000 3 130 18:24 29.12.2020
4311 Fog 4 1009 100 900 2 150 17:44 29.12.2020
4312 Fog 3 1008 100 800 4 120 17:20 29.12.2020
4313 Fog 3 1008 100 900 3 130 16:37 29.12.2020
4314 Mist 4 1008 100 1300 4 120 15:59 29.12.2020
4315 Rain 3 1007 100 1200 4 130 15:36 29.12.2020
4316 Rain 3 1007 100 1200 4 130 14:59 29.12.2020
4317 Mist 3 1007 100 1400 4 130 14:36 29.12.2020
4318 Mist 2 1007 100 1300 5 130 14:18 29.12.2020
4319 Drizzle 2 1006 100 1400 6 130 13:39 29.12.2020
4320 Drizzle 2 1006 100 1700 6 130 13:18 29.12.2020
4321 Mist 2 1007 100 2200 6 130 12:37 29.12.2020
4322 Mist 2 1007 100 1900 6 130 12:19 29.12.2020
4323 Drizzle 2 1007 100 1800 6 120 11:52 29.12.2020
4324 Drizzle 2 1007 100 1800 6 120 11:31 29.12.2020
4325 Drizzle 1 1009 100 1100 6 130 10:27 29.12.2020
4326 Drizzle 1 1009 100 1000 5 130 09:48 29.12.2020
4327 Drizzle 1 1009 100 1200 6 120 09:20 29.12.2020
4328 Drizzle 1 1009 100 1200 6 120 09:20 29.12.2020
4329 Mist 1 1010 100 1000 6 130 08:53 29.12.2020
4330 Fog 1 1009 100 750 5 130 08:22 29.12.2020
4331 Mist 1 1010 100 1400 6 130 07:26 29.12.2020
4332 Mist 1 1009 100 3200 7 130 06:26 29.12.2020
4333 Rain 1 1010 100 3500 5 120 03:45 29.12.2020
4334 Snow 0 1012 100 2900 5 130 00:49 29.12.2020
4335 Rain 0 1012 94 4700 5 130 00:20 29.12.2020
4336 Snow 0 1012 94 5000 7 130 23:34 28.12.2020
4337 Rain 0 1013 92 5000 5 130 22:28 28.12.2020
4338 Rain 0 1013 92 6000 5 130 21:45 28.12.2020
4339 Rain 0 1013 91 6000 5 130 21:26 28.12.2020
4340 Rain 1 1013 91 7000 4 120 20:43 28.12.2020
4341 Clouds 1 1013 90 7000 5 120 20:22 28.12.2020
4342 Snow 1 1013 90 7000 5 120 20:22 28.12.2020
4343 Snow 1 1013 90 7000 6 120 19:48 28.12.2020
4344 Clouds 0 1014 90 7000 5 130 19:24 28.12.2020
4345 Rain 0 1014 93 8000 6 120 18:52 28.12.2020
4346 Rain 0 1014 92 9000 5 110 18:28 28.12.2020
4347 Rain 0 1014 92 9000 5 110 18:28 28.12.2020
4348 Rain 0 1014 92 9000 6 120 17:46 28.12.2020
4349 Snow 0 1014 93 8000 5 120 17:26 28.12.2020
4350 Snow 0 1014 93 8000 6 110 16:46 28.12.2020
4351 Snow 0 1014 93 8000 6 110 16:26 28.12.2020
4352 Rain 0 1014 93 7000 6 110 15:53 28.12.2020
4353 Rain 0 1015 92 7000 6 120 15:30 28.12.2020
4354 Clouds 0 1014 92 8000 5 110 14:28 28.12.2020
4355 Clouds 0 1014 92 10000 8 110 13:38 28.12.2020
4356 Clouds 0 1015 94 10000 7 110 13:19 28.12.2020
4357 Clouds 0 1016 90 4200 6 110 12:25 28.12.2020
4358 Rain 0 1016 80 10000 6 120 11:48 28.12.2020
4359 Snow 0 1017 74 10000 6 120 11:29 28.12.2020
4360 Clouds 0 1017 74 10000 5 120 10:54 28.12.2020
4361 Clouds 0 1017 74 10000 5 120 10:28 28.12.2020
4362 Snow 0 1018 90 10000 6 110 09:53 28.12.2020
4363 Clouds 0 1018 91 10000 6 110 09:25 28.12.2020
4364 Snow 0 1018 91 10000 5 110 08:58 28.12.2020
4365 Snow 0 1019 90 10000 6 120 06:52 28.12.2020
4366 Clouds 0 1020 90 10000 5 120 04:56 28.12.2020
4367 Clear 0 1020 90 10000 5 140 03:34 28.12.2020
4368 Clear -1 1022 91 10000 4 140 01:54 28.12.2020
4369 Clear -2 1023 86 10000 4 130 23:52 27.12.2020
4370 Clear -2 1023 86 10000 4 130 23:27 27.12.2020
4371 Clear -2 1024 86 10000 4 130 22:36 27.12.2020
4372 Clear -2 1024 86 10000 4 130 21:49 27.12.2020
4373 Clear -2 1024 86 10000 4 130 21:21 27.12.2020
4374 Clear -2 1023 86 10000 3 120 20:25 27.12.2020
4375 Clear -1 1024 80 10000 3 140 19:24 27.12.2020
4376 Clear -1 1024 80 10000 3 130 18:50 27.12.2020
4377 Clouds -1 1024 90 10000 3.69 139 18:21 27.12.2020
4378 Clear -1 1024 94 10000 3 140 17:57 27.12.2020
4379 Clear 0 1024 95 10000 3 130 17:35 27.12.2020
4380 Clear 0 1024 95 10000 2 120 16:56 27.12.2020
4381 Clear 0 1024 95 10000 2 120 16:22 27.12.2020
4382 Clouds 1 1024 69 10000 3 180 15:34 27.12.2020
4383 Clouds 2 1024 59 10000 2 190 14:53 27.12.2020
4384 Clouds 2 1024 59 10000 2 180 14:35 27.12.2020
4385 Clouds 2 1024 64 10000 2 170 13:36 27.12.2020
4386 Clouds 2 1024 59 10000 2 190 12:56 27.12.2020
4387 Clouds 2 1025 59 10000 1 0 12:25 27.12.2020
4388 Clouds 2 1025 69 10000 1.89 174 11:42 27.12.2020
4389 Clouds 2 1025 74 10000 1 0 11:20 27.12.2020
4390 Clouds 1 1025 80 10000 2 250 10:40 27.12.2020
4391 Clouds 1 1025 80 10000 3 230 10:19 27.12.2020
4392 Clouds 1 1025 80 10000 3 230 09:36 27.12.2020
4393 Clouds 0 1024 96 10000 1 0 08:28 27.12.2020
4394 Clouds 0 1023 97 10000 2 270 07:28 27.12.2020
4395 Clouds 0 1022 97 10000 3 260 05:56 27.12.2020
4396 Clouds 0 1022 97 10000 3 270 05:38 27.12.2020
4397 Clouds 0 1021 96 10000 4 270 03:24 27.12.2020
4398 Clouds 0 1021 96 10000 4 260 01:56 27.12.2020
4399 Clear 0 1020 96 10000 4 260 00:38 27.12.2020
4400 Snow 0 1020 96 10000 4 260 23:43 26.12.2020
4401 Clouds 0 1019 95 10000 3 270 23:23 26.12.2020
4402 Clouds 0 1019 95 10000 4 270 22:45 26.12.2020
4403 Clouds 0 1019 93 10000 5 280 22:19 26.12.2020
4404 Clouds 0 1019 93 10000 5 270 21:53 26.12.2020
4405 Clouds 0 1019 93 10000 5 270 21:53 26.12.2020
4406 Clouds 0 1018 93 10000 5 260 21:24 26.12.2020
4407 Clouds 0 1018 93 10000 4 250 20:44 26.12.2020
4408 Clouds 0 1018 95 10000 4 260 20:22 26.12.2020
4409 Clouds 0 1018 95 10000 4 260 19:31 26.12.2020
4410 Clouds 0 1017 95 10000 4 260 18:57 26.12.2020
4411 Clouds 1 1017 74 10000 4 260 18:33 26.12.2020
4412 Clouds 1 1017 74 10000 5 280 17:47 26.12.2020
4413 Clouds 1 1017 80 10000 4 280 17:28 26.12.2020
4414 Clouds 1 1016 74 10000 5 280 16:38 26.12.2020
4415 Snow 1 1016 86 10000 3 270 15:59 26.12.2020
4416 Snow 1 1015 95 10000 3 260 15:20 26.12.2020
4417 Snow 1 1015 95 10000 3 280 14:38 26.12.2020
4418 Snow 1 1015 93 10000 5 270 14:19 26.12.2020
4419 Rain 2 1015 93 10000 4 260 13:37 26.12.2020
4420 Snow 2 1015 93 10000 4 250 12:58 26.12.2020
4421 Snow 2 1015 93 10000 4 250 12:39 26.12.2020
4422 Rain 2 1015 93 10000 4 270 12:18 26.12.2020
4423 Clouds 2 1015 93 10000 4 260 11:42 26.12.2020
4424 Clouds 2 1015 95 10000 3 250 11:20 26.12.2020
4425 Clouds 1 1014 86 10000 3 260 10:46 26.12.2020
4426 Clouds 1 1015 86 10000 2 260 10:25 26.12.2020
4427 Clouds 1 1014 86 10000 2 250 09:47 26.12.2020
4428 Clear 0 1014 92 10000 2 260 08:55 26.12.2020
4429 Clear 0 1014 86 10000 3 260 08:19 26.12.2020
4430 Clouds 0 1013 98 10000 3 320 07:21 26.12.2020
4431 Clouds 0 1012 97 10000 4 300 05:38 26.12.2020
4432 Clouds 1 1012 80 10000 3 280 02:47 26.12.2020
4433 Clouds 1 1011 86 10000 3 280 00:39 26.12.2020
4434 Clouds 1 1011 86 10000 3 290 23:50 25.12.2020
4435 Clouds 1 1011 86 10000 4 300 23:29 25.12.2020
4436 Clouds 1 1010 86 10000 4 300 22:58 25.12.2020
4437 Clouds 1 1010 95 10000 4 280 22:26 25.12.2020
4438 Clouds 1 1010 80 10000 5 290 21:44 25.12.2020
4439 Clouds 2 1010 80 10000 4 290 21:25 25.12.2020
4440 Clouds 2 1010 97 10000 5 300 20:45 25.12.2020
4441 Clouds 2 1009 95 10000 5 290 20:27 25.12.2020
4442 Clouds 2 1009 93 10000 4 290 19:43 25.12.2020
4443 Clouds 2 1009 92 10000 6 280 18:49 25.12.2020
4444 Clouds 2 1008 87 10000 5 280 18:30 25.12.2020
4445 Clouds 3 1008 86 10000 5 300 17:35 25.12.2020
4446 Clouds 3 1008 86 10000 5 300 16:55 25.12.2020
4447 Clouds 3 1007 100 9000 3 220 16:25 25.12.2020
4448 Clear 4 1007 93 10000 3 220 15:50 25.12.2020
4449 Clouds 4 1006 93 10000 3 230 15:31 25.12.2020
4450 Clouds 5 1006 93 10000 3 240 14:32 25.12.2020
4451 Clouds 5 1006 93 10000 3 240 13:57 25.12.2020
4452 Clouds 5 1006 93 10000 4 240 13:37 25.12.2020
4453 Clouds 5 1006 87 10000 5 260 13:18 25.12.2020
4454 Clouds 5 1006 87 10000 5 260 13:18 25.12.2020
4455 Clear 6 1005 93 10000 3 220 12:27 25.12.2020
4456 Clouds 6 1005 93 10000 3 240 11:48 25.12.2020
4457 Clouds 5 1006 93 10000 3 240 11:24 25.12.2020
4458 Clouds 5 1006 93 10000 3 240 11:24 25.12.2020
4459 Clouds 5 1006 100 9000 3 260 10:49 25.12.2020
4460 Mist 5 1006 100 4600 2 240 10:21 25.12.2020
4461 Mist 4 1005 100 3500 3 230 09:26 25.12.2020
4462 Mist 4 1005 100 3100 4 220 08:40 25.12.2020
4463 Mist 4 1004 100 3600 3 220 07:35 25.12.2020
4464 Mist 4 1003 100 4800 3 230 06:44 25.12.2020
4465 Snow 3 1003 100 8000 4 190 02:36 25.12.2020
4466 Rain 2 1004 100 9000 3 160 00:35 25.12.2020
4467 Rain 2 1006 100 7000 3 170 23:32 24.12.2020
4468 Rain 2 1006 100 7000 3 170 22:56 24.12.2020
4469 Rain 2 1007 100 7000 4 180 22:26 24.12.2020
4470 Rain 1 1007 100 8000 3 170 21:53 24.12.2020
4471 Rain 2 1007 100 6000 3 170 21:25 24.12.2020
4472 Rain 1 1008 100 4000 4 170 19:56 24.12.2020
4473 Rain 1 1010 100 5000 4 160 18:22 24.12.2020
4474 Snow 1 1010 100 3800 4 170 17:42 24.12.2020
4475 Rain 1 1010 100 4900 5 160 17:21 24.12.2020
4476 Rain 1 1011 100 4700 4 160 16:25 24.12.2020
4477 Rain 1 1011 100 5000 4 160 15:49 24.12.2020
4478 Rain 1 1011 100 4600 4 160 15:26 24.12.2020
4479 Rain 1 1011 100 4600 4 160 14:57 24.12.2020
4480 Rain 1 1011 100 4100 4 150 14:38 24.12.2020
4481 Snow 1 1012 100 3800 3 150 14:19 24.12.2020
4482 Snow 1 1012 100 3300 3 140 13:39 24.12.2020
4483 Snow 1 1013 100 4300 3 150 13:18 24.12.2020
4484 Snow 1 1013 100 3000 4 170 12:40 24.12.2020
4485 Snow 1 1013 100 1400 3 160 12:18 24.12.2020
4486 Snow 1 1014 100 8000 2 170 11:38 24.12.2020
4487 Mist 0 1014 97 4400 3 180 11:19 24.12.2020
4488 Mist 0 1015 97 3300 3 180 10:43 24.12.2020
4489 Mist 0 1015 100 2100 4 190 10:20 24.12.2020
4490 Fog 1 1015 100 1100 3 190 09:50 24.12.2020
4491 Fog 1 1015 100 550 2 170 08:58 24.12.2020
4492 Fog 0 1015 100 650 2 170 07:56 24.12.2020
4493 Fog 0 1016 98 550 2 190 07:37 24.12.2020
4494 Fog 0 1016 99 750 2 160 06:27 24.12.2020
4495 Fog 0 1016 98 700 1 0 03:51 24.12.2020
4496 Mist 0 1016 98 1100 2 170 01:52 24.12.2020
4497 Mist 0 1016 98 1300 2 180 01:23 24.12.2020
4498 Mist 0 1016 98 1700 1 0 00:43 24.12.2020
4499 Mist 0 1016 98 1300 2 160 00:19 24.12.2020
4500 Mist 0 1016 98 1200 1 0 23:40 23.12.2020
4501 Mist 0 1017 97 1400 2 190 23:21 23.12.2020
4502 Snow 0 1016 97 1500 2 190 22:48 23.12.2020
4503 Snow 0 1016 97 1400 2 190 22:26 23.12.2020
4504 Mist 0 1016 97 2700 2 190 21:46 23.12.2020
4505 Mist 0 1016 98 2800 2 190 21:22 23.12.2020
4506 Mist 0 1016 98 4600 2 190 20:46 23.12.2020
4507 Snow 0 1016 98 3500 2 190 20:28 23.12.2020
4508 Snow 0 1016 98 3800 2 190 19:45 23.12.2020
4509 Rain 0 1016 98 2900 2 180 19:24 23.12.2020
4510 Rain 0 1016 99 2900 2 180 18:56 23.12.2020
4511 Rain 0 1016 99 3700 3 180 18:36 23.12.2020
4512 Snow 0 1016 99 3300 3 180 17:57 23.12.2020
4513 Mist 0 1016 99 3600 3 180 17:36 23.12.2020
4514 Snow 0 1016 98 3600 3 180 17:18 23.12.2020
4515 Snow 0 1016 98 6000 3 180 16:39 23.12.2020
4516 Snow 0 1016 98 6000 3 180 16:21 23.12.2020
4517 Snow 0 1016 98 7000 3 180 15:40 23.12.2020
4518 Snow -1 1016 98 6000 3 180 15:22 23.12.2020
4519 Rain -1 1016 98 6000 3 180 14:52 23.12.2020
4520 Snow -1 1017 100 3600 4 180 14:25 23.12.2020
4521 Snow -1 1016 92 6000 4 180 13:58 23.12.2020
4522 Snow -1 1016 92 6000 4 180 13:39 23.12.2020
4523 Snow -1 1017 92 4800 4 180 13:18 23.12.2020
4524 Snow -1 1017 92 1200 4 170 12:46 23.12.2020
4525 Snow -1 1017 92 1200 4 170 12:21 23.12.2020
4526 Snow -1 1018 92 900 3 170 11:45 23.12.2020
4527 Snow -1 1018 92 750 3 170 10:58 23.12.2020
4528 Snow -1 1018 92 750 3 170 10:40 23.12.2020
4529 Snow -1 1019 92 1100 4 180 10:21 23.12.2020
4530 Snow -1 1019 92 3800 4 170 09:27 23.12.2020
4531 Snow -2 1019 86 6000 4 180 08:42 23.12.2020
4532 Snow -2 1019 92 9000 4 170 08:19 23.12.2020
4533 Snow -2 1020 92 10000 4 170 07:21 23.12.2020
4534 Snow -2 1020 86 10000 4 170 06:39 23.12.2020
4535 Snow -2 1020 86 10000 4 160 05:26 23.12.2020
4536 Clouds -2 1020 86 10000 4 160 04:53 23.12.2020
4537 Clouds -3 1023 92 10000 4 170 00:34 23.12.2020
4538 Clouds -3 1024 86 10000 3 170 23:46 22.12.2020
4539 Clouds -3 1024 86 10000 4 170 23:27 22.12.2020
4540 Clouds -2 1024 86 10000 3 170 22:43 22.12.2020
4541 Clouds -2 1025 86 10000 3 170 22:25 22.12.2020
4542 Clouds -2 1025 86 10000 4 160 21:57 22.12.2020
4543 Clouds -2 1025 86 10000 4 160 21:38 22.12.2020
4544 Clouds -2 1025 86 10000 4 160 21:38 22.12.2020
4545 Clouds -2 1025 86 10000 3 160 21:18 22.12.2020
4546 Clouds -2 1025 86 10000 3 170 20:43 22.12.2020
4547 Clouds -2 1025 86 10000 3 160 20:20 22.12.2020
4548 Clouds -2 1025 92 10000 3 160 19:42 22.12.2020
4549 Clouds -2 1025 86 10000 4 160 19:21 22.12.2020
4550 Clouds -2 1026 86 10000 4 170 18:48 22.12.2020
4551 Clouds -2 1026 86 10000 3 160 18:28 22.12.2020
4552 Clouds -2 1026 86 9000 3 160 17:50 22.12.2020
4553 Clouds -2 1026 86 9000 3 150 17:23 22.12.2020
4554 Clouds -1 1027 86 9000 3 150 16:54 22.12.2020
4555 Clouds -1 1027 86 10000 3 150 16:36 22.12.2020
4556 Clouds -1 1027 86 10000 3 150 16:18 22.12.2020
4557 Clouds -1 1027 86 10000 2 150 15:41 22.12.2020
4558 Clouds -1 1027 86 10000 2 150 15:18 22.12.2020
4559 Clouds -1 1027 86 9000 2 140 14:43 22.12.2020
4560 Clouds -1 1028 86 9000 2 140 14:25 22.12.2020
4561 Clouds -1 1028 86 9000 2 140 13:47 22.12.2020
4562 Clouds -2 1028 92 10000 2 170 13:19 22.12.2020
4563 Clouds -2 1028 92 10000 2 170 12:55 22.12.2020
4564 Clouds -2 1029 92 10000 2 150 12:37 22.12.2020
4565 Clouds -2 1029 92 10000 2 150 12:18 22.12.2020
4566 Clouds -2 1029 92 10000 2 160 11:40 22.12.2020
4567 Clouds -2 1030 86 10000 2 180 11:21 22.12.2020
4568 Clouds -2 1030 86 10000 2 160 10:54 22.12.2020
4569 Clouds -2 1030 86 10000 2 180 10:26 22.12.2020
4570 Clouds -2 1030 86 10000 2 170 09:58 22.12.2020
4571 Clouds -2 1030 92 10000 2 170 09:29 22.12.2020
4572 Clouds -3 1031 92 10000 2 210 08:54 22.12.2020
4573 Clouds -3 1031 92 10000 2 210 08:34 22.12.2020
4574 Clouds -3 1031 86 10000 3 190 07:57 22.12.2020
4575 Clouds -4 1031 86 10000 3 190 07:26 22.12.2020
4576 Clouds -3 1031 86 10000 3 150 05:54 22.12.2020
4577 Clouds -3 1031 86 10000 3 140 05:25 22.12.2020
4578 Clouds -4 1032 92 10000 3 190 01:48 22.12.2020
4579 Clouds -3 1032 86 10000 2 150 00:21 22.12.2020
4580 Clouds -3 1032 86 10000 3 130 23:41 21.12.2020
4581 Clouds -3 1032 86 10000 3 130 23:18 21.12.2020
4582 Clouds -3 1033 86 10000 3 160 22:36 21.12.2020
4583 Clouds -3 1033 92 10000 3 120 22:18 21.12.2020
4584 Clouds -3 1033 92 10000 3 160 21:44 21.12.2020
4585 Clouds -2 1033 86 10000 3 120 21:26 21.12.2020
4586 Clouds -2 1033 86 10000 4 110 20:43 21.12.2020
4587 Clouds -2 1033 86 10000 3 140 20:20 21.12.2020
4588 Clouds -2 1033 86 10000 4 130 19:46 21.12.2020
4589 Clouds -2 1033 92 10000 4 110 19:20 21.12.2020
4590 Clouds -1 1033 86 10000 3 120 18:55 21.12.2020
4591 Clouds -1 1033 86 10000 3 120 18:37 21.12.2020
4592 Clouds -1 1032 92 10000 4 110 18:18 21.12.2020
4593 Clouds -1 1033 92 10000 3 120 17:42 21.12.2020
4594 Clouds -1 1033 100 9000 4 110 17:22 21.12.2020
4595 Clouds -1 1033 97 8000 4 110 16:39 21.12.2020
4596 Clouds -1 1033 97 8000 4 110 16:19 21.12.2020
4597 Clouds 0 1032 97 6000 3 120 15:41 21.12.2020
4598 Snow 0 1032 98 9000 3 120 14:57 21.12.2020
4599 Snow 1 1032 100 9000 2 130 14:22 21.12.2020
4600 Clouds 1 1032 100 9000 3 110 13:49 21.12.2020
4601 Clouds 1 1032 100 9000 3 110 13:31 21.12.2020
4602 Mist 1 1032 100 3200 2 150 12:47 21.12.2020
4603 Mist 1 1033 100 2900 3 120 12:25 21.12.2020
4604 Mist 1 1033 100 2900 3 120 11:59 21.12.2020
4605 Clouds 1 1033 100 7000 3 110 11:40 21.12.2020
4606 Mist 1 1033 100 3800 3 110 11:22 21.12.2020
4607 Clouds 1 1033 100 6000 3 110 10:55 21.12.2020
4608 Clouds 1 1033 100 6000 3 110 10:36 21.12.2020
4609 Snow 1 1033 100 10000 2 120 09:51 21.12.2020
4610 Snow 1 1033 100 10000 2 120 09:27 21.12.2020
4611 Clouds 1 1033 100 9000 2 120 08:58 21.12.2020
4612 Mist 1 1033 100 3600 2 100 08:18 21.12.2020
4613 Fog 1 1033 100 450 2.02 86 06:48 21.12.2020
4614 Fog 1 1033 100 600 1 0 04:58 21.12.2020
4615 Fog 1 1033 100 900 1 250 02:32 21.12.2020
4616 Fog 1 1033 100 700 0.94 94 00:35 21.12.2020
4617 Fog 1 1033 100 750 1 260 23:38 20.12.2020
4618 Fog 1 1033 100 700 2 270 23:19 20.12.2020
4619 Fog 1 1033 100 1200 1 270 22:42 20.12.2020
4620 Fog 1 1033 100 1000 2 280 22:22 20.12.2020
4621 Fog 1 1033 100 900 2 280 21:40 20.12.2020
4622 Fog 1 1033 100 650 3 280 21:21 20.12.2020
4623 Fog 1 1033 100 750 2 260 20:52 20.12.2020
4624 Fog 1 1033 100 800 2 260 20:26 20.12.2020
4625 Mist 1 1032 100 3500 2 260 19:51 20.12.2020
4626 Mist 1 1032 100 4000 1 250 19:33 20.12.2020
4627 Mist 1 1032 100 4400 2 280 18:59 20.12.2020
4628 Mist 1 1032 100 4400 2 280 18:40 20.12.2020
4629 Mist 1 1032 100 5000 2 310 18:22 20.12.2020
4630 Mist 1 1032 100 5000 2 310 17:44 20.12.2020
4631 Mist 1 1032 100 4400 2 280 17:23 20.12.2020
4632 Mist 1 1032 100 5000 2 310 16:45 20.12.2020
4633 Mist 2 1032 100 5000 3 340 16:27 20.12.2020
4634 Mist 2 1032 93 5000 2 320 15:49 20.12.2020
4635 Mist 2 1032 93 4900 2 300 15:25 20.12.2020
4636 Mist 2 1031 100 5000 3 300 14:54 20.12.2020
4637 Mist 2 1031 100 5000 3 300 14:33 20.12.2020
4638 Mist 2 1031 100 5000 2 310 13:47 20.12.2020
4639 Mist 2 1031 93 5000 3 270 13:28 20.12.2020
4640 Mist 2 1031 100 4700 1 0 12:58 20.12.2020
4641 Mist 2 1031 100 4700 1 0 12:39 20.12.2020
4642 Mist 2 1031 100 4700 2 270 12:20 20.12.2020
4643 Mist 2 1031 100 4400 3 290 11:43 20.12.2020
4644 Mist 2 1031 100 5000 1 0 11:18 20.12.2020
4645 Mist 2 1031 100 5000 2 300 10:45 20.12.2020
4646 Mist 2 1031 100 3500 2 250 10:20 20.12.2020
4647 Mist 2 1031 100 4100 2 280 09:46 20.12.2020
4648 Mist 2 1031 100 4600 2 320 09:27 20.12.2020
4649 Mist 2 1031 100 4600 2 320 08:56 20.12.2020
4650 Clouds 2 1031 100 6000 1 0 08:37 20.12.2020
4651 Mist 2 1030 100 5000 2 30 07:25 20.12.2020
4652 Mist 2 1029 100 3200 2 320 05:44 20.12.2020
4653 Mist 2 1029 100 2800 2 330 01:46 20.12.2020
4654 Mist 2 1029 100 3800 2 320 00:38 20.12.2020
4655 Mist 2 1029 100 3800 2 320 00:38 20.12.2020
4656 Mist 2 1028 100 3700 2 320 23:20 19.12.2020
4657 Mist 2 1028 100 2600 3 300 22:57 19.12.2020
4658 Mist 2 1028 100 2600 3 300 22:38 19.12.2020
4659 Mist 2 1028 100 3900 2 310 22:19 19.12.2020
4660 Mist 2 1028 100 3800 2 330 21:42 19.12.2020
4661 Mist 2 1028 100 4000 2 320 21:24 19.12.2020
4662 Mist 2 1028 100 2800 3 320 20:45 19.12.2020
4663 Mist 2 1028 100 2600 3 280 20:21 19.12.2020
4664 Mist 2 1028 100 2600 3 280 20:21 19.12.2020
4665 Mist 2 1028 100 1600 2 290 19:53 19.12.2020
4666 Mist 2 1028 100 1600 2 290 19:34 19.12.2020
4667 Mist 2 1028 100 2100 2 300 18:42 19.12.2020
4668 Mist 2 1028 100 1800 2 310 18:24 19.12.2020
4669 Mist 2 1028 100 1400 2 300 17:48 19.12.2020
4670 Mist 2 1027 100 3500 3 300 17:25 19.12.2020
4671 Mist 2 1027 100 1800 2 280 16:55 19.12.2020
4672 Mist 2 1027 100 1800 2 280 16:36 19.12.2020
4673 Mist 2 1027 100 1900 3 280 16:18 19.12.2020
4674 Mist 2 1027 100 2300 3 270 15:47 19.12.2020
4675 Mist 2 1027 100 3300 3 270 14:44 19.12.2020
4676 Mist 2 1027 100 4100 3 270 14:24 19.12.2020
4677 Mist 2 1027 100 4700 4 270 13:42 19.12.2020
4678 Mist 2 1027 100 5000 3 260 13:21 19.12.2020
4679 Mist 3 1027 93 5000 3 260 12:54 19.12.2020
4680 Mist 3 1027 93 5000 3 260 12:36 19.12.2020
4681 Clouds 3 1027 93 6000 3 260 12:18 19.12.2020
4682 Mist 3 1027 93 5000 2 260 11:40 19.12.2020
4683 Mist 3 1027 100 5000 2 260 10:47 19.12.2020
4684 Mist 2 1027 100 4700 3 300 10:27 19.12.2020
4685 Mist 2 1027 100 4700 3 300 09:59 19.12.2020
4686 Mist 2 1027 100 4400 3 280 09:39 19.12.2020
4687 Clouds 2 998 98 10000 2.09 281 08:56 19.12.2020
4688 Mist 1 1027 100 3600 3 260 07:56 19.12.2020
4689 Clouds 1 1026 100 6000 2 290 07:19 19.12.2020
4690 Mist 1 1026 100 5000 3 320 06:39 19.12.2020
4691 Mist 1 1026 100 5000 2 280 05:20 19.12.2020
4692 Mist 1 1026 100 4800 3 300 03:29 19.12.2020
4693 Mist 1 1026 100 3900 2 280 00:41 19.12.2020
4694 Mist 1 1026 100 3800 2 270 00:20 19.12.2020
4695 Mist 1 1026 100 3300 2 260 23:49 18.12.2020
4696 Mist 1 1026 100 2800 2 250 23:25 18.12.2020
4697 Mist 1 1026 99 4800 2 240 22:49 18.12.2020
4698 Mist 1 1026 99 4800 2 240 22:25 18.12.2020
4699 Mist 1 1026 99 4800 2 240 21:59 18.12.2020
4700 Mist 0 1026 99 5000 2 220 21:38 18.12.2020
4701 Mist 0 1026 98 5000 2 220 21:20 18.12.2020
4702 Mist 0 1026 97 4100 2 220 20:24 18.12.2020
4703 Snow 0 1026 100 4600 2 230 19:47 18.12.2020
4704 Snow 0 1027 98 4400 2 240 19:23 18.12.2020
4705 Snow 0 1027 98 4200 2 230 18:46 18.12.2020
4706 Snow 0 1026 98 4300 3 210 18:26 18.12.2020
4707 Snow 0 1027 98 4100 2 220 17:50 18.12.2020
4708 Snow 0 1027 98 3800 2 210 17:20 18.12.2020
4709 Snow 0 1027 98 3800 2 200 16:45 18.12.2020
4710 Mist 0 1027 98 3900 3 190 16:21 18.12.2020
4711 Mist 0 1027 98 3800 2 200 15:52 18.12.2020
4712 Mist 0 1027 98 3800 2 200 15:34 18.12.2020
4713 Snow 1 1027 97 6000 2 180 14:57 18.12.2020
4714 Snow 1 1027 97 5000 2 200 14:26 18.12.2020
4715 Snow 1 1027 97 7000 2 210 13:53 18.12.2020
4716 Snow 1 1027 96 9000 2 190 13:33 18.12.2020
4717 Snow 1 1027 97 9000 2 190 12:59 18.12.2020
4718 Snow 1 1027 97 10000 2 180 12:38 18.12.2020
4719 Snow 1 1028 96 7000 1 0 11:29 18.12.2020
4720 Snow 1 1028 96 8000 2 220 10:45 18.12.2020
4721 Snow 0 1028 96 6000 2 210 10:24 18.12.2020
4722 Snow 0 1028 96 6000 2 210 10:00 18.12.2020
4723 Mist 0 1028 96 5000 3 210 09:37 18.12.2020
4724 Snow 0 1028 96 4300 1 220 09:19 18.12.2020
4725 Mist 0 1028 96 4100 2 230 08:46 18.12.2020
4726 Snow 0 1028 96 6000 2 220 08:20 18.12.2020
4727 Snow 0 1028 96 7000 1 190 07:20 18.12.2020
4728 Snow 0 1028 96 7000 1 190 06:59 18.12.2020
4729 Mist 0 1028 97 4900 2 210 05:45 18.12.2020
4730 Mist 0 1028 97 5000 2 200 05:23 18.12.2020
4731 Mist 0 1028 97 4900 1 0 04:42 18.12.2020
4732 Mist 1 1028 100 1300 1.27 135 01:47 18.12.2020
4733 Mist 1 1028 100 2000 1 210 00:31 18.12.2020
4734 Mist 1 1028 100 2100 1 0 23:53 17.12.2020
4735 Mist 1 1028 100 2200 1.29 143 23:25 17.12.2020
4736 Mist 1 1028 100 2200 1 0 22:49 17.12.2020
4737 Mist 1 1028 100 2500 1 0 22:28 17.12.2020
4738 Mist 1 1028 100 2500 1 0 21:47 17.12.2020
4739 Mist 1 1028 100 2500 1 0 21:47 17.12.2020
4740 Mist 1 1028 100 2400 1 0 21:22 17.12.2020
4741 Mist 1 1028 100 2400 1 0 20:55 17.12.2020
4742 Drizzle 1 1028 100 1700 2 210 20:36 17.12.2020
4743 Drizzle 1 1028 100 1700 2 210 20:18 17.12.2020
4744 Drizzle 1 1028 100 1400 2 210 19:41 17.12.2020
4745 Drizzle 1 1028 100 1200 1 0 19:22 17.12.2020
4746 Drizzle 1 1028 100 1000 1 0 18:41 17.12.2020
4747 Drizzle 1 1028 100 900 1 0 18:21 17.12.2020
4748 Drizzle 1 1028 100 1100 1 210 17:49 17.12.2020
4749 Drizzle 1 1028 100 1200 1 0 17:31 17.12.2020
4750 Drizzle 1 1028 100 1200 1 200 16:42 17.12.2020
4751 Drizzle 1 1028 100 1300 1 230 16:23 17.12.2020
4752 Drizzle 1 1028 100 1400 1 240 15:51 17.12.2020
4753 Drizzle 1 1028 100 1400 1 240 15:30 17.12.2020
4754 Mist 2 1028 93 2100 1 230 14:54 17.12.2020
4755 Mist 2 1027 93 4900 1 220 14:29 17.12.2020
4756 Clouds 2 1027 93 6000 1 250 13:51 17.12.2020
4757 Clouds 2 1027 93 7000 1 270 13:27 17.12.2020
4758 Clouds 2 1027 93 7000 1 260 12:44 17.12.2020
4759 Clouds 2 1027 94 7000 1 280 12:24 17.12.2020
4760 Clouds 2 1027 94 8000 1 0 11:44 17.12.2020
4761 Clouds 2 1027 94 8000 1 0 11:23 17.12.2020
4762 Clouds 2 1027 94 8000 1 270 10:49 17.12.2020
4763 Clouds 2 1027 93 8000 1 0 09:43 17.12.2020
4764 Clouds 2 1027 93 8000 1 0 09:43 17.12.2020
4765 Clouds 2 1027 100 6000 2 310 09:24 17.12.2020
4766 Mist 1 1026 100 5000 1 240 07:50 17.12.2020
4767 Clouds 1 1026 100 6000 1 260 07:31 17.12.2020
4768 Mist 1 1026 100 5000 2 260 06:53 17.12.2020
4769 Mist 1 1026 100 5000 2 270 06:32 17.12.2020
4770 Mist 1 1026 100 5000 2 270 06:32 17.12.2020
4771 Mist 1 1026 100 5000 2 250 05:33 17.12.2020
4772 Snow 0 1026 97 4200 3 210 00:38 17.12.2020
4773 Snow 0 1026 97 4100 3 220 23:52 16.12.2020
4774 Snow 0 1025 97 4000 2 220 23:19 16.12.2020
4775 Snow 0 1026 97 4700 2 230 22:54 16.12.2020
4776 Snow 0 1026 98 4900 2 230 22:34 16.12.2020
4777 Clouds 0 1026 98 6000 3 250 21:50 16.12.2020
4778 Clouds 0 1026 98 6000 3 250 21:32 16.12.2020
4779 Mist 0 1025 98 5000 4 230 20:55 16.12.2020
4780 Snow 0 1025 98 5000 4 230 20:21 16.12.2020
4781 Clouds 0 1025 98 6000 4 220 19:52 16.12.2020
4782 Clouds 0 1025 98 6000 4 220 19:19 16.12.2020
4783 Clouds 0 1025 97 7000 4 230 18:53 16.12.2020
4784 Clouds 0 1025 98 7000 4 240 18:27 16.12.2020
4785 Snow 0 1025 98 6000 4 220 17:44 16.12.2020
4786 Clouds 0 1025 98 6000 4 200 17:18 16.12.2020
4787 Snow 0 1025 98 7000 4 220 16:39 16.12.2020
4788 Clouds 0 1025 98 7000 4 220 16:20 16.12.2020
4789 Clouds 0 1025 98 7000 3 200 15:49 16.12.2020
4790 Clouds 0 1025 98 7000 4 210 15:26 16.12.2020
4791 Clouds 0 1025 98 7000 4 210 14:47 16.12.2020
4792 Clouds 0 1025 96 7000 4 210 14:28 16.12.2020
4793 Snow 1 1025 86 9000 3 200 13:46 16.12.2020
4794 Snow 1 1025 86 9000 3 200 13:27 16.12.2020
4795 Snow 1 1025 86 10000 4 200 12:55 16.12.2020
4796 Clouds 1 1026 86 10000 3 210 12:34 16.12.2020
4797 Clouds 1 1026 86 10000 3 210 11:39 16.12.2020
4798 Clouds 1 1026 86 10000 3 190 11:20 16.12.2020
4799 Clouds 1 1026 86 10000 2 170 10:43 16.12.2020
4800 Clouds 1 1026 86 10000 2 170 10:19 16.12.2020
4801 Snow 1 1026 86 10000 2 180 09:40 16.12.2020
4802 Clouds 1 1026 86 9000 2 190 08:27 16.12.2020
4803 Clouds 0 1026 97 9000 2 160 07:49 16.12.2020
4804 Clouds 0 1026 98 7000 2 160 07:30 16.12.2020
4805 Clouds 0 1026 98 7000 2 170 06:41 16.12.2020
4806 Mist 0 1026 98 3800 1 170 02:24 16.12.2020
4807 Fog 1 1026 100 650 0.98 147 00:20 16.12.2020
4808 Fog 1 1026 100 650 0.98 147 23:42 15.12.2020
4809 Mist 1 1026 100 2800 1 90 22:44 15.12.2020
4810 Mist 1 1025 100 3900 1 80 22:24 15.12.2020
4811 Mist 1 1025 98 4200 1 40 21:50 15.12.2020
4812 Mist 1 1025 100 4400 1 0 21:24 15.12.2020
4813 Mist 1 1025 100 4400 1 0 20:57 15.12.2020
4814 Mist 1 1025 99 5000 1 330 20:37 15.12.2020
4815 Mist 1 1025 99 5000 1 330 20:37 15.12.2020
4816 Clouds 1 1025 99 6000 1.5 88 20:18 15.12.2020
4817 Clouds 1 1025 100 6000 1 340 19:35 15.12.2020
4818 Mist 1 1025 99 5000 1 320 18:59 15.12.2020
4819 Mist 1 1025 99 5000 1 320 18:39 15.12.2020
4820 Clouds 1 1024 100 6000 1 0 18:20 15.12.2020
4821 Mist 1 1024 100 5000 2 340 17:42 15.12.2020
4822 Mist 1 1024 100 5000 2 320 17:22 15.12.2020
4823 Mist 1 1024 100 5000 2 320 16:37 15.12.2020
4824 Mist 1 1024 100 4600 2 340 16:19 15.12.2020
4825 Mist 1 1024 99 3300 2 300 15:37 15.12.2020
4826 Mist 1 1024 99 3300 2 300 14:56 15.12.2020
4827 Mist 1 1023 100 4700 2 300 14:37 15.12.2020
4828 Mist 1 1023 100 4700 2 300 14:19 15.12.2020
4829 Mist 1 1023 97 4300 2 300 13:47 15.12.2020
4830 Mist 2 1023 100 3400 2 260 13:22 15.12.2020
4831 Mist 1 1023 99 3300 2 260 12:44 15.12.2020
4832 Mist 1 1023 99 3100 2 270 12:18 15.12.2020
4833 Mist 1 1023 99 3600 2 310 11:49 15.12.2020
4834 Mist 1 1023 99 3600 2 310 11:49 15.12.2020
4835 Mist 1 1023 99 4200 2 320 11:20 15.12.2020
4836 Mist 1 1023 99 5000 2 310 10:44 15.12.2020
4837 Mist 1 1023 98 4800 3 320 10:19 15.12.2020
4838 Mist 1 1023 98 4600 3 320 09:40 15.12.2020
4839 Clouds 1 1023 97 6000 3 320 09:21 15.12.2020
4840 Clouds 1 1022 98 7000 2 320 08:37 15.12.2020
4841 Clouds 1 1022 98 7000 2 330 08:19 15.12.2020
4842 Snow 0 1022 98 5000 3 320 07:40 15.12.2020
4843 Snow 0 1021 97 4400 2 310 06:40 15.12.2020
4844 Clouds 0 1020 98 6000 1 290 04:55 15.12.2020
4845 Mist 0 1020 99 5000 2 290 00:38 15.12.2020
4846 Mist 0 1020 99 5000 1 310 23:47 14.12.2020
4847 Mist 0 1020 99 5000 2 290 23:19 14.12.2020
4848 Mist 0 1020 99 5000 2 320 22:39 14.12.2020
4849 Mist 0 1020 99 3900 2 310 21:56 14.12.2020
4850 Mist 0 1020 99 3900 2 310 21:36 14.12.2020
4851 Mist 0 1019 99 4400 2 320 20:56 14.12.2020
4852 Mist 0 1019 99 4400 2 320 20:38 14.12.2020
4853 Mist 0 1019 99 2400 1 0 20:18 14.12.2020
4854 Mist 0 1019 99 1900 1 0 19:32 14.12.2020
4855 Mist 0 1019 99 3500 1 90 18:57 14.12.2020
4856 Mist 0 1019 99 4900 2 70 18:38 14.12.2020
4857 Mist 0 1019 99 5000 1 0 17:58 14.12.2020
4858 Mist 0 1019 99 5000 2 10 17:33 14.12.2020
4859 Snow 0 1018 99 6000 2 20 16:53 14.12.2020
4860 Snow 0 1018 99 5000 2 40 16:30 14.12.2020
4861 Snow 0 1018 99 4700 2 40 15:53 14.12.2020
4862 Rain 0 1018 99 3400 2 10 15:30 14.12.2020
4863 Snow 0 1018 99 3000 2 10 14:45 14.12.2020
4864 Mist 0 1018 99 2800 1 0 14:27 14.12.2020
4865 Rain 0 1018 99 2700 0.94 27 13:47 14.12.2020
4866 Rain 0 1018 99 2700 0.97 48 13:27 14.12.2020
4867 Rain 1 1017 99 4600 1 90 12:54 14.12.2020
4868 Rain 0 1017 100 6000 1 0 12:30 14.12.2020
4869 Mist 0 1018 100 5000 1 0 11:37 14.12.2020
4870 Snow 0 1017 100 8000 2 80 10:48 14.12.2020
4871 Rain 0 1017 99 8000 2 80 10:27 14.12.2020
4872 Rain 0 1018 99 8000 2 100 09:44 14.12.2020
4873 Rain 0 1017 99 7000 3 100 08:50 14.12.2020
4874 Rain 0 1017 99 9000 3 110 08:30 14.12.2020
4875 Rain 0 1017 99 9000 3 120 07:52 14.12.2020
4876 Rain 0 1016 99 9000 3 90 06:55 14.12.2020
4877 Rain 0 1016 99 8000 3 100 05:51 14.12.2020
4878 Rain 0 1016 99 7000 3 100 03:29 14.12.2020
4879 Rain 0 1016 99 6000 3 100 00:57 14.12.2020
4880 Mist 0 1016 99 5000 3 90 00:34 14.12.2020
4881 Rain 0 1016 99 5000 4 100 23:58 13.12.2020
4882 Snow 0 1016 99 5000 4 100 23:40 13.12.2020
4883 Snow 0 1016 99 4900 3 110 22:51 13.12.2020
4884 Rain 0 1016 98 4400 3 100 22:21 13.12.2020
4885 Mist 0 1016 98 3600 4 110 21:50 13.12.2020
4886 Snow 0 1016 98 2500 4 110 21:29 13.12.2020
4887 Rain 0 1016 98 1800 4 100 20:42 13.12.2020
4888 Rain 0 1016 98 2000 5 100 20:23 13.12.2020
4889 Rain 0 1016 98 2400 5 100 19:43 13.12.2020
4890 Rain 0 1016 98 2700 5 100 19:22 13.12.2020
4891 Mist 0 1016 98 2800 5 100 18:44 13.12.2020
4892 Mist 0 1016 98 4400 5 110 18:21 13.12.2020
4893 Mist 0 1016 98 5000 4 100 17:47 13.12.2020
4894 Mist 0 1016 98 5000 4 110 17:21 13.12.2020
4895 Mist 0 1015 98 5000 4 100 16:59 13.12.2020
4896 Mist 0 1015 98 5000 4 100 16:39 13.12.2020
4897 Clouds 0 1015 98 6000 4 110 16:19 13.12.2020
4898 Rain 0 1015 98 6000 5 100 15:42 13.12.2020
4899 Clouds 1 1015 98 7000 5 110 15:23 13.12.2020
4900 Clouds 1 1015 98 6000 5 100 14:44 13.12.2020
4901 Rain 1 1015 98 4100 5 100 14:25 13.12.2020
4902 Rain 1 1015 98 5000 5 100 13:44 13.12.2020
4903 Rain 1 1015 98 5000 5 100 13:25 13.12.2020
4904 Snow 1 1015 97 3300 4 100 12:49 13.12.2020
4905 Rain 0 1015 97 2800 5 100 12:23 13.12.2020
4906 Rain 0 1015 97 2800 5 100 11:43 13.12.2020
4907 Snow 0 1015 96 1800 5 100 10:56 13.12.2020
4908 Rain 0 1015 96 1800 5 100 10:38 13.12.2020
4909 Snow 0 1016 96 650 5 110 09:57 13.12.2020
4910 Fog 0 1016 96 650 5 110 09:27 13.12.2020
4911 Fog 0 1015 99 1000 5 100 08:35 13.12.2020
4912 Rain 0 1015 99 2100 5 100 07:51 13.12.2020
4913 Snow -1 1015 92 1100 4 80 04:48 13.12.2020
4914 Mist -2 1015 100 1100 4 90 02:42 13.12.2020
4915 Mist -2 1016 100 1200 4 90 01:58 13.12.2020
4916 Snow -2 1015 92 2700 4 90 00:51 13.12.2020
4917 Snow -2 1015 92 2700 4 90 00:51 13.12.2020
4918 Mist -2 1015 92 3700 4 90 00:28 13.12.2020
4919 Mist -3 1015 100 2800 4 100 23:32 12.12.2020
4920 Mist -3 1015 100 2800 4 100 22:56 12.12.2020
4921 Mist -3 1015 100 3700 5 90 22:20 12.12.2020
4922 Mist -3 1015 100 2800 4 100 21:42 12.12.2020
4923 Mist -3 1016 100 2200 3 110 21:18 12.12.2020
4924 Mist -3 1015 92 2300 5 100 20:36 12.12.2020
4925 Mist -3 1015 92 2600 4 100 20:18 12.12.2020
4926 Mist -3 1015 92 2600 4 100 19:46 12.12.2020
4927 Mist -3 1015 92 2800 4 100 19:27 12.12.2020
4928 Mist -3 1015 92 3600 5 90 18:45 12.12.2020
4929 Mist -4 1015 100 3600 4 100 18:27 12.12.2020
4930 Snow -4 1015 100 3700 5 100 17:47 12.12.2020
4931 Snow -4 1015 92 5000 5 100 16:57 12.12.2020
4932 Snow -4 1015 92 7000 5 90 16:21 12.12.2020
4933 Snow -4 1015 92 7000 5 100 15:50 12.12.2020
4934 Snow -4 1015 92 5000 5 90 15:31 12.12.2020
4935 Snow -4 1015 92 5000 5 90 14:49 12.12.2020
4936 Snow -4 1015 86 6000 5 100 13:57 12.12.2020
4937 Snow -3 1015 86 5000 5 90 13:38 12.12.2020
4938 Snow -4 1015 86 6000 5 100 12:59 12.12.2020
4939 Snow -4 1015 92 5000 3 100 12:26 12.12.2020
4940 Snow -3 1016 86 4700 4 100 10:54 12.12.2020
4941 Snow -3 1016 92 6000 5 100 09:49 12.12.2020
4942 Snow -4 1016 85 9000 6 100 08:57 12.12.2020
4943 Clouds -2 1017 92 9000 6 100 03:31 12.12.2020
4944 Clouds -3 1017 92 9000 5 110 23:58 11.12.2020
4945 Clouds -3 1018 92 10000 6 110 22:39 11.12.2020
4946 Clear -3 1018 86 10000 6 110 20:50 11.12.2020
4947 Clear -3 1018 86 10000 6 100 18:46 11.12.2020
4948 Clouds -3 1019 92 9000 6 100 16:34 11.12.2020
4949 Clouds -3 1018 92 9000 7 100 14:18 11.12.2020
4950 Clouds -3 1019 92 9000 5 90 13:25 11.12.2020
4951 Clouds -2 1019 86 9000 5 100 12:20 11.12.2020
4952 Clouds -2 1019 86 9000 6 100 11:52 11.12.2020
4953 Clouds -2 1019 86 9000 6 100 10:55 11.12.2020
4954 Clouds -2 1020 86 10000 7 100 09:41 11.12.2020
4955 Clouds 0 1019 97 10000 6 110 05:59 11.12.2020
4956 Rain 0 1019 94 9000 5 110 05:18 11.12.2020
4957 Rain 0 1019 96 6000 6 110 02:28 11.12.2020
4958 Rain 0 1020 96 4600 5 110 00:31 11.12.2020
4959 Snow -1 1020 100 4700 6 110 22:55 10.12.2020
4960 Mist -1 1020 92 5000 7 110 21:36 10.12.2020
4961 Rain -2 1020 100 5000 7 110 20:46 10.12.2020
4962 Rain -2 1020 92 5000 8 110 19:46 10.12.2020
4963 Rain -3 1020 100 5000 7 110 19:20 10.12.2020
4964 Rain -3 1020 92 5000 8 110 18:24 10.12.2020
4965 Mist -3 1020 92 5000 8 110 16:40 10.12.2020
4966 Mist -3 1021 92 4300 7 110 15:44 10.12.2020
4967 Mist -4 1021 92 4100 7 100 14:58 10.12.2020
4968 Snow -4 1021 92 4100 7 100 14:37 10.12.2020
4969 Snow -4 1022 79 9000 5 110 13:20 10.12.2020
4970 Clouds -4 1022 79 10000 5 100 11:41 10.12.2020
4971 Clouds -5 1023 79 10000 5 100 09:21 10.12.2020
4972 Clouds -6 1023 85 10000 5 90 07:59 10.12.2020
4973 Clouds -7 1023 79 10000 3 100 06:46 10.12.2020
4974 Clear -7 1025 79 10000 4 100 03:40 10.12.2020
4975 Clear -7 1025 79 10000 4 90 02:24 10.12.2020
4976 Clouds -6 1026 67 10000 4 100 00:23 10.12.2020
4977 Clouds -5 1026 68 10000 4 110 22:48 09.12.2020
4978 Clouds -4 1026 79 10000 3 110 20:30 09.12.2020
4979 Clouds -3 1027 79 10000 3 110 19:32 09.12.2020
4980 Clouds -4 1027 85 10000 5 120 17:44 09.12.2020
4981 Clouds -4 1027 79 10000 5 100 16:52 09.12.2020
4982 Clouds -4 1026 79 10000 5 110 16:22 09.12.2020
4983 Clouds -4 1026 79 9000 5 110 15:30 09.12.2020
4984 Clouds -4 1026 79 10000 5 110 14:27 09.12.2020
4985 Clouds -4 1026 79 10000 5 110 13:58 09.12.2020
4986 Clouds -4 1026 85 10000 5 110 13:19 09.12.2020
4987 Clouds -4 1026 79 9000 5 110 12:44 09.12.2020
4988 Snow -4 1027 85 9000 5 110 11:51 09.12.2020
4989 Snow -4 1027 85 4500 5 100 10:48 09.12.2020
4990 Snow -5 1027 85 6000 4 110 08:49 09.12.2020
4991 Clouds -5 1027 73 10000 5 100 07:43 09.12.2020
4992 Clouds -5 1026 67 10000 4 100 05:53 09.12.2020
4993 Clouds -6 1026 73 10000 4 90 03:29 09.12.2020
4994 Clear -7 1027 73 10000 4 90 01:52 09.12.2020
4995 Clear -7 1027 73 10000 4 100 23:43 08.12.2020
4996 Clear -7 1027 73 10000 4 90 22:56 08.12.2020
4997 Clear -6 1027 67 10000 4 100 21:22 08.12.2020
4998 Clouds -7 1028 79 10000 3 80 19:34 08.12.2020
4999 Clouds -6 1028 79 10000 3 80 18:59 08.12.2020
5000 Clouds -6 1028 79 10000 4 100 17:55 08.12.2020
5001 Clouds -6 1027 79 9000 4 100 15:45 08.12.2020
5002 Clouds -6 1027 73 10000 6 110 14:28 08.12.2020
5003 Snow -6 1027 73 9000 6 110 13:29 08.12.2020
5004 Snow -6 1027 79 6000 5 110 12:27 08.12.2020
5005 Snow -7 1028 79 4900 5 110 11:50 08.12.2020
5006 Snow -7 1028 85 7000 6 100 10:45 08.12.2020
5007 Snow -7 1028 78 4800 6 100 10:19 08.12.2020
5008 Snow -9 1028 85 5000 5 100 08:28 08.12.2020
5009 Clouds -8 1028 85 10000 6 100 06:52 08.12.2020
5010 Clouds -8 1028 85 10000 6 100 06:52 08.12.2020
5011 Snow -8 1028 78 10000 6 110 03:34 08.12.2020
5012 Clouds -8 1029 78 10000 7 100 00:47 08.12.2020
5013 Clouds -8 1029 78 10000 6 100 23:52 07.12.2020
5014 Clear -7 1030 73 10000 6 100 22:38 07.12.2020
5015 Clear -7 1030 73 10000 6 100 21:51 07.12.2020
5016 Clear -7 1030 67 10000 5 110 19:55 07.12.2020
5017 Clear -6 1030 67 10000 5 100 18:42 07.12.2020
5018 Clear -6 1030 67 10000 6 100 17:26 07.12.2020
5019 Clear -7 1030 67 10000 7 100 16:54 07.12.2020
5020 Clear -6 1030 67 10000 7 110 15:26 07.12.2020
5021 Clear -6 1030 62 10000 7 100 14:48 07.12.2020
5022 Clear -5 1030 62 10000 7 100 13:54 07.12.2020
5023 Clear -5 1030 62 10000 6 110 13:20 07.12.2020
5024 Clear -5 1031 67 10000 6 100 11:43 07.12.2020
5025 Clear -5 1031 67 10000 7 110 11:18 07.12.2020
5026 Clear -6 1032 67 10000 6 100 09:42 07.12.2020
5027 Clear -8 1032 78 10000 7 110 08:21 07.12.2020
5028 Clear -9 1032 78 10000 7 110 06:29 07.12.2020
5029 Clear -9 1032 78 10000 6 100 04:48 07.12.2020
5030 Clear -8 1032 85 10000 7 100 01:55 07.12.2020
5031 Clear -6 1032 79 10000 5 100 23:50 06.12.2020
5032 Clear -5 1032 73 10000 6 110 22:24 06.12.2020
5033 Clear -5 1032 73 10000 5 100 20:54 06.12.2020
5034 Clear -5 1032 73 10000 5 100 20:34 06.12.2020
5035 Clear -5 1032 67 10000 5 110 19:54 06.12.2020
5036 Clear -5 1032 62 10000 5 100 18:21 06.12.2020
5037 Clear -5 1032 58 10000 5 100 16:47 06.12.2020
5038 Clear -3 1032 53 10000 6 100 14:57 06.12.2020
5039 Clear -2 1032 58 10000 4 100 13:42 06.12.2020
5040 Clear -2 1033 68 10000 5 100 12:42 06.12.2020
5041 Clear -3 1033 68 10000 4 110 11:58 06.12.2020
5042 Clear -3 1033 68 10000 5 100 11:34 06.12.2020
5043 Clear -3 1033 73 10000 5 110 10:45 06.12.2020
5044 Clear -4 1033 79 10000 4 110 09:49 06.12.2020
5045 Clear -6 1033 79 10000 5 100 08:29 06.12.2020
5046 Clear -6 1033 85 10000 4 100 06:37 06.12.2020
5047 Clouds -3 1032 95 10000 0.45 145 00:58 06.12.2020
5048 Clouds -3 1032 92 10000 4 100 00:39 06.12.2020
5049 Clouds -2 1032 92 9000 4 110 00:21 06.12.2020
5050 Mist -1 1031 94 5000 4 120 22:43 05.12.2020
5051 Mist -1 1031 95 4300 3 120 22:20 05.12.2020
5052 Mist 0 1031 95 4900 4 140 21:47 05.12.2020
5053 Mist 0 1031 96 5000 5 130 21:23 05.12.2020
5054 Mist -1 1030 100 1800 4 120 19:21 05.12.2020
5055 Mist -1 1030 100 1900 4 110 18:39 05.12.2020
5056 Mist -1 1030 92 3200 5 110 17:20 05.12.2020
5057 Mist -1 1030 92 3500 4 120 16:29 05.12.2020
5058 Mist -1 1030 100 2100 5 100 15:37 05.12.2020
5059 Fog -1 1029 100 1000 5 100 14:24 05.12.2020
5060 Fog 0 1028 95 350 4 120 11:51 05.12.2020
5061 Fog 0 1028 95 350 4 120 11:30 05.12.2020
5062 Fog 0 1029 97 400 5 120 10:29 05.12.2020
5063 Fog -1 1027 97 550 5 120 07:48 05.12.2020
5064 Fog -1 1027 97 700 4 110 06:22 05.12.2020
5065 Fog 0 1027 97 700 4 140 03:39 05.12.2020
5066 Mist 0 1026 96 2700 4 140 23:48 04.12.2020
5067 Mist 0 1026 96 3200 4 130 21:59 04.12.2020
5068 Mist 0 1025 95 3100 5 120 20:19 04.12.2020
5069 Mist 0 1025 94 1400 5 120 18:52 04.12.2020
5070 Mist 0 1024 93 1300 4 120 18:18 04.12.2020
5071 Fog 0 1024 91 700 4 110 17:24 04.12.2020
5072 Fog 0 1024 91 500 5 100 15:35 04.12.2020
5073 Fog 1 1024 100 900 4 120 13:39 04.12.2020
5074 Fog 1 1024 100 900 4 120 13:21 04.12.2020
5075 Mist 1 1024 100 1400 3 130 12:47 04.12.2020
5076 Mist 1 1024 100 2800 4 140 10:39 04.12.2020
5077 Mist 1 1024 100 3000 4 130 09:41 04.12.2020
5078 Fog 0 1023 92 500 4 110 06:41 04.12.2020
5079 Fog 0 1023 92 500 5 110 05:40 04.12.2020
5080 Fog -1 1024 100 500 3 110 01:54 04.12.2020
5081 Fog -1 1024 100 800 4 110 22:52 03.12.2020
5082 Fog -1 1025 100 750 4 100 22:22 03.12.2020
5083 Fog -1 1024 92 800 4 110 20:48 03.12.2020
5084 Mist -1 1025 92 1000 5 110 19:27 03.12.2020
5085 Mist -1 1024 92 1300 5 100 18:49 03.12.2020
5086 Mist -1 1025 92 3500 3 100 17:38 03.12.2020
5087 Mist -1 1025 92 3500 3 100 17:18 03.12.2020
5088 Mist -1 1025 100 4000 4 110 15:45 03.12.2020
5089 Mist -1 1025 100 4000 4 110 15:27 03.12.2020
5090 Clouds 0 1025 97 7000 2 130 14:26 03.12.2020
5091 Mist 0 1025 97 5000 2 130 13:36 03.12.2020
5092 Snow -1 1025 92 3400 3 130 12:26 03.12.2020
5093 Mist -1 1026 92 3000 2 120 11:24 03.12.2020
5094 Mist -1 1026 100 2300 2 120 09:33 03.12.2020
5095 Mist -1 1026 100 1700 3 110 05:23 03.12.2020
5096 Mist -1 1026 100 4100 3 120 02:27 03.12.2020
5097 Clouds -1 1027 100 6000 3 130 00:48 03.12.2020
5098 Snow 0 1027 98 7000 3 140 22:47 02.12.2020
5099 Clouds 0 1026 98 6000 3 130 22:26 02.12.2020
5100 Snow 0 1026 98 6000 2 130 20:57 02.12.2020
5101 Clouds 0 1026 98 7000 2 140 20:39 02.12.2020
5102 Clouds 0 1026 98 6000 2 140 20:21 02.12.2020
5103 Clouds 0 1026 98 7000 1 0 18:33 02.12.2020
5104 Clouds 0 1026 98 7000 1 0 17:38 02.12.2020
5105 Clouds 0 1026 98 7000 1 0 17:19 02.12.2020
5106 Clouds 0 1026 97 6000 2 120 15:18 02.12.2020
5107 Clouds 0 1026 100 8000 2 110 11:52 02.12.2020
5108 Mist -1 1026 92 5000 2 100 10:28 02.12.2020
5109 Mist -1 1026 100 3500 3 90 08:40 02.12.2020
5110 Mist 0 1026 99 5000 4 70 04:25 02.12.2020
5111 Mist 0 1026 99 5000 4 70 04:25 02.12.2020
5112 Snow 0 1027 99 7000 4 40 22:21 01.12.2020
5113 Snow 0 1026 99 6000 4 30 21:36 01.12.2020
5114 Snow 0 1026 100 6000 4 40 19:35 01.12.2020
5115 Snow 0 1026 100 5000 4 30 17:52 01.12.2020
5116 Snow 0 1026 100 10000 4 30 16:35 01.12.2020
5117 Mist 0 1026 97 4200 5 20 13:38 01.12.2020
5118 Snow 0 1027 97 3400 6 20 12:25 01.12.2020
5119 Snow 0 1027 95 9000 5 40 11:26 01.12.2020
5120 Snow 0 1027 95 9000 5 30 10:38 01.12.2020
5121 Clouds -1 1027 92 10000 3 30 08:21 01.12.2020
5122 Clear -1 1027 92 10000 3 30 06:48 01.12.2020
5123 Clouds 0 1026 94 10000 3 30 01:53 01.12.2020
5124 Clouds 0 1026 94 10000 2 20 00:56 01.12.2020
5125 Clouds 0 1027 93 10000 3 10 23:21 30.11.2020
5126 Clouds 0 1026 93 10000 2 360 22:44 30.11.2020
5127 Clouds 0 1027 88 10000 0.45 0 22:25 30.11.2020
5128 Clouds 0 1026 92 10000 2 80 20:48 30.11.2020
5129 Clouds 1 1026 92 10000 2 20 19:42 30.11.2020
5130 Clouds 0 1026 90 10000 2 330 18:24 30.11.2020
5131 Clouds 0 1026 90 9000 2 320 17:47 30.11.2020
5132 Clouds 0 1026 80 7000 1 0 16:55 30.11.2020
5133 Clouds 0 1026 89 9000 1 0 15:59 30.11.2020
5134 Clear 1 1026 69 10000 1 0 14:47 30.11.2020
5135 Clouds 1 1025 80 10000 1 260 13:52 30.11.2020
5136 Clear 1 1026 80 10000 2 270 12:26 30.11.2020
5137 Clear 1 1026 80 10000 1 0 11:58 30.11.2020
5138 Clear 1 1026 80 10000 1 0 11:58 30.11.2020
5139 Clear -1 1026 92 8000 1 0 10:26 30.11.2020
5140 Clear -1 1026 92 6000 1.84 281 10:26 30.11.2020
5141 Clear -2 1026 100 6000 1.84 281 09:49 30.11.2020
5142 Clear -3 1025 92 7000 1.51 249 07:18 30.11.2020
5143 Clear -2 1023 85 10000 1.45 231 00:41 30.11.2020
5144 Clouds 0 1022 92 10000 2 240 21:52 29.11.2020
5145 Clouds 0 1022 91 10000 2 220 21:31 29.11.2020
5146 Clouds 0 1021 90 10000 3 220 19:54 29.11.2020
5147 Clouds 0 1020 84 10000 2 200 17:47 29.11.2020
5148 Clouds 1 1020 80 10000 2 230 16:24 29.11.2020
5149 Clouds 1 1019 77 9000 3 240 13:23 29.11.2020
5150 Clouds 1 1019 79 7000 4 260 11:41 29.11.2020
5151 Mist 2 1018 86 4300 3 270 10:22 29.11.2020
5152 Mist -1 1018 100 2300 1.31 236 08:38 29.11.2020
5153 Fog -2 1017 100 650 1 250 05:19 29.11.2020
5154 Mist 0 1017 100 4300 2 230 23:48 28.11.2020
5155 Mist 0 1017 92 3600 2 220 22:56 28.11.2020
5156 Clouds 1 1017 88 6000 2 250 20:47 28.11.2020
5157 Clouds 2 1017 87 7000 1 0 19:47 28.11.2020
5158 Clouds 2 1017 86 8000 1 0 19:21 28.11.2020
5159 Clouds 3 1017 81 8000 1 0 18:27 28.11.2020
5160 Clouds 3 1017 86 8000 1 270 17:41 28.11.2020
5161 Clouds 3 1017 86 9000 2 280 16:40 28.11.2020
5162 Clouds 3 1017 86 6000 1 280 14:52 28.11.2020
5163 Clouds 3 1017 86 7000 2 250 11:31 28.11.2020
5164 Clouds 3 1017 86 6000 2 270 10:28 28.11.2020
5165 Clouds 2 1016 93 6000 2 240 06:26 28.11.2020
5166 Clouds 2 1017 100 6000 3 260 03:26 28.11.2020
5167 Rain 2 1017 100 5000 3 240 00:49 28.11.2020
5168 Rain 3 1017 93 6000 4 260 22:55 27.11.2020
5169 Clouds 3 1017 86 8000 5 260 21:27 27.11.2020
5170 Clouds 3 1017 86 8000 4 250 20:30 27.11.2020
5171 Clouds 3 1017 86 7000 4 250 19:25 27.11.2020
5172 Clouds 3 1016 93 7000 4 260 17:50 27.11.2020
5173 Clouds 3 1016 93 6000 5 260 14:46 27.11.2020
5174 Clouds 3 1016 93 6000 5 250 13:24 27.11.2020
5175 Clouds 3 1016 86 7000 5 230 12:47 27.11.2020
5176 Mist 2 1016 93 4500 5 230 11:35 27.11.2020
5177 Clouds 2 1017 75 6000 5 240 10:50 27.11.2020
5178 Mist 1 1017 78 5000 4 240 09:53 27.11.2020
5179 Clear 0 1017 100 6000 3 230 05:47 27.11.2020
5180 Clouds 3 1020 94 10000 0.45 230 22:27 26.11.2020
5181 Mist 2 1020 100 5000 4 210 21:56 26.11.2020
5182 Mist 3 1020 93 5000 4 210 20:52 26.11.2020
5183 Clouds 4 1021 93 10000 3 220 18:41 26.11.2020
5184 Clouds 5 1021 81 10000 5 230 17:50 26.11.2020
5185 Clouds 7 1021 81 10000 3 230 14:49 26.11.2020
5186 Clouds 7 1022 81 10000 3 230 13:20 26.11.2020
5187 Clouds 7 1022 81 10000 3 240 12:42 26.11.2020
5188 Clouds 6 1022 87 10000 3 230 11:35 26.11.2020
5189 Clouds 6 1023 87 9000 2 240 10:27 26.11.2020
5190 Clouds 6 1023 86 9000 2 240 09:41 26.11.2020
5191 Clouds 5 1023 93 9000 2 240 09:21 26.11.2020
5192 Clouds 5 1023 86 9000 2 240 08:38 26.11.2020
5193 Clouds 5 1023 93 10000 2 260 02:19 26.11.2020
5194 Clouds 6 1022 81 10000 3 300 22:32 25.11.2020
5195 Clouds 6 1022 87 10000 3 320 20:38 25.11.2020
5196 Clouds 6 1021 87 10000 4 300 19:29 25.11.2020
5197 Clouds 7 1021 81 10000 5 320 18:23 25.11.2020
5198 Clouds 7 1020 75 10000 5 300 15:56 25.11.2020
5199 Clouds 7 1020 75 10000 5 300 15:35 25.11.2020
5200 Clouds 7 1019 75 10000 6 290 13:47 25.11.2020
5201 Clouds 7 1019 75 10000 6 290 13:29 25.11.2020
5202 Clouds 7 1019 75 10000 7 280 11:27 25.11.2020
5203 Clouds 5 1020 80 10000 7 270 09:23 25.11.2020
5204 Clouds 5 1020 80 10000 6 270 08:51 25.11.2020
5205 Clouds 5 1020 80 10000 6 270 08:29 25.11.2020
5206 Clouds 4 1020 86 10000 4 260 03:58 25.11.2020
5207 Clouds 4 1021 86 10000 4 270 01:51 25.11.2020
5208 Clear 4 1021 86 10000 4 260 00:22 25.11.2020
5209 Clear 4 1021 86 10000 4 260 23:36 24.11.2020
5210 Clear 4 1021 86 10000 4 260 22:57 24.11.2020
5211 Clear 4 1021 86 10000 4 260 21:51 24.11.2020
5212 Clear 4 1021 86 10000 4 270 21:28 24.11.2020
5213 Clouds 4 1021 86 10000 5 280 20:19 24.11.2020
5214 Clouds 4 1022 80 10000 5 270 18:39 24.11.2020
5215 Clear 4 1021 74 10000 5 270 17:29 24.11.2020
5216 Clear 5 1021 67 10000 5 290 16:38 24.11.2020
5217 Clouds 6 1021 67 10000 6 300 15:58 24.11.2020
5218 Clouds 6 1021 67 10000 6 300 15:40 24.11.2020
5219 Clouds 6 1021 67 10000 6 290 15:18 24.11.2020
5220 Clouds 7 1021 66 10000 7 290 14:33 24.11.2020
5221 Clouds 7 1020 70 10000 7 290 12:44 24.11.2020
5222 Clouds 7 1020 70 10000 8 300 12:21 24.11.2020
5223 Clouds 7 1020 70 10000 8 300 11:37 24.11.2020
5224 Clouds 6 1020 81 10000 9 300 10:39 24.11.2020
5225 Clouds 6 1020 81 10000 8 300 10:19 24.11.2020
5226 Clouds 5 1020 86 10000 7 290 09:35 24.11.2020
5227 Clouds 4 1019 93 9000 5 280 07:37 24.11.2020
5228 Clouds 4 1018 86 10000 6 270 04:19 24.11.2020
5229 Clouds 5 1018 80 10000 5 250 22:29 23.11.2020
5230 Clear 5 1019 80 10000 5 260 21:36 23.11.2020
5231 Clear 4 1018 86 10000 4 240 20:50 23.11.2020
5232 Clouds 5 1019 80 10000 5 260 20:21 23.11.2020
5233 Clouds 5 1019 75 10000 4 240 18:48 23.11.2020
5234 Clear 5 1019 75 10000 4 250 17:25 23.11.2020
5235 Clouds 5 1020 75 10000 3 240 16:22 23.11.2020
5236 Clouds 6 1020 70 10000 4 250 14:47 23.11.2020
5237 Clouds 6 1020 67 10000 5 270 13:19 23.11.2020
5238 Clouds 7 1020 70 10000 5 270 12:36 23.11.2020
5239 Clouds 6 1021 75 10000 4 260 11:48 23.11.2020
5240 Clouds 6 1021 75 10000 4 260 11:48 23.11.2020
5241 Clear 5 1021 75 10000 6 270 10:50 23.11.2020
5242 Clear 4 1022 78 10000 7 270 09:31 23.11.2020
5243 Clear 4 1021 78 10000 5 270 08:47 23.11.2020
5244 Clear 3 1021 80 10000 5 260 07:27 23.11.2020
5245 Rain 3 1019 74 10000 8 260 00:34 23.11.2020
5246 Clouds 4 1019 60 10000 5 240 23:35 22.11.2020
5247 Clear 4 1020 60 10000 6 240 22:18 22.11.2020
5248 Clouds 3 1021 64 10000 5 240 20:53 22.11.2020
5249 Clear 3 1021 69 10000 5 230 19:53 22.11.2020
5250 Clouds 3 1022 69 10000 5 240 18:40 22.11.2020
5251 Clouds 2 1023 74 10000 5 230 16:54 22.11.2020
5252 Clear 2 1023 69 10000 5 220 15:51 22.11.2020
5253 Clear 2 1024 69 10000 6 230 14:34 22.11.2020
5254 Clear 2 1025 74 10000 5 220 12:50 22.11.2020
5255 Clear 2 1026 69 10000 6 220 11:57 22.11.2020
5256 Clear 1 1026 74 10000 5 240 11:20 22.11.2020
5257 Clouds 2 1027 80 10000 6 240 10:45 22.11.2020
5258 Clouds 0 1028 89 10000 4 230 09:32 22.11.2020
5259 Clouds 0 1031 96 10000 3 320 01:48 22.11.2020
5260 Clouds 0 1031 96 10000 3 330 23:40 21.11.2020
5261 Clouds 0 1031 96 10000 4 330 22:18 21.11.2020
5262 Clouds 0 1031 96 10000 4 310 21:30 21.11.2020
5263 Clouds 0 1031 95 10000 4 300 20:35 21.11.2020
5264 Clouds 0 1031 95 10000 3 310 19:54 21.11.2020
5265 Clouds 0 1031 93 10000 3 310 19:33 21.11.2020
5266 Clouds 0 1031 90 10000 3 310 18:27 21.11.2020
5267 Snow 0 1031 88 10000 4 330 16:49 21.11.2020
5268 Snow 0 1031 88 10000 4 330 16:49 21.11.2020
5269 Clouds 0 1031 86 10000 4 320 16:26 21.11.2020
5270 Clouds 0 1031 82 10000 5 340 15:22 21.11.2020
5271 Clouds 0 1031 82 10000 5 330 14:43 21.11.2020
5272 Clouds 0 1031 76 10000 5 320 14:20 21.11.2020
5273 Clouds 0 1031 76 10000 5 320 14:20 21.11.2020
5274 Clouds 0 1030 73 7000 5 320 12:28 21.11.2020
5275 Clouds 0 1030 73 8000 4 300 11:58 21.11.2020
5276 Clouds 1 1030 76 9000 4 320 10:40 21.11.2020
5277 Clouds 2 1029 79 8000 4 310 09:58 21.11.2020
5278 Clouds 1 1029 84 10000 4 320 08:51 21.11.2020
5279 Clouds 2 1027 100 10000 3 340 06:34 21.11.2020
5280 Clouds 2 1026 93 10000 3 30 04:33 21.11.2020
5281 Rain 2 1024 100 10000 3 350 00:45 21.11.2020
5282 Rain 2 1024 93 10000 3 360 23:44 20.11.2020
5283 Rain 2 1023 93 9000 5 10 22:25 20.11.2020
5284 Rain 2 1022 93 10000 4 10 21:38 20.11.2020
5285 Rain 2 1022 93 10000 6 10 21:20 20.11.2020
5286 Rain 2 1021 100 6000 2 310 19:44 20.11.2020
5287 Rain 1 1021 100 5000 1 240 18:37 20.11.2020
5288 Rain 1 1021 100 4600 1 0 17:51 20.11.2020
5289 Rain 1 1021 100 3500 1 0 17:24 20.11.2020
5290 Mist 1 1020 100 4100 2 200 16:38 20.11.2020
5291 Rain 1 1020 100 3500 2 200 15:56 20.11.2020
5292 Rain 1 1020 100 4900 3 200 14:58 20.11.2020
5293 Rain 1 1020 100 7000 3 200 13:44 20.11.2020
5294 Rain 1 1020 100 8000 3 210 13:18 20.11.2020
5295 Mist 1 1020 100 5000 3 210 12:33 20.11.2020
5296 Drizzle 1 1020 100 1700 5 200 11:43 20.11.2020
5297 Drizzle 1 1021 100 2600 4 200 10:45 20.11.2020
5298 Clouds 1 1021 87 9000 3 210 08:53 20.11.2020
5299 Clouds 0 1021 92 9000 4 190 08:24 20.11.2020
5300 Mist -1 1021 100 4900 3 190 05:43 20.11.2020
5301 Mist -1 1021 100 5000 3 190 03:43 20.11.2020
5302 Mist -1 1023 100 4400 4 190 22:35 19.11.2020
5303 Mist -1 1024 92 4500 4 190 21:55 19.11.2020
5304 Clouds -1 1024 100 7000 4 190 21:19 19.11.2020
5305 Clouds -1 1024 100 10000 4 180 20:31 19.11.2020
5306 Clouds -1 1024 100 9000 4 180 19:45 19.11.2020
5307 Clouds -1 1025 86 10000 5 180 19:22 19.11.2020
5308 Clouds 0 1026 85 9000 5 190 17:39 19.11.2020
5309 Clouds 0 1026 83 9000 4 190 16:48 19.11.2020
5310 Clouds 1 1027 78 9000 4 190 15:31 19.11.2020
5311 Clouds 1 1027 74 8000 5 180 14:31 19.11.2020
5312 Clouds 1 1028 74 6000 4 170 13:44 19.11.2020
5313 Clouds 1 1028 72 7000 4 170 12:57 19.11.2020
5314 Clouds 1 1029 71 6000 4 180 12:34 19.11.2020
5315 Clouds 1 1030 71 6000 3 170 11:42 19.11.2020
5316 Clouds 1 1030 86 7000 4 160 11:22 19.11.2020
5317 Clouds 1 1031 86 7000 3 180 10:51 19.11.2020
5318 Clouds 0 1031 77 9000 3 160 09:54 19.11.2020
5319 Clouds 0 1031 83 9000 3 160 09:36 19.11.2020
5320 Clouds 0 1032 83 9000 3 150 09:18 19.11.2020
5321 Clouds 0 1032 89 7000 3 160 07:59 19.11.2020
5322 Clouds 0 1034 96 6000 2 180 01:50 19.11.2020
5323 Clouds 0 1034 94 6000 2 190 00:33 19.11.2020
5324 Mist 0 1034 94 5000 2 180 23:47 18.11.2020
5325 Clouds -1 1035 100 6000 2 180 23:24 18.11.2020
5326 Mist -1 1035 100 5000 2 170 22:30 18.11.2020
5327 Mist -1 1035 100 5000 2 170 22:30 18.11.2020
5328 Mist -1 1035 92 5000 2 170 21:45 18.11.2020
5329 Mist -1 1035 92 5000 2 170 21:26 18.11.2020
5330 Clouds -1 1035 92 6000 2 180 20:40 18.11.2020
5331 Mist -1 1035 92 5000 2 170 19:44 18.11.2020
5332 Clouds -1 1035 92 6000 3 160 19:24 18.11.2020
5333 Clouds -1 1036 92 6000 3 160 18:45 18.11.2020
5334 Mist -1 1036 92 5000 2 160 17:45 18.11.2020
5335 Clouds -1 1036 92 6000 2 160 16:54 18.11.2020
5336 Clouds -1 1036 92 6000 2 150 16:19 18.11.2020
5337 Clouds -1 1035 92 7000 2 170 14:42 18.11.2020
5338 Clouds -1 1035 92 7000 3 160 14:23 18.11.2020
5339 Clouds 0 1035 88 8000 2 160 13:26 18.11.2020
5340 Clouds 0 1035 92 9000 2 150 12:44 18.11.2020
5341 Clouds -1 1035 86 9000 3 170 11:57 18.11.2020
5342 Clouds -1 1035 92 9000 3 150 10:58 18.11.2020
5343 Clouds -1 1036 92 9000 3 150 10:30 18.11.2020
5344 Clouds -1 1035 86 10000 2 140 08:43 18.11.2020
5345 Clouds -2 1035 92 10000 4 140 07:28 18.11.2020
5346 Snow -2 1034 92 6000 3 140 04:47 18.11.2020
5347 Snow -1 1033 92 5000 3 140 00:21 18.11.2020
5348 Snow -1 1033 92 4500 3 140 23:25 17.11.2020
5349 Snow -1 1033 92 4800 3 140 22:44 17.11.2020
5350 Snow -1 1033 92 3800 3 130 22:26 17.11.2020
5351 Snow -1 1033 92 3400 3 130 21:47 17.11.2020
5352 Snow -1 1033 92 3400 3 130 21:23 17.11.2020
5353 Snow -1 1033 92 4500 3 130 20:43 17.11.2020
5354 Snow -1 1033 92 2800 2 120 20:23 17.11.2020
5355 Snow -1 1032 92 3700 3 120 19:24 17.11.2020
5356 Snow -2 1032 100 4000 3 110 18:23 17.11.2020
5357 Snow -2 1032 92 4500 3 120 17:27 17.11.2020
5358 Snow -1 1032 92 5000 3 120 16:33 17.11.2020
5359 Snow -2 1032 92 3700 3 120 15:53 17.11.2020
5360 Snow -2 1032 92 3700 3 120 15:34 17.11.2020
5361 Snow -2 1031 92 7000 4 110 14:58 17.11.2020
5362 Clouds -1 1031 92 5000 3 130 14:29 17.11.2020
5363 Clouds -1 1031 92 5000 3 130 14:29 17.11.2020
5364 Clouds -1 1031 92 9000 4 130 13:42 17.11.2020
5365 Clouds -1 1032 86 10000 3 110 13:20 17.11.2020
5366 Clouds -1 1031 86 10000 3 110 12:41 17.11.2020
5367 Clouds -2 1031 86 10000 4 120 11:44 17.11.2020
5368 Clouds -2 1032 86 10000 3 130 10:56 17.11.2020
5369 Clouds -2 1032 86 10000 3 130 10:29 17.11.2020
5370 Clouds -2 1031 86 10000 3 130 09:51 17.11.2020
5371 Clouds -2 1031 86 10000 4 120 09:29 17.11.2020
5372 Clouds -3 1031 86 10000 4 110 08:23 17.11.2020
5373 Clouds -3 1030 86 10000 5 110 07:46 17.11.2020
5374 Clouds -3 1030 86 10000 5 110 06:40 17.11.2020
5375 Clouds -3 1030 92 10000 5 110 03:48 17.11.2020
5376 Clouds -3 1030 92 10000 4 110 02:53 17.11.2020
5377 Clouds -2 1029 92 10000 5 100 01:25 17.11.2020
5378 Clouds -2 1029 92 10000 5 100 00:53 17.11.2020
5379 Clouds -2 1029 100 6000 4 120 23:48 16.11.2020
5380 Clouds -2 1029 92 6000 4 110 23:29 16.11.2020
5381 Clouds -1 1028 92 8000 5 110 22:43 16.11.2020
5382 Clouds -1 1028 100 7000 4 110 22:20 16.11.2020
5383 Clouds -1 1028 100 6000 5 100 21:45 16.11.2020
5384 Clouds -1 1028 91 7000 5 110 21:24 16.11.2020
5385 Clouds 0 1027 91 7000 5 100 20:37 16.11.2020
5386 Clouds 0 1027 92 9000 5 110 20:19 16.11.2020
5387 Clouds 0 1027 92 9000 5 110 19:38 16.11.2020
5388 Clouds 0 1027 92 9000 5 100 19:19 16.11.2020
5389 Clouds 0 1027 87 9000 5 110 18:31 16.11.2020
5390 Clouds 0 1027 87 7000 4 100 17:47 16.11.2020
5391 Clouds 0 1027 84 7000 5 100 17:21 16.11.2020
5392 Mist 0 1026 84 5000 5 100 16:53 16.11.2020
5393 Mist 0 1026 81 5000 4 100 16:28 16.11.2020
5394 Mist 0 1026 81 3700 5 100 15:51 16.11.2020
5395 Mist 0 1026 79 3700 5 100 15:29 16.11.2020
5396 Mist 0 1026 79 3700 5 100 15:29 16.11.2020
5397 Mist 0 1026 79 3600 5 90 14:55 16.11.2020
5398 Mist 0 1026 75 2700 5 100 14:28 16.11.2020
5399 Mist 0 1026 75 2000 5 100 13:30 16.11.2020
5400 Mist 0 1026 75 2200 5 110 12:33 16.11.2020
5401 Mist 1 1025 100 2500 5 100 11:43 16.11.2020
5402 Mist 1 1025 100 1600 5 100 11:24 16.11.2020
5403 Mist 1 1025 100 1400 5 100 10:46 16.11.2020
5404 Mist 1 1025 100 1200 5 100 10:26 16.11.2020
5405 Mist 1 1025 100 1200 5 100 09:53 16.11.2020
5406 Fog 2 1025 100 650 5 100 09:34 16.11.2020
5407 Mist 2 1024 100 1300 6 110 08:48 16.11.2020
5408 Fog 1 1024 100 750 4 110 08:22 16.11.2020
5409 Fog 2 1024 100 550 4 110 07:29 16.11.2020
5410 Fog 2 1024 100 600 4 110 06:46 16.11.2020
5411 Fog 2 1023 100 550 4 110 05:48 16.11.2020
5412 Mist 4 1023 100 1600 2 70 03:54 16.11.2020
5413 Mist 4 1023 100 4500 2 70 01:45 16.11.2020
5414 Mist 4 1023 100 4500 2 50 00:33 16.11.2020
5415 Mist 4 1023 100 4600 3 10 23:32 15.11.2020
5416 Mist 4 1023 100 5000 2 40 22:58 15.11.2020
5417 Mist 4 1023 100 4700 2 40 22:25 15.11.2020
5418 Mist 4 1023 100 3500 2 20 21:56 15.11.2020
5419 Mist 4 1023 100 3300 3 360 21:36 15.11.2020
5420 Mist 5 1022 100 4300 3 10 20:58 15.11.2020
5421 Mist 5 1022 100 3300 2 10 20:39 15.11.2020
5422 Mist 5 1022 100 2600 3 20 19:57 15.11.2020
5423 Mist 5 1022 100 3300 3 10 19:38 15.11.2020
5424 Fog 5 1022 100 500 1.77 85 19:20 15.11.2020
5425 Fog 5 1022 100 350 1 0 18:45 15.11.2020
5426 Fog 5 1022 100 300 1.36 116 18:25 15.11.2020
5427 Fog 5 1022 100 300 1.36 116 17:57 15.11.2020
5428 Fog 5 1022 100 300 1.36 116 17:39 15.11.2020
5429 Fog 5 1022 100 400 0.81 132 17:19 15.11.2020
5430 Fog 5 1022 100 500 0.81 132 16:39 15.11.2020
5431 Fog 5 1022 100 750 1 220 16:18 15.11.2020
5432 Fog 5 1022 100 750 1 220 15:43 15.11.2020
5433 Mist 5 1022 100 1600 0.89 194 15:23 15.11.2020
5434 Mist 5 1022 100 2700 1 230 14:51 15.11.2020
5435 Mist 5 1022 100 2700 1 230 14:25 15.11.2020
5436 Mist 5 1022 100 2400 1.25 202 13:42 15.11.2020
5437 Mist 5 1022 100 1600 1 0 13:18 15.11.2020
5438 Mist 5 1022 100 1300 1 0 12:46 15.11.2020
5439 Mist 4 1022 100 1400 2 250 12:19 15.11.2020
5440 Mist 4 1022 100 2700 2 220 11:44 15.11.2020
5441 Mist 4 1022 100 3600 2 240 11:18 15.11.2020
5442 Mist 4 1022 100 3600 2 200 10:49 15.11.2020
5443 Mist 4 1022 100 3600 2 200 10:30 15.11.2020
5444 Rain 3 1022 100 5000 2 200 09:46 15.11.2020
5445 Mist 3 1022 100 4900 2 220 09:24 15.11.2020
5446 Mist 3 1023 100 4000 3 210 08:54 15.11.2020
5447 Mist 3 1023 100 4000 3 210 08:54 15.11.2020
5448 Mist 3 1023 100 4000 3 210 08:32 15.11.2020
5449 Mist 3 1023 100 3100 1 0 07:44 15.11.2020
5450 Mist 2 1022 100 4600 1 0 05:37 15.11.2020
5451 Mist 2 1022 100 4400 1 0 04:52 15.11.2020
5452 Clouds 4 1023 93 6000 2 230 01:37 15.11.2020
5453 Clouds 4 1024 93 7000 2 240 00:29 15.11.2020
5454 Clouds 4 1024 93 6000 2 230 23:42 14.11.2020
5455 Clouds 4 1024 93 6000 3 220 22:53 14.11.2020
5456 Clouds 4 1024 93 6000 3 220 22:33 14.11.2020
5457 Clouds 4 1024 93 6000 2 220 21:55 14.11.2020
5458 Clouds 4 1024 93 6000 3 210 21:36 14.11.2020
5459 Mist 4 1024 93 5000 3 220 21:18 14.11.2020
5460 Mist 4 1024 93 5000 3 210 20:34 14.11.2020
5461 Mist 4 1024 93 5000 3 210 19:58 14.11.2020
5462 Clouds 4 1024 93 6000 3 200 19:36 14.11.2020
5463 Clouds 4 1024 93 6000 3 200 19:36 14.11.2020
5464 Mist 4 1024 93 5000 3 210 18:55 14.11.2020
5465 Mist 4 1024 93 5000 3 210 18:37 14.11.2020
5466 Mist 4 1024 93 5000 3 210 18:19 14.11.2020
5467 Mist 4 1024 93 5000 3 200 17:42 14.11.2020
5468 Mist 4 1024 93 5000 2 190 17:23 14.11.2020
5469 Clouds 4 1024 93 6000 1 0 16:45 14.11.2020
5470 Mist 5 1024 86 5000 1 0 16:26 14.11.2020
5471 Mist 5 1024 93 5000 2 210 15:53 14.11.2020
5472 Clouds 5 1024 86 6000 2 170 15:30 14.11.2020
5473 Clouds 5 1024 86 6000 2 190 14:50 14.11.2020
5474 Clouds 5 1024 86 6000 2 190 14:26 14.11.2020
5475 Clouds 5 1024 86 6000 3 190 13:49 14.11.2020
5476 Clouds 5 1024 86 6000 3 190 13:27 14.11.2020
5477 Mist 5 1025 86 5000 3 220 12:48 14.11.2020
5478 Mist 5 1025 86 5000 3 220 12:30 14.11.2020
5479 Mist 4 1025 93 4300 3 220 11:48 14.11.2020
5480 Mist 4 1025 93 4300 3 220 11:30 14.11.2020
5481 Mist 4 1025 93 4200 3 210 10:50 14.11.2020
5482 Mist 4 1025 93 4200 3 210 10:27 14.11.2020
5483 Mist 4 1025 93 4200 3 210 10:27 14.11.2020
5484 Mist 4 1025 93 4200 3 220 09:56 14.11.2020
5485 Mist 4 1025 93 4200 3 220 09:38 14.11.2020
5486 Mist 3 1025 100 3700 3 200 09:19 14.11.2020
5487 Mist 3 1026 93 3700 3 220 08:39 14.11.2020
5488 Rain 2 1026 100 3800 3 210 07:52 14.11.2020
5489 Rain 2 1026 100 3800 3 210 07:31 14.11.2020
5490 Mist 2 1026 100 4600 2 190 06:36 14.11.2020
5491 Mist 2 1026 100 4800 2 190 05:52 14.11.2020
5492 Mist 2 1026 93 4800 2 170 04:22 14.11.2020
5493 Clouds 2 1027 71 6000 2 150 01:21 14.11.2020
5494 Clouds 3 1028 71 7000 2 150 23:49 13.11.2020
5495 Clouds 3 1028 71 7000 2 150 23:29 13.11.2020
5496 Clouds 3 1027 71 7000 2 160 22:55 13.11.2020
5497 Clouds 3 1027 71 7000 2 160 22:55 13.11.2020
5498 Clouds 3 1028 71 8000 2 160 22:29 13.11.2020
5499 Clouds 3 1028 71 8000 2 160 21:59 13.11.2020
5500 Clouds 3 1028 71 8000 2 150 21:41 13.11.2020
5501 Clouds 3 1028 71 9000 2 150 21:22 13.11.2020
5502 Clouds 3 1028 71 9000 3 150 20:44 13.11.2020
5503 Clouds 3 1028 71 9000 2 150 20:22 13.11.2020
5504 Clouds 3 1028 71 9000 3 140 19:46 13.11.2020
5505 Clouds 3 1029 71 10000 2 140 19:24 13.11.2020
5506 Clouds 3 1029 71 10000 2 140 18:58 13.11.2020
5507 Clouds 3 1029 70 10000 2 150 18:26 13.11.2020
5508 Clear 4 1029 69 10000 2 150 17:43 13.11.2020
5509 Clear 4 1029 69 10000 2 150 17:43 13.11.2020
5510 Clear 4 1029 69 10000 2 150 17:43 13.11.2020
5511 Clear 4 1029 69 10000 2 140 17:19 13.11.2020
5512 Clear 4 1029 69 10000 2 150 16:50 13.11.2020
5513 Clear 4 1029 69 10000 2 140 16:24 13.11.2020
5514 Clouds 4 1029 71 10000 1 0 15:52 13.11.2020
5515 Clouds 4 1029 71 10000 1 0 15:32 13.11.2020
5516 Clear 4 1029 69 10000 2 150 14:50 13.11.2020
5517 Clear 4 1029 69 10000 2 150 14:27 13.11.2020
5518 Clouds 4 1029 69 10000 2 160 13:53 13.11.2020
5519 Clouds 4 1029 69 10000 2 160 13:29 13.11.2020
5520 Clouds 4 1030 69 10000 2 150 12:51 13.11.2020
5521 Clouds 4 1030 69 10000 3 130 12:25 13.11.2020
5522 Clouds 4 1030 69 10000 3 130 11:52 13.11.2020
5523 Clouds 3 1030 72 10000 2 150 11:33 13.11.2020
5524 Clouds 3 1030 72 10000 2 150 10:59 13.11.2020
5525 Clouds 3 1030 74 10000 3 120 10:40 13.11.2020
5526 Clouds 3 1030 74 10000 3 130 10:22 13.11.2020
5527 Clouds 3 1030 75 10000 3 120 09:44 13.11.2020
5528 Clouds 3 1030 77 10000 3 130 09:24 13.11.2020
5529 Clouds 2 1030 77 10000 3 130 08:52 13.11.2020
5530 Clouds 2 1030 80 10000 2 120 08:21 13.11.2020
5531 Clouds 2 1030 80 10000 2 130 07:47 13.11.2020
5532 Clouds 2 1030 83 10000 2 130 07:26 13.11.2020
5533 Clouds 2 1030 80 10000 2 110 06:50 13.11.2020
5534 Clouds 2 1030 80 10000 2 130 06:19 13.11.2020
5535 Clouds 2 1030 80 10000 2 120 05:39 13.11.2020
5536 Clouds 2 1030 74 10000 2 110 02:22 13.11.2020
5537 Clouds 2 1031 69 10000 2 120 01:32 13.11.2020
5538 Clouds 2 1031 69 10000 2 130 00:33 13.11.2020
5539 Clouds 2 1031 74 10000 2 170 23:39 12.11.2020
5540 Clouds 2 1031 74 10000 2 170 23:19 12.11.2020
5541 Clouds 2 1031 74 10000 1 0 22:52 12.11.2020
5542 Clouds 2 1031 74 10000 1 0 22:33 12.11.2020
5543 Clouds 3 1031 69 10000 1 0 21:56 12.11.2020
5544 Clouds 3 1031 69 10000 2 180 21:37 12.11.2020
5545 Clouds 3 1031 69 10000 2 180 21:37 12.11.2020
5546 Clouds 3 1031 69 10000 1 0 21:18 12.11.2020
5547 Clouds 3 1031 74 10000 1 0 20:39 12.11.2020
5548 Clouds 3 1031 74 10000 2 180 20:21 12.11.2020
5549 Clouds 3 1031 74 10000 2 170 19:49 12.11.2020
5550 Clouds 3 1031 74 10000 2 180 19:31 12.11.2020
5551 Clouds 3 1031 69 10000 2 180 18:52 12.11.2020
5552 Clouds 3 1031 74 10000 2 170 18:24 12.11.2020
5553 Rain 3 1031 69 10000 1 0 17:55 12.11.2020
5554 Rain 4 1031 69 10000 1 0 17:30 12.11.2020
5555 Rain 4 1031 73 9000 1 0 16:58 12.11.2020
5556 Rain 4 1031 73 9000 1 0 16:39 12.11.2020
5557 Clouds 4 1031 73 10000 1 0 16:21 12.11.2020
5558 Clouds 4 1031 73 10000 2 150 15:42 12.11.2020
5559 Clouds 4 1031 73 10000 2 140 15:23 12.11.2020
5560 Clouds 4 1031 73 10000 2 140 14:46 12.11.2020
5561 Clouds 4 1031 72 10000 2 140 14:26 12.11.2020
5562 Clouds 4 1031 72 10000 2 160 13:55 12.11.2020
5563 Clouds 4 1031 72 10000 2 160 13:37 12.11.2020
5564 Clouds 4 1032 72 10000 3 150 13:18 12.11.2020
5565 Clouds 4 1032 72 10000 2 150 12:42 12.11.2020
5566 Clouds 4 1032 73 10000 2 140 12:20 12.11.2020
5567 Clouds 4 1032 73 10000 2 170 11:47 12.11.2020
5568 Clouds 4 1032 74 10000 2 170 11:28 12.11.2020
5569 Clouds 4 1032 74 10000 2 150 10:43 12.11.2020
5570 Clouds 4 1032 74 10000 2 150 10:43 12.11.2020
5571 Clouds 4 1032 75 10000 2 150 10:24 12.11.2020
5572 Clouds 4 1032 75 10000 2 130 09:47 12.11.2020
5573 Clouds 3 1032 76 10000 2 120 09:23 12.11.2020
5574 Clouds 3 1032 76 10000 2 120 08:57 12.11.2020
5575 Clouds 3 1032 77 10000 2 120 08:39 12.11.2020
5576 Clouds 3 1032 77 10000 2 110 08:19 12.11.2020
5577 Clouds 3 1032 77 10000 2 100 07:48 12.11.2020
5578 Clouds 3 1032 77 10000 2 100 07:22 12.11.2020
5579 Clouds 3 1032 74 10000 2 110 06:49 12.11.2020
5580 Clouds 3 1032 74 10000 3 110 05:31 12.11.2020
5581 Clouds 3 1033 74 10000 2 90 03:22 12.11.2020
5582 Clouds 3 1033 74 10000 2 100 02:24 12.11.2020
5583 Clouds 3 1033 74 10000 2 110 23:59 11.11.2020
5584 Clouds 3 1033 74 10000 2 110 23:25 11.11.2020
5585 Clouds 3 1033 74 10000 2 110 22:58 11.11.2020
5586 Clouds 3 1033 74 10000 2 100 22:39 11.11.2020
5587 Clouds 4 1033 69 10000 2 110 22:20 11.11.2020
5588 Clouds 4 1033 69 10000 2 130 21:43 11.11.2020
5589 Clouds 4 1033 69 10000 2 120 21:25 11.11.2020
5590 Clouds 4 1033 69 10000 2 120 20:58 11.11.2020
5591 Clouds 4 1033 69 10000 2 120 20:40 11.11.2020
5592 Clouds 4 1033 69 10000 2 120 20:21 11.11.2020
5593 Clouds 4 1033 72 10000 2 110 19:49 11.11.2020
5594 Clouds 4 1033 72 10000 2 110 19:30 11.11.2020
5595 Clouds 4 1033 72 10000 2 120 18:53 11.11.2020
5596 Clouds 4 1033 71 10000 2 120 18:33 11.11.2020
5597 Clouds 4 1033 71 10000 2 110 17:42 11.11.2020
5598 Clouds 4 1033 71 10000 2 80 17:23 11.11.2020
5599 Clouds 4 1033 71 10000 2 80 16:54 11.11.2020
5600 Clouds 5 1033 71 10000 2 70 16:33 11.11.2020
5601 Clouds 5 1033 75 10000 2 100 15:50 11.11.2020
5602 Clouds 5 1033 75 10000 2 100 15:27 11.11.2020
5603 Clouds 5 1033 75 10000 2 70 14:56 11.11.2020
5604 Clouds 6 1033 75 10000 2 70 14:37 11.11.2020
5605 Clouds 5 1033 75 10000 2 90 13:57 11.11.2020
5606 Clouds 6 1033 70 10000 2 70 13:35 11.11.2020
5607 Clouds 6 1033 70 10000 1 0 12:50 11.11.2020
5608 Clouds 6 1033 75 10000 2 40 12:21 11.11.2020
5609 Clouds 6 1033 75 10000 2 10 11:50 11.11.2020
5610 Clouds 6 1033 75 10000 2 10 11:30 11.11.2020
5611 Clouds 6 1034 75 10000 1.15 23 10:43 11.11.2020
5612 Clouds 6 1034 75 10000 1 0 10:24 11.11.2020
5613 Clouds 6 1034 80 10000 1 0 09:49 11.11.2020
5614 Clouds 5 1034 80 10000 1 0 09:28 11.11.2020
5615 Clouds 5 1034 86 9000 1 0 08:51 11.11.2020
5616 Clouds 5 1034 93 7000 1.26 40 08:30 11.11.2020
5617 Clouds 5 1034 93 7000 1.26 40 07:58 11.11.2020
5618 Clouds 5 1034 93 7000 1.26 40 07:39 11.11.2020
5619 Clouds 4 1033 100 7000 1.23 346 06:30 11.11.2020
5620 Clouds 4 1033 93 8000 1 0 04:47 11.11.2020
5621 Clouds 5 1033 93 10000 1 120 01:35 11.11.2020
5622 Clouds 4 1033 93 7000 1.48 347 00:54 11.11.2020
5623 Clouds 4 1034 93 6000 1.75 344 23:57 10.11.2020
5624 Clouds 4 1033 86 6000 1 230 23:25 10.11.2020
5625 Clouds 4 1033 86 6000 1 230 22:58 10.11.2020
5626 Mist 4 1033 76 5000 2 260 22:36 10.11.2020
5627 Mist 3 1033 100 4100 1 240 22:18 10.11.2020
5628 Mist 3 1033 73 4200 1 250 21:39 10.11.2020
5629 Mist 3 1033 71 3700 1 260 21:19 10.11.2020
5630 Mist 3 1033 71 5000 1.87 325 20:43 10.11.2020
5631 Mist 4 1033 69 4700 2 260 20:23 10.11.2020
5632 Mist 4 1033 69 5000 1 280 19:56 10.11.2020
5633 Mist 4 1033 69 5000 1 280 19:38 10.11.2020
5634 Mist 4 1033 86 4800 2.09 332 19:20 10.11.2020
5635 Mist 5 1033 67 5000 2 260 18:41 10.11.2020
5636 Clouds 5 1033 66 7000 2 270 18:20 10.11.2020
5637 Clear 6 1033 66 10000 1 290 17:45 10.11.2020
5638 Clear 5 1033 66 10000 1 290 17:45 10.11.2020
5639 Clear 6 1033 64 10000 1 290 17:27 10.11.2020
5640 Clear 6 1033 69 10000 2 340 16:58 10.11.2020
5641 Clear 6 1032 65 10000 2 330 16:38 10.11.2020
5642 Clear 7 1032 56 10000 2 340 16:20 10.11.2020
5643 Clear 7 1032 56 10000 2 290 15:46 10.11.2020
5644 Clear 8 1032 52 10000 3 320 15:25 10.11.2020
5645 Clear 9 1032 49 10000 3 320 14:42 10.11.2020
5646 Clear 9 1032 57 10000 3 320 14:23 10.11.2020
5647 Clear 9 1032 57 10000 2 330 13:57 10.11.2020
5648 Clear 9 1032 56 10000 2 330 13:36 10.11.2020
5649 Clear 9 1032 56 10000 2 310 13:18 10.11.2020
5650 Clear 9 1032 55 10000 2 320 12:44 10.11.2020
5651 Clear 9 1032 56 10000 2 320 12:24 10.11.2020
5652 Clear 8 1033 61 10000 2 10 11:40 10.11.2020
5653 Clear 8 1033 61 10000 3 360 11:21 10.11.2020
5654 Clear 8 1033 65 10000 3 360 10:46 10.11.2020
5655 Clear 8 1033 65 10000 3 360 10:27 10.11.2020
5656 Clear 7 1033 70 10000 3 20 09:55 10.11.2020
5657 Clear 7 1033 70 10000 3 20 09:37 10.11.2020
5658 Clear 7 1032 75 10000 2 360 09:19 10.11.2020
5659 Clear 7 1032 81 10000 2 310 08:45 10.11.2020
5660 Clear 5 1032 86 10000 2 320 08:24 10.11.2020
5661 Clouds 5 1032 93 10000 2 30 07:42 10.11.2020
5662 Clouds 5 1032 93 10000 3 20 07:20 10.11.2020
5663 Clouds 4 1031 93 10000 2 360 06:39 10.11.2020
5664 Clouds 5 1031 86 10000 3 360 05:41 10.11.2020
5665 Clouds 5 1030 75 10000 3 330 04:39 10.11.2020
5666 Clouds 7 1030 81 10000 3 360 01:42 10.11.2020
5667 Clouds 7 1030 81 10000 3 360 00:59 10.11.2020
5668 Clouds 7 1030 87 10000 3 340 23:53 09.11.2020
5669 Clouds 8 1030 81 10000 3 330 23:23 09.11.2020
5670 Clouds 7 1030 87 10000 2 330 22:44 09.11.2020
5671 Clouds 8 1030 81 10000 1 0 22:23 09.11.2020
5672 Clouds 8 1030 93 10000 2 300 21:45 09.11.2020
5673 Clouds 8 1030 93 10000 2 300 21:45 09.11.2020
5674 Clouds 8 1030 93 10000 2 300 21:27 09.11.2020
5675 Clouds 8 1029 87 10000 2 330 20:44 09.11.2020
5676 Clouds 8 1029 87 10000 2 310 20:22 09.11.2020
5677 Clouds 8 1029 87 10000 2 300 19:49 09.11.2020
5678 Clouds 8 1029 93 10000 2 260 19:24 09.11.2020
5679 Clouds 8 1029 87 10000 2 350 18:59 09.11.2020
5680 Clouds 8 1029 87 10000 2 350 18:40 09.11.2020
5681 Clouds 8 1029 87 10000 2 330 18:19 09.11.2020
5682 Clouds 8 1029 87 10000 2 330 17:44 09.11.2020
5683 Clouds 8 1029 87 10000 2 290 17:26 09.11.2020
5684 Clouds 8 1029 87 10000 1 310 16:44 09.11.2020
5685 Clouds 8 1028 87 10000 2 330 16:24 09.11.2020
5686 Clouds 8 1028 81 10000 2 10 15:48 09.11.2020
5687 Clouds 8 1028 87 10000 2 350 15:29 09.11.2020
5688 Clouds 8 1028 87 10000 3 340 14:53 09.11.2020
5689 Clouds 9 1028 87 10000 3 320 14:29 09.11.2020
5690 Clouds 8 1028 87 10000 3 320 13:59 09.11.2020
5691 Clouds 9 1028 87 10000 3 320 13:38 09.11.2020
5692 Clouds 8 1028 87 10000 2 340 13:18 09.11.2020
5693 Clouds 9 1028 81 10000 2 310 12:41 09.11.2020
5694 Clouds 9 1028 81 10000 2 310 12:21 09.11.2020
5695 Clouds 9 1028 76 10000 2 310 11:43 09.11.2020
5696 Clouds 9 1028 76 10000 2 320 11:24 09.11.2020
5697 Clouds 9 1028 76 10000 2 320 10:58 09.11.2020
5698 Clouds 9 1028 81 10000 2 310 10:40 09.11.2020
5699 Clouds 9 1028 81 10000 1 0 10:21 09.11.2020
5700 Clouds 9 1028 81 10000 2 300 09:30 09.11.2020
5701 Clouds 8 1028 81 10000 2 360 08:54 09.11.2020
5702 Clouds 8 1028 81 10000 2 360 08:28 09.11.2020
5703 Clouds 8 1028 87 10000 2 330 07:55 09.11.2020
5704 Clouds 7 1027 87 10000 2 320 07:23 09.11.2020
5705 Clouds 7 1027 87 10000 2 360 06:55 09.11.2020
5706 Clouds 7 1027 87 10000 2 320 04:55 09.11.2020
5707 Clouds 7 1026 87 10000 2 260 01:58 09.11.2020
5708 Clouds 7 1026 87 10000 2 260 01:40 09.11.2020
5709 Clouds 7 1026 87 10000 2 300 00:55 09.11.2020
5710 Clouds 7 1025 87 10000 4 30 23:46 08.11.2020
5711 Clouds 7 1025 87 10000 3 340 23:24 08.11.2020
5712 Clouds 7 1025 87 10000 4 350 22:43 08.11.2020
5713 Clouds 7 1025 87 10000 5 320 22:21 08.11.2020
5714 Clouds 8 1025 87 10000 3 350 21:47 08.11.2020
5715 Clouds 8 1025 87 10000 3 330 21:22 08.11.2020
5716 Clouds 8 1025 87 10000 3 330 20:57 08.11.2020
5717 Clouds 8 1025 81 10000 4 330 20:38 08.11.2020
5718 Clouds 8 1024 87 10000 3 320 20:19 08.11.2020
5719 Clouds 8 1025 87 10000 4 310 19:45 08.11.2020
5720 Clouds 8 1024 87 10000 3 320 19:22 08.11.2020
5721 Clouds 8 1024 87 10000 3 320 18:56 08.11.2020
5722 Clouds 7 1024 93 10000 4 320 18:38 08.11.2020
5723 Clouds 8 1024 93 10000 4 320 18:38 08.11.2020
5724 Clouds 7 1024 93 10000 4 310 18:20 08.11.2020
5725 Clouds 7 1024 93 10000 5 310 17:42 08.11.2020
5726 Clouds 7 1024 93 10000 5 300 17:20 08.11.2020
5727 Clouds 7 1024 93 10000 5 300 16:57 08.11.2020
5728 Clouds 7 1024 93 10000 6 310 16:37 08.11.2020
5729 Clouds 7 1024 93 10000 5 300 16:18 08.11.2020
5730 Clouds 7 1024 93 10000 5 290 15:44 08.11.2020
5731 Clouds 7 1024 93 9000 5 270 15:26 08.11.2020
5732 Clouds 7 1024 93 10000 6 270 14:42 08.11.2020
5733 Clouds 7 1024 93 10000 6 260 14:23 08.11.2020
5734 Clouds 7 1024 93 10000 6 260 14:23 08.11.2020
5735 Clouds 7 1024 93 10000 5 260 13:50 08.11.2020
5736 Clouds 7 1024 93 10000 6 260 13:24 08.11.2020
5737 Clouds 7 1024 93 10000 5 260 12:47 08.11.2020
5738 Clouds 7 1024 93 10000 5 260 12:29 08.11.2020
5739 Clouds 7 1024 93 10000 6 260 11:59 08.11.2020
5740 Clouds 7 1024 93 10000 6 260 11:41 08.11.2020
5741 Clouds 7 1024 100 10000 5 240 11:22 08.11.2020
5742 Clouds 7 1025 100 10000 5 260 10:51 08.11.2020
5743 Clouds 7 1025 100 9000 6 270 10:20 08.11.2020
5744 Clouds 7 1025 100 9000 6 270 09:59 08.11.2020
5745 Mist 7 1025 100 3900 6 260 09:40 08.11.2020
5746 Mist 7 1025 100 1900 4 240 09:18 08.11.2020
5747 Mist 7 1025 100 1400 4 240 08:41 08.11.2020
5748 Mist 7 1025 100 1400 3 230 08:20 08.11.2020
5749 Mist 7 1025 100 1200 3 240 07:52 08.11.2020
5750 Mist 6 1026 100 2100 4 250 07:29 08.11.2020
5751 Mist 6 1026 100 3300 5 270 06:24 08.11.2020
5752 Mist 6 1026 100 2000 6 260 05:53 08.11.2020
5753 Mist 7 1026 100 1700 5 250 04:50 08.11.2020
5754 Mist 7 1027 100 3800 5 270 01:53 08.11.2020
5755 Clouds 7 1028 100 6000 5 270 01:19 08.11.2020
5756 Clouds 7 1028 100 9000 5 270 00:30 08.11.2020
5757 Clouds 8 1028 93 10000 5 270 23:47 07.11.2020
5758 Clouds 8 1028 93 10000 5 270 23:29 07.11.2020
5759 Clouds 8 1029 93 10000 5 270 22:46 07.11.2020
5760 Clouds 8 1029 93 10000 6 270 22:26 07.11.2020
5761 Clouds 8 1029 93 10000 6 270 21:55 07.11.2020
5762 Clouds 8 1029 93 10000 5 280 21:36 07.11.2020
5763 Clouds 8 1029 100 10000 6 280 21:18 07.11.2020
5764 Clouds 8 1029 100 10000 7 280 20:40 07.11.2020
5765 Clouds 8 1029 93 10000 6 280 20:22 07.11.2020
5766 Clouds 9 1029 93 10000 5 280 19:44 07.11.2020
5767 Clouds 9 1029 93 10000 5 280 19:26 07.11.2020
5768 Clouds 8 1029 93 10000 5 270 18:40 07.11.2020
5769 Clear 8 1029 93 10000 4 270 18:22 07.11.2020
5770 Clear 9 1029 87 10000 5 270 17:46 07.11.2020
5771 Clear 9 1029 87 10000 4 270 17:27 07.11.2020
5772 Clear 9 1029 87 10000 4 270 17:27 07.11.2020
5773 Clear 9 1029 93 10000 5 270 16:45 07.11.2020
5774 Clear 10 1028 87 10000 5 270 16:25 07.11.2020
5775 Clear 10 1028 87 10000 4 270 15:51 07.11.2020
5776 Clear 10 1028 87 10000 4 270 15:25 07.11.2020
5777 Clear 11 1028 81 10000 6 280 14:59 07.11.2020
5778 Clear 11 1028 81 10000 6 280 14:41 07.11.2020
5779 Clear 11 1028 81 10000 4 290 14:20 07.11.2020
5780 Clouds 11 1028 81 10000 5 300 13:43 07.11.2020
5781 Clouds 11 1028 81 10000 7 300 13:23 07.11.2020
5782 Clouds 11 1028 87 10000 6 300 12:37 07.11.2020
5783 Clouds 10 1029 87 10000 6 300 11:54 07.11.2020
5784 Clouds 10 1029 87 10000 6 300 11:36 07.11.2020
5785 Clouds 10 1029 81 10000 6 320 11:18 07.11.2020
5786 Clouds 10 1029 81 10000 7 310 10:42 07.11.2020
5787 Clouds 10 1028 87 10000 8 320 10:23 07.11.2020
5788 Clouds 9 1028 87 10000 8 310 09:48 07.11.2020
5789 Clouds 9 1028 81 10000 7 310 09:23 07.11.2020
5790 Clouds 9 1028 87 10000 7 300 08:49 07.11.2020
5791 Clouds 9 1028 87 10000 7 300 08:30 07.11.2020
5792 Clouds 8 1027 93 10000 7 290 07:48 07.11.2020
5793 Clouds 8 1027 93 10000 7 290 06:55 07.11.2020
5794 Clouds 8 1027 93 10000 6 300 05:55 07.11.2020
5795 Clouds 8 1026 93 10000 5 300 04:22 07.11.2020
5796 Clouds 8 1026 93 10000 5 310 02:46 07.11.2020
5797 Clouds 8 1026 93 10000 5 310 01:27 07.11.2020
5798 Clouds 8 1025 93 10000 6 320 00:38 07.11.2020
5799 Clouds 8 1025 93 10000 6 310 23:40 06.11.2020
5800 Clouds 8 1025 93 10000 7 320 23:18 06.11.2020
5801 Clouds 8 1025 93 10000 6 310 22:40 06.11.2020
5802 Clouds 8 1025 93 10000 7 310 22:18 06.11.2020
5803 Clouds 8 1024 93 10000 7 300 21:43 06.11.2020
5804 Clouds 8 1024 93 10000 7 300 21:43 06.11.2020
5805 Clouds 8 1024 93 10000 6 310 21:21 06.11.2020
5806 Clouds 8 1024 93 10000 7 300 20:48 06.11.2020
5807 Clouds 8 1024 93 10000 5 300 20:20 06.11.2020
5808 Clouds 8 1024 93 10000 5 300 19:47 06.11.2020
5809 Clouds 8 1024 93 10000 5 300 19:29 06.11.2020
5810 Clouds 8 1024 93 10000 5 300 18:58 06.11.2020
5811 Clouds 7 1024 100 10000 6 300 18:40 06.11.2020
5812 Drizzle 7 1024 100 7000 5 290 18:19 06.11.2020
5813 Drizzle 7 1024 100 7000 5 290 17:47 06.11.2020
5814 Drizzle 7 1024 100 7000 5 290 17:25 06.11.2020
5815 Drizzle 7 1023 100 6000 4 290 16:45 06.11.2020
5816 Clouds 7 1023 93 8000 5 290 16:22 06.11.2020
5817 Clouds 7 1023 93 10000 5 290 15:47 06.11.2020
5818 Clouds 7 1023 93 10000 5 290 15:26 06.11.2020
5819 Clouds 7 1023 93 10000 5 290 14:50 06.11.2020
5820 Clouds 7 1023 93 10000 5 290 14:23 06.11.2020
5821 Clouds 7 1023 93 10000 6 290 13:44 06.11.2020
5822 Clouds 7 1023 93 10000 6 290 13:23 06.11.2020
5823 Clouds 8 1023 87 10000 5 290 12:44 06.11.2020
5824 Drizzle 7 1023 93 9000 5 290 12:23 06.11.2020
5825 Clouds 7 1024 93 9000 5 300 11:43 06.11.2020
5826 Clouds 7 1024 87 10000 6 300 11:24 06.11.2020
5827 Clouds 7 1024 87 10000 5 280 10:39 06.11.2020
5828 Clouds 7 1024 93 10000 6 290 10:19 06.11.2020
5829 Clouds 6 1024 87 10000 5 280 09:48 06.11.2020
5830 Clouds 6 1024 87 10000 6 280 09:21 06.11.2020
5831 Clouds 6 1024 93 10000 6 280 08:49 06.11.2020
5832 Clouds 6 1024 93 10000 6 280 08:28 06.11.2020
5833 Clouds 5 1024 93 10000 5 280 07:48 06.11.2020
5834 Clouds 5 1024 93 10000 5 280 07:29 06.11.2020
5835 Clouds 5 1024 86 10000 5 270 06:51 06.11.2020
5836 Clouds 5 1024 86 10000 5 270 06:51 06.11.2020
5837 Clouds 5 1024 86 10000 5 270 05:44 06.11.2020
5838 Clouds 4 1025 93 10000 5 270 03:46 06.11.2020
5839 Clear 4 1027 93 10000 5 270 00:48 06.11.2020
5840 Clear 4 1027 100 10000 4 270 00:19 06.11.2020
5841 Clear 5 1027 100 10000 4 270 23:30 05.11.2020
5842 Clear 5 1028 93 10000 3 260 22:57 05.11.2020
5843 Clear 5 1028 93 10000 3 260 22:37 05.11.2020
5844 Clear 5 1028 100 10000 4 270 22:18 05.11.2020
5845 Clear 5 1028 93 10000 4 270 21:42 05.11.2020
5846 Clear 5 1028 100 10000 3 270 21:21 05.11.2020
5847 Clear 5 1028 93 10000 3 270 20:45 05.11.2020
5848 Clear 6 1028 93 10000 3 280 20:26 05.11.2020
5849 Clear 6 1029 87 10000 4 310 19:59 05.11.2020
5850 Clear 6 1029 87 10000 4 310 19:40 05.11.2020
5851 Clear 7 1028 87 10000 5 310 19:22 05.11.2020
5852 Clouds 7 1028 93 10000 3 270 18:42 05.11.2020
5853 Clouds 7 1028 93 10000 3 270 18:24 05.11.2020
5854 Clouds 7 1028 93 10000 2 260 17:52 05.11.2020
5855 Clouds 8 1028 87 10000 3 290 17:27 05.11.2020
5856 Clouds 7 1028 87 10000 2 320 16:54 05.11.2020
5857 Clouds 8 1028 87 10000 2 320 16:29 05.11.2020
5858 Clouds 8 1028 87 10000 3 330 15:59 05.11.2020
5859 Clouds 8 1028 87 10000 3 330 15:40 05.11.2020
5860 Clouds 9 1028 81 10000 5 320 15:21 05.11.2020
5861 Clouds 9 1028 87 10000 4 320 14:44 05.11.2020
5862 Clouds 10 1028 87 10000 4 320 14:24 05.11.2020
5863 Clouds 9 1027 87 10000 5 300 13:42 05.11.2020
5864 Clouds 9 1027 87 10000 4 280 13:23 05.11.2020
5865 Clouds 9 1028 87 10000 5 280 12:48 05.11.2020
5866 Clouds 9 1028 87 10000 5 270 12:24 05.11.2020
5867 Clouds 9 1028 87 10000 4 270 11:49 05.11.2020
5868 Clouds 9 1028 87 10000 4 270 11:26 05.11.2020
5869 Clouds 9 1028 87 10000 4 280 10:53 05.11.2020
5870 Clouds 9 1028 87 9000 3 270 10:32 05.11.2020
5871 Clouds 9 1029 93 8000 3 270 09:58 05.11.2020
5872 Rain 9 1028 93 9000 2 260 09:38 05.11.2020
5873 Rain 9 1028 93 8000 2 240 09:20 05.11.2020
5874 Rain 8 1029 93 7000 2 250 08:43 05.11.2020
5875 Rain 9 1029 93 7000 2 250 08:24 05.11.2020
5876 Clouds 8 1029 100 6000 2 240 07:29 05.11.2020
5877 Mist 7 1029 100 5000 1 230 06:52 05.11.2020
5878 Mist 7 1029 100 5000 1 230 06:33 05.11.2020
5879 Clouds 7 1029 100 6000 1 0 03:47 05.11.2020
5880 Mist 6 1029 100 3700 1.64 247 00:59 05.11.2020
5881 Mist 6 1030 100 3700 1 0 00:26 05.11.2020
5882 Fog 6 1030 100 400 1.53 233 23:43 04.11.2020
5883 Fog 6 1029 100 250 1.39 218 23:25 04.11.2020
5884 Fog 6 1029 100 650 1.39 218 22:45 04.11.2020
5885 Mist 6 1029 100 3400 1.15 215 22:23 04.11.2020
5886 Mist 6 1030 100 3000 1.15 215 21:48 04.11.2020
5887 Mist 6 1030 100 3000 1.01 216 21:29 04.11.2020
5888 Mist 6 1030 100 2900 1.01 216 20:56 04.11.2020
5889 Mist 6 1030 100 2700 1.01 216 20:38 04.11.2020
5890 Mist 6 1029 100 3200 1.06 200 20:19 04.11.2020
5891 Fog 6 1029 100 400 1 90 19:44 04.11.2020
5892 Fog 6 1029 100 400 1 90 19:44 04.11.2020
5893 Fog 6 1029 100 400 1 90 19:44 04.11.2020
5894 Fog 6 1029 100 2200 1 80 19:26 04.11.2020
5895 Mist 6 1029 100 3900 1.44 152 18:43 04.11.2020
5896 Mist 6 1029 100 3200 2 120 18:24 04.11.2020
5897 Mist 6 1029 100 3400 2 110 17:54 04.11.2020
5898 Mist 7 1029 100 3400 2 110 17:36 04.11.2020
5899 Mist 7 1029 100 5000 3 120 17:18 04.11.2020
5900 Clouds 7 1029 93 7000 3 120 16:37 04.11.2020
5901 Clouds 7 1029 93 9000 3 120 16:18 04.11.2020
5902 Clear 8 1029 87 10000 3 80 15:42 04.11.2020
5903 Clouds 9 1029 81 10000 3 90 15:23 04.11.2020
5904 Clouds 10 1029 81 10000 2 100 14:47 04.11.2020
5905 Clouds 10 1029 87 10000 1 0 14:26 04.11.2020
5906 Clouds 10 1029 87 10000 1 0 13:56 04.11.2020
5907 Clouds 10 1029 87 10000 1 0 13:37 04.11.2020
5908 Clouds 10 1029 87 10000 1 0 13:18 04.11.2020
5909 Clouds 10 1029 87 10000 1 0 12:42 04.11.2020
5910 Clouds 10 1029 87 10000 1 0 12:24 04.11.2020
5911 Clouds 10 1029 87 10000 1 0 11:46 04.11.2020
5912 Clouds 9 1029 87 10000 2 100 11:24 04.11.2020
5913 Clouds 9 1029 87 10000 2 150 10:52 04.11.2020
5914 Clouds 9 1029 87 10000 2 150 10:24 04.11.2020
5915 Clouds 9 1029 93 9000 2 90 09:58 04.11.2020
5916 Mist 8 1029 100 3500 2 70 09:40 04.11.2020
5917 Drizzle 8 1029 100 1300 2 80 09:20 04.11.2020
5918 Mist 8 1029 100 2300 2 60 08:41 04.11.2020
5919 Mist 8 1028 100 2500 3 80 08:18 04.11.2020
5920 Mist 8 1028 100 2500 3 80 08:18 04.11.2020
5921 Fog 8 1028 100 1100 2 80 07:40 04.11.2020
5922 Mist 8 1028 100 3500 2 100 07:21 04.11.2020
5923 Mist 7 1027 100 3600 1.28 93 06:40 04.11.2020
5924 Mist 7 1027 100 3600 1 0 05:24 04.11.2020
5925 Mist 8 1026 100 5000 2 110 02:31 04.11.2020
5926 Clouds 8 1026 100 6000 2 90 01:38 04.11.2020
5927 Clouds 8 1026 93 8000 2 20 00:25 04.11.2020
5928 Clouds 9 1026 93 8000 1.09 8 23:28 03.11.2020
5929 Clouds 9 1025 93 8000 2 350 22:57 03.11.2020
5930 Clouds 9 1025 93 8000 2 350 22:38 03.11.2020
5931 Clouds 9 1025 93 9000 2 30 22:19 03.11.2020
5932 Clouds 9 1025 100 9000 0.94 13 21:43 03.11.2020
5933 Clouds 9 1025 100 9000 0.79 15 21:24 03.11.2020
5934 Clouds 9 1025 87 10000 2 10 21:24 03.11.2020
5935 Clouds 9 1025 100 9000 0.79 15 20:49 03.11.2020
5936 Clouds 9 1025 100 9000 0.87 348 20:27 03.11.2020
5937 Clouds 8 1024 93 10000 0.87 348 19:55 03.11.2020
5938 Clouds 8 1024 93 10000 0.87 348 19:37 03.11.2020
5939 Clouds 8 1024 93 10000 0.82 330 19:19 03.11.2020
5940 Clouds 8 1024 93 10000 0.27 57 18:41 03.11.2020
5941 Clouds 9 1024 93 10000 1 330 18:19 03.11.2020
5942 Clouds 9 1024 93 10000 2 320 17:46 03.11.2020
5943 Clouds 9 1023 93 10000 2 310 17:27 03.11.2020
5944 Clouds 9 1023 93 10000 1 330 16:51 03.11.2020
5945 Clouds 8 1023 93 10000 1 330 16:31 03.11.2020
5946 Clouds 8 1023 93 10000 1.26 83 15:55 03.11.2020
5947 Clouds 9 1023 87 10000 1 0 15:37 03.11.2020
5948 Clouds 9 1022 87 10000 1 0 15:18 03.11.2020
5949 Clouds 9 1022 87 10000 3 20 14:42 03.11.2020
5950 Clouds 10 1022 81 10000 2 20 14:23 03.11.2020
5951 Clouds 9 1022 87 10000 1.47 58 13:41 03.11.2020
5952 Clouds 9 1022 87 10000 2 50 13:21 03.11.2020
5953 Clouds 9 1022 87 10000 1.37 35 12:45 03.11.2020
5954 Clouds 9 1022 87 10000 2 20 12:24 03.11.2020
5955 Clouds 9 1022 93 10000 2 50 11:47 03.11.2020
5956 Clouds 9 1022 93 10000 2 50 11:25 03.11.2020
5957 Clouds 9 1022 87 10000 1 0 10:56 03.11.2020
5958 Clouds 9 1022 93 10000 1 0 10:37 03.11.2020
5959 Clouds 9 1021 87 10000 1 0 10:18 03.11.2020
5960 Clouds 9 1021 87 10000 2 330 09:45 03.11.2020
5961 Clouds 8 1021 87 10000 2 330 09:22 03.11.2020
5962 Clouds 8 1021 93 10000 2 330 08:49 03.11.2020
5963 Clouds 7 1021 93 10000 2 330 08:29 03.11.2020
5964 Clouds 7 1021 93 10000 2 320 07:41 03.11.2020
5965 Clouds 6 1021 93 10000 2 320 07:19 03.11.2020
5966 Clouds 6 1020 93 10000 2 330 06:22 03.11.2020
5967 Clouds 6 1020 93 10000 2 330 04:34 03.11.2020
5968 Clouds 7 1019 93 10000 3 310 00:45 03.11.2020
5969 Clouds 7 1019 93 10000 3 310 00:24 03.11.2020
5970 Clouds 7 1019 93 10000 4 320 23:43 02.11.2020
5971 Clouds 7 1019 93 10000 4 330 23:22 02.11.2020
5972 Clouds 7 1019 93 10000 3 330 22:43 02.11.2020
5973 Clouds 7 1019 93 10000 3 320 22:24 02.11.2020
5974 Clouds 7 1019 93 10000 3 330 21:39 02.11.2020
5975 Clouds 7 1019 93 10000 4 320 21:21 02.11.2020
5976 Clouds 7 1019 93 10000 4 320 20:56 02.11.2020
5977 Clouds 7 1019 93 10000 3 320 20:38 02.11.2020
5978 Clouds 7 1019 93 10000 2 320 20:18 02.11.2020
5979 Clouds 7 1018 93 10000 2 320 19:43 02.11.2020
5980 Clouds 7 1018 93 10000 3 320 19:24 02.11.2020
5981 Clouds 7 1018 93 10000 3 340 18:43 02.11.2020
5982 Clouds 7 1018 93 10000 3 340 18:43 02.11.2020
5983 Clouds 7 1018 93 10000 4 340 18:21 02.11.2020
5984 Clouds 7 1018 93 10000 2 360 17:57 02.11.2020
5985 Clouds 7 1018 93 10000 2 360 17:39 02.11.2020
5986 Clouds 7 1018 93 10000 3 340 17:20 02.11.2020
5987 Clouds 7 1018 93 10000 3 340 17:20 02.11.2020
5988 Clouds 7 1018 93 10000 3 350 16:41 02.11.2020
5989 Clouds 7 1018 93 10000 3 330 16:23 02.11.2020
5990 Clouds 7 1017 93 10000 4 330 15:41 02.11.2020
5991 Clouds 7 1017 93 10000 4 330 15:22 02.11.2020
5992 Clouds 7 1017 93 10000 4 330 14:53 02.11.2020
5993 Clouds 7 1017 93 10000 4 330 14:53 02.11.2020
5994 Clouds 7 1017 93 10000 4 330 14:20 02.11.2020
5995 Clouds 7 1017 93 10000 3 330 13:54 02.11.2020
5996 Clouds 7 1017 93 6000 4 320 13:23 02.11.2020
5997 Clouds 7 1017 93 6000 4 320 13:23 02.11.2020
5998 Clouds 7 1017 93 6000 4 320 12:59 02.11.2020
5999 Mist 7 1017 93 3900 4 320 12:31 02.11.2020
6000 Drizzle 7 1017 93 8000 4 330 11:58 02.11.2020
6001 Drizzle 7 1017 93 8000 4 330 11:38 02.11.2020
6002 Clouds 7 1017 93 10000 4 330 11:19 02.11.2020
6003 Clouds 7 1017 93 10000 4 330 10:41 02.11.2020
6004 Clouds 7 1017 93 10000 4 340 10:20 02.11.2020
6005 Clouds 7 1017 93 10000 4 330 09:49 02.11.2020
6006 Clouds 7 1017 93 10000 4 330 09:23 02.11.2020
6007 Clouds 7 1017 93 9000 4 330 08:42 02.11.2020
6008 Clouds 7 1016 93 9000 3 330 08:22 02.11.2020
6009 Clouds 7 1016 93 9000 3 330 07:50 02.11.2020
6010 Drizzle 7 1016 100 7000 4 330 06:52 02.11.2020
6011 Drizzle 7 1016 100 7000 4 330 06:34 02.11.2020
6012 Clouds 7 1015 100 9000 5 350 03:23 02.11.2020
6013 Drizzle 7 1015 100 5000 3 330 01:22 02.11.2020
6014 Clouds 7 1015 93 10000 3 340 00:33 02.11.2020
6015 Clouds 7 1016 93 10000 3 330 23:41 01.11.2020
6016 Drizzle 7 1016 93 4700 4 340 23:23 01.11.2020
6017 Drizzle 7 1015 93 3700 3 340 22:46 01.11.2020
6018 Drizzle 7 1015 93 3800 4 330 22:25 01.11.2020
6019 Drizzle 7 1015 93 3800 4 330 21:58 01.11.2020
6020 Drizzle 7 1015 93 4400 4 330 21:38 01.11.2020
6021 Drizzle 7 1015 93 4400 4 330 21:38 01.11.2020
6022 Clouds 7 1015 93 10000 4 330 21:20 01.11.2020
6023 Clouds 7 1015 93 10000 4 330 20:40 01.11.2020
6024 Clouds 7 1015 93 10000 3 350 20:20 01.11.2020
6025 Clouds 7 1015 93 10000 3 350 19:41 01.11.2020
6026 Clouds 7 1015 100 10000 4 350 19:23 01.11.2020
6027 Clouds 7 1016 100 10000 4 340 18:42 01.11.2020
6028 Rain 7 1015 100 10000 4 350 18:20 01.11.2020
6029 Rain 7 1015 100 10000 4 340 17:58 01.11.2020
6030 Rain 7 1015 100 10000 4 340 17:40 01.11.2020
6031 Rain 7 1015 100 10000 3 350 17:21 01.11.2020
6032 Rain 7 1015 100 10000 3 350 17:21 01.11.2020
6033 Rain 7 1015 100 6000 5 10 16:40 01.11.2020
6034 Clouds 8 1015 93 8000 5 10 16:19 01.11.2020
6035 Clouds 8 1015 93 10000 6 360 15:41 01.11.2020
6036 Clouds 8 1015 93 10000 4 360 15:22 01.11.2020
6037 Rain 8 1015 93 10000 4 360 14:58 01.11.2020
6038 Mist 8 1015 100 4700 4 350 14:39 01.11.2020
6039 Mist 8 1015 93 2900 4 10 14:18 01.11.2020
6040 Mist 8 1015 100 5000 4 10 13:47 01.11.2020
6041 Mist 8 1015 100 5000 4 10 13:28 01.11.2020
6042 Mist 8 1014 100 2900 4 360 12:43 01.11.2020
6043 Clouds 8 1014 100 6000 4 10 12:23 01.11.2020
6044 Mist 8 1014 93 4500 5 10 11:51 01.11.2020
6045 Mist 8 1015 100 5000 4 10 11:19 01.11.2020
6046 Drizzle 8 1015 100 3200 5 20 10:43 01.11.2020
6047 Drizzle 8 1015 100 3200 5 20 10:43 01.11.2020
6048 Drizzle 8 1015 100 2600 5 10 10:24 01.11.2020
6049 Drizzle 8 1015 100 2600 5 10 09:57 01.11.2020
6050 Drizzle 8 1015 93 3200 5 10 09:39 01.11.2020
6051 Mist 8 1014 93 3200 5 10 08:47 01.11.2020
6052 Clouds 8 1014 93 8000 6 20 08:23 01.11.2020
6053 Clouds 8 1014 93 10000 6 20 07:40 01.11.2020
6054 Rain 8 1014 93 6000 7 10 04:31 01.11.2020
6055 Rain 8 1014 100 5000 7 10 01:51 01.11.2020
6056 Rain 8 1015 100 6000 6 10 00:43 01.11.2020
6057 Rain 8 1015 100 10000 6 10 23:26 31.10.2020
6058 Rain 8 1015 100 5000 6 10 22:58 31.10.2020
6059 Rain 9 1015 93 9000 7 10 22:39 31.10.2020
6060 Rain 9 1015 93 10000 7 10 22:20 31.10.2020
6061 Rain 9 1015 93 9000 5 20 21:44 31.10.2020
6062 Rain 9 1015 93 9000 5 10 21:19 31.10.2020
6063 Rain 9 1015 93 9000 4 10 20:38 31.10.2020
6064 Rain 9 1015 93 9000 5 10 20:18 31.10.2020
6065 Rain 9 1015 93 10000 6 20 19:41 31.10.2020
6066 Rain 9 1015 93 10000 6 20 19:22 31.10.2020
6067 Rain 9 1016 100 9000 5 10 18:47 31.10.2020
6068 Rain 9 1016 100 9000 5 10 18:24 31.10.2020
6069 Rain 9 1016 93 7000 4 350 17:40 31.10.2020
6070 Rain 9 1016 93 8000 5 350 17:22 31.10.2020
6071 Rain 9 1016 93 8000 4 350 16:44 31.10.2020
6072 Clouds 8 1016 100 7000 4 340 16:26 31.10.2020
6073 Rain 8 1016 100 9000 5 340 15:45 31.10.2020
6074 Clouds 8 1016 100 10000 4 340 15:25 31.10.2020
6075 Clouds 9 1016 100 10000 3 340 14:52 31.10.2020
6076 Clouds 9 1016 100 10000 3 340 14:31 31.10.2020
6077 Clouds 8 1016 100 8000 4 350 13:50 31.10.2020
6078 Clouds 8 1016 93 9000 4 350 13:27 31.10.2020
6079 Rain 8 1016 93 10000 4 350 12:43 31.10.2020
6080 Rain 9 1016 93 10000 4 350 12:18 31.10.2020
6081 Rain 8 1016 93 10000 3 350 11:39 31.10.2020
6082 Rain 8 1016 93 10000 3 350 11:20 31.10.2020
6083 Rain 8 1016 93 10000 4 340 10:37 31.10.2020
6084 Rain 8 1016 100 10000 3 350 09:48 31.10.2020
6085 Rain 8 1016 100 10000 3 350 09:29 31.10.2020
6086 Rain 7 1016 100 10000 4 330 08:52 31.10.2020
6087 Rain 7 1016 93 10000 3 330 08:20 31.10.2020
6088 Rain 7 1016 93 10000 3 330 08:20 31.10.2020
6089 Rain 7 1016 100 9000 3 320 07:28 31.10.2020
6090 Rain 7 1016 93 9000 4 310 06:47 31.10.2020
6091 Rain 7 1016 93 9000 4 310 06:29 31.10.2020
6092 Rain 7 1016 93 8000 4 310 03:47 31.10.2020
6093 Rain 8 1016 93 10000 3 320 02:20 31.10.2020
6094 Clouds 8 1016 93 10000 4 320 00:49 31.10.2020
6095 Clouds 8 1016 93 9000 4 310 23:53 30.10.2020
6096 Rain 8 1016 93 10000 4 310 23:28 30.10.2020
6097 Rain 9 1016 100 8000 3 320 22:56 30.10.2020
6098 Rain 9 1016 93 10000 4 330 22:37 30.10.2020
6099 Rain 9 1016 93 9000 4 320 22:18 30.10.2020
6100 Clouds 9 1016 93 10000 5 320 21:42 30.10.2020
6101 Rain 9 1016 93 10000 5 320 21:22 30.10.2020
6102 Rain 10 1016 100 9000 5 300 20:44 30.10.2020
6103 Rain 10 1016 93 7000 4 280 20:25 30.10.2020
6104 Rain 10 1016 93 7000 4 280 19:54 30.10.2020
6105 Rain 10 1016 87 9000 2 280 19:22 30.10.2020
6106 Clouds 10 1016 87 9000 2 290 18:52 30.10.2020
6107 Rain 10 1016 87 9000 2 290 18:34 30.10.2020
6108 Rain 10 1016 93 9000 3.25 312 17:59 30.10.2020
6109 Clouds 10 1016 87 10000 1 250 17:40 30.10.2020
6110 Rain 10 1016 87 10000 3 310 17:20 30.10.2020
6111 Clouds 10 1015 87 10000 4 310 16:49 30.10.2020
6112 Clouds 11 1015 76 10000 4 310 16:24 30.10.2020
6113 Clouds 11 1015 81 10000 4 310 15:41 30.10.2020
6114 Clouds 12 1015 81 10000 4 300 15:20 30.10.2020
6115 Clouds 12 1015 76 10000 3 310 14:46 30.10.2020
6116 Clouds 12 1015 81 10000 3 300 14:28 30.10.2020
6117 Clouds 12 1015 81 10000 3 300 13:57 30.10.2020
6118 Clouds 12 1015 81 10000 4 310 13:39 30.10.2020
6119 Clouds 12 1015 81 10000 3 310 13:19 30.10.2020
6120 Clouds 12 1015 87 8000 3 310 12:40 30.10.2020
6121 Mist 12 1015 93 5000 3 300 12:21 30.10.2020
6122 Mist 11 1015 100 3800 3 280 11:43 30.10.2020
6123 Mist 11 1015 100 4100 2 290 11:19 30.10.2020
6124 Mist 11 1015 100 2500 1 0 10:47 30.10.2020
6125 Mist 10 1015 100 2500 1 0 10:23 30.10.2020
6126 Drizzle 10 1015 100 2100 1 0 09:45 30.10.2020
6127 Mist 10 1015 100 1400 2 240 09:24 30.10.2020
6128 Mist 10 1015 100 2900 1 0 08:42 30.10.2020
6129 Mist 10 1015 100 2900 1 0 08:23 30.10.2020
6130 Mist 10 1015 100 1800 1.68 265 07:49 30.10.2020
6131 Mist 9 1015 100 1800 1.33 257 07:31 30.10.2020
6132 Fog 9 1014 100 1400 0.57 251 06:38 30.10.2020
6133 Fog 9 1014 100 550 1 0 05:19 30.10.2020
6134 Mist 9 1014 100 1300 1 0 02:27 30.10.2020
6135 Mist 9 1014 100 3500 1.31 207 00:40 30.10.2020
6136 Mist 9 1015 100 3200 1.52 199 23:49 29.10.2020
6137 Mist 9 1015 100 3200 1.71 196 23:31 29.10.2020
6138 Mist 9 1015 100 3300 1 0 22:58 29.10.2020
6139 Mist 9 1015 100 3600 1 0 22:40 29.10.2020
6140 Mist 9 1015 100 3800 1 0 22:21 29.10.2020
6141 Mist 9 1015 100 3100 1 0 21:37 29.10.2020
6142 Mist 9 1015 100 3000 1 0 21:18 29.10.2020
6143 Mist 9 1015 100 2900 1 0 20:41 29.10.2020
6144 Mist 9 1015 100 3000 1 0 20:19 29.10.2020
6145 Mist 9 1015 100 3000 2 180 19:43 29.10.2020
6146 Mist 9 1015 100 3700 1 0 19:22 29.10.2020
6147 Mist 9 1015 100 3900 2 180 18:49 29.10.2020
6148 Mist 9 1015 100 3900 2 180 18:29 29.10.2020
6149 Mist 9 1015 100 3600 1 0 17:57 29.10.2020
6150 Mist 9 1015 100 3600 1 0 17:38 29.10.2020
6151 Mist 9 1015 100 3800 2 140 17:19 29.10.2020
6152 Mist 9 1015 100 3800 1 0 16:45 29.10.2020
6153 Mist 9 1015 100 2900 2 130 16:19 29.10.2020
6154 Rain 9 1015 100 2700 2 130 15:56 29.10.2020
6155 Rain 9 1015 100 2700 2 130 15:37 29.10.2020
6156 Rain 10 1015 100 2800 2 140 15:18 29.10.2020
6157 Rain 9 1015 100 2600 2 130 14:42 29.10.2020
6158 Rain 9 1016 93 2500 2 140 14:21 29.10.2020
6159 Mist 9 1016 93 2800 2 130 13:46 29.10.2020
6160 Rain 9 1016 93 3500 3 140 13:27 29.10.2020
6161 Rain 9 1016 100 4100 2 150 12:43 29.10.2020
6162 Rain 9 1017 100 3400 2 160 12:20 29.10.2020
6163 Mist 9 1017 100 1600 1 0 11:54 29.10.2020
6164 Rain 9 1017 100 1600 1 0 11:36 29.10.2020
6165 Mist 9 1017 100 1300 2 130 11:18 29.10.2020
6166 Rain 8 1017 100 1700 2 140 10:37 29.10.2020
6167 Mist 9 1017 100 1700 2 140 10:37 29.10.2020
6168 Fog 8 1017 100 1000 2 120 10:18 29.10.2020
6169 Fog 8 1017 100 750 3 120 09:47 29.10.2020
6170 Fog 8 1017 100 500 2 140 09:24 29.10.2020
6171 Fog 8 1017 100 800 2 130 08:41 29.10.2020
6172 Fog 7 1017 100 350 2 130 08:23 29.10.2020
6173 Fog 7 1017 100 600 2 120 07:49 29.10.2020
6174 Fog 6 1017 100 600 2 110 06:59 29.10.2020
6175 Fog 6 1017 100 700 3 100 06:28 29.10.2020
6176 Mist 7 1017 100 5000 2 90 04:48 29.10.2020
6177 Clear 6 1018 98 10000 2.23 134 02:18 29.10.2020
6178 Clear 7 1018 97 10000 1.87 131 00:38 29.10.2020
6179 Clear 7 1018 97 10000 2.05 132 00:19 29.10.2020
6180 Clear 7 1019 96 10000 2.05 132 23:40 28.10.2020
6181 Clear 8 1018 95 10000 2.16 132 23:19 28.10.2020
6182 Clear 7 1019 93 8000 1 110 22:42 28.10.2020
6183 Clear 8 1019 93 8000 1 110 22:23 28.10.2020
6184 Clouds 8 1019 87 8000 2 130 21:45 28.10.2020
6185 Clouds 9 1019 81 10000 2 130 21:25 28.10.2020
6186 Clear 9 1020 87 10000 2 120 20:44 28.10.2020
6187 Clear 9 1020 87 10000 2 110 20:23 28.10.2020
6188 Clear 9 1020 100 9000 2 100 19:55 28.10.2020
6189 Clear 10 1020 100 9000 2 100 19:36 28.10.2020
6190 Clear 10 1020 93 8000 2 100 19:18 28.10.2020
6191 Clear 10 1020 100 7000 2 100 18:42 28.10.2020
6192 Mist 10 1020 100 4700 2 90 18:18 28.10.2020
6193 Mist 11 1020 93 5000 2 90 17:41 28.10.2020
6194 Clouds 11 1020 93 6000 1 70 17:21 28.10.2020
6195 Clouds 11 1019 93 7000 1 100 16:47 28.10.2020
6196 Clouds 12 1019 87 8000 2.57 113 16:28 28.10.2020
6197 Clouds 13 1019 87 8000 1 70 15:42 28.10.2020
6198 Clear 13 1019 89 10000 2.72 111 15:19 28.10.2020
6199 Clouds 13 1020 87 9000 1 0 14:46 28.10.2020
6200 Clear 14 1019 84 10000 2.84 113 14:27 28.10.2020
6201 Clear 15 1019 84 10000 2.66 125 12:59 28.10.2020
6202 Clear 14 1019 85 10000 0.45 187 12:36 28.10.2020
6203 Clear 14 1019 85 10000 0.45 160 12:18 28.10.2020
6204 Clear 14 1019 85 10000 0.45 150 11:42 28.10.2020
6205 Clear 13 1020 86 10000 0.89 141 11:21 28.10.2020
6206 Clouds 12 1020 87 8000 3 200 10:53 28.10.2020
6207 Clouds 13 1020 87 8000 3 200 10:33 28.10.2020
6208 Clouds 12 1020 93 7000 1 0 09:56 28.10.2020
6209 Clouds 12 1020 93 7000 1 0 09:37 28.10.2020
6210 Mist 11 1020 100 4900 2 140 09:19 28.10.2020
6211 Mist 10 1020 100 2500 1 0 08:43 28.10.2020
6212 Fog 9 1020 100 650 2 130 08:23 28.10.2020
6213 Fog 9 1020 100 1400 2 130 07:44 28.10.2020
6214 Fog 8 1020 100 1400 2 130 07:26 28.10.2020
6215 Mist 8 1020 100 4100 2 100 06:40 28.10.2020
6216 Mist 7 1019 100 4100 2 80 05:48 28.10.2020
6217 Mist 7 1019 100 4800 2 120 04:52 28.10.2020
6218 Mist 7 1019 100 4800 2 120 04:23 28.10.2020
6219 Clear 8 1019 100 6000 2 110 02:25 28.10.2020
6220 Clear 8 1020 100 9000 1 120 00:39 28.10.2020
6221 Clear 8 1019 93 9000 1 100 23:51 27.10.2020
6222 Clear 8 1019 93 9000 1 110 23:22 27.10.2020
6223 Clear 9 1019 93 10000 2 90 22:52 27.10.2020
6224 Clear 9 1019 93 10000 0.45 219 22:25 27.10.2020
6225 Clear 9 1019 81 10000 2 100 21:57 27.10.2020
6226 Clear 9 1019 87 10000 1 0 21:39 27.10.2020
6227 Clear 10 1019 87 10000 1 0 21:20 27.10.2020
6228 Clear 10 1019 87 10000 1 0 20:54 27.10.2020
6229 Clear 10 1020 81 10000 2 130 20:36 27.10.2020
6230 Clear 10 1020 87 10000 2 140 20:18 27.10.2020
6231 Clear 10 1020 87 10000 2 140 20:18 27.10.2020
6232 Clear 11 1019 81 10000 3 130 19:39 27.10.2020
6233 Clear 11 1019 81 10000 3 120 19:20 27.10.2020
6234 Clear 11 1019 76 10000 3 110 18:55 27.10.2020
6235 Clear 11 1019 76 10000 3 110 18:37 27.10.2020
6236 Clear 12 1019 76 10000 3 110 18:18 27.10.2020
6237 Clear 12 1019 76 10000 2 110 17:40 27.10.2020
6238 Clear 12 1019 71 10000 3 110 17:20 27.10.2020
6239 Clear 13 1019 76 10000 3 110 16:46 27.10.2020
6240 Clear 13 1019 76 10000 4 110 16:24 27.10.2020
6241 Clear 14 1019 71 10000 4 100 15:43 27.10.2020
6242 Clear 15 1018 72 10000 3 100 15:25 27.10.2020
6243 Clear 15 1019 72 10000 3 100 14:52 27.10.2020
6244 Clear 15 1019 72 10000 3 100 14:33 27.10.2020
6245 Clear 15 1019 72 10000 3 110 13:59 27.10.2020
6246 Clear 15 1019 71 10000 4 100 13:32 27.10.2020
6247 Clear 15 1019 76 10000 4 80 12:54 27.10.2020
6248 Clear 15 1019 71 10000 4 90 12:36 27.10.2020
6249 Clear 15 1019 71 10000 3 100 12:18 27.10.2020
6250 Clear 14 1019 76 10000 2 80 11:42 27.10.2020
6251 Clear 14 1019 76 10000 3 90 11:21 27.10.2020
6252 Clear 13 1019 76 10000 2 130 10:46 27.10.2020
6253 Clouds 12 1019 76 10000 2 130 10:22 27.10.2020
6254 Clouds 11 1019 81 10000 2 140 09:42 27.10.2020
6255 Clouds 12 1019 81 10000 2 130 09:23 27.10.2020
6256 Clouds 10 1019 87 10000 3 130 08:33 27.10.2020
6257 Rain 10 1019 87 9000 3 120 07:58 27.10.2020
6258 Clear 10 1019 87 10000 4 120 07:40 27.10.2020
6259 Clear 9 1019 87 10000 4 110 07:21 27.10.2020
6260 Rain 8 1018 93 10000 3 80 06:21 27.10.2020
6261 Clear 8 1018 87 10000 2 90 05:47 27.10.2020
6262 Rain 8 1018 87 10000 2 90 05:28 27.10.2020
6263 Clear 8 1018 87 10000 4 100 03:38 27.10.2020
6264 Clouds 8 1018 81 10000 2 100 01:24 27.10.2020
6265 Clouds 9 1018 81 10000 4 110 00:44 27.10.2020
6266 Clear 9 1018 81 10000 3 110 23:40 26.10.2020
6267 Clouds 9 1019 81 10000 4 110 23:18 26.10.2020
6268 Clear 9 1019 81 10000 4 110 22:44 26.10.2020
6269 Clear 9 1018 81 10000 4 110 22:19 26.10.2020
6270 Clear 9 1018 81 10000 4 110 21:41 26.10.2020
6271 Clear 10 1018 76 10000 4 110 21:19 26.10.2020
6272 Clear 10 1018 76 10000 5 110 20:49 26.10.2020
6273 Clear 10 1018 76 10000 6 110 20:27 26.10.2020
6274 Clear 10 1018 76 10000 6 110 20:27 26.10.2020
6275 Clear 10 1018 76 10000 6 110 19:58 26.10.2020
6276 Clear 10 1018 71 10000 6 110 19:40 26.10.2020
6277 Clear 11 1018 71 10000 5 110 19:20 26.10.2020
6278 Clear 11 1018 71 10000 5 110 18:42 26.10.2020
6279 Clear 11 1018 71 10000 5 110 18:22 26.10.2020
6280 Clear 12 1018 71 10000 4 110 17:45 26.10.2020
6281 Clear 12 1018 76 10000 4 110 17:24 26.10.2020
6282 Clear 12 1018 76 10000 4 110 16:57 26.10.2020
6283 Clear 13 1018 71 10000 4 110 16:38 26.10.2020
6284 Clear 13 1018 66 10000 5 120 16:19 26.10.2020
6285 Clear 14 1018 67 10000 4 110 15:39 26.10.2020
6286 Clear 14 1018 67 10000 3 110 15:19 26.10.2020
6287 Clear 14 1018 67 10000 5 110 14:46 26.10.2020
6288 Clear 14 1018 67 10000 4 120 14:21 26.10.2020
6289 Clear 14 1018 67 10000 4 120 13:42 26.10.2020
6290 Clear 14 1019 71 10000 4 110 13:23 26.10.2020
6291 Clear 14 1019 71 10000 4 110 12:47 26.10.2020
6292 Clear 14 1019 76 10000 4 110 12:27 26.10.2020
6293 Clear 14 1019 76 10000 4 110 11:55 26.10.2020
6294 Clear 13 1019 81 10000 3 110 11:37 26.10.2020
6295 Clear 13 1019 81 10000 3 110 11:18 26.10.2020
6296 Clear 12 1019 87 10000 4 100 10:42 26.10.2020
6297 Clear 12 1019 87 10000 4 100 10:42 26.10.2020
6298 Clear 11 1019 87 10000 4 110 10:24 26.10.2020
6299 Clear 11 1019 87 10000 3 110 09:48 26.10.2020
6300 Clear 10 1019 87 10000 3 110 09:25 26.10.2020
6301 Clear 10 1020 87 10000 3 120 08:31 26.10.2020
6302 Clear 9 1019 93 10000 3 110 07:56 26.10.2020
6303 Clear 9 1019 93 10000 3 110 07:56 26.10.2020
6304 Clear 9 1019 93 10000 3 110 07:37 26.10.2020
6305 Clear 8 1019 93 10000 3 100 06:49 26.10.2020
6306 Clear 9 1019 87 10000 3 120 04:47 26.10.2020
6307 Rain 9 1019 93 10000 2 120 04:18 26.10.2020
6308 Rain 9 1019 95 10000 2.96 122 02:27 26.10.2020
6309 Rain 9 1020 93 10000 1 0 01:29 26.10.2020
6310 Rain 9 1020 93 10000 2 130 00:33 26.10.2020
6311 Rain 9 1020 93 10000 2 110 23:42 25.10.2020
6312 Rain 9 1020 93 9000 3 80 23:21 25.10.2020
6313 Rain 9 1020 93 9000 3 90 22:41 25.10.2020
6314 Rain 9 1020 93 8000 4 100 22:23 25.10.2020
6315 Rain 9 1020 100 5000 3 100 21:45 25.10.2020
6316 Mist 9 1020 100 5000 3 100 21:26 25.10.2020
6317 Clouds 9 1020 93 7000 3 90 20:56 25.10.2020
6318 Clouds 9 1020 93 7000 3 90 20:38 25.10.2020
6319 Clouds 9 1020 93 8000 3 90 20:19 25.10.2020
6320 Clouds 9 1020 100 9000 2 100 19:48 25.10.2020
6321 Clouds 9 1020 93 7000 2 90 19:24 25.10.2020
6322 Clouds 9 1020 100 9000 3 70 18:55 25.10.2020
6323 Clouds 10 1020 100 9000 3 70 18:37 25.10.2020
6324 Clear 10 1020 93 10000 2 70 18:18 25.10.2020
6325 Clear 10 1020 93 10000 2 70 17:39 25.10.2020
6326 Clear 10 1019 87 10000 1 0 17:21 25.10.2020
6327 Clear 10 1019 87 10000 1 0 16:58 25.10.2020
6328 Clear 11 1019 87 10000 2 40 16:38 25.10.2020
6329 Clouds 12 1019 87 10000 3 40 16:18 25.10.2020
6330 Clouds 13 1019 87 10000 3 20 15:45 25.10.2020
6331 Clouds 13 1019 87 10000 3 20 15:25 25.10.2020
6332 Clouds 15 1019 62 10000 1.42 50 14:43 25.10.2020
6333 Clouds 14 1019 59 10000 2 270 14:24 25.10.2020
6334 Clouds 14 1019 67 10000 2 320 13:43 25.10.2020
6335 Clouds 15 1019 67 10000 2 290 13:21 25.10.2020
6336 Clouds 15 1019 67 10000 2 310 12:47 25.10.2020
6337 Clouds 15 1019 67 10000 2 310 12:26 25.10.2020
6338 Clouds 14 1019 67 10000 1 0 11:55 25.10.2020
6339 Clear 15 1019 71 10000 1 0 11:36 25.10.2020
6340 Clear 14 1019 71 10000 2 300 11:18 25.10.2020
6341 Clouds 15 1019 76 10000 2 280 10:44 25.10.2020
6342 Clouds 14 1019 76 10000 2 280 10:24 25.10.2020
6343 Clear 13 1019 81 10000 2 270 09:46 25.10.2020
6344 Clear 13 1018 81 10000 2 290 09:19 25.10.2020
6345 Clear 12 1018 93 10000 1 0 08:47 25.10.2020
6346 Clear 11 1018 93 10000 1 0 08:29 25.10.2020
6347 Clear 11 1018 100 10000 2 240 07:48 25.10.2020
6348 Clear 11 1018 100 10000 2 240 07:27 25.10.2020
6349 Clouds 10 1017 100 6000 2 280 06:48 25.10.2020
6350 Clear 10 1017 87 10000 2 320 05:43 25.10.2020
6351 Clouds 11 1016 87 10000 3 320 04:52 25.10.2020
6352 Clouds 12 1015 87 10000 5 310 02:58 25.10.2020
6353 Clear 13 1014 93 10000 4 290 01:20 25.10.2020
6354 Clear 13 1014 93 10000 4 280 00:42 25.10.2020
6355 Clouds 13 1013 93 10000 4 280 00:18 25.10.2020
6356 Clouds 13 1013 87 10000 4 280 23:43 24.10.2020
6357 Clear 13 1013 87 10000 4 280 23:24 24.10.2020
6358 Clear 13 1013 87 10000 3 270 22:42 24.10.2020
6359 Clear 13 1013 87 10000 3 270 22:23 24.10.2020
6360 Clouds 14 1013 76 10000 4 280 21:57 24.10.2020
6361 Clouds 14 1013 76 10000 5 270 21:38 24.10.2020
6362 Clear 15 1013 76 10000 5 270 21:19 24.10.2020
6363 Clouds 15 1012 76 10000 5 260 20:45 24.10.2020
6364 Clouds 15 1012 76 10000 5 260 20:22 24.10.2020
6365 Clouds 16 1012 72 10000 5 260 19:45 24.10.2020
6366 Clouds 15 1012 72 10000 5 260 19:25 24.10.2020
6367 Clouds 15 1012 76 9000 3 240 18:55 24.10.2020
6368 Clouds 15 1012 76 8000 3 240 18:36 24.10.2020
6369 Clear 15 1012 72 10000 2 240 17:56 24.10.2020
6370 Clear 15 1012 72 10000 2 240 17:37 24.10.2020
6371 Clear 16 1012 77 10000 3 250 17:19 24.10.2020
6372 Rain 16 1012 72 10000 3 240 16:41 24.10.2020
6373 Clear 17 1011 67 10000 3 260 16:18 24.10.2020
6374 Clear 17 1011 72 10000 4 270 15:38 24.10.2020
6375 Clear 18 1011 63 10000 3 260 15:19 24.10.2020
6376 Clear 17 1012 67 10000 3 290 14:43 24.10.2020
6377 Clouds 17 1012 63 10000 5 280 14:23 24.10.2020
6378 Clouds 17 1012 63 10000 3 260 13:44 24.10.2020
6379 Clear 17 1012 67 10000 3 270 13:22 24.10.2020
6380 Clouds 16 1012 72 10000 3 280 12:42 24.10.2020
6381 Clear 16 1012 67 10000 3 250 12:21 24.10.2020
6382 Clear 15 1012 72 10000 3 260 11:51 24.10.2020
6383 Clear 15 1012 72 10000 3 260 11:27 24.10.2020
6384 Clouds 15 1013 82 9000 2 280 10:52 24.10.2020
6385 Clouds 15 1013 82 9000 2 280 10:32 24.10.2020
6386 Clouds 13 1013 82 10000 1.39 244 09:50 24.10.2020
6387 Clouds 13 1013 87 10000 2 250 09:28 24.10.2020
6388 Clouds 13 1013 87 10000 2 250 08:58 24.10.2020
6389 Clear 12 1013 93 10000 2 230 08:19 24.10.2020
6390 Rain 12 1013 93 10000 1 220 07:53 24.10.2020
6391 Rain 12 1013 93 10000 1 220 07:53 24.10.2020
6392 Rain 12 1013 93 10000 2 250 07:24 24.10.2020
6393 Rain 12 1013 93 10000 2 220 06:53 24.10.2020
6394 Rain 12 1013 93 10000 2 260 06:22 24.10.2020
6395 Rain 13 1013 81 10000 2 270 02:30 24.10.2020
6396 Clear 14 1013 76 10000 3 270 01:19 24.10.2020
6397 Clear 14 1013 76 10000 2 260 00:40 24.10.2020
6398 Clear 14 1014 76 10000 4 260 00:21 24.10.2020
6399 Clear 14 1014 76 10000 3 260 23:47 23.10.2020
6400 Rain 14 1014 76 10000 3 260 23:23 23.10.2020
6401 Rain 14 1014 76 10000 3 260 23:23 23.10.2020
6402 Clear 14 1014 76 10000 3 260 22:56 23.10.2020
6403 Rain 14 1014 71 10000 4 260 22:37 23.10.2020
6404 Rain 15 1014 67 10000 4 260 22:18 23.10.2020
6405 Rain 15 1014 67 10000 4 270 21:39 23.10.2020
6406 Clear 15 1014 62 10000 4 260 21:21 23.10.2020
6407 Rain 15 1014 62 10000 3 260 20:39 23.10.2020
6408 Rain 15 1014 62 10000 3 260 20:20 23.10.2020
6409 Rain 16 1014 67 10000 2 240 19:48 23.10.2020
6410 Rain 15 1014 67 10000 2 240 19:30 23.10.2020
6411 Rain 16 1014 67 10000 2 230 18:52 23.10.2020
6412 Rain 16 1014 67 10000 2 230 18:30 23.10.2020
6413 Rain 16 1014 59 10000 3 260 17:48 23.10.2020
6414 Rain 16 1014 59 10000 3 260 17:23 23.10.2020
6415 Rain 16 1014 59 10000 4 270 16:56 23.10.2020
6416 Rain 16 1014 59 10000 4 270 16:56 23.10.2020
6417 Rain 16 1014 59 10000 4 270 16:56 23.10.2020
6418 Rain 16 1014 59 10000 4 270 16:56 23.10.2020
6419 Rain 17 1014 59 10000 3 260 16:36 23.10.2020
6420 Rain 18 1014 63 10000 2 250 15:59 23.10.2020
6421 Rain 17 1014 63 10000 2 250 15:41 23.10.2020
6422 Clear 18 1014 55 10000 2 250 15:23 23.10.2020
6423 Rain 18 1014 55 10000 3 240 14:50 23.10.2020
6424 Clear 18 1014 55 10000 3 240 14:32 23.10.2020
6425 Rain 19 1015 52 10000 3 240 13:44 23.10.2020
6426 Rain 18 1015 48 10000 3 250 13:24 23.10.2020
6427 Rain 18 1016 55 10000 3 230 12:52 23.10.2020
6428 Clear 18 1016 55 10000 3 230 12:31 23.10.2020
6429 Clear 18 1016 55 10000 3 240 11:59 23.10.2020
6430 Clear 18 1016 63 10000 3 250 11:41 23.10.2020
6431 Clear 16 1016 63 10000 2 260 11:20 23.10.2020
6432 Clear 15 1016 67 10000 3 260 10:39 23.10.2020
6433 Clear 15 1017 71 10000 3 260 10:20 23.10.2020
6434 Clear 13 1017 82 10000 3 250 09:43 23.10.2020
6435 Clear 13 1017 82 10000 3 250 09:23 23.10.2020
6436 Clear 13 1017 87 10000 3 240 08:52 23.10.2020
6437 Clear 12 1017 87 10000 3 240 08:28 23.10.2020
6438 Clouds 10 1016 100 9000 1 230 07:28 23.10.2020
6439 Clear 10 1017 100 10000 2 240 06:52 23.10.2020
6440 Clear 11 1017 93 10000 3 220 06:20 23.10.2020
6441 Clear 12 1017 87 10000 1 0 04:42 23.10.2020
6442 Rain 13 1018 76 10000 4 270 02:32 23.10.2020
6443 Clear 14 1017 71 10000 4 250 00:56 23.10.2020
6444 Clear 14 1018 71 10000 3 250 00:33 23.10.2020
6445 Clear 15 1018 67 10000 4 260 23:39 22.10.2020
6446 Clear 15 1018 67 10000 4 260 23:19 22.10.2020
6447 Rain 15 1017 62 10000 4 260 22:46 22.10.2020
6448 Clear 15 1017 62 10000 4 250 22:26 22.10.2020
6449 Rain 15 1017 62 10000 4 250 21:58 22.10.2020
6450 Rain 15 1017 62 10000 4 250 21:38 22.10.2020
6451 Rain 15 1017 59 10000 3 250 21:18 22.10.2020
6452 Rain 15 1017 59 10000 4 260 20:43 22.10.2020
6453 Rain 15 1017 59 10000 4 260 20:24 22.10.2020
6454 Rain 15 1018 62 10000 4 250 19:43 22.10.2020
6455 Rain 15 1017 62 10000 3 240 19:21 22.10.2020
6456 Clear 15 1017 62 10000 3 240 18:57 22.10.2020
6457 Rain 15 1017 62 10000 3 240 18:36 22.10.2020
6458 Clear 15 1017 67 10000 3 230 18:18 22.10.2020
6459 Rain 15 1017 62 10000 3 230 17:42 22.10.2020
6460 Rain 15 1017 62 10000 3 230 17:20 22.10.2020
6461 Clear 16 1017 55 10000 3 240 16:44 22.10.2020
6462 Clear 16 1017 55 10000 4 240 16:24 22.10.2020
6463 Clear 16 1017 51 10000 4 240 15:49 22.10.2020
6464 Rain 17 1017 48 10000 4 230 15:27 22.10.2020
6465 Clouds 17 1018 48 10000 5 240 14:50 22.10.2020
6466 Clouds 17 1018 48 10000 5 240 14:29 22.10.2020
6467 Clouds 17 1018 48 10000 4 240 13:58 22.10.2020
6468 Clouds 17 1018 48 10000 4 230 13:39 22.10.2020
6469 Clouds 16 1018 44 10000 4 240 13:20 22.10.2020
6470 Clouds 16 1018 41 10000 6 250 12:29 22.10.2020
6471 Clouds 16 1019 47 10000 5 240 11:54 22.10.2020
6472 Clouds 15 1019 47 10000 5 240 11:36 22.10.2020
6473 Clouds 14 1019 47 10000 5 240 11:18 22.10.2020
6474 Rain 14 1019 50 10000 4 240 10:44 22.10.2020
6475 Clouds 14 1019 50 10000 4 240 10:23 22.10.2020
6476 Clouds 13 1019 66 10000 2 240 09:42 22.10.2020
6477 Clouds 11 1018 76 10000 2 220 09:18 22.10.2020
6478 Clouds 10 1019 87 10000 1 0 08:39 22.10.2020
6479 Clouds 9 1018 100 10000 1 250 08:19 22.10.2020
6480 Clouds 9 1018 87 10000 2 240 07:43 22.10.2020
6481 Clouds 9 1018 93 10000 2 230 06:59 22.10.2020
6482 Clouds 8 1018 100 10000 2 240 06:37 22.10.2020
6483 Rain 9 1018 93 10000 2 250 05:42 22.10.2020
6484 Clouds 9 1018 93 10000 2 230 05:22 22.10.2020
6485 Rain 9 1019 87 10000 2 230 02:40 22.10.2020
6486 Rain 9 1019 87 10000 1 270 00:36 22.10.2020
6487 Rain 9 1018 81 10000 2 240 00:18 22.10.2020
6488 Rain 9 1019 87 10000 2 240 23:38 21.10.2020
6489 Rain 9 1019 81 10000 2 260 22:58 21.10.2020
6490 Rain 9 1019 81 10000 2 260 22:36 21.10.2020
6491 Clouds 9 1019 81 10000 2 260 22:18 21.10.2020
6492 Clouds 9 1019 81 10000 1 240 21:42 21.10.2020
6493 Clouds 9 1019 81 10000 2 240 21:19 21.10.2020
6494 Rain 9 1019 81 10000 1 0 20:48 21.10.2020
6495 Clouds 9 1019 76 10000 2 240 20:19 21.10.2020
6496 Rain 9 1020 76 10000 3 240 19:59 21.10.2020
6497 Rain 9 1020 76 10000 3 240 19:38 21.10.2020
6498 Rain 10 1019 71 10000 3 230 19:18 21.10.2020
6499 Rain 10 1020 71 10000 2 230 18:46 21.10.2020
6500 Rain 10 1019 71 10000 2 230 18:25 21.10.2020
6501 Clouds 10 1019 71 10000 3 230 17:45 21.10.2020
6502 Rain 10 1019 71 10000 3 230 17:20 21.10.2020
6503 Rain 10 1019 71 10000 3 230 16:55 21.10.2020
6504 Rain 11 1020 66 10000 3 240 16:36 21.10.2020
6505 Rain 11 1020 66 10000 4 240 16:18 21.10.2020
6506 Rain 11 1020 66 10000 4 240 15:42 21.10.2020
6507 Rain 11 1020 66 10000 5 240 15:20 21.10.2020
6508 Rain 11 1020 66 10000 6 240 14:44 21.10.2020
6509 Rain 11 1020 66 10000 6 240 14:26 21.10.2020
6510 Rain 11 1020 66 10000 5 230 13:45 21.10.2020
6511 Rain 10 1020 66 10000 5 210 13:26 21.10.2020
6512 Rain 10 1021 66 10000 4 190 12:48 21.10.2020
6513 Rain 10 1021 70 10000 4 180 12:24 21.10.2020
6514 Rain 10 1021 70 10000 4 180 11:59 21.10.2020
6515 Rain 9 1022 70 10000 5 190 11:40 21.10.2020
6516 Rain 9 1022 70 10000 5 190 11:40 21.10.2020
6517 Rain 9 1022 70 10000 5 190 11:40 21.10.2020
6518 Rain 9 1022 70 10000 5 190 11:19 21.10.2020
6519 Rain 8 1023 70 10000 3 210 10:43 21.10.2020
6520 Rain 8 1023 70 10000 3 210 10:23 21.10.2020
6521 Rain 7 1023 85 10000 0.45 142 09:52 21.10.2020
6522 Rain 7 1023 70 10000 4 200 09:30 21.10.2020
6523 Rain 6 1024 81 10000 3 200 08:43 21.10.2020
6524 Rain 5 1024 86 10000 2 200 08:25 21.10.2020
6525 Rain 5 1024 86 10000 2 200 07:58 21.10.2020
6526 Clouds 5 1024 86 10000 3 210 07:31 21.10.2020
6527 Clouds 4 1025 86 10000 2 210 06:50 21.10.2020
6528 Clouds 4 1025 86 10000 2 210 06:26 21.10.2020
6529 Rain 5 1026 100 10000 2 220 04:46 21.10.2020
6530 Rain 3 1027 100 7000 1 270 00:51 21.10.2020
6531 Clouds 4 1027 100 7000 1 260 23:49 20.10.2020
6532 Clouds 4 1027 100 7000 1 230 22:52 20.10.2020
6533 Clouds 4 1027 100 7000 1 230 22:28 20.10.2020
6534 Clouds 5 1026 100 6000 1 220 21:50 20.10.2020
6535 Clouds 5 1026 100 6000 2 210 21:20 20.10.2020
6536 Clouds 6 1026 93 7000 1 250 20:45 20.10.2020
6537 Clouds 6 1026 93 7000 1 250 20:26 20.10.2020
6538 Clouds 6 1026 93 7000 1 250 19:58 20.10.2020
6539 Clouds 6 1026 93 8000 1 250 19:40 20.10.2020
6540 Clouds 7 1026 80 9000 1 250 19:21 20.10.2020
6541 Clouds 7 1026 75 10000 2 250 18:47 20.10.2020
6542 Clouds 8 1026 70 10000 3 280 18:27 20.10.2020
6543 Clouds 8 1026 65 10000 3 290 17:43 20.10.2020
6544 Clouds 9 1026 66 10000 4 290 17:24 20.10.2020
6545 Clouds 10 1026 61 10000 4 300 16:48 20.10.2020
6546 Clouds 10 1026 61 10000 4 300 16:27 20.10.2020
6547 Clouds 10 1026 61 10000 5 290 15:51 20.10.2020
6548 Clouds 11 1026 61 10000 5 290 15:33 20.10.2020
6549 Clouds 11 1026 61 10000 5 280 14:59 20.10.2020
6550 Clouds 11 1025 61 10000 6 290 14:39 20.10.2020
6551 Clouds 11 1025 61 10000 6 290 14:21 20.10.2020
6552 Clouds 12 1025 57 10000 7 300 13:44 20.10.2020
6553 Clouds 12 1025 57 10000 8 290 13:23 20.10.2020
6554 Clouds 12 1025 57 10000 8 290 12:56 20.10.2020
6555 Clouds 11 1025 61 10000 8 290 12:38 20.10.2020
6556 Clouds 10 1025 66 10000 7 280 12:20 20.10.2020
6557 Clouds 10 1025 70 10000 7 280 11:37 20.10.2020
6558 Clouds 10 1025 70 10000 7 280 11:18 20.10.2020
6559 Clouds 8 1025 75 10000 6 270 10:29 20.10.2020
6560 Clouds 8 1025 81 10000 5 270 09:51 20.10.2020
6561 Clouds 6 1025 81 10000 5 270 09:21 20.10.2020
6562 Clouds 6 1025 86 10000 5 270 08:58 20.10.2020
6563 Clouds 6 1025 93 10000 4 270 08:36 20.10.2020
6564 Clear 4 1024 93 10000 4 270 07:52 20.10.2020
6565 Clear 3 1024 100 10000 3 240 07:25 20.10.2020
6566 Clear 3 1024 100 10000 3 230 06:30 20.10.2020
6567 Clear 3 1024 100 10000 3 240 05:43 20.10.2020
6568 Clear 4 1024 93 10000 2 240 03:55 20.10.2020
6569 Clear 4 1024 93 10000 3 230 02:18 20.10.2020
6570 Clear 4 1023 93 10000 2 240 00:58 20.10.2020
6571 Clear 4 1023 93 10000 2 240 00:39 20.10.2020
6572 Clear 5 1023 86 10000 2 250 00:19 20.10.2020
6573 Clear 5 1023 86 10000 2 250 23:40 19.10.2020
6574 Clear 5 1023 86 10000 3 230 23:19 19.10.2020
6575 Clear 5 1023 86 10000 2 230 22:43 19.10.2020
6576 Clear 4 1023 93 9000 2 240 22:21 19.10.2020
6577 Clear 5 1022 86 9000 2 240 21:43 19.10.2020
6578 Clear 6 1022 80 9000 3 230 21:21 19.10.2020
6579 Clear 6 1022 75 9000 2 250 20:46 19.10.2020
6580 Clouds 6 1022 75 9000 2 250 20:27 19.10.2020
6581 Clear 7 1022 75 10000 2 280 19:48 19.10.2020
6582 Clear 7 1022 75 10000 2 280 19:22 19.10.2020
6583 Clear 7 1021 70 10000 3 290 18:54 19.10.2020
6584 Clear 8 1021 65 10000 3 280 18:35 19.10.2020
6585 Clear 8 1021 61 10000 3 270 17:58 19.10.2020
6586 Clouds 9 1020 61 10000 3 280 17:40 19.10.2020
6587 Clouds 9 1020 57 10000 4 300 17:21 19.10.2020
6588 Clear 10 1020 57 10000 3 290 16:43 19.10.2020
6589 Clear 10 1020 57 10000 3 290 16:22 19.10.2020
6590 Clear 11 1019 59 10000 3.98 293 15:41 19.10.2020
6591 Clear 11 1019 56 10000 0.89 184 15:23 19.10.2020
6592 Clear 13 1019 55 10000 0.89 198 14:51 19.10.2020
6593 Clouds 13 1019 59 10000 0.45 230 14:24 19.10.2020
6594 Clouds 11 1019 64 10000 0.45 149 13:52 19.10.2020
6595 Clouds 12 1019 61 10000 0.45 194 13:31 19.10.2020
6596 Clouds 11 1020 47 10000 4.72 297 12:50 19.10.2020
6597 Clouds 11 1018 67 10000 0.89 257 12:32 19.10.2020
6598 Clouds 11 990 50 10000 4.94 300 11:51 19.10.2020
6599 Clouds 10 1018 76 10000 7 280 11:25 19.10.2020
6600 Clouds 9 1018 76 10000 7 280 10:56 19.10.2020
6601 Clouds 9 1018 76 10000 7 280 10:37 19.10.2020
6602 Rain 9 1018 81 10000 6 260 10:18 19.10.2020
6603 Clouds 9 1018 87 10000 5 260 09:42 19.10.2020
6604 Clouds 8 1018 87 10000 5 250 09:19 19.10.2020
6605 Clouds 8 1017 87 10000 6 260 08:47 19.10.2020
6606 Clouds 8 1017 87 10000 5 260 08:22 19.10.2020
6607 Clouds 7 1017 87 10000 5 260 07:37 19.10.2020
6608 Clouds 7 1016 87 10000 5 260 07:18 19.10.2020
6609 Clouds 7 1016 87 10000 5 260 06:18 19.10.2020
6610 Clouds 7 1016 81 10000 3 240 03:48 19.10.2020
6611 Clouds 6 1016 81 10000 3 230 02:23 19.10.2020
6612 Clouds 6 1016 81 10000 4 260 00:46 19.10.2020
6613 Clouds 7 1016 75 10000 5 250 00:19 19.10.2020
6614 Clouds 6 1016 87 10000 4 250 23:43 18.10.2020
6615 Clouds 6 1016 81 10000 4 260 23:21 18.10.2020
6616 Clouds 6 1016 81 10000 5 260 22:46 18.10.2020
6617 Clouds 7 1016 75 10000 6 270 22:21 18.10.2020
6618 Clouds 7 1015 81 10000 6 260 21:50 18.10.2020
6619 Clouds 7 1015 81 10000 6 260 21:30 18.10.2020
6620 Clouds 8 1015 75 10000 8 270 20:56 18.10.2020
6621 Clouds 8 1015 81 9000 7 280 20:38 18.10.2020
6622 Clouds 8 1015 76 10000 4 240 20:19 18.10.2020
6623 Rain 9 1015 76 10000 4 250 19:42 18.10.2020
6624 Clouds 9 1015 76 10000 4 230 19:20 18.10.2020
6625 Clouds 9 1014 76 10000 3 230 18:46 18.10.2020
6626 Clouds 9 1014 76 10000 3 240 18:24 18.10.2020
6627 Clouds 9 1014 70 10000 4 250 17:43 18.10.2020
6628 Clouds 9 1014 70 10000 4 250 17:24 18.10.2020
6629 Clouds 9 1014 70 10000 4 240 16:44 18.10.2020
6630 Clouds 9 1014 70 10000 4 240 16:26 18.10.2020
6631 Clouds 9 1014 70 10000 4 250 15:57 18.10.2020
6632 Clouds 9 1014 70 10000 5 260 15:38 18.10.2020
6633 Clouds 10 1014 66 10000 6 270 15:18 18.10.2020
6634 Clouds 9 1014 66 10000 6 260 14:47 18.10.2020
6635 Clouds 10 1013 66 10000 5 260 14:27 18.10.2020
6636 Clouds 10 1014 66 10000 4 270 13:47 18.10.2020
6637 Clouds 10 1014 66 10000 4 270 13:27 18.10.2020
6638 Clouds 10 1014 61 10000 5 250 12:59 18.10.2020
6639 Clouds 10 1013 66 10000 4 290 12:40 18.10.2020
6640 Clouds 9 1013 65 10000 5 310 12:20 18.10.2020
6641 Clouds 10 1013 65 10000 6 290 11:40 18.10.2020
6642 Clouds 10 1013 65 10000 6 290 11:40 18.10.2020
6643 Clouds 8 1013 70 10000 6 290 11:22 18.10.2020
6644 Clouds 8 1013 75 10000 6 290 10:40 18.10.2020
6645 Clouds 7 1012 81 10000 8 300 10:20 18.10.2020
6646 Clouds 6 1012 86 10000 5 290 09:49 18.10.2020
6647 Clouds 5 1011 93 10000 6 290 09:21 18.10.2020
6648 Clouds 5 1011 93 10000 6 290 08:56 18.10.2020
6649 Clouds 6 1011 87 10000 6 280 08:37 18.10.2020
6650 Clouds 6 1010 86 10000 6 270 08:19 18.10.2020
6651 Clouds 6 1009 86 10000 6 280 06:51 18.10.2020
6652 Clouds 7 1008 87 10000 5 290 03:59 18.10.2020
6653 Clouds 7 1008 87 10000 7 280 02:55 18.10.2020
6654 Clouds 8 1008 81 10000 7 280 01:38 18.10.2020
6655 Clouds 8 1007 87 10000 8 270 00:48 18.10.2020
6656 Clouds 8 1007 87 10000 8 270 00:24 18.10.2020
6657 Clouds 9 1007 87 10000 6 270 23:43 17.10.2020
6658 Clouds 9 1007 87 10000 7 270 23:21 17.10.2020
6659 Clouds 9 1007 87 10000 7 260 22:59 17.10.2020
6660 Clouds 9 1007 87 10000 7 260 22:39 17.10.2020
6661 Clouds 9 1006 93 10000 6 260 22:19 17.10.2020
6662 Clouds 9 1006 93 10000 5 250 21:43 17.10.2020
6663 Clouds 9 1006 93 10000 5 260 21:21 17.10.2020
6664 Clouds 9 1006 100 10000 5 260 20:46 17.10.2020
6665 Clouds 9 1006 93 10000 5 250 20:21 17.10.2020
6666 Clouds 10 1006 93 10000 5 250 19:45 17.10.2020
6667 Clouds 10 1005 93 10000 5 250 19:24 17.10.2020
6668 Clouds 10 1005 93 8000 5 250 18:47 17.10.2020
6669 Clouds 10 1005 93 8000 5 250 18:29 17.10.2020
6670 Clouds 10 1005 100 10000 4 250 17:58 17.10.2020
6671 Drizzle 10 1005 100 6000 5 260 17:39 17.10.2020
6672 Drizzle 10 1004 100 3700 5 260 17:20 17.10.2020
6673 Mist 10 1004 100 4000 5 250 16:47 17.10.2020
6674 Clouds 10 1004 100 9000 4 270 16:22 17.10.2020
6675 Clouds 10 1004 100 10000 2 280 15:43 17.10.2020
6676 Rain 10 1004 100 10000 2 300 15:23 17.10.2020
6677 Rain 10 1004 100 10000 2 300 14:59 17.10.2020
6678 Rain 10 1004 100 10000 3 320 14:38 17.10.2020
6679 Rain 10 1004 100 10000 3 50 14:19 17.10.2020
6680 Rain 10 1004 100 10000 6 60 13:45 17.10.2020
6681 Rain 10 1004 100 10000 6 60 13:26 17.10.2020
6682 Rain 10 1005 100 10000 6 60 12:58 17.10.2020
6683 Rain 9 1007 100 5000 4 10 12:38 17.10.2020
6684 Rain 9 1007 100 7000 4 40 12:18 17.10.2020
6685 Rain 9 1007 100 3500 5 40 11:37 17.10.2020
6686 Rain 9 1008 100 1400 3 20 11:18 17.10.2020
6687 Rain 9 1009 100 7000 5 30 10:31 17.10.2020
6688 Rain 9 1009 100 4100 5 30 09:51 17.10.2020
6689 Rain 9 1009 100 4100 5 30 09:32 17.10.2020
6690 Rain 9 1010 100 5000 5 50 08:55 17.10.2020
6691 Rain 9 1010 100 9000 4 60 08:24 17.10.2020
6692 Rain 9 1010 100 9000 4 60 08:24 17.10.2020
6693 Rain 9 1011 87 10000 5 60 07:44 17.10.2020
6694 Rain 10 1011 87 10000 4 60 06:56 17.10.2020
6695 Rain 10 1012 81 10000 5 60 05:32 17.10.2020
6696 Clouds 9 1014 93 10000 4 70 02:30 17.10.2020
6697 Clouds 9 1014 87 10000 3 50 01:56 17.10.2020
6698 Clouds 9 1014 87 10000 3 40 00:47 17.10.2020
6699 Clouds 9 1014 93 10000 4 60 23:54 16.10.2020
6700 Clouds 9 1015 93 10000 3 60 23:23 16.10.2020
6701 Clouds 9 1015 93 10000 2 30 22:44 16.10.2020
6702 Clouds 10 1015 93 9000 2 50 22:24 16.10.2020
6703 Clouds 9 1015 93 9000 2 50 21:55 16.10.2020
6704 Rain 10 1014 81 10000 3 40 21:36 16.10.2020
6705 Rain 10 1014 81 10000 4 60 21:18 16.10.2020
6706 Clouds 10 1014 81 10000 4 40 20:40 16.10.2020
6707 Clouds 10 1014 81 10000 4 50 20:22 16.10.2020
6708 Clouds 10 1014 87 10000 5 40 19:41 16.10.2020
6709 Clouds 10 1014 87 10000 4 40 19:23 16.10.2020
6710 Clouds 11 1014 81 10000 4 40 18:51 16.10.2020
6711 Clouds 11 1014 81 10000 4 10 18:32 16.10.2020
6712 Clouds 11 1013 87 10000 5 10 17:46 16.10.2020
6713 Clouds 11 1013 87 10000 5 10 17:28 16.10.2020
6714 Clouds 12 1013 81 10000 4 20 16:49 16.10.2020
6715 Clouds 13 1013 81 10000 4 20 16:31 16.10.2020
6716 Rain 13 1013 76 10000 3 30 15:46 16.10.2020
6717 Rain 13 1014 76 10000 3 40 15:24 16.10.2020
6718 Rain 14 1013 76 10000 3 360 14:43 16.10.2020
6719 Rain 14 1013 82 10000 3 360 14:20 16.10.2020
6720 Rain 14 1013 82 10000 3 360 13:57 16.10.2020
6721 Rain 14 1013 82 10000 3 360 13:57 16.10.2020
6722 Clouds 14 1013 76 10000 3 20 13:38 16.10.2020
6723 Clouds 13 1013 76 10000 3 360 13:19 16.10.2020
6724 Rain 14 1014 76 10000 2 360 12:41 16.10.2020
6725 Clouds 13 1013 71 10000 1 0 12:19 16.10.2020
6726 Clouds 13 1014 71 10000 1 0 11:43 16.10.2020
6727 Clouds 12 1013 76 10000 2 360 11:22 16.10.2020
6728 Clouds 15 1013 76 10000 2 10 10:52 16.10.2020
6729 Clouds 14 1013 76 10000 1 0 10:30 16.10.2020
6730 Rain 13 1013 81 10000 2 20 09:44 16.10.2020
6731 Clouds 13 1013 81 10000 2 40 09:25 16.10.2020
6732 Clouds 12 1013 81 10000 2 40 08:59 16.10.2020
6733 Clouds 12 1013 81 10000 3 360 08:36 16.10.2020
6734 Clouds 12 1013 87 10000 3 360 07:53 16.10.2020
6735 Rain 11 1012 87 10000 3 10 07:32 16.10.2020
6736 Clouds 11 1012 81 10000 3 340 06:44 16.10.2020
6737 Rain 12 1012 87 10000 2 240 04:37 16.10.2020
6738 Rain 12 1012 87 10000 3 220 03:48 16.10.2020
6739 Rain 13 1013 71 10000 3 210 01:26 16.10.2020
6740 Rain 13 1013 66 10000 2 210 00:28 16.10.2020
6741 Rain 13 1013 62 10000 3 210 23:41 15.10.2020
6742 Rain 14 1014 58 10000 3 210 23:20 15.10.2020
6743 Rain 14 1014 58 10000 3 210 22:51 15.10.2020
6744 Rain 14 1014 58 10000 2 210 22:28 15.10.2020
6745 Rain 14 1014 58 10000 2 210 21:57 15.10.2020
6746 Rain 14 1014 58 10000 1 0 21:39 15.10.2020
6747 Rain 14 1014 58 10000 2 200 21:20 15.10.2020
6748 Rain 14 1014 54 10000 2 170 20:46 15.10.2020
6749 Rain 14 1014 54 10000 3 190 20:21 15.10.2020
6750 Rain 15 1014 54 10000 3 190 19:46 15.10.2020
6751 Rain 15 1015 54 10000 3 190 19:23 15.10.2020
6752 Clouds 15 1014 54 10000 3 200 18:45 15.10.2020
6753 Clouds 15 1015 51 10000 3 200 18:26 15.10.2020
6754 Clouds 16 1015 51 10000 3 200 17:58 15.10.2020
6755 Rain 16 1014 51 10000 3 190 17:39 15.10.2020
6756 Clouds 16 1014 48 10000 2 210 17:20 15.10.2020
6757 Clouds 16 1014 48 10000 2 210 17:20 15.10.2020
6758 Clouds 17 1014 42 10000 4 220 16:44 15.10.2020
6759 Clouds 18 1015 39 10000 6 230 16:21 15.10.2020
6760 Clouds 18 1015 42 10000 5 210 15:44 15.10.2020
6761 Clear 18 1015 39 10000 5 220 15:25 15.10.2020
6762 Clear 19 1015 39 10000 4 200 14:50 15.10.2020
6763 Clouds 19 1015 45 10000 3 200 14:24 15.10.2020
6764 Clouds 19 1015 45 10000 3 200 13:57 15.10.2020
6765 Clouds 19 1015 45 10000 3 200 13:57 15.10.2020
6766 Clouds 18 1015 48 10000 4 210 13:38 15.10.2020
6767 Clouds 18 1015 48 10000 4 220 13:18 15.10.2020
6768 Clouds 18 1016 45 10000 3 220 12:40 15.10.2020
6769 Clouds 17 1016 48 10000 4 220 12:21 15.10.2020
6770 Clouds 17 1016 51 10000 5 230 11:43 15.10.2020
6771 Clouds 17 1016 54 10000 4 230 11:20 15.10.2020
6772 Clouds 16 1016 58 10000 3 230 10:46 15.10.2020
6773 Clear 15 1016 58 10000 3 230 10:27 15.10.2020
6774 Clear 13 1016 66 10000 3 210 09:41 15.10.2020
6775 Clear 12 1016 71 10000 2 200 09:21 15.10.2020
6776 Clear 11 1015 71 10000 3 210 08:54 15.10.2020
6777 Clear 11 1015 71 10000 3 210 08:33 15.10.2020
6778 Clear 8 1015 75 10000 3 200 07:41 15.10.2020
6779 Clear 8 1015 75 10000 4 200 06:33 15.10.2020
6780 Clear 9 1015 66 10000 4 200 04:19 15.10.2020
6781 Clear 7 1015 93 10000 2 170 01:46 15.10.2020
6782 Clear 8 1015 87 10000 1 0 01:20 15.10.2020
6783 Clear 8 1015 87 10000 1 0 00:24 15.10.2020
6784 Clear 8 1014 87 10000 1 0 23:54 14.10.2020
6785 Clear 8 1014 87 10000 1 0 23:54 14.10.2020
6786 Clear 9 1014 87 10000 1 0 23:36 14.10.2020
6787 Clear 9 1014 75 10000 2 210 23:18 14.10.2020
6788 Clear 11 1014 76 10000 2 220 22:42 14.10.2020
6789 Clear 10 1014 70 10000 3 220 22:24 14.10.2020
6790 Clear 11 1014 71 10000 3 220 21:44 14.10.2020
6791 Clear 11 1014 66 10000 3 220 21:23 14.10.2020
6792 Clear 12 1013 66 10000 3 230 20:46 14.10.2020
6793 Clear 12 1013 66 10000 3 220 20:20 14.10.2020
6794 Clear 12 1013 66 10000 2 220 19:51 14.10.2020
6795 Clear 12 1013 66 10000 3 220 19:29 14.10.2020
6796 Clear 13 1012 62 10000 1 0 18:55 14.10.2020
6797 Clear 13 1012 62 10000 1 0 18:37 14.10.2020
6798 Clear 13 1012 58 10000 2 210 18:18 14.10.2020
6799 Clear 13 1012 58 10000 2 210 18:18 14.10.2020
6800 Clear 14 1012 54 10000 3 220 17:42 14.10.2020
6801 Clear 14 1011 51 10000 5 220 17:20 14.10.2020
6802 Clear 16 1011 48 10000 5 220 16:43 14.10.2020
6803 Clear 16 1010</